<?xml version="1.0" encoding="UTF-8" standalone="no" ?>
<gpx xmlns="http://www.topografix.com/GPX/1/1" xmlns:xsi="http://www.w3.org/2001/XMLSchema-instance" xsi:schemaLocation="http://www.topografix.com/GPX/1/1 http://www.topografix.com/GPX/1/1/gpx.xsd" version="1.1" creator="VisuGPX - https://www.visugpx.com">
  <metadata>
    <name>Crémieu Ambléon</name>
  </metadata>
  <trk>
    <name><![CDATA[Crémieu Ambléon_1]]></name>
    <trkseg>
      <trkpt lat="45.72315" lon="5.25916">
        <ele>276.2</ele>
        <time>2022-06-19T04:53:05Z</time>
      </trkpt>
      <trkpt lat="45.72313" lon="5.2592">
        <ele>276.2</ele>
        <time>2022-06-19T04:53:06Z</time>
      </trkpt>
      <trkpt lat="45.72296" lon="5.25941">
        <ele>276.8</ele>
        <time>2022-06-19T04:53:11Z</time>
      </trkpt>
      <trkpt lat="45.72291" lon="5.25952">
        <ele>277.4</ele>
        <time>2022-06-19T04:53:14Z</time>
      </trkpt>
      <trkpt lat="45.72285" lon="5.25966">
        <ele>277.6</ele>
        <time>2022-06-19T04:53:17Z</time>
      </trkpt>
      <trkpt lat="45.72263" lon="5.25996">
        <ele>278.2</ele>
        <time>2022-06-19T04:53:24Z</time>
      </trkpt>
      <trkpt lat="45.72259" lon="5.26006">
        <ele>278.2</ele>
        <time>2022-06-19T04:53:26Z</time>
      </trkpt>
      <trkpt lat="45.72252" lon="5.26016">
        <ele>278.8</ele>
        <time>2022-06-19T04:53:29Z</time>
      </trkpt>
      <trkpt lat="45.72243" lon="5.26037">
        <ele>279.4</ele>
        <time>2022-06-19T04:53:33Z</time>
      </trkpt>
      <trkpt lat="45.7224" lon="5.26046">
        <ele>279.6</ele>
        <time>2022-06-19T04:53:35Z</time>
      </trkpt>
      <trkpt lat="45.72231" lon="5.26073">
        <ele>280.4</ele>
        <time>2022-06-19T04:53:40Z</time>
      </trkpt>
      <trkpt lat="45.72226" lon="5.26085">
        <ele>280.6</ele>
        <time>2022-06-19T04:53:42Z</time>
      </trkpt>
      <trkpt lat="45.72212" lon="5.26117">
        <ele>281.8</ele>
        <time>2022-06-19T04:53:49Z</time>
      </trkpt>
      <trkpt lat="45.72204" lon="5.26129">
        <ele>282.2</ele>
        <time>2022-06-19T04:53:52Z</time>
      </trkpt>
      <trkpt lat="45.72198" lon="5.26137">
        <ele>283</ele>
        <time>2022-06-19T04:53:54Z</time>
      </trkpt>
      <trkpt lat="45.72182" lon="5.26162">
        <ele>284</ele>
        <time>2022-06-19T04:54:00Z</time>
      </trkpt>
      <trkpt lat="45.72155" lon="5.26202">
        <ele>285</ele>
        <time>2022-06-19T04:54:09Z</time>
      </trkpt>
      <trkpt lat="45.72151" lon="5.26207">
        <ele>285.2</ele>
        <time>2022-06-19T04:54:10Z</time>
      </trkpt>
      <trkpt lat="45.72138" lon="5.26225">
        <ele>285.6</ele>
        <time>2022-06-19T04:54:14Z</time>
      </trkpt>
      <trkpt lat="45.72136" lon="5.2623">
        <ele>285.8</ele>
        <time>2022-06-19T04:54:15Z</time>
      </trkpt>
      <trkpt lat="45.72131" lon="5.26239">
        <ele>286.2</ele>
        <time>2022-06-19T04:54:17Z</time>
      </trkpt>
      <trkpt lat="45.72125" lon="5.26256">
        <ele>286.6</ele>
        <time>2022-06-19T04:54:20Z</time>
      </trkpt>
      <trkpt lat="45.72123" lon="5.26262">
        <ele>287</ele>
        <time>2022-06-19T04:54:21Z</time>
      </trkpt>
      <trkpt lat="45.72122" lon="5.26267">
        <ele>287.4</ele>
        <time>2022-06-19T04:54:22Z</time>
      </trkpt>
      <trkpt lat="45.72119" lon="5.26281">
        <ele>287.6</ele>
        <time>2022-06-19T04:54:24Z</time>
      </trkpt>
      <trkpt lat="45.72112" lon="5.26318">
        <ele>288.4</ele>
        <time>2022-06-19T04:54:30Z</time>
      </trkpt>
      <trkpt lat="45.72111" lon="5.26325">
        <ele>288.6</ele>
        <time>2022-06-19T04:54:31Z</time>
      </trkpt>
      <trkpt lat="45.72105" lon="5.26356">
        <ele>289.4</ele>
        <time>2022-06-19T04:54:36Z</time>
      </trkpt>
      <trkpt lat="45.72099" lon="5.26382">
        <ele>290</ele>
        <time>2022-06-19T04:54:40Z</time>
      </trkpt>
      <trkpt lat="45.72098" lon="5.26395">
        <ele>290.4</ele>
        <time>2022-06-19T04:54:42Z</time>
      </trkpt>
      <trkpt lat="45.72094" lon="5.26406">
        <ele>290.6</ele>
        <time>2022-06-19T04:54:44Z</time>
      </trkpt>
      <trkpt lat="45.72092" lon="5.26413">
        <ele>290.8</ele>
        <time>2022-06-19T04:54:45Z</time>
      </trkpt>
      <trkpt lat="45.72087" lon="5.26436">
        <ele>291.4</ele>
        <time>2022-06-19T04:54:49Z</time>
      </trkpt>
      <trkpt lat="45.72085" lon="5.2645">
        <ele>291.4</ele>
        <time>2022-06-19T04:54:51Z</time>
      </trkpt>
      <trkpt lat="45.72085" lon="5.26456">
        <ele>291.6</ele>
        <time>2022-06-19T04:54:52Z</time>
      </trkpt>
      <trkpt lat="45.72083" lon="5.26489">
        <ele>292.4</ele>
        <time>2022-06-19T04:54:57Z</time>
      </trkpt>
      <trkpt lat="45.72083" lon="5.26502">
        <ele>292.6</ele>
        <time>2022-06-19T04:54:59Z</time>
      </trkpt>
      <trkpt lat="45.72086" lon="5.26551">
        <ele>293.6</ele>
        <time>2022-06-19T04:55:06Z</time>
      </trkpt>
      <trkpt lat="45.72086" lon="5.26557">
        <ele>293.6</ele>
        <time>2022-06-19T04:55:07Z</time>
      </trkpt>
      <trkpt lat="45.72088" lon="5.26596">
        <ele>294.6</ele>
        <time>2022-06-19T04:55:13Z</time>
      </trkpt>
      <trkpt lat="45.72087" lon="5.26601">
        <ele>294.6</ele>
        <time>2022-06-19T04:55:14Z</time>
      </trkpt>
      <trkpt lat="45.72086" lon="5.26614">
        <ele>295.2</ele>
        <time>2022-06-19T04:55:16Z</time>
      </trkpt>
      <trkpt lat="45.72085" lon="5.26622">
        <ele>295.6</ele>
        <time>2022-06-19T04:55:17Z</time>
      </trkpt>
      <trkpt lat="45.72084" lon="5.26628">
        <ele>296</ele>
        <time>2022-06-19T04:55:18Z</time>
      </trkpt>
      <trkpt lat="45.72082" lon="5.26646">
        <ele>296.2</ele>
        <time>2022-06-19T04:55:21Z</time>
      </trkpt>
      <trkpt lat="45.7208" lon="5.26653">
        <ele>296.4</ele>
        <time>2022-06-19T04:55:22Z</time>
      </trkpt>
      <trkpt lat="45.7207" lon="5.2668">
        <ele>297</ele>
        <time>2022-06-19T04:55:27Z</time>
      </trkpt>
      <trkpt lat="45.72067" lon="5.26685">
        <ele>297</ele>
        <time>2022-06-19T04:55:28Z</time>
      </trkpt>
      <trkpt lat="45.72057" lon="5.26707">
        <ele>298</ele>
        <time>2022-06-19T04:55:32Z</time>
      </trkpt>
      <trkpt lat="45.72054" lon="5.26714">
        <ele>298.2</ele>
        <time>2022-06-19T04:55:33Z</time>
      </trkpt>
      <trkpt lat="45.72052" lon="5.26719">
        <ele>298.4</ele>
        <time>2022-06-19T04:55:34Z</time>
      </trkpt>
      <trkpt lat="45.7205" lon="5.26725">
        <ele>298.4</ele>
        <time>2022-06-19T04:55:35Z</time>
      </trkpt>
      <trkpt lat="45.72039" lon="5.26747">
        <ele>299.2</ele>
        <time>2022-06-19T04:55:39Z</time>
      </trkpt>
      <trkpt lat="45.72028" lon="5.26771">
        <ele>299.8</ele>
        <time>2022-06-19T04:55:43Z</time>
      </trkpt>
      <trkpt lat="45.72023" lon="5.26788">
        <ele>300.2</ele>
        <time>2022-06-19T04:55:46Z</time>
      </trkpt>
      <trkpt lat="45.72018" lon="5.268">
        <ele>300.4</ele>
        <time>2022-06-19T04:55:48Z</time>
      </trkpt>
      <trkpt lat="45.72012" lon="5.26817">
        <ele>301</ele>
        <time>2022-06-19T04:55:51Z</time>
      </trkpt>
      <trkpt lat="45.72011" lon="5.26823">
        <ele>301.2</ele>
        <time>2022-06-19T04:55:52Z</time>
      </trkpt>
      <trkpt lat="45.72008" lon="5.26829">
        <ele>301.8</ele>
        <time>2022-06-19T04:55:53Z</time>
      </trkpt>
      <trkpt lat="45.72002" lon="5.26848">
        <ele>302.2</ele>
        <time>2022-06-19T04:55:56Z</time>
      </trkpt>
      <trkpt lat="45.71991" lon="5.26882">
        <ele>303.4</ele>
        <time>2022-06-19T04:56:02Z</time>
      </trkpt>
      <trkpt lat="45.71987" lon="5.26896">
        <ele>303.8</ele>
        <time>2022-06-19T04:56:04Z</time>
      </trkpt>
      <trkpt lat="45.71983" lon="5.26909">
        <ele>304</ele>
        <time>2022-06-19T04:56:06Z</time>
      </trkpt>
      <trkpt lat="45.71978" lon="5.26919">
        <ele>304.4</ele>
        <time>2022-06-19T04:56:08Z</time>
      </trkpt>
      <trkpt lat="45.71973" lon="5.26933">
        <ele>304.6</ele>
        <time>2022-06-19T04:56:10Z</time>
      </trkpt>
      <trkpt lat="45.71958" lon="5.26965">
        <ele>305</ele>
        <time>2022-06-19T04:56:16Z</time>
      </trkpt>
      <trkpt lat="45.71954" lon="5.2697">
        <ele>305.2</ele>
        <time>2022-06-19T04:56:17Z</time>
      </trkpt>
      <trkpt lat="45.71949" lon="5.26978">
        <ele>305.6</ele>
        <time>2022-06-19T04:56:19Z</time>
      </trkpt>
      <trkpt lat="45.71932" lon="5.27007">
        <ele>307</ele>
        <time>2022-06-19T04:56:25Z</time>
      </trkpt>
      <trkpt lat="45.71929" lon="5.27012">
        <ele>307.2</ele>
        <time>2022-06-19T04:56:26Z</time>
      </trkpt>
      <trkpt lat="45.7192" lon="5.27026">
        <ele>307.8</ele>
        <time>2022-06-19T04:56:29Z</time>
      </trkpt>
      <trkpt lat="45.71917" lon="5.27032">
        <ele>308</ele>
        <time>2022-06-19T04:56:30Z</time>
      </trkpt>
      <trkpt lat="45.71912" lon="5.27043">
        <ele>308.2</ele>
        <time>2022-06-19T04:56:32Z</time>
      </trkpt>
      <trkpt lat="45.71896" lon="5.27084">
        <ele>308.6</ele>
        <time>2022-06-19T04:56:38Z</time>
      </trkpt>
      <trkpt lat="45.71892" lon="5.27105">
        <ele>308.8</ele>
        <time>2022-06-19T04:56:41Z</time>
      </trkpt>
      <trkpt lat="45.71891" lon="5.27117">
        <ele>309</ele>
        <time>2022-06-19T04:56:43Z</time>
      </trkpt>
      <trkpt lat="45.71891" lon="5.27124">
        <ele>309.2</ele>
        <time>2022-06-19T04:56:45Z</time>
      </trkpt>
      <trkpt lat="45.71891" lon="5.27139">
        <ele>309.2</ele>
        <time>2022-06-19T04:56:47Z</time>
      </trkpt>
      <trkpt lat="45.7189" lon="5.27153">
        <ele>309.4</ele>
        <time>2022-06-19T04:56:48Z</time>
      </trkpt>
      <trkpt lat="45.71886" lon="5.27173">
        <ele>310</ele>
        <time>2022-06-19T04:56:52Z</time>
      </trkpt>
      <trkpt lat="45.71883" lon="5.27187">
        <ele>310.2</ele>
        <time>2022-06-19T04:56:53Z</time>
      </trkpt>
      <trkpt lat="45.71876" lon="5.2721">
        <ele>310.8</ele>
        <time>2022-06-19T04:56:57Z</time>
      </trkpt>
      <trkpt lat="45.71873" lon="5.27216">
        <ele>311</ele>
        <time>2022-06-19T04:56:59Z</time>
      </trkpt>
      <trkpt lat="45.71871" lon="5.2722">
        <ele>311.2</ele>
        <time>2022-06-19T04:57:00Z</time>
      </trkpt>
      <trkpt lat="45.71854" lon="5.27257">
        <ele>312.2</ele>
        <time>2022-06-19T04:57:07Z</time>
      </trkpt>
      <trkpt lat="45.71848" lon="5.2727">
        <ele>312.8</ele>
        <time>2022-06-19T04:57:09Z</time>
      </trkpt>
      <trkpt lat="45.71837" lon="5.27322">
        <ele>313</ele>
        <time>2022-06-19T04:57:17Z</time>
      </trkpt>
      <trkpt lat="45.71827" lon="5.27366">
        <ele>313.2</ele>
        <time>2022-06-19T04:57:23Z</time>
      </trkpt>
      <trkpt lat="45.71816" lon="5.27421">
        <ele>313.2</ele>
        <time>2022-06-19T04:57:30Z</time>
      </trkpt>
      <trkpt lat="45.71814" lon="5.27435">
        <ele>313.2</ele>
        <time>2022-06-19T04:57:31Z</time>
      </trkpt>
      <trkpt lat="45.71813" lon="5.27442">
        <ele>313.2</ele>
        <time>2022-06-19T04:57:32Z</time>
      </trkpt>
      <trkpt lat="45.7181" lon="5.27458">
        <ele>313.2</ele>
        <time>2022-06-19T04:57:34Z</time>
      </trkpt>
      <trkpt lat="45.71808" lon="5.27471">
        <ele>313.4</ele>
        <time>2022-06-19T04:57:36Z</time>
      </trkpt>
      <trkpt lat="45.71806" lon="5.27478">
        <ele>313.4</ele>
        <time>2022-06-19T04:57:38Z</time>
      </trkpt>
      <trkpt lat="45.71803" lon="5.27501">
        <ele>313.4</ele>
        <time>2022-06-19T04:57:40Z</time>
      </trkpt>
      <trkpt lat="45.71802" lon="5.2752">
        <ele>313.6</ele>
        <time>2022-06-19T04:57:43Z</time>
      </trkpt>
      <trkpt lat="45.71805" lon="5.27572">
        <ele>314</ele>
        <time>2022-06-19T04:57:51Z</time>
      </trkpt>
      <trkpt lat="45.71807" lon="5.27585">
        <ele>314.2</ele>
        <time>2022-06-19T04:57:52Z</time>
      </trkpt>
      <trkpt lat="45.71814" lon="5.27642">
        <ele>315</ele>
        <time>2022-06-19T04:58:01Z</time>
      </trkpt>
      <trkpt lat="45.71817" lon="5.27656">
        <ele>315.2</ele>
        <time>2022-06-19T04:58:02Z</time>
      </trkpt>
      <trkpt lat="45.71831" lon="5.27732">
        <ele>316.2</ele>
        <time>2022-06-19T04:58:12Z</time>
      </trkpt>
      <trkpt lat="45.71832" lon="5.2774">
        <ele>316.2</ele>
        <time>2022-06-19T04:58:13Z</time>
      </trkpt>
      <trkpt lat="45.7184" lon="5.27787">
        <ele>315.8</ele>
        <time>2022-06-19T04:58:19Z</time>
      </trkpt>
      <trkpt lat="45.71843" lon="5.27803">
        <ele>315.8</ele>
        <time>2022-06-19T04:58:21Z</time>
      </trkpt>
      <trkpt lat="45.71846" lon="5.27819">
        <ele>315.8</ele>
        <time>2022-06-19T04:58:23Z</time>
      </trkpt>
      <trkpt lat="45.71849" lon="5.27835">
        <ele>315.8</ele>
        <time>2022-06-19T04:58:25Z</time>
      </trkpt>
      <trkpt lat="45.71852" lon="5.27851">
        <ele>315.8</ele>
        <time>2022-06-19T04:58:27Z</time>
      </trkpt>
      <trkpt lat="45.71864" lon="5.279">
        <ele>315.8</ele>
        <time>2022-06-19T04:58:33Z</time>
      </trkpt>
      <trkpt lat="45.7188" lon="5.27972">
        <ele>315.8</ele>
        <time>2022-06-19T04:58:42Z</time>
      </trkpt>
      <trkpt lat="45.71886" lon="5.27997">
        <ele>315.8</ele>
        <time>2022-06-19T04:58:45Z</time>
      </trkpt>
      <trkpt lat="45.719" lon="5.2807">
        <ele>315.8</ele>
        <time>2022-06-19T04:58:54Z</time>
      </trkpt>
      <trkpt lat="45.71902" lon="5.28087">
        <ele>316</ele>
        <time>2022-06-19T04:58:56Z</time>
      </trkpt>
      <trkpt lat="45.71908" lon="5.28138">
        <ele>316</ele>
        <time>2022-06-19T04:59:02Z</time>
      </trkpt>
      <trkpt lat="45.71911" lon="5.28206">
        <ele>316.2</ele>
        <time>2022-06-19T04:59:10Z</time>
      </trkpt>
      <trkpt lat="45.71914" lon="5.28283">
        <ele>316.6</ele>
        <time>2022-06-19T04:59:19Z</time>
      </trkpt>
      <trkpt lat="45.71914" lon="5.28301">
        <ele>316.8</ele>
        <time>2022-06-19T04:59:21Z</time>
      </trkpt>
      <trkpt lat="45.71916" lon="5.28326">
        <ele>317</ele>
        <time>2022-06-19T04:59:24Z</time>
      </trkpt>
      <trkpt lat="45.71918" lon="5.28361">
        <ele>317.2</ele>
        <time>2022-06-19T04:59:28Z</time>
      </trkpt>
      <trkpt lat="45.71922" lon="5.2842">
        <ele>318</ele>
        <time>2022-06-19T04:59:35Z</time>
      </trkpt>
      <trkpt lat="45.71923" lon="5.28462">
        <ele>318</ele>
        <time>2022-06-19T04:59:40Z</time>
      </trkpt>
      <trkpt lat="45.71922" lon="5.2847">
        <ele>318</ele>
        <time>2022-06-19T04:59:41Z</time>
      </trkpt>
      <trkpt lat="45.71922" lon="5.28487">
        <ele>318</ele>
        <time>2022-06-19T04:59:43Z</time>
      </trkpt>
      <trkpt lat="45.71919" lon="5.28554">
        <ele>318.6</ele>
        <time>2022-06-19T04:59:51Z</time>
      </trkpt>
      <trkpt lat="45.71918" lon="5.2857">
        <ele>318.8</ele>
        <time>2022-06-19T04:59:53Z</time>
      </trkpt>
      <trkpt lat="45.71916" lon="5.28645">
        <ele>318.8</ele>
        <time>2022-06-19T05:00:02Z</time>
      </trkpt>
      <trkpt lat="45.71918" lon="5.28686">
        <ele>319</ele>
        <time>2022-06-19T05:00:07Z</time>
      </trkpt>
      <trkpt lat="45.71922" lon="5.28709">
        <ele>319.4</ele>
        <time>2022-06-19T05:00:10Z</time>
      </trkpt>
      <trkpt lat="45.71935" lon="5.28791">
        <ele>319.6</ele>
        <time>2022-06-19T05:00:20Z</time>
      </trkpt>
      <trkpt lat="45.71936" lon="5.28799">
        <ele>319.8</ele>
        <time>2022-06-19T05:00:21Z</time>
      </trkpt>
      <trkpt lat="45.71941" lon="5.2883">
        <ele>320</ele>
        <time>2022-06-19T05:00:25Z</time>
      </trkpt>
      <trkpt lat="45.71948" lon="5.28884">
        <ele>320.8</ele>
        <time>2022-06-19T05:00:32Z</time>
      </trkpt>
      <trkpt lat="45.71951" lon="5.28915">
        <ele>321</ele>
        <time>2022-06-19T05:00:36Z</time>
      </trkpt>
      <trkpt lat="45.71954" lon="5.28954">
        <ele>322</ele>
        <time>2022-06-19T05:00:41Z</time>
      </trkpt>
      <trkpt lat="45.71956" lon="5.28978">
        <ele>322.4</ele>
        <time>2022-06-19T05:00:44Z</time>
      </trkpt>
      <trkpt lat="45.71958" lon="5.29042">
        <ele>322.4</ele>
        <time>2022-06-19T05:00:52Z</time>
      </trkpt>
      <trkpt lat="45.71957" lon="5.2905">
        <ele>322.4</ele>
        <time>2022-06-19T05:00:53Z</time>
      </trkpt>
      <trkpt lat="45.71951" lon="5.29089">
        <ele>322.2</ele>
        <time>2022-06-19T05:00:58Z</time>
      </trkpt>
      <trkpt lat="45.71933" lon="5.29149">
        <ele>322.6</ele>
        <time>2022-06-19T05:01:06Z</time>
      </trkpt>
      <trkpt lat="45.71928" lon="5.29171">
        <ele>323</ele>
        <time>2022-06-19T05:01:09Z</time>
      </trkpt>
      <trkpt lat="45.71918" lon="5.29204">
        <ele>324.2</ele>
        <time>2022-06-19T05:01:14Z</time>
      </trkpt>
      <trkpt lat="45.71913" lon="5.29231">
        <ele>325.4</ele>
        <time>2022-06-19T05:01:18Z</time>
      </trkpt>
      <trkpt lat="45.7191" lon="5.29258">
        <ele>326.4</ele>
        <time>2022-06-19T05:01:22Z</time>
      </trkpt>
      <trkpt lat="45.71907" lon="5.29278">
        <ele>327.6</ele>
        <time>2022-06-19T05:01:25Z</time>
      </trkpt>
      <trkpt lat="45.71906" lon="5.29307">
        <ele>328.8</ele>
        <time>2022-06-19T05:01:29Z</time>
      </trkpt>
      <trkpt lat="45.71907" lon="5.29314">
        <ele>329</ele>
        <time>2022-06-19T05:01:30Z</time>
      </trkpt>
      <trkpt lat="45.71908" lon="5.29322">
        <ele>329.2</ele>
        <time>2022-06-19T05:01:31Z</time>
      </trkpt>
      <trkpt lat="45.71914" lon="5.29367">
        <ele>329.8</ele>
        <time>2022-06-19T05:01:37Z</time>
      </trkpt>
      <trkpt lat="45.71916" lon="5.29382">
        <ele>330</ele>
        <time>2022-06-19T05:01:39Z</time>
      </trkpt>
      <trkpt lat="45.71922" lon="5.29433">
        <ele>330.8</ele>
        <time>2022-06-19T05:01:46Z</time>
      </trkpt>
      <trkpt lat="45.71924" lon="5.2946">
        <ele>331.8</ele>
        <time>2022-06-19T05:01:50Z</time>
      </trkpt>
      <trkpt lat="45.71924" lon="5.29466">
        <ele>332.2</ele>
        <time>2022-06-19T05:01:51Z</time>
      </trkpt>
      <trkpt lat="45.71924" lon="5.29473">
        <ele>332.2</ele>
        <time>2022-06-19T05:01:52Z</time>
      </trkpt>
      <trkpt lat="45.71922" lon="5.29492">
        <ele>333.4</ele>
        <time>2022-06-19T05:01:55Z</time>
      </trkpt>
      <trkpt lat="45.71921" lon="5.29499">
        <ele>333.8</ele>
        <time>2022-06-19T05:01:56Z</time>
      </trkpt>
      <trkpt lat="45.71919" lon="5.29511">
        <ele>334.4</ele>
        <time>2022-06-19T05:01:58Z</time>
      </trkpt>
      <trkpt lat="45.71915" lon="5.29536">
        <ele>335.6</ele>
        <time>2022-06-19T05:02:02Z</time>
      </trkpt>
      <trkpt lat="45.71913" lon="5.29542">
        <ele>336</ele>
        <time>2022-06-19T05:02:03Z</time>
      </trkpt>
      <trkpt lat="45.71912" lon="5.29549">
        <ele>335.8</ele>
        <time>2022-06-19T05:02:04Z</time>
      </trkpt>
      <trkpt lat="45.71909" lon="5.29568">
        <ele>336.6</ele>
        <time>2022-06-19T05:02:07Z</time>
      </trkpt>
      <trkpt lat="45.71902" lon="5.29601">
        <ele>337.6</ele>
        <time>2022-06-19T05:02:12Z</time>
      </trkpt>
      <trkpt lat="45.71883" lon="5.29643">
        <ele>338.8</ele>
        <time>2022-06-19T05:02:19Z</time>
      </trkpt>
      <trkpt lat="45.71881" lon="5.29649">
        <ele>338.8</ele>
        <time>2022-06-19T05:02:20Z</time>
      </trkpt>
      <trkpt lat="45.71864" lon="5.29684">
        <ele>339.4</ele>
        <time>2022-06-19T05:02:26Z</time>
      </trkpt>
      <trkpt lat="45.71859" lon="5.29697">
        <ele>339.8</ele>
        <time>2022-06-19T05:02:28Z</time>
      </trkpt>
      <trkpt lat="45.71857" lon="5.29704">
        <ele>340</ele>
        <time>2022-06-19T05:02:29Z</time>
      </trkpt>
      <trkpt lat="45.71844" lon="5.29743">
        <ele>341</ele>
        <time>2022-06-19T05:02:35Z</time>
      </trkpt>
      <trkpt lat="45.71842" lon="5.2975">
        <ele>341.2</ele>
        <time>2022-06-19T05:02:36Z</time>
      </trkpt>
      <trkpt lat="45.71829" lon="5.29801">
        <ele>342</ele>
        <time>2022-06-19T05:02:44Z</time>
      </trkpt>
      <trkpt lat="45.71827" lon="5.29815">
        <ele>342.4</ele>
        <time>2022-06-19T05:02:46Z</time>
      </trkpt>
      <trkpt lat="45.71825" lon="5.29828">
        <ele>343.2</ele>
        <time>2022-06-19T05:02:48Z</time>
      </trkpt>
      <trkpt lat="45.71824" lon="5.29835">
        <ele>343.4</ele>
        <time>2022-06-19T05:02:49Z</time>
      </trkpt>
      <trkpt lat="45.71818" lon="5.29862">
        <ele>344</ele>
        <time>2022-06-19T05:02:53Z</time>
      </trkpt>
      <trkpt lat="45.71816" lon="5.29877">
        <ele>344.4</ele>
        <time>2022-06-19T05:02:55Z</time>
      </trkpt>
      <trkpt lat="45.71811" lon="5.29917">
        <ele>345</ele>
        <time>2022-06-19T05:03:00Z</time>
      </trkpt>
      <trkpt lat="45.71804" lon="5.29978">
        <ele>344</ele>
        <time>2022-06-19T05:03:07Z</time>
      </trkpt>
      <trkpt lat="45.71798" lon="5.30023">
        <ele>343.2</ele>
        <time>2022-06-19T05:03:12Z</time>
      </trkpt>
      <trkpt lat="45.71794" lon="5.30059">
        <ele>342.8</ele>
        <time>2022-06-19T05:03:16Z</time>
      </trkpt>
      <trkpt lat="45.71789" lon="5.30104">
        <ele>342</ele>
        <time>2022-06-19T05:03:21Z</time>
      </trkpt>
      <trkpt lat="45.71784" lon="5.3014">
        <ele>341.6</ele>
        <time>2022-06-19T05:03:25Z</time>
      </trkpt>
      <trkpt lat="45.71771" lon="5.30219">
        <ele>341.4</ele>
        <time>2022-06-19T05:03:34Z</time>
      </trkpt>
      <trkpt lat="45.71769" lon="5.30227">
        <ele>341.4</ele>
        <time>2022-06-19T05:03:35Z</time>
      </trkpt>
      <trkpt lat="45.71753" lon="5.30275">
        <ele>341.6</ele>
        <time>2022-06-19T05:03:41Z</time>
      </trkpt>
      <trkpt lat="45.71722" lon="5.30331">
        <ele>342</ele>
        <time>2022-06-19T05:03:49Z</time>
      </trkpt>
      <trkpt lat="45.71683" lon="5.30387">
        <ele>342.8</ele>
        <time>2022-06-19T05:03:58Z</time>
      </trkpt>
      <trkpt lat="45.71666" lon="5.30423">
        <ele>343</ele>
        <time>2022-06-19T05:04:03Z</time>
      </trkpt>
      <trkpt lat="45.71663" lon="5.3043">
        <ele>343.2</ele>
        <time>2022-06-19T05:04:04Z</time>
      </trkpt>
      <trkpt lat="45.71654" lon="5.3045">
        <ele>343.4</ele>
        <time>2022-06-19T05:04:07Z</time>
      </trkpt>
      <trkpt lat="45.71652" lon="5.30456">
        <ele>343.4</ele>
        <time>2022-06-19T05:04:08Z</time>
      </trkpt>
      <trkpt lat="45.71648" lon="5.30462">
        <ele>343.6</ele>
        <time>2022-06-19T05:04:09Z</time>
      </trkpt>
      <trkpt lat="45.71639" lon="5.3049">
        <ele>344.2</ele>
        <time>2022-06-19T05:04:13Z</time>
      </trkpt>
      <trkpt lat="45.71625" lon="5.30529">
        <ele>345.2</ele>
        <time>2022-06-19T05:04:19Z</time>
      </trkpt>
      <trkpt lat="45.71623" lon="5.30535">
        <ele>345.4</ele>
        <time>2022-06-19T05:04:20Z</time>
      </trkpt>
      <trkpt lat="45.71619" lon="5.30549">
        <ele>345.6</ele>
        <time>2022-06-19T05:04:22Z</time>
      </trkpt>
      <trkpt lat="45.71615" lon="5.3056">
        <ele>346.6</ele>
        <time>2022-06-19T05:04:24Z</time>
      </trkpt>
      <trkpt lat="45.71606" lon="5.30586">
        <ele>347.8</ele>
        <time>2022-06-19T05:04:28Z</time>
      </trkpt>
      <trkpt lat="45.71604" lon="5.30597">
        <ele>348</ele>
        <time>2022-06-19T05:04:30Z</time>
      </trkpt>
      <trkpt lat="45.71597" lon="5.30616">
        <ele>348.6</ele>
        <time>2022-06-19T05:04:33Z</time>
      </trkpt>
      <trkpt lat="45.71587" lon="5.30645">
        <ele>349.8</ele>
        <time>2022-06-19T05:04:38Z</time>
      </trkpt>
      <trkpt lat="45.71584" lon="5.30651">
        <ele>350</ele>
        <time>2022-06-19T05:04:39Z</time>
      </trkpt>
      <trkpt lat="45.7158" lon="5.30662">
        <ele>350.8</ele>
        <time>2022-06-19T05:04:41Z</time>
      </trkpt>
      <trkpt lat="45.71574" lon="5.30678">
        <ele>351.8</ele>
        <time>2022-06-19T05:04:44Z</time>
      </trkpt>
      <trkpt lat="45.71568" lon="5.30695">
        <ele>353</ele>
        <time>2022-06-19T05:04:47Z</time>
      </trkpt>
      <trkpt lat="45.71565" lon="5.30706">
        <ele>353.6</ele>
        <time>2022-06-19T05:04:49Z</time>
      </trkpt>
      <trkpt lat="45.71564" lon="5.30712">
        <ele>354.2</ele>
        <time>2022-06-19T05:04:50Z</time>
      </trkpt>
      <trkpt lat="45.71562" lon="5.30725">
        <ele>354.8</ele>
        <time>2022-06-19T05:04:52Z</time>
      </trkpt>
      <trkpt lat="45.7156" lon="5.30731">
        <ele>355</ele>
        <time>2022-06-19T05:04:53Z</time>
      </trkpt>
      <trkpt lat="45.71558" lon="5.30737">
        <ele>355.4</ele>
        <time>2022-06-19T05:04:54Z</time>
      </trkpt>
      <trkpt lat="45.71556" lon="5.30749">
        <ele>356.2</ele>
        <time>2022-06-19T05:04:56Z</time>
      </trkpt>
      <trkpt lat="45.71555" lon="5.30755">
        <ele>356.4</ele>
        <time>2022-06-19T05:04:57Z</time>
      </trkpt>
      <trkpt lat="45.71555" lon="5.30769">
        <ele>356.8</ele>
        <time>2022-06-19T05:04:59Z</time>
      </trkpt>
      <trkpt lat="45.71555" lon="5.30782">
        <ele>357.4</ele>
        <time>2022-06-19T05:05:01Z</time>
      </trkpt>
      <trkpt lat="45.71557" lon="5.30803">
        <ele>358.2</ele>
        <time>2022-06-19T05:05:04Z</time>
      </trkpt>
      <trkpt lat="45.71559" lon="5.30815">
        <ele>358.6</ele>
        <time>2022-06-19T05:05:06Z</time>
      </trkpt>
      <trkpt lat="45.71558" lon="5.3084">
        <ele>360</ele>
        <time>2022-06-19T05:05:10Z</time>
      </trkpt>
      <trkpt lat="45.71558" lon="5.3086">
        <ele>361.2</ele>
        <time>2022-06-19T05:05:13Z</time>
      </trkpt>
      <trkpt lat="45.71553" lon="5.30909">
        <ele>362.4</ele>
        <time>2022-06-19T05:05:20Z</time>
      </trkpt>
      <trkpt lat="45.71549" lon="5.30932">
        <ele>362.6</ele>
        <time>2022-06-19T05:05:23Z</time>
      </trkpt>
      <trkpt lat="45.71538" lon="5.30998">
        <ele>362.2</ele>
        <time>2022-06-19T05:05:31Z</time>
      </trkpt>
      <trkpt lat="45.71529" lon="5.31047">
        <ele>361.2</ele>
        <time>2022-06-19T05:05:37Z</time>
      </trkpt>
      <trkpt lat="45.71521" lon="5.31087">
        <ele>361</ele>
        <time>2022-06-19T05:05:42Z</time>
      </trkpt>
      <trkpt lat="45.71503" lon="5.31167">
        <ele>361</ele>
        <time>2022-06-19T05:05:52Z</time>
      </trkpt>
      <trkpt lat="45.71483" lon="5.31241">
        <ele>361</ele>
        <time>2022-06-19T05:06:01Z</time>
      </trkpt>
      <trkpt lat="45.71481" lon="5.3125">
        <ele>361</ele>
        <time>2022-06-19T05:06:02Z</time>
      </trkpt>
      <trkpt lat="45.71475" lon="5.31296">
        <ele>360.2</ele>
        <time>2022-06-19T05:06:07Z</time>
      </trkpt>
      <trkpt lat="45.71473" lon="5.31305">
        <ele>360.2</ele>
        <time>2022-06-19T05:06:08Z</time>
      </trkpt>
      <trkpt lat="45.71459" lon="5.31383">
        <ele>359.4</ele>
        <time>2022-06-19T05:06:17Z</time>
      </trkpt>
      <trkpt lat="45.71441" lon="5.31465">
        <ele>359.6</ele>
        <time>2022-06-19T05:06:27Z</time>
      </trkpt>
      <trkpt lat="45.71426" lon="5.31533">
        <ele>359.8</ele>
        <time>2022-06-19T05:06:35Z</time>
      </trkpt>
      <trkpt lat="45.71417" lon="5.31616">
        <ele>359.2</ele>
        <time>2022-06-19T05:06:44Z</time>
      </trkpt>
      <trkpt lat="45.71416" lon="5.31626">
        <ele>359.2</ele>
        <time>2022-06-19T05:06:45Z</time>
      </trkpt>
      <trkpt lat="45.71415" lon="5.31646">
        <ele>358.8</ele>
        <time>2022-06-19T05:06:47Z</time>
      </trkpt>
      <trkpt lat="45.71417" lon="5.31668">
        <ele>358.4</ele>
        <time>2022-06-19T05:06:49Z</time>
      </trkpt>
      <trkpt lat="45.7142" lon="5.31703">
        <ele>358</ele>
        <time>2022-06-19T05:06:52Z</time>
      </trkpt>
      <trkpt lat="45.71425" lon="5.31744">
        <ele>357.4</ele>
        <time>2022-06-19T05:06:55Z</time>
      </trkpt>
      <trkpt lat="45.71429" lon="5.31772">
        <ele>356.8</ele>
        <time>2022-06-19T05:06:57Z</time>
      </trkpt>
      <trkpt lat="45.71433" lon="5.31786">
        <ele>356.2</ele>
        <time>2022-06-19T05:06:58Z</time>
      </trkpt>
      <trkpt lat="45.71439" lon="5.318">
        <ele>355.4</ele>
        <time>2022-06-19T05:06:59Z</time>
      </trkpt>
      <trkpt lat="45.71445" lon="5.31812">
        <ele>355</ele>
        <time>2022-06-19T05:07:00Z</time>
      </trkpt>
      <trkpt lat="45.71453" lon="5.31823">
        <ele>354.2</ele>
        <time>2022-06-19T05:07:01Z</time>
      </trkpt>
      <trkpt lat="45.71462" lon="5.31833">
        <ele>354</ele>
        <time>2022-06-19T05:07:02Z</time>
      </trkpt>
      <trkpt lat="45.7147" lon="5.31843">
        <ele>352.6</ele>
        <time>2022-06-19T05:07:03Z</time>
      </trkpt>
      <trkpt lat="45.71487" lon="5.31863">
        <ele>351.2</ele>
        <time>2022-06-19T05:07:05Z</time>
      </trkpt>
      <trkpt lat="45.71496" lon="5.31872">
        <ele>350.2</ele>
        <time>2022-06-19T05:07:06Z</time>
      </trkpt>
      <trkpt lat="45.71516" lon="5.31886">
        <ele>348.6</ele>
        <time>2022-06-19T05:07:08Z</time>
      </trkpt>
      <trkpt lat="45.71537" lon="5.31887">
        <ele>347.8</ele>
        <time>2022-06-19T05:07:10Z</time>
      </trkpt>
      <trkpt lat="45.71547" lon="5.31884">
        <ele>347.4</ele>
        <time>2022-06-19T05:07:11Z</time>
      </trkpt>
      <trkpt lat="45.71567" lon="5.31876">
        <ele>346.2</ele>
        <time>2022-06-19T05:07:13Z</time>
      </trkpt>
      <trkpt lat="45.71577" lon="5.31872">
        <ele>345.8</ele>
        <time>2022-06-19T05:07:14Z</time>
      </trkpt>
      <trkpt lat="45.71596" lon="5.31864">
        <ele>344.8</ele>
        <time>2022-06-19T05:07:16Z</time>
      </trkpt>
      <trkpt lat="45.71626" lon="5.31851">
        <ele>343.8</ele>
        <time>2022-06-19T05:07:19Z</time>
      </trkpt>
      <trkpt lat="45.71646" lon="5.31843">
        <ele>342.6</ele>
        <time>2022-06-19T05:07:21Z</time>
      </trkpt>
      <trkpt lat="45.71677" lon="5.31837">
        <ele>341.6</ele>
        <time>2022-06-19T05:07:24Z</time>
      </trkpt>
      <trkpt lat="45.71688" lon="5.31836">
        <ele>341.2</ele>
        <time>2022-06-19T05:07:25Z</time>
      </trkpt>
      <trkpt lat="45.7171" lon="5.31829">
        <ele>339.8</ele>
        <time>2022-06-19T05:07:27Z</time>
      </trkpt>
      <trkpt lat="45.71732" lon="5.31823">
        <ele>339.2</ele>
        <time>2022-06-19T05:07:29Z</time>
      </trkpt>
      <trkpt lat="45.71754" lon="5.31825">
        <ele>338.2</ele>
        <time>2022-06-19T05:07:31Z</time>
      </trkpt>
      <trkpt lat="45.71766" lon="5.31829">
        <ele>337.6</ele>
        <time>2022-06-19T05:07:32Z</time>
      </trkpt>
      <trkpt lat="45.71778" lon="5.31836">
        <ele>336.6</ele>
        <time>2022-06-19T05:07:33Z</time>
      </trkpt>
      <trkpt lat="45.718" lon="5.31851">
        <ele>335.2</ele>
        <time>2022-06-19T05:07:35Z</time>
      </trkpt>
      <trkpt lat="45.71812" lon="5.31858">
        <ele>334.4</ele>
        <time>2022-06-19T05:07:36Z</time>
      </trkpt>
      <trkpt lat="45.71822" lon="5.31864">
        <ele>333.6</ele>
        <time>2022-06-19T05:07:37Z</time>
      </trkpt>
      <trkpt lat="45.7184" lon="5.31873">
        <ele>332.2</ele>
        <time>2022-06-19T05:07:39Z</time>
      </trkpt>
      <trkpt lat="45.71847" lon="5.31878">
        <ele>331.4</ele>
        <time>2022-06-19T05:07:40Z</time>
      </trkpt>
      <trkpt lat="45.71853" lon="5.31883">
        <ele>330.8</ele>
        <time>2022-06-19T05:07:41Z</time>
      </trkpt>
      <trkpt lat="45.71862" lon="5.31897">
        <ele>329.6</ele>
        <time>2022-06-19T05:07:43Z</time>
      </trkpt>
      <trkpt lat="45.71866" lon="5.31915">
        <ele>327.6</ele>
        <time>2022-06-19T05:07:45Z</time>
      </trkpt>
      <trkpt lat="45.71865" lon="5.31923">
        <ele>327.4</ele>
        <time>2022-06-19T05:07:46Z</time>
      </trkpt>
      <trkpt lat="45.71864" lon="5.31932">
        <ele>326.8</ele>
        <time>2022-06-19T05:07:47Z</time>
      </trkpt>
      <trkpt lat="45.71864" lon="5.3194">
        <ele>326.2</ele>
        <time>2022-06-19T05:07:48Z</time>
      </trkpt>
      <trkpt lat="45.71863" lon="5.31948">
        <ele>326.2</ele>
        <time>2022-06-19T05:07:49Z</time>
      </trkpt>
      <trkpt lat="45.71861" lon="5.31956">
        <ele>326</ele>
        <time>2022-06-19T05:07:50Z</time>
      </trkpt>
      <trkpt lat="45.71857" lon="5.31971">
        <ele>325.8</ele>
        <time>2022-06-19T05:07:52Z</time>
      </trkpt>
      <trkpt lat="45.71854" lon="5.31987">
        <ele>325.6</ele>
        <time>2022-06-19T05:07:54Z</time>
      </trkpt>
      <trkpt lat="45.71849" lon="5.3201">
        <ele>326</ele>
        <time>2022-06-19T05:07:57Z</time>
      </trkpt>
      <trkpt lat="45.71842" lon="5.3204">
        <ele>326.6</ele>
        <time>2022-06-19T05:08:01Z</time>
      </trkpt>
      <trkpt lat="45.71841" lon="5.32048">
        <ele>326.8</ele>
        <time>2022-06-19T05:08:02Z</time>
      </trkpt>
      <trkpt lat="45.71842" lon="5.32063">
        <ele>327.2</ele>
        <time>2022-06-19T05:08:04Z</time>
      </trkpt>
      <trkpt lat="45.71843" lon="5.3207">
        <ele>327.2</ele>
        <time>2022-06-19T05:08:05Z</time>
      </trkpt>
      <trkpt lat="45.71845" lon="5.32077">
        <ele>327.4</ele>
        <time>2022-06-19T05:08:06Z</time>
      </trkpt>
      <trkpt lat="45.71853" lon="5.32106">
        <ele>328</ele>
        <time>2022-06-19T05:08:10Z</time>
      </trkpt>
      <trkpt lat="45.71857" lon="5.32122">
        <ele>328.4</ele>
        <time>2022-06-19T05:08:12Z</time>
      </trkpt>
      <trkpt lat="45.71861" lon="5.32138">
        <ele>328.8</ele>
        <time>2022-06-19T05:08:14Z</time>
      </trkpt>
      <trkpt lat="45.71858" lon="5.32152">
        <ele>329.2</ele>
        <time>2022-06-19T05:08:16Z</time>
      </trkpt>
      <trkpt lat="45.71844" lon="5.32176">
        <ele>329.2</ele>
        <time>2022-06-19T05:08:19Z</time>
      </trkpt>
      <trkpt lat="45.71841" lon="5.32183">
        <ele>329.2</ele>
        <time>2022-06-19T05:08:20Z</time>
      </trkpt>
      <trkpt lat="45.71838" lon="5.32192">
        <ele>329.2</ele>
        <time>2022-06-19T05:08:21Z</time>
      </trkpt>
      <trkpt lat="45.71833" lon="5.32223">
        <ele>328.8</ele>
        <time>2022-06-19T05:08:24Z</time>
      </trkpt>
      <trkpt lat="45.71831" lon="5.32243">
        <ele>328.2</ele>
        <time>2022-06-19T05:08:26Z</time>
      </trkpt>
      <trkpt lat="45.71831" lon="5.32265">
        <ele>327.8</ele>
        <time>2022-06-19T05:08:28Z</time>
      </trkpt>
      <trkpt lat="45.71832" lon="5.32274">
        <ele>327.8</ele>
        <time>2022-06-19T05:08:29Z</time>
      </trkpt>
      <trkpt lat="45.71835" lon="5.32295">
        <ele>327.4</ele>
        <time>2022-06-19T05:08:31Z</time>
      </trkpt>
      <trkpt lat="45.71842" lon="5.32342">
        <ele>326.2</ele>
        <time>2022-06-19T05:08:35Z</time>
      </trkpt>
      <trkpt lat="45.71844" lon="5.32353">
        <ele>326</ele>
        <time>2022-06-19T05:08:36Z</time>
      </trkpt>
      <trkpt lat="45.71849" lon="5.32386">
        <ele>324.8</ele>
        <time>2022-06-19T05:08:39Z</time>
      </trkpt>
      <trkpt lat="45.71857" lon="5.32424">
        <ele>323.8</ele>
        <time>2022-06-19T05:08:43Z</time>
      </trkpt>
      <trkpt lat="45.71859" lon="5.32434">
        <ele>323.6</ele>
        <time>2022-06-19T05:08:44Z</time>
      </trkpt>
      <trkpt lat="45.71868" lon="5.32481">
        <ele>323</ele>
        <time>2022-06-19T05:08:49Z</time>
      </trkpt>
      <trkpt lat="45.71867" lon="5.32499">
        <ele>323</ele>
        <time>2022-06-19T05:08:51Z</time>
      </trkpt>
      <trkpt lat="45.71865" lon="5.32508">
        <ele>323</ele>
        <time>2022-06-19T05:08:52Z</time>
      </trkpt>
      <trkpt lat="45.71863" lon="5.32515">
        <ele>323</ele>
        <time>2022-06-19T05:08:53Z</time>
      </trkpt>
      <trkpt lat="45.71854" lon="5.32528">
        <ele>323</ele>
        <time>2022-06-19T05:08:55Z</time>
      </trkpt>
      <trkpt lat="45.71809" lon="5.32568">
        <ele>323</ele>
        <time>2022-06-19T05:09:03Z</time>
      </trkpt>
      <trkpt lat="45.71804" lon="5.32574">
        <ele>323</ele>
        <time>2022-06-19T05:09:04Z</time>
      </trkpt>
      <trkpt lat="45.71787" lon="5.32602">
        <ele>322.8</ele>
        <time>2022-06-19T05:09:08Z</time>
      </trkpt>
      <trkpt lat="45.71763" lon="5.32654">
        <ele>322.8</ele>
        <time>2022-06-19T05:09:15Z</time>
      </trkpt>
      <trkpt lat="45.71743" lon="5.32706">
        <ele>323.8</ele>
        <time>2022-06-19T05:09:22Z</time>
      </trkpt>
      <trkpt lat="45.71733" lon="5.32753">
        <ele>324.6</ele>
        <time>2022-06-19T05:09:28Z</time>
      </trkpt>
      <trkpt lat="45.71733" lon="5.32761">
        <ele>324.8</ele>
        <time>2022-06-19T05:09:29Z</time>
      </trkpt>
      <trkpt lat="45.71734" lon="5.32796">
        <ele>325</ele>
        <time>2022-06-19T05:09:33Z</time>
      </trkpt>
      <trkpt lat="45.71734" lon="5.32832">
        <ele>325.4</ele>
        <time>2022-06-19T05:09:37Z</time>
      </trkpt>
      <trkpt lat="45.71732" lon="5.32846">
        <ele>325.4</ele>
        <time>2022-06-19T05:09:39Z</time>
      </trkpt>
      <trkpt lat="45.71725" lon="5.32861">
        <ele>325.6</ele>
        <time>2022-06-19T05:09:41Z</time>
      </trkpt>
      <trkpt lat="45.71718" lon="5.32872">
        <ele>325.6</ele>
        <time>2022-06-19T05:09:43Z</time>
      </trkpt>
      <trkpt lat="45.71684" lon="5.32914">
        <ele>326.2</ele>
        <time>2022-06-19T05:09:50Z</time>
      </trkpt>
      <trkpt lat="45.71645" lon="5.32965">
        <ele>325.2</ele>
        <time>2022-06-19T05:09:57Z</time>
      </trkpt>
      <trkpt lat="45.71634" lon="5.32982">
        <ele>324.6</ele>
        <time>2022-06-19T05:09:59Z</time>
      </trkpt>
      <trkpt lat="45.71612" lon="5.33015">
        <ele>323.6</ele>
        <time>2022-06-19T05:10:03Z</time>
      </trkpt>
      <trkpt lat="45.71594" lon="5.33039">
        <ele>322.6</ele>
        <time>2022-06-19T05:10:06Z</time>
      </trkpt>
      <trkpt lat="45.71576" lon="5.33056">
        <ele>321.6</ele>
        <time>2022-06-19T05:10:09Z</time>
      </trkpt>
      <trkpt lat="45.71568" lon="5.33062">
        <ele>321.4</ele>
        <time>2022-06-19T05:10:10Z</time>
      </trkpt>
      <trkpt lat="45.71535" lon="5.33094">
        <ele>320.6</ele>
        <time>2022-06-19T05:10:15Z</time>
      </trkpt>
      <trkpt lat="45.7153" lon="5.33102">
        <ele>320.2</ele>
        <time>2022-06-19T05:10:16Z</time>
      </trkpt>
      <trkpt lat="45.71522" lon="5.33121">
        <ele>319.8</ele>
        <time>2022-06-19T05:10:18Z</time>
      </trkpt>
      <trkpt lat="45.71513" lon="5.3316">
        <ele>319.2</ele>
        <time>2022-06-19T05:10:21Z</time>
      </trkpt>
      <trkpt lat="45.7151" lon="5.33171">
        <ele>318.8</ele>
        <time>2022-06-19T05:10:22Z</time>
      </trkpt>
      <trkpt lat="45.71501" lon="5.33198">
        <ele>318</ele>
        <time>2022-06-19T05:10:24Z</time>
      </trkpt>
      <trkpt lat="45.7149" lon="5.33223">
        <ele>316.8</ele>
        <time>2022-06-19T05:10:26Z</time>
      </trkpt>
      <trkpt lat="45.71473" lon="5.33245">
        <ele>315.6</ele>
        <time>2022-06-19T05:10:28Z</time>
      </trkpt>
      <trkpt lat="45.71466" lon="5.33256">
        <ele>314.6</ele>
        <time>2022-06-19T05:10:29Z</time>
      </trkpt>
      <trkpt lat="45.71459" lon="5.3327">
        <ele>313.6</ele>
        <time>2022-06-19T05:10:30Z</time>
      </trkpt>
      <trkpt lat="45.71453" lon="5.33288">
        <ele>313.2</ele>
        <time>2022-06-19T05:10:31Z</time>
      </trkpt>
      <trkpt lat="45.71451" lon="5.33301">
        <ele>312.2</ele>
        <time>2022-06-19T05:10:32Z</time>
      </trkpt>
      <trkpt lat="45.71446" lon="5.33353">
        <ele>311</ele>
        <time>2022-06-19T05:10:35Z</time>
      </trkpt>
      <trkpt lat="45.71445" lon="5.33369">
        <ele>310</ele>
        <time>2022-06-19T05:10:36Z</time>
      </trkpt>
      <trkpt lat="45.71445" lon="5.33381">
        <ele>309</ele>
        <time>2022-06-19T05:10:37Z</time>
      </trkpt>
      <trkpt lat="45.71445" lon="5.33396">
        <ele>308.8</ele>
        <time>2022-06-19T05:10:38Z</time>
      </trkpt>
      <trkpt lat="45.71446" lon="5.33424">
        <ele>307.8</ele>
        <time>2022-06-19T05:10:40Z</time>
      </trkpt>
      <trkpt lat="45.71446" lon="5.33448">
        <ele>307</ele>
        <time>2022-06-19T05:10:42Z</time>
      </trkpt>
      <trkpt lat="45.71447" lon="5.33459">
        <ele>306.8</ele>
        <time>2022-06-19T05:10:43Z</time>
      </trkpt>
      <trkpt lat="45.71447" lon="5.33489">
        <ele>306.6</ele>
        <time>2022-06-19T05:10:46Z</time>
      </trkpt>
      <trkpt lat="45.71439" lon="5.33532">
        <ele>307.2</ele>
        <time>2022-06-19T05:10:51Z</time>
      </trkpt>
      <trkpt lat="45.71434" lon="5.33565">
        <ele>307.8</ele>
        <time>2022-06-19T05:10:55Z</time>
      </trkpt>
      <trkpt lat="45.71423" lon="5.33611">
        <ele>308</ele>
        <time>2022-06-19T05:11:00Z</time>
      </trkpt>
      <trkpt lat="45.71415" lon="5.3364">
        <ele>307.8</ele>
        <time>2022-06-19T05:11:03Z</time>
      </trkpt>
      <trkpt lat="45.71407" lon="5.3366">
        <ele>307.6</ele>
        <time>2022-06-19T05:11:05Z</time>
      </trkpt>
      <trkpt lat="45.71383" lon="5.33695">
        <ele>306.6</ele>
        <time>2022-06-19T05:11:09Z</time>
      </trkpt>
      <trkpt lat="45.71354" lon="5.33726">
        <ele>305.2</ele>
        <time>2022-06-19T05:11:14Z</time>
      </trkpt>
      <trkpt lat="45.71343" lon="5.33738">
        <ele>304.6</ele>
        <time>2022-06-19T05:11:16Z</time>
      </trkpt>
      <trkpt lat="45.71328" lon="5.33756">
        <ele>304.2</ele>
        <time>2022-06-19T05:11:19Z</time>
      </trkpt>
      <trkpt lat="45.71308" lon="5.33778">
        <ele>303.8</ele>
        <time>2022-06-19T05:11:23Z</time>
      </trkpt>
      <trkpt lat="45.71262" lon="5.3383">
        <ele>303.2</ele>
        <time>2022-06-19T05:11:32Z</time>
      </trkpt>
      <trkpt lat="45.71257" lon="5.33836">
        <ele>303.2</ele>
        <time>2022-06-19T05:11:33Z</time>
      </trkpt>
      <trkpt lat="45.71213" lon="5.33885">
        <ele>303.4</ele>
        <time>2022-06-19T05:11:42Z</time>
      </trkpt>
      <trkpt lat="45.71172" lon="5.33933">
        <ele>303</ele>
        <time>2022-06-19T05:11:50Z</time>
      </trkpt>
      <trkpt lat="45.71157" lon="5.33963">
        <ele>303</ele>
        <time>2022-06-19T05:11:54Z</time>
      </trkpt>
      <trkpt lat="45.71153" lon="5.33971">
        <ele>303</ele>
        <time>2022-06-19T05:11:55Z</time>
      </trkpt>
      <trkpt lat="45.71142" lon="5.34015">
        <ele>302.8</ele>
        <time>2022-06-19T05:12:00Z</time>
      </trkpt>
      <trkpt lat="45.71139" lon="5.34033">
        <ele>303</ele>
        <time>2022-06-19T05:12:02Z</time>
      </trkpt>
      <trkpt lat="45.71133" lon="5.34058">
        <ele>303</ele>
        <time>2022-06-19T05:12:05Z</time>
      </trkpt>
      <trkpt lat="45.7113" lon="5.34076">
        <ele>303</ele>
        <time>2022-06-19T05:12:07Z</time>
      </trkpt>
      <trkpt lat="45.71126" lon="5.34112">
        <ele>303</ele>
        <time>2022-06-19T05:12:11Z</time>
      </trkpt>
      <trkpt lat="45.71115" lon="5.34182">
        <ele>303.4</ele>
        <time>2022-06-19T05:12:19Z</time>
      </trkpt>
      <trkpt lat="45.71111" lon="5.34208">
        <ele>304</ele>
        <time>2022-06-19T05:12:22Z</time>
      </trkpt>
      <trkpt lat="45.71109" lon="5.34239">
        <ele>304.4</ele>
        <time>2022-06-19T05:12:26Z</time>
      </trkpt>
      <trkpt lat="45.71109" lon="5.3428">
        <ele>305.2</ele>
        <time>2022-06-19T05:12:31Z</time>
      </trkpt>
      <trkpt lat="45.71106" lon="5.34321">
        <ele>306</ele>
        <time>2022-06-19T05:12:36Z</time>
      </trkpt>
      <trkpt lat="45.71104" lon="5.34338">
        <ele>306.2</ele>
        <time>2022-06-19T05:12:38Z</time>
      </trkpt>
      <trkpt lat="45.71094" lon="5.34393">
        <ele>307</ele>
        <time>2022-06-19T05:12:45Z</time>
      </trkpt>
      <trkpt lat="45.71091" lon="5.34409">
        <ele>307.2</ele>
        <time>2022-06-19T05:12:47Z</time>
      </trkpt>
      <trkpt lat="45.71081" lon="5.34446">
        <ele>308.4</ele>
        <time>2022-06-19T05:12:52Z</time>
      </trkpt>
      <trkpt lat="45.71078" lon="5.34463">
        <ele>308.6</ele>
        <time>2022-06-19T05:12:54Z</time>
      </trkpt>
      <trkpt lat="45.71067" lon="5.34507">
        <ele>309.4</ele>
        <time>2022-06-19T05:13:00Z</time>
      </trkpt>
      <trkpt lat="45.71065" lon="5.34524">
        <ele>309.6</ele>
        <time>2022-06-19T05:13:02Z</time>
      </trkpt>
      <trkpt lat="45.71064" lon="5.34579">
        <ele>309.6</ele>
        <time>2022-06-19T05:13:08Z</time>
      </trkpt>
      <trkpt lat="45.71062" lon="5.34639">
        <ele>309.2</ele>
        <time>2022-06-19T05:13:15Z</time>
      </trkpt>
      <trkpt lat="45.71059" lon="5.34656">
        <ele>309.2</ele>
        <time>2022-06-19T05:13:17Z</time>
      </trkpt>
      <trkpt lat="45.71051" lon="5.34688">
        <ele>309.2</ele>
        <time>2022-06-19T05:13:21Z</time>
      </trkpt>
      <trkpt lat="45.71034" lon="5.34762">
        <ele>309.8</ele>
        <time>2022-06-19T05:13:30Z</time>
      </trkpt>
      <trkpt lat="45.71033" lon="5.34769">
        <ele>309.8</ele>
        <time>2022-06-19T05:13:31Z</time>
      </trkpt>
      <trkpt lat="45.71028" lon="5.34837">
        <ele>310</ele>
        <time>2022-06-19T05:13:39Z</time>
      </trkpt>
      <trkpt lat="45.71027" lon="5.34872">
        <ele>310</ele>
        <time>2022-06-19T05:13:43Z</time>
      </trkpt>
      <trkpt lat="45.71025" lon="5.34885">
        <ele>310.2</ele>
        <time>2022-06-19T05:13:45Z</time>
      </trkpt>
      <trkpt lat="45.71023" lon="5.34892">
        <ele>310.2</ele>
        <time>2022-06-19T05:13:46Z</time>
      </trkpt>
      <trkpt lat="45.71021" lon="5.34899">
        <ele>310.4</ele>
        <time>2022-06-19T05:13:47Z</time>
      </trkpt>
      <trkpt lat="45.71018" lon="5.34905">
        <ele>310.4</ele>
        <time>2022-06-19T05:13:48Z</time>
      </trkpt>
      <trkpt lat="45.7101" lon="5.34923">
        <ele>311.4</ele>
        <time>2022-06-19T05:13:51Z</time>
      </trkpt>
      <trkpt lat="45.71007" lon="5.34929">
        <ele>311.4</ele>
        <time>2022-06-19T05:13:52Z</time>
      </trkpt>
      <trkpt lat="45.70997" lon="5.34949">
        <ele>312</ele>
        <time>2022-06-19T05:13:55Z</time>
      </trkpt>
      <trkpt lat="45.70989" lon="5.34957">
        <ele>312.2</ele>
        <time>2022-06-19T05:13:57Z</time>
      </trkpt>
      <trkpt lat="45.70984" lon="5.34961">
        <ele>312.4</ele>
        <time>2022-06-19T05:13:58Z</time>
      </trkpt>
      <trkpt lat="45.70979" lon="5.34964">
        <ele>312.6</ele>
        <time>2022-06-19T05:13:59Z</time>
      </trkpt>
      <trkpt lat="45.7097" lon="5.34967">
        <ele>313</ele>
        <time>2022-06-19T05:14:01Z</time>
      </trkpt>
      <trkpt lat="45.70962" lon="5.34979">
        <ele>313.2</ele>
        <time>2022-06-19T05:14:03Z</time>
      </trkpt>
      <trkpt lat="45.7096" lon="5.34984">
        <ele>313.2</ele>
        <time>2022-06-19T05:14:04Z</time>
      </trkpt>
      <trkpt lat="45.70958" lon="5.34991">
        <ele>313.2</ele>
        <time>2022-06-19T05:14:05Z</time>
      </trkpt>
      <trkpt lat="45.70944" lon="5.35021">
        <ele>313.4</ele>
        <time>2022-06-19T05:14:10Z</time>
      </trkpt>
      <trkpt lat="45.70941" lon="5.35026">
        <ele>313.8</ele>
        <time>2022-06-19T05:14:11Z</time>
      </trkpt>
      <trkpt lat="45.70929" lon="5.35054">
        <ele>314.8</ele>
        <time>2022-06-19T05:14:16Z</time>
      </trkpt>
      <trkpt lat="45.70924" lon="5.35067">
        <ele>315.4</ele>
        <time>2022-06-19T05:14:18Z</time>
      </trkpt>
      <trkpt lat="45.70917" lon="5.35082">
        <ele>315.8</ele>
        <time>2022-06-19T05:14:21Z</time>
      </trkpt>
      <trkpt lat="45.70905" lon="5.35103">
        <ele>316.8</ele>
        <time>2022-06-19T05:14:25Z</time>
      </trkpt>
      <trkpt lat="45.70895" lon="5.35123">
        <ele>318.2</ele>
        <time>2022-06-19T05:14:29Z</time>
      </trkpt>
      <trkpt lat="45.70887" lon="5.35138">
        <ele>319.2</ele>
        <time>2022-06-19T05:14:32Z</time>
      </trkpt>
      <trkpt lat="45.70877" lon="5.35154">
        <ele>320</ele>
        <time>2022-06-19T05:14:35Z</time>
      </trkpt>
      <trkpt lat="45.70871" lon="5.35163">
        <ele>320.4</ele>
        <time>2022-06-19T05:14:37Z</time>
      </trkpt>
      <trkpt lat="45.70868" lon="5.35168">
        <ele>320.4</ele>
        <time>2022-06-19T05:14:38Z</time>
      </trkpt>
      <trkpt lat="45.70864" lon="5.35181">
        <ele>321.4</ele>
        <time>2022-06-19T05:14:40Z</time>
      </trkpt>
      <trkpt lat="45.70863" lon="5.35186">
        <ele>321.6</ele>
        <time>2022-06-19T05:14:41Z</time>
      </trkpt>
      <trkpt lat="45.70861" lon="5.35192">
        <ele>321.8</ele>
        <time>2022-06-19T05:14:42Z</time>
      </trkpt>
      <trkpt lat="45.70858" lon="5.3522">
        <ele>322.4</ele>
        <time>2022-06-19T05:14:46Z</time>
      </trkpt>
      <trkpt lat="45.70859" lon="5.35251">
        <ele>323.6</ele>
        <time>2022-06-19T05:14:50Z</time>
      </trkpt>
      <trkpt lat="45.70858" lon="5.35271">
        <ele>324.2</ele>
        <time>2022-06-19T05:14:53Z</time>
      </trkpt>
      <trkpt lat="45.70858" lon="5.35279">
        <ele>324.2</ele>
        <time>2022-06-19T05:14:54Z</time>
      </trkpt>
      <trkpt lat="45.70858" lon="5.35309">
        <ele>324.6</ele>
        <time>2022-06-19T05:14:58Z</time>
      </trkpt>
      <trkpt lat="45.70858" lon="5.35315">
        <ele>324.8</ele>
        <time>2022-06-19T05:14:59Z</time>
      </trkpt>
      <trkpt lat="45.70858" lon="5.3533">
        <ele>325.2</ele>
        <time>2022-06-19T05:15:01Z</time>
      </trkpt>
      <trkpt lat="45.70859" lon="5.3536">
        <ele>325.8</ele>
        <time>2022-06-19T05:15:05Z</time>
      </trkpt>
      <trkpt lat="45.7086" lon="5.35376">
        <ele>325.8</ele>
        <time>2022-06-19T05:15:07Z</time>
      </trkpt>
      <trkpt lat="45.70858" lon="5.3539">
        <ele>325.8</ele>
        <time>2022-06-19T05:15:09Z</time>
      </trkpt>
      <trkpt lat="45.70856" lon="5.35403">
        <ele>326</ele>
        <time>2022-06-19T05:15:11Z</time>
      </trkpt>
      <trkpt lat="45.70851" lon="5.35437">
        <ele>326.8</ele>
        <time>2022-06-19T05:15:16Z</time>
      </trkpt>
      <trkpt lat="45.70844" lon="5.35466">
        <ele>327.4</ele>
        <time>2022-06-19T05:15:20Z</time>
      </trkpt>
      <trkpt lat="45.70838" lon="5.35493">
        <ele>327.6</ele>
        <time>2022-06-19T05:15:24Z</time>
      </trkpt>
      <trkpt lat="45.70833" lon="5.35512">
        <ele>328</ele>
        <time>2022-06-19T05:15:27Z</time>
      </trkpt>
      <trkpt lat="45.70831" lon="5.35521">
        <ele>328</ele>
        <time>2022-06-19T05:15:28Z</time>
      </trkpt>
      <trkpt lat="45.70818" lon="5.35568">
        <ele>328</ele>
        <time>2022-06-19T05:15:34Z</time>
      </trkpt>
      <trkpt lat="45.70802" lon="5.35639">
        <ele>327.2</ele>
        <time>2022-06-19T05:15:41Z</time>
      </trkpt>
      <trkpt lat="45.70795" lon="5.35668">
        <ele>326.2</ele>
        <time>2022-06-19T05:15:44Z</time>
      </trkpt>
      <trkpt lat="45.70782" lon="5.35714">
        <ele>325.2</ele>
        <time>2022-06-19T05:15:49Z</time>
      </trkpt>
      <trkpt lat="45.70767" lon="5.35767">
        <ele>325</ele>
        <time>2022-06-19T05:15:55Z</time>
      </trkpt>
      <trkpt lat="45.70765" lon="5.35783">
        <ele>325</ele>
        <time>2022-06-19T05:15:57Z</time>
      </trkpt>
      <trkpt lat="45.70764" lon="5.35815">
        <ele>325</ele>
        <time>2022-06-19T05:16:00Z</time>
      </trkpt>
      <trkpt lat="45.70766" lon="5.35857">
        <ele>324.8</ele>
        <time>2022-06-19T05:16:04Z</time>
      </trkpt>
      <trkpt lat="45.70767" lon="5.35877">
        <ele>324.2</ele>
        <time>2022-06-19T05:16:06Z</time>
      </trkpt>
      <trkpt lat="45.70767" lon="5.35887">
        <ele>324</ele>
        <time>2022-06-19T05:16:07Z</time>
      </trkpt>
      <trkpt lat="45.70772" lon="5.35969">
        <ele>323.2</ele>
        <time>2022-06-19T05:16:15Z</time>
      </trkpt>
      <trkpt lat="45.70774" lon="5.36007">
        <ele>322.6</ele>
        <time>2022-06-19T05:16:19Z</time>
      </trkpt>
      <trkpt lat="45.70773" lon="5.36016">
        <ele>322.6</ele>
        <time>2022-06-19T05:16:20Z</time>
      </trkpt>
      <trkpt lat="45.70772" lon="5.36024">
        <ele>322.2</ele>
        <time>2022-06-19T05:16:21Z</time>
      </trkpt>
      <trkpt lat="45.7077" lon="5.36033">
        <ele>322.2</ele>
        <time>2022-06-19T05:16:22Z</time>
      </trkpt>
      <trkpt lat="45.70766" lon="5.36043">
        <ele>322</ele>
        <time>2022-06-19T05:16:23Z</time>
      </trkpt>
      <trkpt lat="45.70763" lon="5.36049">
        <ele>322</ele>
        <time>2022-06-19T05:16:24Z</time>
      </trkpt>
      <trkpt lat="45.70757" lon="5.36056">
        <ele>322</ele>
        <time>2022-06-19T05:16:25Z</time>
      </trkpt>
      <trkpt lat="45.70741" lon="5.36069">
        <ele>321.8</ele>
        <time>2022-06-19T05:16:28Z</time>
      </trkpt>
      <trkpt lat="45.70729" lon="5.36078">
        <ele>321.8</ele>
        <time>2022-06-19T05:16:30Z</time>
      </trkpt>
      <trkpt lat="45.7072" lon="5.36088">
        <ele>321.8</ele>
        <time>2022-06-19T05:16:32Z</time>
      </trkpt>
      <trkpt lat="45.70715" lon="5.36095">
        <ele>321.8</ele>
        <time>2022-06-19T05:16:33Z</time>
      </trkpt>
      <trkpt lat="45.70705" lon="5.3611">
        <ele>321.8</ele>
        <time>2022-06-19T05:16:35Z</time>
      </trkpt>
      <trkpt lat="45.70691" lon="5.36138">
        <ele>321.8</ele>
        <time>2022-06-19T05:16:39Z</time>
      </trkpt>
      <trkpt lat="45.7066" lon="5.36205">
        <ele>321.2</ele>
        <time>2022-06-19T05:16:47Z</time>
      </trkpt>
      <trkpt lat="45.70656" lon="5.36213">
        <ele>321.2</ele>
        <time>2022-06-19T05:16:48Z</time>
      </trkpt>
      <trkpt lat="45.70652" lon="5.36222">
        <ele>321</ele>
        <time>2022-06-19T05:16:49Z</time>
      </trkpt>
      <trkpt lat="45.70626" lon="5.3628">
        <ele>320</ele>
        <time>2022-06-19T05:16:56Z</time>
      </trkpt>
      <trkpt lat="45.70623" lon="5.36287">
        <ele>319.6</ele>
        <time>2022-06-19T05:16:57Z</time>
      </trkpt>
      <trkpt lat="45.70615" lon="5.36305">
        <ele>319.2</ele>
        <time>2022-06-19T05:16:59Z</time>
      </trkpt>
      <trkpt lat="45.70603" lon="5.36331">
        <ele>319</ele>
        <time>2022-06-19T05:17:02Z</time>
      </trkpt>
      <trkpt lat="45.70595" lon="5.36347">
        <ele>318.6</ele>
        <time>2022-06-19T05:17:04Z</time>
      </trkpt>
      <trkpt lat="45.70568" lon="5.3639">
        <ele>317.6</ele>
        <time>2022-06-19T05:17:09Z</time>
      </trkpt>
      <trkpt lat="45.70561" lon="5.36398">
        <ele>317.2</ele>
        <time>2022-06-19T05:17:10Z</time>
      </trkpt>
      <trkpt lat="45.70535" lon="5.36435">
        <ele>316.2</ele>
        <time>2022-06-19T05:17:14Z</time>
      </trkpt>
      <trkpt lat="45.70514" lon="5.36468">
        <ele>314.6</ele>
        <time>2022-06-19T05:17:17Z</time>
      </trkpt>
      <trkpt lat="45.705" lon="5.36492">
        <ele>313.4</ele>
        <time>2022-06-19T05:17:19Z</time>
      </trkpt>
      <trkpt lat="45.70485" lon="5.36517">
        <ele>312.2</ele>
        <time>2022-06-19T05:17:21Z</time>
      </trkpt>
      <trkpt lat="45.70473" lon="5.36547">
        <ele>310.8</ele>
        <time>2022-06-19T05:17:23Z</time>
      </trkpt>
      <trkpt lat="45.70467" lon="5.36562">
        <ele>309.6</ele>
        <time>2022-06-19T05:17:24Z</time>
      </trkpt>
      <trkpt lat="45.70456" lon="5.3659">
        <ele>308.2</ele>
        <time>2022-06-19T05:17:26Z</time>
      </trkpt>
      <trkpt lat="45.7044" lon="5.36621">
        <ele>307.2</ele>
        <time>2022-06-19T05:17:28Z</time>
      </trkpt>
      <trkpt lat="45.70428" lon="5.36641">
        <ele>303.8</ele>
        <time>2022-06-19T05:17:30Z</time>
      </trkpt>
      <trkpt lat="45.70425" lon="5.36648">
        <ele>303</ele>
        <time>2022-06-19T05:17:31Z</time>
      </trkpt>
      <trkpt lat="45.70423" lon="5.36657">
        <ele>301.4</ele>
        <time>2022-06-19T05:17:32Z</time>
      </trkpt>
      <trkpt lat="45.70424" lon="5.36667">
        <ele>301</ele>
        <time>2022-06-19T05:17:33Z</time>
      </trkpt>
      <trkpt lat="45.70427" lon="5.36674">
        <ele>300</ele>
        <time>2022-06-19T05:17:34Z</time>
      </trkpt>
      <trkpt lat="45.70433" lon="5.36681">
        <ele>299.6</ele>
        <time>2022-06-19T05:17:35Z</time>
      </trkpt>
      <trkpt lat="45.70441" lon="5.36688">
        <ele>297.8</ele>
        <time>2022-06-19T05:17:36Z</time>
      </trkpt>
      <trkpt lat="45.70448" lon="5.36695">
        <ele>296.6</ele>
        <time>2022-06-19T05:17:37Z</time>
      </trkpt>
      <trkpt lat="45.70463" lon="5.36709">
        <ele>295.4</ele>
        <time>2022-06-19T05:17:39Z</time>
      </trkpt>
      <trkpt lat="45.70474" lon="5.36717">
        <ele>295.2</ele>
        <time>2022-06-19T05:17:40Z</time>
      </trkpt>
      <trkpt lat="45.70482" lon="5.36721">
        <ele>294.2</ele>
        <time>2022-06-19T05:17:41Z</time>
      </trkpt>
      <trkpt lat="45.70491" lon="5.36725">
        <ele>293.8</ele>
        <time>2022-06-19T05:17:42Z</time>
      </trkpt>
      <trkpt lat="45.70501" lon="5.36729">
        <ele>293</ele>
        <time>2022-06-19T05:17:43Z</time>
      </trkpt>
      <trkpt lat="45.7052" lon="5.36736">
        <ele>291.6</ele>
        <time>2022-06-19T05:17:45Z</time>
      </trkpt>
      <trkpt lat="45.70537" lon="5.36746">
        <ele>290.6</ele>
        <time>2022-06-19T05:17:47Z</time>
      </trkpt>
      <trkpt lat="45.70557" lon="5.36773">
        <ele>289.4</ele>
        <time>2022-06-19T05:17:50Z</time>
      </trkpt>
      <trkpt lat="45.7056" lon="5.36783">
        <ele>288.2</ele>
        <time>2022-06-19T05:17:51Z</time>
      </trkpt>
      <trkpt lat="45.70561" lon="5.36793">
        <ele>287.6</ele>
        <time>2022-06-19T05:17:52Z</time>
      </trkpt>
      <trkpt lat="45.70563" lon="5.36804">
        <ele>286.8</ele>
        <time>2022-06-19T05:17:53Z</time>
      </trkpt>
      <trkpt lat="45.70567" lon="5.36817">
        <ele>286.4</ele>
        <time>2022-06-19T05:17:54Z</time>
      </trkpt>
      <trkpt lat="45.70571" lon="5.36827">
        <ele>285.4</ele>
        <time>2022-06-19T05:17:55Z</time>
      </trkpt>
      <trkpt lat="45.70577" lon="5.36836">
        <ele>285.2</ele>
        <time>2022-06-19T05:17:56Z</time>
      </trkpt>
      <trkpt lat="45.70588" lon="5.36851">
        <ele>284.4</ele>
        <time>2022-06-19T05:17:58Z</time>
      </trkpt>
      <trkpt lat="45.70599" lon="5.36867">
        <ele>283.2</ele>
        <time>2022-06-19T05:18:00Z</time>
      </trkpt>
      <trkpt lat="45.7062" lon="5.36901">
        <ele>281.6</ele>
        <time>2022-06-19T05:18:04Z</time>
      </trkpt>
      <trkpt lat="45.70644" lon="5.36931">
        <ele>280.4</ele>
        <time>2022-06-19T05:18:08Z</time>
      </trkpt>
      <trkpt lat="45.70668" lon="5.3696">
        <ele>279.6</ele>
        <time>2022-06-19T05:18:12Z</time>
      </trkpt>
      <trkpt lat="45.70679" lon="5.36976">
        <ele>283.8</ele>
        <time>2022-06-19T05:18:14Z</time>
      </trkpt>
      <trkpt lat="45.70702" lon="5.37012">
        <ele>278.8</ele>
        <time>2022-06-19T05:18:18Z</time>
      </trkpt>
      <trkpt lat="45.70707" lon="5.37023">
        <ele>278.2</ele>
        <time>2022-06-19T05:18:19Z</time>
      </trkpt>
      <trkpt lat="45.70721" lon="5.37056">
        <ele>277.8</ele>
        <time>2022-06-19T05:18:22Z</time>
      </trkpt>
      <trkpt lat="45.70724" lon="5.37068">
        <ele>277.2</ele>
        <time>2022-06-19T05:18:23Z</time>
      </trkpt>
      <trkpt lat="45.70727" lon="5.37081">
        <ele>277</ele>
        <time>2022-06-19T05:18:24Z</time>
      </trkpt>
      <trkpt lat="45.70733" lon="5.3711">
        <ele>276</ele>
        <time>2022-06-19T05:18:26Z</time>
      </trkpt>
      <trkpt lat="45.70734" lon="5.37127">
        <ele>275.8</ele>
        <time>2022-06-19T05:18:27Z</time>
      </trkpt>
      <trkpt lat="45.70734" lon="5.37154">
        <ele>274.8</ele>
        <time>2022-06-19T05:18:29Z</time>
      </trkpt>
      <trkpt lat="45.70733" lon="5.37195">
        <ele>273.6</ele>
        <time>2022-06-19T05:18:32Z</time>
      </trkpt>
      <trkpt lat="45.70733" lon="5.37208">
        <ele>273</ele>
        <time>2022-06-19T05:18:33Z</time>
      </trkpt>
      <trkpt lat="45.70739" lon="5.3723">
        <ele>272.4</ele>
        <time>2022-06-19T05:18:35Z</time>
      </trkpt>
      <trkpt lat="45.70753" lon="5.37244">
        <ele>271.8</ele>
        <time>2022-06-19T05:18:37Z</time>
      </trkpt>
      <trkpt lat="45.70761" lon="5.37246">
        <ele>271.2</ele>
        <time>2022-06-19T05:18:38Z</time>
      </trkpt>
      <trkpt lat="45.7078" lon="5.37245">
        <ele>270</ele>
        <time>2022-06-19T05:18:40Z</time>
      </trkpt>
      <trkpt lat="45.70789" lon="5.37241">
        <ele>269.6</ele>
        <time>2022-06-19T05:18:41Z</time>
      </trkpt>
      <trkpt lat="45.70798" lon="5.37236">
        <ele>268.6</ele>
        <time>2022-06-19T05:18:42Z</time>
      </trkpt>
      <trkpt lat="45.70828" lon="5.37225">
        <ele>267</ele>
        <time>2022-06-19T05:18:46Z</time>
      </trkpt>
      <trkpt lat="45.70834" lon="5.37223">
        <ele>266.2</ele>
        <time>2022-06-19T05:18:47Z</time>
      </trkpt>
      <trkpt lat="45.70838" lon="5.37224">
        <ele>265.6</ele>
        <time>2022-06-19T05:18:48Z</time>
      </trkpt>
      <trkpt lat="45.70841" lon="5.37227">
        <ele>264.8</ele>
        <time>2022-06-19T05:18:49Z</time>
      </trkpt>
      <trkpt lat="45.7084" lon="5.37232">
        <ele>264.4</ele>
        <time>2022-06-19T05:18:50Z</time>
      </trkpt>
      <trkpt lat="45.70836" lon="5.37235">
        <ele>264</ele>
        <time>2022-06-19T05:18:51Z</time>
      </trkpt>
      <trkpt lat="45.70829" lon="5.37239">
        <ele>263.6</ele>
        <time>2022-06-19T05:18:52Z</time>
      </trkpt>
      <trkpt lat="45.70824" lon="5.37242">
        <ele>263.4</ele>
        <time>2022-06-19T05:18:53Z</time>
      </trkpt>
      <trkpt lat="45.70817" lon="5.37245">
        <ele>262.8</ele>
        <time>2022-06-19T05:18:54Z</time>
      </trkpt>
      <trkpt lat="45.70804" lon="5.37254">
        <ele>262</ele>
        <time>2022-06-19T05:18:56Z</time>
      </trkpt>
      <trkpt lat="45.70774" lon="5.37274">
        <ele>261</ele>
        <time>2022-06-19T05:19:00Z</time>
      </trkpt>
      <trkpt lat="45.70735" lon="5.37297">
        <ele>259.6</ele>
        <time>2022-06-19T05:19:05Z</time>
      </trkpt>
      <trkpt lat="45.70718" lon="5.37309">
        <ele>259.2</ele>
        <time>2022-06-19T05:19:07Z</time>
      </trkpt>
      <trkpt lat="45.70689" lon="5.37331">
        <ele>258.6</ele>
        <time>2022-06-19T05:19:11Z</time>
      </trkpt>
      <trkpt lat="45.70673" lon="5.37341">
        <ele>257.4</ele>
        <time>2022-06-19T05:19:13Z</time>
      </trkpt>
      <trkpt lat="45.70665" lon="5.37346">
        <ele>257.4</ele>
        <time>2022-06-19T05:19:14Z</time>
      </trkpt>
      <trkpt lat="45.70648" lon="5.37356">
        <ele>257</ele>
        <time>2022-06-19T05:19:16Z</time>
      </trkpt>
      <trkpt lat="45.70638" lon="5.37372">
        <ele>256.8</ele>
        <time>2022-06-19T05:19:18Z</time>
      </trkpt>
      <trkpt lat="45.70631" lon="5.37395">
        <ele>256.2</ele>
        <time>2022-06-19T05:19:20Z</time>
      </trkpt>
      <trkpt lat="45.70617" lon="5.37441">
        <ele>255.2</ele>
        <time>2022-06-19T05:19:24Z</time>
      </trkpt>
      <trkpt lat="45.70613" lon="5.37455">
        <ele>255.2</ele>
        <time>2022-06-19T05:19:25Z</time>
      </trkpt>
      <trkpt lat="45.70603" lon="5.37491">
        <ele>254.2</ele>
        <time>2022-06-19T05:19:28Z</time>
      </trkpt>
      <trkpt lat="45.70587" lon="5.37537">
        <ele>253.2</ele>
        <time>2022-06-19T05:19:32Z</time>
      </trkpt>
      <trkpt lat="45.70576" lon="5.37573">
        <ele>252</ele>
        <time>2022-06-19T05:19:35Z</time>
      </trkpt>
      <trkpt lat="45.70571" lon="5.37599">
        <ele>251.4</ele>
        <time>2022-06-19T05:19:37Z</time>
      </trkpt>
      <trkpt lat="45.7057" lon="5.37613">
        <ele>251</ele>
        <time>2022-06-19T05:19:38Z</time>
      </trkpt>
      <trkpt lat="45.70572" lon="5.37653">
        <ele>250.4</ele>
        <time>2022-06-19T05:19:41Z</time>
      </trkpt>
      <trkpt lat="45.70575" lon="5.37679">
        <ele>249.6</ele>
        <time>2022-06-19T05:19:43Z</time>
      </trkpt>
      <trkpt lat="45.70579" lon="5.37703">
        <ele>249</ele>
        <time>2022-06-19T05:19:45Z</time>
      </trkpt>
      <trkpt lat="45.70579" lon="5.37715">
        <ele>249</ele>
        <time>2022-06-19T05:19:46Z</time>
      </trkpt>
      <trkpt lat="45.70578" lon="5.37728">
        <ele>249</ele>
        <time>2022-06-19T05:19:47Z</time>
      </trkpt>
      <trkpt lat="45.7057" lon="5.37749">
        <ele>248.8</ele>
        <time>2022-06-19T05:19:49Z</time>
      </trkpt>
      <trkpt lat="45.70558" lon="5.37764">
        <ele>248.8</ele>
        <time>2022-06-19T05:19:51Z</time>
      </trkpt>
      <trkpt lat="45.70545" lon="5.37777">
        <ele>248.8</ele>
        <time>2022-06-19T05:19:53Z</time>
      </trkpt>
      <trkpt lat="45.70534" lon="5.37792">
        <ele>249</ele>
        <time>2022-06-19T05:19:55Z</time>
      </trkpt>
      <trkpt lat="45.70531" lon="5.37801">
        <ele>249</ele>
        <time>2022-06-19T05:19:56Z</time>
      </trkpt>
      <trkpt lat="45.70528" lon="5.37812">
        <ele>249.2</ele>
        <time>2022-06-19T05:19:57Z</time>
      </trkpt>
      <trkpt lat="45.70524" lon="5.37837">
        <ele>250</ele>
        <time>2022-06-19T05:20:00Z</time>
      </trkpt>
      <trkpt lat="45.70515" lon="5.37856">
        <ele>250.2</ele>
        <time>2022-06-19T05:20:02Z</time>
      </trkpt>
      <trkpt lat="45.70509" lon="5.37863">
        <ele>250.2</ele>
        <time>2022-06-19T05:20:03Z</time>
      </trkpt>
      <trkpt lat="45.70502" lon="5.37872">
        <ele>250.2</ele>
        <time>2022-06-19T05:20:04Z</time>
      </trkpt>
      <trkpt lat="45.70487" lon="5.37888">
        <ele>250.2</ele>
        <time>2022-06-19T05:20:06Z</time>
      </trkpt>
      <trkpt lat="45.7048" lon="5.37898">
        <ele>250.2</ele>
        <time>2022-06-19T05:20:07Z</time>
      </trkpt>
      <trkpt lat="45.70461" lon="5.37934">
        <ele>249.6</ele>
        <time>2022-06-19T05:20:10Z</time>
      </trkpt>
      <trkpt lat="45.70442" lon="5.37971">
        <ele>248.2</ele>
        <time>2022-06-19T05:20:13Z</time>
      </trkpt>
      <trkpt lat="45.70434" lon="5.37982">
        <ele>247.6</ele>
        <time>2022-06-19T05:20:14Z</time>
      </trkpt>
      <trkpt lat="45.70425" lon="5.3799">
        <ele>247</ele>
        <time>2022-06-19T05:20:15Z</time>
      </trkpt>
      <trkpt lat="45.70406" lon="5.38002">
        <ele>245.8</ele>
        <time>2022-06-19T05:20:17Z</time>
      </trkpt>
      <trkpt lat="45.70396" lon="5.38008">
        <ele>244.8</ele>
        <time>2022-06-19T05:20:18Z</time>
      </trkpt>
      <trkpt lat="45.70388" lon="5.38018">
        <ele>244.4</ele>
        <time>2022-06-19T05:20:19Z</time>
      </trkpt>
      <trkpt lat="45.70383" lon="5.38029">
        <ele>244</ele>
        <time>2022-06-19T05:20:20Z</time>
      </trkpt>
      <trkpt lat="45.70379" lon="5.38042">
        <ele>243.4</ele>
        <time>2022-06-19T05:20:21Z</time>
      </trkpt>
      <trkpt lat="45.70377" lon="5.38055">
        <ele>243.2</ele>
        <time>2022-06-19T05:20:22Z</time>
      </trkpt>
      <trkpt lat="45.70376" lon="5.38068">
        <ele>242.8</ele>
        <time>2022-06-19T05:20:23Z</time>
      </trkpt>
      <trkpt lat="45.70372" lon="5.38105">
        <ele>242.2</ele>
        <time>2022-06-19T05:20:26Z</time>
      </trkpt>
      <trkpt lat="45.70367" lon="5.38128">
        <ele>242</ele>
        <time>2022-06-19T05:20:28Z</time>
      </trkpt>
      <trkpt lat="45.70348" lon="5.38204">
        <ele>241.4</ele>
        <time>2022-06-19T05:20:35Z</time>
      </trkpt>
      <trkpt lat="45.70345" lon="5.38214">
        <ele>241.4</ele>
        <time>2022-06-19T05:20:36Z</time>
      </trkpt>
      <trkpt lat="45.70335" lon="5.38254">
        <ele>241</ele>
        <time>2022-06-19T05:20:40Z</time>
      </trkpt>
      <trkpt lat="45.70333" lon="5.38263">
        <ele>241</ele>
        <time>2022-06-19T05:20:41Z</time>
      </trkpt>
      <trkpt lat="45.70327" lon="5.38289">
        <ele>240.8</ele>
        <time>2022-06-19T05:20:46Z</time>
      </trkpt>
      <trkpt lat="45.70327" lon="5.3829">
        <ele>240.8</ele>
        <time>2022-06-19T05:20:47Z</time>
      </trkpt>
      <trkpt lat="45.70327" lon="5.38294">
        <ele>240.8</ele>
        <time>2022-06-19T05:20:49Z</time>
      </trkpt>
      <trkpt lat="45.70327" lon="5.38297">
        <ele>240.6</ele>
        <time>2022-06-19T05:20:50Z</time>
      </trkpt>
      <trkpt lat="45.70319" lon="5.38313">
        <ele>240.6</ele>
        <time>2022-06-19T05:20:54Z</time>
      </trkpt>
      <trkpt lat="45.70302" lon="5.3834">
        <ele>240.8</ele>
        <time>2022-06-19T05:20:59Z</time>
      </trkpt>
      <trkpt lat="45.70283" lon="5.3837">
        <ele>241</ele>
        <time>2022-06-19T05:21:04Z</time>
      </trkpt>
      <trkpt lat="45.70279" lon="5.38376">
        <ele>241</ele>
        <time>2022-06-19T05:21:05Z</time>
      </trkpt>
      <trkpt lat="45.70247" lon="5.38427">
        <ele>241</ele>
        <time>2022-06-19T05:21:13Z</time>
      </trkpt>
      <trkpt lat="45.7023" lon="5.38477">
        <ele>241</ele>
        <time>2022-06-19T05:21:19Z</time>
      </trkpt>
      <trkpt lat="45.70227" lon="5.38494">
        <ele>241</ele>
        <time>2022-06-19T05:21:21Z</time>
      </trkpt>
      <trkpt lat="45.70225" lon="5.38512">
        <ele>240.8</ele>
        <time>2022-06-19T05:21:23Z</time>
      </trkpt>
      <trkpt lat="45.70225" lon="5.38522">
        <ele>240.8</ele>
        <time>2022-06-19T05:21:24Z</time>
      </trkpt>
      <trkpt lat="45.70226" lon="5.386">
        <ele>240</ele>
        <time>2022-06-19T05:21:32Z</time>
      </trkpt>
      <trkpt lat="45.70224" lon="5.38617">
        <ele>239.6</ele>
        <time>2022-06-19T05:21:34Z</time>
      </trkpt>
      <trkpt lat="45.70223" lon="5.3864">
        <ele>239.2</ele>
        <time>2022-06-19T05:21:36Z</time>
      </trkpt>
      <trkpt lat="45.70223" lon="5.38662">
        <ele>238.8</ele>
        <time>2022-06-19T05:21:38Z</time>
      </trkpt>
      <trkpt lat="45.70224" lon="5.3867">
        <ele>238.8</ele>
        <time>2022-06-19T05:21:39Z</time>
      </trkpt>
      <trkpt lat="45.70227" lon="5.38707">
        <ele>238</ele>
        <time>2022-06-19T05:21:42Z</time>
      </trkpt>
      <trkpt lat="45.70229" lon="5.38717">
        <ele>237.6</ele>
        <time>2022-06-19T05:21:43Z</time>
      </trkpt>
      <trkpt lat="45.7023" lon="5.38729">
        <ele>237.4</ele>
        <time>2022-06-19T05:21:44Z</time>
      </trkpt>
      <trkpt lat="45.70233" lon="5.38756">
        <ele>236.8</ele>
        <time>2022-06-19T05:21:46Z</time>
      </trkpt>
      <trkpt lat="45.70234" lon="5.38765">
        <ele>236.2</ele>
        <time>2022-06-19T05:21:47Z</time>
      </trkpt>
      <trkpt lat="45.70234" lon="5.38789">
        <ele>235.4</ele>
        <time>2022-06-19T05:21:49Z</time>
      </trkpt>
      <trkpt lat="45.70234" lon="5.38801">
        <ele>235</ele>
        <time>2022-06-19T05:21:50Z</time>
      </trkpt>
      <trkpt lat="45.70234" lon="5.38869">
        <ele>234</ele>
        <time>2022-06-19T05:21:56Z</time>
      </trkpt>
      <trkpt lat="45.70236" lon="5.38928">
        <ele>233</ele>
        <time>2022-06-19T05:22:02Z</time>
      </trkpt>
      <trkpt lat="45.70237" lon="5.38937">
        <ele>233</ele>
        <time>2022-06-19T05:22:03Z</time>
      </trkpt>
      <trkpt lat="45.70242" lon="5.38981">
        <ele>232.8</ele>
        <time>2022-06-19T05:22:08Z</time>
      </trkpt>
      <trkpt lat="45.70248" lon="5.38996">
        <ele>232.6</ele>
        <time>2022-06-19T05:22:10Z</time>
      </trkpt>
      <trkpt lat="45.70256" lon="5.3901">
        <ele>232.6</ele>
        <time>2022-06-19T05:22:12Z</time>
      </trkpt>
      <trkpt lat="45.70299" lon="5.39066">
        <ele>232.4</ele>
        <time>2022-06-19T05:22:21Z</time>
      </trkpt>
      <trkpt lat="45.70341" lon="5.39119">
        <ele>232.6</ele>
        <time>2022-06-19T05:22:30Z</time>
      </trkpt>
      <trkpt lat="45.70346" lon="5.39126">
        <ele>232.6</ele>
        <time>2022-06-19T05:22:31Z</time>
      </trkpt>
      <trkpt lat="45.70378" lon="5.39168">
        <ele>233.2</ele>
        <time>2022-06-19T05:22:38Z</time>
      </trkpt>
      <trkpt lat="45.70381" lon="5.39176">
        <ele>233.2</ele>
        <time>2022-06-19T05:22:39Z</time>
      </trkpt>
      <trkpt lat="45.70384" lon="5.39184">
        <ele>233.4</ele>
        <time>2022-06-19T05:22:40Z</time>
      </trkpt>
      <trkpt lat="45.70388" lon="5.39211">
        <ele>233.6</ele>
        <time>2022-06-19T05:22:43Z</time>
      </trkpt>
      <trkpt lat="45.704" lon="5.39296">
        <ele>234</ele>
        <time>2022-06-19T05:22:52Z</time>
      </trkpt>
      <trkpt lat="45.70402" lon="5.39306">
        <ele>234</ele>
        <time>2022-06-19T05:22:53Z</time>
      </trkpt>
      <trkpt lat="45.70416" lon="5.39389">
        <ele>233.4</ele>
        <time>2022-06-19T05:23:02Z</time>
      </trkpt>
      <trkpt lat="45.70417" lon="5.39398">
        <ele>233.4</ele>
        <time>2022-06-19T05:23:03Z</time>
      </trkpt>
      <trkpt lat="45.70422" lon="5.39481">
        <ele>234</ele>
        <time>2022-06-19T05:23:12Z</time>
      </trkpt>
      <trkpt lat="45.70425" lon="5.39527">
        <ele>234.2</ele>
        <time>2022-06-19T05:23:17Z</time>
      </trkpt>
      <trkpt lat="45.70426" lon="5.39546">
        <ele>234.4</ele>
        <time>2022-06-19T05:23:19Z</time>
      </trkpt>
      <trkpt lat="45.70431" lon="5.3962">
        <ele>234.4</ele>
        <time>2022-06-19T05:23:27Z</time>
      </trkpt>
      <trkpt lat="45.70448" lon="5.39693">
        <ele>234.6</ele>
        <time>2022-06-19T05:23:35Z</time>
      </trkpt>
      <trkpt lat="45.70467" lon="5.39763">
        <ele>234.2</ele>
        <time>2022-06-19T05:23:43Z</time>
      </trkpt>
      <trkpt lat="45.70485" lon="5.39821">
        <ele>234.6</ele>
        <time>2022-06-19T05:23:50Z</time>
      </trkpt>
      <trkpt lat="45.70508" lon="5.39884">
        <ele>235.2</ele>
        <time>2022-06-19T05:23:58Z</time>
      </trkpt>
      <trkpt lat="45.70526" lon="5.39931">
        <ele>235.8</ele>
        <time>2022-06-19T05:24:04Z</time>
      </trkpt>
      <trkpt lat="45.7053" lon="5.3994">
        <ele>235.8</ele>
        <time>2022-06-19T05:24:05Z</time>
      </trkpt>
      <trkpt lat="45.70558" lon="5.40014">
        <ele>235.4</ele>
        <time>2022-06-19T05:24:14Z</time>
      </trkpt>
      <trkpt lat="45.70576" lon="5.40085">
        <ele>235.2</ele>
        <time>2022-06-19T05:24:22Z</time>
      </trkpt>
      <trkpt lat="45.70587" lon="5.40159">
        <ele>235</ele>
        <time>2022-06-19T05:24:30Z</time>
      </trkpt>
      <trkpt lat="45.70598" lon="5.40242">
        <ele>234.8</ele>
        <time>2022-06-19T05:24:39Z</time>
      </trkpt>
      <trkpt lat="45.706" lon="5.40252">
        <ele>234.8</ele>
        <time>2022-06-19T05:24:40Z</time>
      </trkpt>
      <trkpt lat="45.70613" lon="5.40328">
        <ele>235</ele>
        <time>2022-06-19T05:24:48Z</time>
      </trkpt>
      <trkpt lat="45.7062" lon="5.40355">
        <ele>235.4</ele>
        <time>2022-06-19T05:24:51Z</time>
      </trkpt>
      <trkpt lat="45.70638" lon="5.40429">
        <ele>234.8</ele>
        <time>2022-06-19T05:24:59Z</time>
      </trkpt>
      <trkpt lat="45.70642" lon="5.40447">
        <ele>234.8</ele>
        <time>2022-06-19T05:25:01Z</time>
      </trkpt>
      <trkpt lat="45.7066" lon="5.4052">
        <ele>234.6</ele>
        <time>2022-06-19T05:25:09Z</time>
      </trkpt>
      <trkpt lat="45.70669" lon="5.40557">
        <ele>234.6</ele>
        <time>2022-06-19T05:25:13Z</time>
      </trkpt>
      <trkpt lat="45.70687" lon="5.4063">
        <ele>234.4</ele>
        <time>2022-06-19T05:25:21Z</time>
      </trkpt>
      <trkpt lat="45.7069" lon="5.40639">
        <ele>234</ele>
        <time>2022-06-19T05:25:22Z</time>
      </trkpt>
      <trkpt lat="45.70696" lon="5.40665">
        <ele>234.2</ele>
        <time>2022-06-19T05:25:25Z</time>
      </trkpt>
      <trkpt lat="45.70718" lon="5.40737">
        <ele>234</ele>
        <time>2022-06-19T05:25:33Z</time>
      </trkpt>
      <trkpt lat="45.7074" lon="5.40808">
        <ele>233.8</ele>
        <time>2022-06-19T05:25:41Z</time>
      </trkpt>
      <trkpt lat="45.70748" lon="5.40835">
        <ele>233.6</ele>
        <time>2022-06-19T05:25:44Z</time>
      </trkpt>
      <trkpt lat="45.70772" lon="5.40906">
        <ele>233</ele>
        <time>2022-06-19T05:25:52Z</time>
      </trkpt>
      <trkpt lat="45.70777" lon="5.40924">
        <ele>232.6</ele>
        <time>2022-06-19T05:25:55Z</time>
      </trkpt>
      <trkpt lat="45.70803" lon="5.41006">
        <ele>232</ele>
        <time>2022-06-19T05:26:03Z</time>
      </trkpt>
      <trkpt lat="45.70807" lon="5.41016">
        <ele>231.8</ele>
        <time>2022-06-19T05:26:04Z</time>
      </trkpt>
      <trkpt lat="45.70812" lon="5.41035">
        <ele>231.8</ele>
        <time>2022-06-19T05:26:06Z</time>
      </trkpt>
      <trkpt lat="45.70832" lon="5.41099">
        <ele>231.4</ele>
        <time>2022-06-19T05:26:13Z</time>
      </trkpt>
      <trkpt lat="45.70837" lon="5.41115">
        <ele>231.4</ele>
        <time>2022-06-19T05:26:15Z</time>
      </trkpt>
      <trkpt lat="45.7086" lon="5.41189">
        <ele>231</ele>
        <time>2022-06-19T05:26:23Z</time>
      </trkpt>
      <trkpt lat="45.70865" lon="5.41208">
        <ele>231</ele>
        <time>2022-06-19T05:26:25Z</time>
      </trkpt>
      <trkpt lat="45.70868" lon="5.41217">
        <ele>230.8</ele>
        <time>2022-06-19T05:26:26Z</time>
      </trkpt>
      <trkpt lat="45.70891" lon="5.41284">
        <ele>230.8</ele>
        <time>2022-06-19T05:26:34Z</time>
      </trkpt>
      <trkpt lat="45.709" lon="5.41298">
        <ele>230.6</ele>
        <time>2022-06-19T05:26:37Z</time>
      </trkpt>
      <trkpt lat="45.70901" lon="5.41299">
        <ele>230.6</ele>
        <time>2022-06-19T05:26:38Z</time>
      </trkpt>
      <trkpt lat="45.70901" lon="5.413">
        <ele>230.6</ele>
        <time>2022-06-19T05:26:40Z</time>
      </trkpt>
      <trkpt lat="45.70901" lon="5.413">
        <ele>229.8</ele>
        <time>2022-06-19T05:26:51Z</time>
      </trkpt>
      <trkpt lat="45.70903" lon="5.41309">
        <ele>229.8</ele>
        <time>2022-06-19T05:26:59Z</time>
      </trkpt>
      <trkpt lat="45.70904" lon="5.41315">
        <ele>229.8</ele>
        <time>2022-06-19T05:27:00Z</time>
      </trkpt>
      <trkpt lat="45.70907" lon="5.41329">
        <ele>229.8</ele>
        <time>2022-06-19T05:27:02Z</time>
      </trkpt>
      <trkpt lat="45.70922" lon="5.41377">
        <ele>229.6</ele>
        <time>2022-06-19T05:27:08Z</time>
      </trkpt>
      <trkpt lat="45.70942" lon="5.41445">
        <ele>229.6</ele>
        <time>2022-06-19T05:27:16Z</time>
      </trkpt>
      <trkpt lat="45.7096" lon="5.4152">
        <ele>229.4</ele>
        <time>2022-06-19T05:27:24Z</time>
      </trkpt>
      <trkpt lat="45.70969" lon="5.41585">
        <ele>228.8</ele>
        <time>2022-06-19T05:27:30Z</time>
      </trkpt>
      <trkpt lat="45.70972" lon="5.41608">
        <ele>228.6</ele>
        <time>2022-06-19T05:27:32Z</time>
      </trkpt>
      <trkpt lat="45.70976" lon="5.41642">
        <ele>227.6</ele>
        <time>2022-06-19T05:27:35Z</time>
      </trkpt>
      <trkpt lat="45.70977" lon="5.41665">
        <ele>227.2</ele>
        <time>2022-06-19T05:27:37Z</time>
      </trkpt>
      <trkpt lat="45.70977" lon="5.41677">
        <ele>227</ele>
        <time>2022-06-19T05:27:38Z</time>
      </trkpt>
      <trkpt lat="45.70972" lon="5.41724">
        <ele>226.6</ele>
        <time>2022-06-19T05:27:42Z</time>
      </trkpt>
      <trkpt lat="45.70967" lon="5.4176">
        <ele>226.4</ele>
        <time>2022-06-19T05:27:45Z</time>
      </trkpt>
      <trkpt lat="45.7096" lon="5.41819">
        <ele>225.4</ele>
        <time>2022-06-19T05:27:50Z</time>
      </trkpt>
      <trkpt lat="45.70955" lon="5.41866">
        <ele>224.8</ele>
        <time>2022-06-19T05:27:54Z</time>
      </trkpt>
      <trkpt lat="45.70947" lon="5.41945">
        <ele>224.6</ele>
        <time>2022-06-19T05:28:01Z</time>
      </trkpt>
      <trkpt lat="45.70944" lon="5.41967">
        <ele>224.8</ele>
        <time>2022-06-19T05:28:03Z</time>
      </trkpt>
      <trkpt lat="45.70935" lon="5.42045">
        <ele>224.8</ele>
        <time>2022-06-19T05:28:10Z</time>
      </trkpt>
      <trkpt lat="45.70933" lon="5.42068">
        <ele>224.8</ele>
        <time>2022-06-19T05:28:12Z</time>
      </trkpt>
      <trkpt lat="45.70927" lon="5.42132">
        <ele>224.8</ele>
        <time>2022-06-19T05:28:18Z</time>
      </trkpt>
      <trkpt lat="45.70922" lon="5.42222">
        <ele>224.8</ele>
        <time>2022-06-19T05:28:26Z</time>
      </trkpt>
      <trkpt lat="45.70921" lon="5.42233">
        <ele>224.8</ele>
        <time>2022-06-19T05:28:27Z</time>
      </trkpt>
      <trkpt lat="45.70918" lon="5.42311">
        <ele>224.8</ele>
        <time>2022-06-19T05:28:34Z</time>
      </trkpt>
      <trkpt lat="45.70919" lon="5.42322">
        <ele>224.8</ele>
        <time>2022-06-19T05:28:35Z</time>
      </trkpt>
      <trkpt lat="45.70921" lon="5.42333">
        <ele>224.8</ele>
        <time>2022-06-19T05:28:36Z</time>
      </trkpt>
      <trkpt lat="45.7093" lon="5.42352">
        <ele>225</ele>
        <time>2022-06-19T05:28:38Z</time>
      </trkpt>
      <trkpt lat="45.70953" lon="5.42383">
        <ele>225.2</ele>
        <time>2022-06-19T05:28:42Z</time>
      </trkpt>
      <trkpt lat="45.70977" lon="5.42427">
        <ele>225.2</ele>
        <time>2022-06-19T05:28:47Z</time>
      </trkpt>
      <trkpt lat="45.70984" lon="5.42445">
        <ele>225.2</ele>
        <time>2022-06-19T05:28:49Z</time>
      </trkpt>
      <trkpt lat="45.70988" lon="5.42466">
        <ele>225.2</ele>
        <time>2022-06-19T05:28:51Z</time>
      </trkpt>
      <trkpt lat="45.71" lon="5.42516">
        <ele>225.2</ele>
        <time>2022-06-19T05:28:56Z</time>
      </trkpt>
      <trkpt lat="45.7103" lon="5.4258">
        <ele>225</ele>
        <time>2022-06-19T05:29:03Z</time>
      </trkpt>
      <trkpt lat="45.71055" lon="5.42613">
        <ele>224.6</ele>
        <time>2022-06-19T05:29:08Z</time>
      </trkpt>
      <trkpt lat="45.71065" lon="5.42625">
        <ele>224.6</ele>
        <time>2022-06-19T05:29:10Z</time>
      </trkpt>
      <trkpt lat="45.71078" lon="5.42643">
        <ele>224.4</ele>
        <time>2022-06-19T05:29:13Z</time>
      </trkpt>
      <trkpt lat="45.71082" lon="5.42649">
        <ele>224.4</ele>
        <time>2022-06-19T05:29:14Z</time>
      </trkpt>
      <trkpt lat="45.71084" lon="5.42656">
        <ele>224.4</ele>
        <time>2022-06-19T05:29:15Z</time>
      </trkpt>
      <trkpt lat="45.71088" lon="5.42671">
        <ele>224.2</ele>
        <time>2022-06-19T05:29:17Z</time>
      </trkpt>
      <trkpt lat="45.71089" lon="5.42679">
        <ele>224.2</ele>
        <time>2022-06-19T05:29:18Z</time>
      </trkpt>
      <trkpt lat="45.71092" lon="5.42745">
        <ele>224.4</ele>
        <time>2022-06-19T05:29:26Z</time>
      </trkpt>
      <trkpt lat="45.71094" lon="5.42817">
        <ele>224.8</ele>
        <time>2022-06-19T05:29:35Z</time>
      </trkpt>
      <trkpt lat="45.711" lon="5.42874">
        <ele>225.6</ele>
        <time>2022-06-19T05:29:42Z</time>
      </trkpt>
      <trkpt lat="45.711" lon="5.42882">
        <ele>225.8</ele>
        <time>2022-06-19T05:29:43Z</time>
      </trkpt>
      <trkpt lat="45.71107" lon="5.42945">
        <ele>226.8</ele>
        <time>2022-06-19T05:29:51Z</time>
      </trkpt>
      <trkpt lat="45.71112" lon="5.42985">
        <ele>228.2</ele>
        <time>2022-06-19T05:29:57Z</time>
      </trkpt>
      <trkpt lat="45.71114" lon="5.42989">
        <ele>228.2</ele>
        <time>2022-06-19T05:29:58Z</time>
      </trkpt>
      <trkpt lat="45.71119" lon="5.43004">
        <ele>229</ele>
        <time>2022-06-19T05:30:03Z</time>
      </trkpt>
      <trkpt lat="45.71119" lon="5.43004">
        <ele>229.2</ele>
        <time>2022-06-19T05:30:05Z</time>
      </trkpt>
      <trkpt lat="45.71122" lon="5.4301">
        <ele>229.2</ele>
        <time>2022-06-19T05:30:08Z</time>
      </trkpt>
      <trkpt lat="45.71134" lon="5.43017">
        <ele>229.2</ele>
        <time>2022-06-19T05:30:12Z</time>
      </trkpt>
      <trkpt lat="45.71138" lon="5.43017">
        <ele>229.4</ele>
        <time>2022-06-19T05:30:13Z</time>
      </trkpt>
      <trkpt lat="45.71156" lon="5.43009">
        <ele>229.6</ele>
        <time>2022-06-19T05:30:17Z</time>
      </trkpt>
      <trkpt lat="45.71166" lon="5.43004">
        <ele>229.8</ele>
        <time>2022-06-19T05:30:19Z</time>
      </trkpt>
      <trkpt lat="45.7118" lon="5.42998">
        <ele>230</ele>
        <time>2022-06-19T05:30:22Z</time>
      </trkpt>
      <trkpt lat="45.71184" lon="5.42996">
        <ele>230.2</ele>
        <time>2022-06-19T05:30:23Z</time>
      </trkpt>
      <trkpt lat="45.71197" lon="5.42988">
        <ele>230.4</ele>
        <time>2022-06-19T05:30:26Z</time>
      </trkpt>
      <trkpt lat="45.71206" lon="5.4298">
        <ele>230.8</ele>
        <time>2022-06-19T05:30:28Z</time>
      </trkpt>
      <trkpt lat="45.71216" lon="5.42973">
        <ele>230.8</ele>
        <time>2022-06-19T05:30:30Z</time>
      </trkpt>
      <trkpt lat="45.71231" lon="5.42962">
        <ele>231.2</ele>
        <time>2022-06-19T05:30:33Z</time>
      </trkpt>
      <trkpt lat="45.71241" lon="5.42956">
        <ele>231.6</ele>
        <time>2022-06-19T05:30:35Z</time>
      </trkpt>
      <trkpt lat="45.71273" lon="5.42951">
        <ele>232</ele>
        <time>2022-06-19T05:30:41Z</time>
      </trkpt>
      <trkpt lat="45.71284" lon="5.42949">
        <ele>232.2</ele>
        <time>2022-06-19T05:30:43Z</time>
      </trkpt>
      <trkpt lat="45.71311" lon="5.42944">
        <ele>232.4</ele>
        <time>2022-06-19T05:30:48Z</time>
      </trkpt>
      <trkpt lat="45.71353" lon="5.4293">
        <ele>233.2</ele>
        <time>2022-06-19T05:30:56Z</time>
      </trkpt>
      <trkpt lat="45.71365" lon="5.42927">
        <ele>233.4</ele>
        <time>2022-06-19T05:30:58Z</time>
      </trkpt>
      <trkpt lat="45.71371" lon="5.42927">
        <ele>233.4</ele>
        <time>2022-06-19T05:30:59Z</time>
      </trkpt>
      <trkpt lat="45.71381" lon="5.42927">
        <ele>233.8</ele>
        <time>2022-06-19T05:31:01Z</time>
      </trkpt>
      <trkpt lat="45.7139" lon="5.42926">
        <ele>234</ele>
        <time>2022-06-19T05:31:03Z</time>
      </trkpt>
      <trkpt lat="45.71397" lon="5.42919">
        <ele>234.2</ele>
        <time>2022-06-19T05:31:05Z</time>
      </trkpt>
      <trkpt lat="45.71406" lon="5.429">
        <ele>234.4</ele>
        <time>2022-06-19T05:31:08Z</time>
      </trkpt>
      <trkpt lat="45.71409" lon="5.42893">
        <ele>234.6</ele>
        <time>2022-06-19T05:31:09Z</time>
      </trkpt>
      <trkpt lat="45.71412" lon="5.42887">
        <ele>234.8</ele>
        <time>2022-06-19T05:31:10Z</time>
      </trkpt>
      <trkpt lat="45.71429" lon="5.42857">
        <ele>235</ele>
        <time>2022-06-19T05:31:15Z</time>
      </trkpt>
      <trkpt lat="45.71435" lon="5.4285">
        <ele>235</ele>
        <time>2022-06-19T05:31:16Z</time>
      </trkpt>
      <trkpt lat="45.71445" lon="5.42844">
        <ele>235.2</ele>
        <time>2022-06-19T05:31:18Z</time>
      </trkpt>
      <trkpt lat="45.71456" lon="5.42844">
        <ele>235.4</ele>
        <time>2022-06-19T05:31:20Z</time>
      </trkpt>
      <trkpt lat="45.71461" lon="5.42846">
        <ele>235.4</ele>
        <time>2022-06-19T05:31:21Z</time>
      </trkpt>
      <trkpt lat="45.71466" lon="5.42849">
        <ele>235.6</ele>
        <time>2022-06-19T05:31:22Z</time>
      </trkpt>
      <trkpt lat="45.71501" lon="5.42868">
        <ele>236.4</ele>
        <time>2022-06-19T05:31:29Z</time>
      </trkpt>
      <trkpt lat="45.71512" lon="5.42873">
        <ele>236.6</ele>
        <time>2022-06-19T05:31:31Z</time>
      </trkpt>
      <trkpt lat="45.71551" lon="5.42893">
        <ele>237.6</ele>
        <time>2022-06-19T05:31:39Z</time>
      </trkpt>
      <trkpt lat="45.71556" lon="5.42896">
        <ele>237.8</ele>
        <time>2022-06-19T05:31:40Z</time>
      </trkpt>
      <trkpt lat="45.71579" lon="5.4291">
        <ele>239</ele>
        <time>2022-06-19T05:31:45Z</time>
      </trkpt>
      <trkpt lat="45.716" lon="5.42924">
        <ele>240</ele>
        <time>2022-06-19T05:31:50Z</time>
      </trkpt>
      <trkpt lat="45.71624" lon="5.42942">
        <ele>241.4</ele>
        <time>2022-06-19T05:31:56Z</time>
      </trkpt>
      <trkpt lat="45.71636" lon="5.42949">
        <ele>242.4</ele>
        <time>2022-06-19T05:31:59Z</time>
      </trkpt>
      <trkpt lat="45.7164" lon="5.42952">
        <ele>242.4</ele>
        <time>2022-06-19T05:32:00Z</time>
      </trkpt>
      <trkpt lat="45.71653" lon="5.42958">
        <ele>243.4</ele>
        <time>2022-06-19T05:32:03Z</time>
      </trkpt>
      <trkpt lat="45.71657" lon="5.42959">
        <ele>244</ele>
        <time>2022-06-19T05:32:04Z</time>
      </trkpt>
      <trkpt lat="45.71666" lon="5.42962">
        <ele>244.8</ele>
        <time>2022-06-19T05:32:06Z</time>
      </trkpt>
      <trkpt lat="45.71671" lon="5.42963">
        <ele>245</ele>
        <time>2022-06-19T05:32:07Z</time>
      </trkpt>
      <trkpt lat="45.71689" lon="5.42967">
        <ele>246.2</ele>
        <time>2022-06-19T05:32:11Z</time>
      </trkpt>
      <trkpt lat="45.71699" lon="5.42969">
        <ele>246.6</ele>
        <time>2022-06-19T05:32:13Z</time>
      </trkpt>
      <trkpt lat="45.71721" lon="5.42973">
        <ele>247.6</ele>
        <time>2022-06-19T05:32:18Z</time>
      </trkpt>
      <trkpt lat="45.7174" lon="5.42977">
        <ele>248.8</ele>
        <time>2022-06-19T05:32:22Z</time>
      </trkpt>
      <trkpt lat="45.71745" lon="5.42978">
        <ele>249</ele>
        <time>2022-06-19T05:32:23Z</time>
      </trkpt>
      <trkpt lat="45.71766" lon="5.42983">
        <ele>249.8</ele>
        <time>2022-06-19T05:32:27Z</time>
      </trkpt>
      <trkpt lat="45.71787" lon="5.4299">
        <ele>250.2</ele>
        <time>2022-06-19T05:32:31Z</time>
      </trkpt>
      <trkpt lat="45.71838" lon="5.43014">
        <ele>250.2</ele>
        <time>2022-06-19T05:32:41Z</time>
      </trkpt>
      <trkpt lat="45.71883" lon="5.43036">
        <ele>249.8</ele>
        <time>2022-06-19T05:32:49Z</time>
      </trkpt>
      <trkpt lat="45.71935" lon="5.43066">
        <ele>249.8</ele>
        <time>2022-06-19T05:32:58Z</time>
      </trkpt>
      <trkpt lat="45.71983" lon="5.43103">
        <ele>250.2</ele>
        <time>2022-06-19T05:33:07Z</time>
      </trkpt>
      <trkpt lat="45.72031" lon="5.43141">
        <ele>251</ele>
        <time>2022-06-19T05:33:16Z</time>
      </trkpt>
      <trkpt lat="45.72043" lon="5.43148">
        <ele>251</ele>
        <time>2022-06-19T05:33:18Z</time>
      </trkpt>
      <trkpt lat="45.72072" lon="5.43164">
        <ele>251.2</ele>
        <time>2022-06-19T05:33:23Z</time>
      </trkpt>
      <trkpt lat="45.72126" lon="5.43189">
        <ele>251.2</ele>
        <time>2022-06-19T05:33:32Z</time>
      </trkpt>
      <trkpt lat="45.72151" lon="5.432">
        <ele>251.2</ele>
        <time>2022-06-19T05:33:36Z</time>
      </trkpt>
      <trkpt lat="45.72204" lon="5.43224">
        <ele>251.8</ele>
        <time>2022-06-19T05:33:45Z</time>
      </trkpt>
      <trkpt lat="45.72221" lon="5.43233">
        <ele>251.8</ele>
        <time>2022-06-19T05:33:48Z</time>
      </trkpt>
      <trkpt lat="45.72233" lon="5.43239">
        <ele>252.2</ele>
        <time>2022-06-19T05:33:50Z</time>
      </trkpt>
      <trkpt lat="45.7228" lon="5.43267">
        <ele>252.4</ele>
        <time>2022-06-19T05:33:58Z</time>
      </trkpt>
      <trkpt lat="45.72332" lon="5.43299">
        <ele>252.2</ele>
        <time>2022-06-19T05:34:07Z</time>
      </trkpt>
      <trkpt lat="45.72338" lon="5.43303">
        <ele>252</ele>
        <time>2022-06-19T05:34:08Z</time>
      </trkpt>
      <trkpt lat="45.72384" lon="5.4333">
        <ele>252</ele>
        <time>2022-06-19T05:34:16Z</time>
      </trkpt>
      <trkpt lat="45.72429" lon="5.43346">
        <ele>252</ele>
        <time>2022-06-19T05:34:23Z</time>
      </trkpt>
      <trkpt lat="45.72435" lon="5.43347">
        <ele>252</ele>
        <time>2022-06-19T05:34:24Z</time>
      </trkpt>
      <trkpt lat="45.7249" lon="5.43359">
        <ele>251.6</ele>
        <time>2022-06-19T05:34:32Z</time>
      </trkpt>
      <trkpt lat="45.72511" lon="5.43362">
        <ele>251.2</ele>
        <time>2022-06-19T05:34:35Z</time>
      </trkpt>
      <trkpt lat="45.72524" lon="5.43364">
        <ele>251</ele>
        <time>2022-06-19T05:34:37Z</time>
      </trkpt>
      <trkpt lat="45.72584" lon="5.43371">
        <ele>250.8</ele>
        <time>2022-06-19T05:34:46Z</time>
      </trkpt>
      <trkpt lat="45.7259" lon="5.43373">
        <ele>250.8</ele>
        <time>2022-06-19T05:34:47Z</time>
      </trkpt>
      <trkpt lat="45.72626" lon="5.43387">
        <ele>251</ele>
        <time>2022-06-19T05:34:53Z</time>
      </trkpt>
      <trkpt lat="45.72674" lon="5.43405">
        <ele>251.4</ele>
        <time>2022-06-19T05:35:01Z</time>
      </trkpt>
      <trkpt lat="45.7273" lon="5.43422">
        <ele>251.8</ele>
        <time>2022-06-19T05:35:10Z</time>
      </trkpt>
      <trkpt lat="45.72783" lon="5.43441">
        <ele>251.4</ele>
        <time>2022-06-19T05:35:18Z</time>
      </trkpt>
      <trkpt lat="45.7279" lon="5.43443">
        <ele>251.2</ele>
        <time>2022-06-19T05:35:19Z</time>
      </trkpt>
      <trkpt lat="45.7285" lon="5.43451">
        <ele>251</ele>
        <time>2022-06-19T05:35:28Z</time>
      </trkpt>
      <trkpt lat="45.72864" lon="5.43453">
        <ele>251</ele>
        <time>2022-06-19T05:35:30Z</time>
      </trkpt>
      <trkpt lat="45.72919" lon="5.43461">
        <ele>250</ele>
        <time>2022-06-19T05:35:38Z</time>
      </trkpt>
      <trkpt lat="45.72926" lon="5.43462">
        <ele>250</ele>
        <time>2022-06-19T05:35:39Z</time>
      </trkpt>
      <trkpt lat="45.72933" lon="5.43463">
        <ele>250</ele>
        <time>2022-06-19T05:35:40Z</time>
      </trkpt>
      <trkpt lat="45.72988" lon="5.43469">
        <ele>249.8</ele>
        <time>2022-06-19T05:35:48Z</time>
      </trkpt>
      <trkpt lat="45.73047" lon="5.43477">
        <ele>249.2</ele>
        <time>2022-06-19T05:35:57Z</time>
      </trkpt>
      <trkpt lat="45.73053" lon="5.43479">
        <ele>249.2</ele>
        <time>2022-06-19T05:35:58Z</time>
      </trkpt>
      <trkpt lat="45.73105" lon="5.43487">
        <ele>249.2</ele>
        <time>2022-06-19T05:36:06Z</time>
      </trkpt>
      <trkpt lat="45.73124" lon="5.43493">
        <ele>249</ele>
        <time>2022-06-19T05:36:09Z</time>
      </trkpt>
      <trkpt lat="45.73137" lon="5.43501">
        <ele>249</ele>
        <time>2022-06-19T05:36:11Z</time>
      </trkpt>
      <trkpt lat="45.73173" lon="5.43535">
        <ele>248.8</ele>
        <time>2022-06-19T05:36:17Z</time>
      </trkpt>
      <trkpt lat="45.73205" lon="5.43576">
        <ele>247.8</ele>
        <time>2022-06-19T05:36:23Z</time>
      </trkpt>
      <trkpt lat="45.73215" lon="5.43589">
        <ele>247.4</ele>
        <time>2022-06-19T05:36:25Z</time>
      </trkpt>
      <trkpt lat="45.73249" lon="5.43628">
        <ele>247.4</ele>
        <time>2022-06-19T05:36:32Z</time>
      </trkpt>
      <trkpt lat="45.73254" lon="5.43633">
        <ele>247.4</ele>
        <time>2022-06-19T05:36:33Z</time>
      </trkpt>
      <trkpt lat="45.73278" lon="5.43653">
        <ele>247.6</ele>
        <time>2022-06-19T05:36:38Z</time>
      </trkpt>
      <trkpt lat="45.73297" lon="5.43681">
        <ele>248.6</ele>
        <time>2022-06-19T05:36:43Z</time>
      </trkpt>
      <trkpt lat="45.73304" lon="5.43693">
        <ele>249</ele>
        <time>2022-06-19T05:36:45Z</time>
      </trkpt>
      <trkpt lat="45.73316" lon="5.43719">
        <ele>250.4</ele>
        <time>2022-06-19T05:36:49Z</time>
      </trkpt>
      <trkpt lat="45.73323" lon="5.43733">
        <ele>251</ele>
        <time>2022-06-19T05:36:51Z</time>
      </trkpt>
      <trkpt lat="45.73336" lon="5.4376">
        <ele>251.6</ele>
        <time>2022-06-19T05:36:55Z</time>
      </trkpt>
      <trkpt lat="45.73346" lon="5.43781">
        <ele>251.8</ele>
        <time>2022-06-19T05:36:58Z</time>
      </trkpt>
      <trkpt lat="45.73375" lon="5.43844">
        <ele>252.8</ele>
        <time>2022-06-19T05:37:07Z</time>
      </trkpt>
      <trkpt lat="45.73379" lon="5.43851">
        <ele>252.8</ele>
        <time>2022-06-19T05:37:08Z</time>
      </trkpt>
      <trkpt lat="45.73402" lon="5.43899">
        <ele>253.2</ele>
        <time>2022-06-19T05:37:15Z</time>
      </trkpt>
      <trkpt lat="45.73419" lon="5.43934">
        <ele>253.8</ele>
        <time>2022-06-19T05:37:20Z</time>
      </trkpt>
      <trkpt lat="45.73441" lon="5.43983">
        <ele>253.8</ele>
        <time>2022-06-19T05:37:27Z</time>
      </trkpt>
      <trkpt lat="45.73461" lon="5.44026">
        <ele>255</ele>
        <time>2022-06-19T05:37:34Z</time>
      </trkpt>
      <trkpt lat="45.73467" lon="5.44038">
        <ele>255.8</ele>
        <time>2022-06-19T05:37:36Z</time>
      </trkpt>
      <trkpt lat="45.7347" lon="5.44044">
        <ele>256.2</ele>
        <time>2022-06-19T05:37:37Z</time>
      </trkpt>
      <trkpt lat="45.73484" lon="5.44076">
        <ele>257.4</ele>
        <time>2022-06-19T05:37:42Z</time>
      </trkpt>
      <trkpt lat="45.7349" lon="5.44088">
        <ele>258</ele>
        <time>2022-06-19T05:37:44Z</time>
      </trkpt>
      <trkpt lat="45.73499" lon="5.44107">
        <ele>258.4</ele>
        <time>2022-06-19T05:37:47Z</time>
      </trkpt>
      <trkpt lat="45.73513" lon="5.44136">
        <ele>259.2</ele>
        <time>2022-06-19T05:37:52Z</time>
      </trkpt>
      <trkpt lat="45.73523" lon="5.44152">
        <ele>259.6</ele>
        <time>2022-06-19T05:37:55Z</time>
      </trkpt>
      <trkpt lat="45.73538" lon="5.44172">
        <ele>261</ele>
        <time>2022-06-19T05:37:59Z</time>
      </trkpt>
      <trkpt lat="45.73545" lon="5.44181">
        <ele>261.4</ele>
        <time>2022-06-19T05:38:01Z</time>
      </trkpt>
      <trkpt lat="45.73552" lon="5.44191">
        <ele>262</ele>
        <time>2022-06-19T05:38:03Z</time>
      </trkpt>
      <trkpt lat="45.73572" lon="5.44211">
        <ele>263.2</ele>
        <time>2022-06-19T05:38:08Z</time>
      </trkpt>
      <trkpt lat="45.73576" lon="5.44215">
        <ele>263.6</ele>
        <time>2022-06-19T05:38:09Z</time>
      </trkpt>
      <trkpt lat="45.73594" lon="5.4423">
        <ele>264.2</ele>
        <time>2022-06-19T05:38:13Z</time>
      </trkpt>
      <trkpt lat="45.73613" lon="5.44242">
        <ele>265</ele>
        <time>2022-06-19T05:38:17Z</time>
      </trkpt>
      <trkpt lat="45.73618" lon="5.44244">
        <ele>265.2</ele>
        <time>2022-06-19T05:38:18Z</time>
      </trkpt>
      <trkpt lat="45.73653" lon="5.44252">
        <ele>266</ele>
        <time>2022-06-19T05:38:25Z</time>
      </trkpt>
      <trkpt lat="45.73664" lon="5.44253">
        <ele>266.4</ele>
        <time>2022-06-19T05:38:27Z</time>
      </trkpt>
      <trkpt lat="45.7369" lon="5.44254">
        <ele>267</ele>
        <time>2022-06-19T05:38:32Z</time>
      </trkpt>
      <trkpt lat="45.73701" lon="5.44255">
        <ele>267.2</ele>
        <time>2022-06-19T05:38:34Z</time>
      </trkpt>
      <trkpt lat="45.73707" lon="5.44255">
        <ele>267.4</ele>
        <time>2022-06-19T05:38:35Z</time>
      </trkpt>
      <trkpt lat="45.7373" lon="5.44256">
        <ele>267.8</ele>
        <time>2022-06-19T05:38:39Z</time>
      </trkpt>
      <trkpt lat="45.73774" lon="5.4426">
        <ele>268.2</ele>
        <time>2022-06-19T05:38:47Z</time>
      </trkpt>
      <trkpt lat="45.73785" lon="5.44261">
        <ele>268.4</ele>
        <time>2022-06-19T05:38:49Z</time>
      </trkpt>
      <trkpt lat="45.73819" lon="5.44263">
        <ele>269.4</ele>
        <time>2022-06-19T05:38:55Z</time>
      </trkpt>
      <trkpt lat="45.73825" lon="5.44262">
        <ele>269.4</ele>
        <time>2022-06-19T05:38:56Z</time>
      </trkpt>
      <trkpt lat="45.73859" lon="5.44261">
        <ele>269.6</ele>
        <time>2022-06-19T05:39:01Z</time>
      </trkpt>
      <trkpt lat="45.73904" lon="5.44258">
        <ele>268</ele>
        <time>2022-06-19T05:39:07Z</time>
      </trkpt>
      <trkpt lat="45.73912" lon="5.44257">
        <ele>267.8</ele>
        <time>2022-06-19T05:39:08Z</time>
      </trkpt>
      <trkpt lat="45.73947" lon="5.44255">
        <ele>266.8</ele>
        <time>2022-06-19T05:39:12Z</time>
      </trkpt>
      <trkpt lat="45.73974" lon="5.44253">
        <ele>266</ele>
        <time>2022-06-19T05:39:15Z</time>
      </trkpt>
      <trkpt lat="45.73991" lon="5.44249">
        <ele>265</ele>
        <time>2022-06-19T05:39:17Z</time>
      </trkpt>
      <trkpt lat="45.74" lon="5.44245">
        <ele>264.8</ele>
        <time>2022-06-19T05:39:18Z</time>
      </trkpt>
      <trkpt lat="45.74008" lon="5.4424">
        <ele>264.2</ele>
        <time>2022-06-19T05:39:19Z</time>
      </trkpt>
      <trkpt lat="45.74025" lon="5.44226">
        <ele>263.8</ele>
        <time>2022-06-19T05:39:21Z</time>
      </trkpt>
      <trkpt lat="45.74041" lon="5.44211">
        <ele>263.6</ele>
        <time>2022-06-19T05:39:23Z</time>
      </trkpt>
      <trkpt lat="45.7406" lon="5.442">
        <ele>263.4</ele>
        <time>2022-06-19T05:39:25Z</time>
      </trkpt>
      <trkpt lat="45.7407" lon="5.44197">
        <ele>263.2</ele>
        <time>2022-06-19T05:39:26Z</time>
      </trkpt>
      <trkpt lat="45.74089" lon="5.44195">
        <ele>262.8</ele>
        <time>2022-06-19T05:39:28Z</time>
      </trkpt>
      <trkpt lat="45.74117" lon="5.44195">
        <ele>261.4</ele>
        <time>2022-06-19T05:39:31Z</time>
      </trkpt>
      <trkpt lat="45.74125" lon="5.44197">
        <ele>261.2</ele>
        <time>2022-06-19T05:39:32Z</time>
      </trkpt>
      <trkpt lat="45.74142" lon="5.44205">
        <ele>260.6</ele>
        <time>2022-06-19T05:39:34Z</time>
      </trkpt>
      <trkpt lat="45.74149" lon="5.44212">
        <ele>260.2</ele>
        <time>2022-06-19T05:39:35Z</time>
      </trkpt>
      <trkpt lat="45.74156" lon="5.44219">
        <ele>259.8</ele>
        <time>2022-06-19T05:39:36Z</time>
      </trkpt>
      <trkpt lat="45.74162" lon="5.44228">
        <ele>259.8</ele>
        <time>2022-06-19T05:39:37Z</time>
      </trkpt>
      <trkpt lat="45.74167" lon="5.44238">
        <ele>259.6</ele>
        <time>2022-06-19T05:39:38Z</time>
      </trkpt>
      <trkpt lat="45.74181" lon="5.4427">
        <ele>259.4</ele>
        <time>2022-06-19T05:39:41Z</time>
      </trkpt>
      <trkpt lat="45.7419" lon="5.44293">
        <ele>258.8</ele>
        <time>2022-06-19T05:39:43Z</time>
      </trkpt>
      <trkpt lat="45.74209" lon="5.44337">
        <ele>258.2</ele>
        <time>2022-06-19T05:39:47Z</time>
      </trkpt>
      <trkpt lat="45.74223" lon="5.4437">
        <ele>257.6</ele>
        <time>2022-06-19T05:39:50Z</time>
      </trkpt>
      <trkpt lat="45.74247" lon="5.44424">
        <ele>256.2</ele>
        <time>2022-06-19T05:39:55Z</time>
      </trkpt>
      <trkpt lat="45.74253" lon="5.44434">
        <ele>256</ele>
        <time>2022-06-19T05:39:56Z</time>
      </trkpt>
      <trkpt lat="45.74268" lon="5.44449">
        <ele>255.6</ele>
        <time>2022-06-19T05:39:58Z</time>
      </trkpt>
      <trkpt lat="45.74275" lon="5.44455">
        <ele>255.6</ele>
        <time>2022-06-19T05:39:59Z</time>
      </trkpt>
      <trkpt lat="45.74291" lon="5.44467">
        <ele>255</ele>
        <time>2022-06-19T05:40:01Z</time>
      </trkpt>
      <trkpt lat="45.74299" lon="5.44472">
        <ele>254.4</ele>
        <time>2022-06-19T05:40:02Z</time>
      </trkpt>
      <trkpt lat="45.74315" lon="5.44481">
        <ele>254</ele>
        <time>2022-06-19T05:40:04Z</time>
      </trkpt>
      <trkpt lat="45.74332" lon="5.4449">
        <ele>254</ele>
        <time>2022-06-19T05:40:06Z</time>
      </trkpt>
      <trkpt lat="45.7434" lon="5.44493">
        <ele>254</ele>
        <time>2022-06-19T05:40:07Z</time>
      </trkpt>
      <trkpt lat="45.74358" lon="5.44495">
        <ele>253.6</ele>
        <time>2022-06-19T05:40:09Z</time>
      </trkpt>
      <trkpt lat="45.74375" lon="5.44492">
        <ele>253.4</ele>
        <time>2022-06-19T05:40:11Z</time>
      </trkpt>
      <trkpt lat="45.74383" lon="5.44487">
        <ele>253.2</ele>
        <time>2022-06-19T05:40:12Z</time>
      </trkpt>
      <trkpt lat="45.7439" lon="5.44482">
        <ele>253</ele>
        <time>2022-06-19T05:40:13Z</time>
      </trkpt>
      <trkpt lat="45.74411" lon="5.44463">
        <ele>252.4</ele>
        <time>2022-06-19T05:40:16Z</time>
      </trkpt>
      <trkpt lat="45.74418" lon="5.44457">
        <ele>252.4</ele>
        <time>2022-06-19T05:40:17Z</time>
      </trkpt>
      <trkpt lat="45.74433" lon="5.44449">
        <ele>252.4</ele>
        <time>2022-06-19T05:40:19Z</time>
      </trkpt>
      <trkpt lat="45.7444" lon="5.44446">
        <ele>252.2</ele>
        <time>2022-06-19T05:40:20Z</time>
      </trkpt>
      <trkpt lat="45.74494" lon="5.44432">
        <ele>253</ele>
        <time>2022-06-19T05:40:27Z</time>
      </trkpt>
      <trkpt lat="45.74542" lon="5.44435">
        <ele>253.4</ele>
        <time>2022-06-19T05:40:33Z</time>
      </trkpt>
      <trkpt lat="45.74556" lon="5.4444">
        <ele>253.2</ele>
        <time>2022-06-19T05:40:35Z</time>
      </trkpt>
      <trkpt lat="45.74571" lon="5.44449">
        <ele>253.4</ele>
        <time>2022-06-19T05:40:37Z</time>
      </trkpt>
      <trkpt lat="45.74622" lon="5.44482">
        <ele>253.4</ele>
        <time>2022-06-19T05:40:44Z</time>
      </trkpt>
      <trkpt lat="45.74675" lon="5.445">
        <ele>253</ele>
        <time>2022-06-19T05:40:51Z</time>
      </trkpt>
      <trkpt lat="45.74683" lon="5.44502">
        <ele>253</ele>
        <time>2022-06-19T05:40:52Z</time>
      </trkpt>
      <trkpt lat="45.74698" lon="5.44508">
        <ele>252.8</ele>
        <time>2022-06-19T05:40:54Z</time>
      </trkpt>
      <trkpt lat="45.74712" lon="5.4452">
        <ele>252.2</ele>
        <time>2022-06-19T05:40:56Z</time>
      </trkpt>
      <trkpt lat="45.74724" lon="5.44537">
        <ele>251.6</ele>
        <time>2022-06-19T05:40:58Z</time>
      </trkpt>
      <trkpt lat="45.74728" lon="5.44547">
        <ele>251.6</ele>
        <time>2022-06-19T05:40:59Z</time>
      </trkpt>
      <trkpt lat="45.74733" lon="5.44557">
        <ele>251.2</ele>
        <time>2022-06-19T05:41:00Z</time>
      </trkpt>
      <trkpt lat="45.7474" lon="5.44577">
        <ele>250.8</ele>
        <time>2022-06-19T05:41:02Z</time>
      </trkpt>
      <trkpt lat="45.74748" lon="5.44599">
        <ele>250.6</ele>
        <time>2022-06-19T05:41:04Z</time>
      </trkpt>
      <trkpt lat="45.74751" lon="5.44609">
        <ele>250.2</ele>
        <time>2022-06-19T05:41:05Z</time>
      </trkpt>
      <trkpt lat="45.7477" lon="5.44667">
        <ele>249.6</ele>
        <time>2022-06-19T05:41:11Z</time>
      </trkpt>
      <trkpt lat="45.74784" lon="5.4471">
        <ele>250.4</ele>
        <time>2022-06-19T05:41:17Z</time>
      </trkpt>
      <trkpt lat="45.74789" lon="5.44724">
        <ele>251</ele>
        <time>2022-06-19T05:41:21Z</time>
      </trkpt>
      <trkpt lat="45.7479" lon="5.44726">
        <ele>251.8</ele>
        <time>2022-06-19T05:41:24Z</time>
      </trkpt>
      <trkpt lat="45.74792" lon="5.44726">
        <ele>251.8</ele>
        <time>2022-06-19T05:41:25Z</time>
      </trkpt>
      <trkpt lat="45.74806" lon="5.44722">
        <ele>252.4</ele>
        <time>2022-06-19T05:41:31Z</time>
      </trkpt>
      <trkpt lat="45.74814" lon="5.44719">
        <ele>252.6</ele>
        <time>2022-06-19T05:41:33Z</time>
      </trkpt>
      <trkpt lat="45.74821" lon="5.4472">
        <ele>252.8</ele>
        <time>2022-06-19T05:41:35Z</time>
      </trkpt>
      <trkpt lat="45.74825" lon="5.44718">
        <ele>252.8</ele>
        <time>2022-06-19T05:41:36Z</time>
      </trkpt>
      <trkpt lat="45.74845" lon="5.44709">
        <ele>253.4</ele>
        <time>2022-06-19T05:41:40Z</time>
      </trkpt>
      <trkpt lat="45.7485" lon="5.44706">
        <ele>253.6</ele>
        <time>2022-06-19T05:41:41Z</time>
      </trkpt>
      <trkpt lat="45.7486" lon="5.44699">
        <ele>253.8</ele>
        <time>2022-06-19T05:41:43Z</time>
      </trkpt>
      <trkpt lat="45.74881" lon="5.44688">
        <ele>254.2</ele>
        <time>2022-06-19T05:41:47Z</time>
      </trkpt>
      <trkpt lat="45.74936" lon="5.44663">
        <ele>254.6</ele>
        <time>2022-06-19T05:41:56Z</time>
      </trkpt>
      <trkpt lat="45.74984" lon="5.44639">
        <ele>254</ele>
        <time>2022-06-19T05:42:04Z</time>
      </trkpt>
      <trkpt lat="45.75011" lon="5.44613">
        <ele>253.8</ele>
        <time>2022-06-19T05:42:09Z</time>
      </trkpt>
      <trkpt lat="45.75055" lon="5.4456">
        <ele>254.2</ele>
        <time>2022-06-19T05:42:18Z</time>
      </trkpt>
      <trkpt lat="45.75098" lon="5.44508">
        <ele>254.8</ele>
        <time>2022-06-19T05:42:27Z</time>
      </trkpt>
      <trkpt lat="45.75102" lon="5.44502">
        <ele>255.2</ele>
        <time>2022-06-19T05:42:28Z</time>
      </trkpt>
      <trkpt lat="45.75107" lon="5.44495">
        <ele>255.2</ele>
        <time>2022-06-19T05:42:29Z</time>
      </trkpt>
      <trkpt lat="45.75134" lon="5.44457">
        <ele>256.2</ele>
        <time>2022-06-19T05:42:35Z</time>
      </trkpt>
      <trkpt lat="45.7515" lon="5.44439">
        <ele>256.2</ele>
        <time>2022-06-19T05:42:38Z</time>
      </trkpt>
      <trkpt lat="45.75185" lon="5.44414">
        <ele>256</ele>
        <time>2022-06-19T05:42:44Z</time>
      </trkpt>
      <trkpt lat="45.75191" lon="5.44411">
        <ele>256</ele>
        <time>2022-06-19T05:42:45Z</time>
      </trkpt>
      <trkpt lat="45.75236" lon="5.44396">
        <ele>255.6</ele>
        <time>2022-06-19T05:42:52Z</time>
      </trkpt>
      <trkpt lat="45.7529" lon="5.44379">
        <ele>255.4</ele>
        <time>2022-06-19T05:43:00Z</time>
      </trkpt>
      <trkpt lat="45.75306" lon="5.44375">
        <ele>255.4</ele>
        <time>2022-06-19T05:43:02Z</time>
      </trkpt>
      <trkpt lat="45.75339" lon="5.44369">
        <ele>255</ele>
        <time>2022-06-19T05:43:06Z</time>
      </trkpt>
      <trkpt lat="45.75348" lon="5.44369">
        <ele>254.6</ele>
        <time>2022-06-19T05:43:07Z</time>
      </trkpt>
      <trkpt lat="45.75401" lon="5.44371">
        <ele>253.8</ele>
        <time>2022-06-19T05:43:13Z</time>
      </trkpt>
      <trkpt lat="45.7541" lon="5.44372">
        <ele>253.4</ele>
        <time>2022-06-19T05:43:14Z</time>
      </trkpt>
      <trkpt lat="45.75436" lon="5.44372">
        <ele>252.6</ele>
        <time>2022-06-19T05:43:17Z</time>
      </trkpt>
      <trkpt lat="45.75495" lon="5.44371">
        <ele>252</ele>
        <time>2022-06-19T05:43:24Z</time>
      </trkpt>
      <trkpt lat="45.75534" lon="5.4436">
        <ele>252.2</ele>
        <time>2022-06-19T05:43:29Z</time>
      </trkpt>
      <trkpt lat="45.75587" lon="5.44328">
        <ele>252.4</ele>
        <time>2022-06-19T05:43:36Z</time>
      </trkpt>
      <trkpt lat="45.75645" lon="5.44306">
        <ele>252.4</ele>
        <time>2022-06-19T05:43:43Z</time>
      </trkpt>
      <trkpt lat="45.75652" lon="5.44303">
        <ele>252.4</ele>
        <time>2022-06-19T05:43:44Z</time>
      </trkpt>
      <trkpt lat="45.75692" lon="5.44278">
        <ele>252.2</ele>
        <time>2022-06-19T05:43:49Z</time>
      </trkpt>
      <trkpt lat="45.75738" lon="5.44254">
        <ele>252.2</ele>
        <time>2022-06-19T05:43:55Z</time>
      </trkpt>
      <trkpt lat="45.75787" lon="5.44245">
        <ele>252</ele>
        <time>2022-06-19T05:44:01Z</time>
      </trkpt>
      <trkpt lat="45.75838" lon="5.44247">
        <ele>252.2</ele>
        <time>2022-06-19T05:44:07Z</time>
      </trkpt>
      <trkpt lat="45.75897" lon="5.44259">
        <ele>252.4</ele>
        <time>2022-06-19T05:44:14Z</time>
      </trkpt>
      <trkpt lat="45.75955" lon="5.44265">
        <ele>252.2</ele>
        <time>2022-06-19T05:44:21Z</time>
      </trkpt>
      <trkpt lat="45.75972" lon="5.44266">
        <ele>252.2</ele>
        <time>2022-06-19T05:44:23Z</time>
      </trkpt>
      <trkpt lat="45.76028" lon="5.44276">
        <ele>252.2</ele>
        <time>2022-06-19T05:44:30Z</time>
      </trkpt>
      <trkpt lat="45.76085" lon="5.44285">
        <ele>251.8</ele>
        <time>2022-06-19T05:44:37Z</time>
      </trkpt>
      <trkpt lat="45.76093" lon="5.44285">
        <ele>251.6</ele>
        <time>2022-06-19T05:44:38Z</time>
      </trkpt>
      <trkpt lat="45.76102" lon="5.44283">
        <ele>251.4</ele>
        <time>2022-06-19T05:44:39Z</time>
      </trkpt>
      <trkpt lat="45.76112" lon="5.4428">
        <ele>251.2</ele>
        <time>2022-06-19T05:44:40Z</time>
      </trkpt>
      <trkpt lat="45.76128" lon="5.44272">
        <ele>251</ele>
        <time>2022-06-19T05:44:42Z</time>
      </trkpt>
      <trkpt lat="45.76153" lon="5.44256">
        <ele>250.4</ele>
        <time>2022-06-19T05:44:45Z</time>
      </trkpt>
      <trkpt lat="45.76204" lon="5.44227">
        <ele>249</ele>
        <time>2022-06-19T05:44:51Z</time>
      </trkpt>
      <trkpt lat="45.7623" lon="5.44219">
        <ele>248.4</ele>
        <time>2022-06-19T05:44:54Z</time>
      </trkpt>
      <trkpt lat="45.76247" lon="5.44222">
        <ele>247.8</ele>
        <time>2022-06-19T05:44:56Z</time>
      </trkpt>
      <trkpt lat="45.7626" lon="5.44234">
        <ele>247.2</ele>
        <time>2022-06-19T05:44:58Z</time>
      </trkpt>
      <trkpt lat="45.76265" lon="5.44241">
        <ele>247.2</ele>
        <time>2022-06-19T05:44:59Z</time>
      </trkpt>
      <trkpt lat="45.76274" lon="5.44261">
        <ele>246.8</ele>
        <time>2022-06-19T05:45:01Z</time>
      </trkpt>
      <trkpt lat="45.76294" lon="5.44325">
        <ele>245.8</ele>
        <time>2022-06-19T05:45:07Z</time>
      </trkpt>
      <trkpt lat="45.76311" lon="5.44381">
        <ele>245.6</ele>
        <time>2022-06-19T05:45:13Z</time>
      </trkpt>
      <trkpt lat="45.76321" lon="5.44419">
        <ele>245.2</ele>
        <time>2022-06-19T05:45:17Z</time>
      </trkpt>
      <trkpt lat="45.76325" lon="5.44442">
        <ele>245.2</ele>
        <time>2022-06-19T05:45:19Z</time>
      </trkpt>
      <trkpt lat="45.76336" lon="5.44489">
        <ele>245.2</ele>
        <time>2022-06-19T05:45:23Z</time>
      </trkpt>
      <trkpt lat="45.76341" lon="5.44501">
        <ele>245</ele>
        <time>2022-06-19T05:45:24Z</time>
      </trkpt>
      <trkpt lat="45.76347" lon="5.44512">
        <ele>244.6</ele>
        <time>2022-06-19T05:45:25Z</time>
      </trkpt>
      <trkpt lat="45.76359" lon="5.44535">
        <ele>244</ele>
        <time>2022-06-19T05:45:27Z</time>
      </trkpt>
      <trkpt lat="45.76366" lon="5.44545">
        <ele>243.4</ele>
        <time>2022-06-19T05:45:28Z</time>
      </trkpt>
      <trkpt lat="45.76372" lon="5.44555">
        <ele>243</ele>
        <time>2022-06-19T05:45:29Z</time>
      </trkpt>
      <trkpt lat="45.76386" lon="5.44573">
        <ele>242</ele>
        <time>2022-06-19T05:45:31Z</time>
      </trkpt>
      <trkpt lat="45.76401" lon="5.44585">
        <ele>241.6</ele>
        <time>2022-06-19T05:45:33Z</time>
      </trkpt>
      <trkpt lat="45.76417" lon="5.44594">
        <ele>241.2</ele>
        <time>2022-06-19T05:45:35Z</time>
      </trkpt>
      <trkpt lat="45.76433" lon="5.44601">
        <ele>240.6</ele>
        <time>2022-06-19T05:45:37Z</time>
      </trkpt>
      <trkpt lat="45.76441" lon="5.44604">
        <ele>240.4</ele>
        <time>2022-06-19T05:45:38Z</time>
      </trkpt>
      <trkpt lat="45.76449" lon="5.44607">
        <ele>240</ele>
        <time>2022-06-19T05:45:39Z</time>
      </trkpt>
      <trkpt lat="45.76458" lon="5.44611">
        <ele>239.6</ele>
        <time>2022-06-19T05:45:40Z</time>
      </trkpt>
      <trkpt lat="45.76474" lon="5.44626">
        <ele>239.2</ele>
        <time>2022-06-19T05:45:42Z</time>
      </trkpt>
      <trkpt lat="45.76488" lon="5.44647">
        <ele>238.6</ele>
        <time>2022-06-19T05:45:44Z</time>
      </trkpt>
      <trkpt lat="45.76493" lon="5.44659">
        <ele>238.2</ele>
        <time>2022-06-19T05:45:45Z</time>
      </trkpt>
      <trkpt lat="45.76505" lon="5.44684">
        <ele>236.8</ele>
        <time>2022-06-19T05:45:47Z</time>
      </trkpt>
      <trkpt lat="45.76517" lon="5.44707">
        <ele>236</ele>
        <time>2022-06-19T05:45:49Z</time>
      </trkpt>
      <trkpt lat="45.76522" lon="5.44719">
        <ele>235.6</ele>
        <time>2022-06-19T05:45:50Z</time>
      </trkpt>
      <trkpt lat="45.76527" lon="5.44732">
        <ele>235</ele>
        <time>2022-06-19T05:45:51Z</time>
      </trkpt>
      <trkpt lat="45.7653" lon="5.44742">
        <ele>234.2</ele>
        <time>2022-06-19T05:45:52Z</time>
      </trkpt>
      <trkpt lat="45.76534" lon="5.44753">
        <ele>234</ele>
        <time>2022-06-19T05:45:53Z</time>
      </trkpt>
      <trkpt lat="45.76539" lon="5.44763">
        <ele>233.4</ele>
        <time>2022-06-19T05:45:54Z</time>
      </trkpt>
      <trkpt lat="45.76544" lon="5.44772">
        <ele>233.2</ele>
        <time>2022-06-19T05:45:55Z</time>
      </trkpt>
      <trkpt lat="45.7655" lon="5.44781">
        <ele>233</ele>
        <time>2022-06-19T05:45:56Z</time>
      </trkpt>
      <trkpt lat="45.76556" lon="5.44788">
        <ele>233</ele>
        <time>2022-06-19T05:45:57Z</time>
      </trkpt>
      <trkpt lat="45.76598" lon="5.44828">
        <ele>232.2</ele>
        <time>2022-06-19T05:46:03Z</time>
      </trkpt>
      <trkpt lat="45.76612" lon="5.44842">
        <ele>232</ele>
        <time>2022-06-19T05:46:05Z</time>
      </trkpt>
      <trkpt lat="45.76661" lon="5.44886">
        <ele>231.2</ele>
        <time>2022-06-19T05:46:12Z</time>
      </trkpt>
      <trkpt lat="45.7669" lon="5.44908">
        <ele>231.2</ele>
        <time>2022-06-19T05:46:16Z</time>
      </trkpt>
      <trkpt lat="45.76733" lon="5.44939">
        <ele>231.2</ele>
        <time>2022-06-19T05:46:22Z</time>
      </trkpt>
      <trkpt lat="45.76783" lon="5.44974">
        <ele>231</ele>
        <time>2022-06-19T05:46:29Z</time>
      </trkpt>
      <trkpt lat="45.76797" lon="5.44985">
        <ele>231</ele>
        <time>2022-06-19T05:46:31Z</time>
      </trkpt>
      <trkpt lat="45.76846" lon="5.45024">
        <ele>230.4</ele>
        <time>2022-06-19T05:46:39Z</time>
      </trkpt>
      <trkpt lat="45.76854" lon="5.45032">
        <ele>230.2</ele>
        <time>2022-06-19T05:46:42Z</time>
      </trkpt>
      <trkpt lat="45.76854" lon="5.45032">
        <ele>230</ele>
        <time>2022-06-19T05:46:45Z</time>
      </trkpt>
      <trkpt lat="45.76859" lon="5.45038">
        <ele>229.6</ele>
        <time>2022-06-19T05:46:49Z</time>
      </trkpt>
      <trkpt lat="45.76865" lon="5.45044">
        <ele>229.6</ele>
        <time>2022-06-19T05:46:51Z</time>
      </trkpt>
      <trkpt lat="45.76873" lon="5.45052">
        <ele>229.6</ele>
        <time>2022-06-19T05:46:53Z</time>
      </trkpt>
      <trkpt lat="45.76905" lon="5.45079">
        <ele>229.6</ele>
        <time>2022-06-19T05:46:59Z</time>
      </trkpt>
      <trkpt lat="45.76948" lon="5.4512">
        <ele>229</ele>
        <time>2022-06-19T05:47:06Z</time>
      </trkpt>
      <trkpt lat="45.76973" lon="5.45141">
        <ele>228.8</ele>
        <time>2022-06-19T05:47:10Z</time>
      </trkpt>
      <trkpt lat="45.76987" lon="5.45146">
        <ele>229</ele>
        <time>2022-06-19T05:47:12Z</time>
      </trkpt>
      <trkpt lat="45.77021" lon="5.45151">
        <ele>229.2</ele>
        <time>2022-06-19T05:47:17Z</time>
      </trkpt>
      <trkpt lat="45.77026" lon="5.45153">
        <ele>229.2</ele>
        <time>2022-06-19T05:47:18Z</time>
      </trkpt>
      <trkpt lat="45.77036" lon="5.45159">
        <ele>229.2</ele>
        <time>2022-06-19T05:47:21Z</time>
      </trkpt>
      <trkpt lat="45.77037" lon="5.45159">
        <ele>228.8</ele>
        <time>2022-06-19T05:47:24Z</time>
      </trkpt>
      <trkpt lat="45.77037" lon="5.45159">
        <ele>228.4</ele>
        <time>2022-06-19T05:47:34Z</time>
      </trkpt>
      <trkpt lat="45.77037" lon="5.45159">
        <ele>228.2</ele>
        <time>2022-06-19T05:47:39Z</time>
      </trkpt>
      <trkpt lat="45.77037" lon="5.45159">
        <ele>228</ele>
        <time>2022-06-19T05:47:42Z</time>
      </trkpt>
      <trkpt lat="45.77041" lon="5.45165">
        <ele>227.6</ele>
        <time>2022-06-19T05:48:01Z</time>
      </trkpt>
      <trkpt lat="45.77053" lon="5.45184">
        <ele>227.8</ele>
        <time>2022-06-19T05:48:06Z</time>
      </trkpt>
      <trkpt lat="45.77071" lon="5.45211">
        <ele>228.2</ele>
        <time>2022-06-19T05:48:12Z</time>
      </trkpt>
      <trkpt lat="45.77077" lon="5.45221">
        <ele>227.8</ele>
        <time>2022-06-19T05:48:17Z</time>
      </trkpt>
      <trkpt lat="45.77077" lon="5.45221">
        <ele>227.4</ele>
        <time>2022-06-19T05:48:28Z</time>
      </trkpt>
      <trkpt lat="45.77077" lon="5.45221">
        <ele>227.4</ele>
        <time>2022-06-19T05:48:31Z</time>
      </trkpt>
      <trkpt lat="45.77077" lon="5.45221">
        <ele>227.4</ele>
        <time>2022-06-19T05:49:20Z</time>
      </trkpt>
      <trkpt lat="45.77079" lon="5.45226">
        <ele>227.4</ele>
        <time>2022-06-19T05:49:24Z</time>
      </trkpt>
      <trkpt lat="45.77089" lon="5.45246">
        <ele>227.4</ele>
        <time>2022-06-19T05:49:29Z</time>
      </trkpt>
      <trkpt lat="45.77102" lon="5.45271">
        <ele>227.2</ele>
        <time>2022-06-19T05:49:33Z</time>
      </trkpt>
      <trkpt lat="45.77121" lon="5.45308">
        <ele>226.8</ele>
        <time>2022-06-19T05:49:38Z</time>
      </trkpt>
      <trkpt lat="45.77126" lon="5.45315">
        <ele>226.8</ele>
        <time>2022-06-19T05:49:39Z</time>
      </trkpt>
      <trkpt lat="45.77138" lon="5.45322">
        <ele>226.4</ele>
        <time>2022-06-19T05:49:41Z</time>
      </trkpt>
      <trkpt lat="45.77151" lon="5.4532">
        <ele>226.2</ele>
        <time>2022-06-19T05:49:43Z</time>
      </trkpt>
      <trkpt lat="45.77158" lon="5.45317">
        <ele>226.2</ele>
        <time>2022-06-19T05:49:44Z</time>
      </trkpt>
      <trkpt lat="45.77194" lon="5.45298">
        <ele>225.6</ele>
        <time>2022-06-19T05:49:49Z</time>
      </trkpt>
      <trkpt lat="45.77247" lon="5.45267">
        <ele>225.4</ele>
        <time>2022-06-19T05:49:56Z</time>
      </trkpt>
      <trkpt lat="45.77299" lon="5.45239">
        <ele>225.6</ele>
        <time>2022-06-19T05:50:03Z</time>
      </trkpt>
      <trkpt lat="45.77306" lon="5.45235">
        <ele>225.8</ele>
        <time>2022-06-19T05:50:04Z</time>
      </trkpt>
      <trkpt lat="45.77339" lon="5.45213">
        <ele>226.2</ele>
        <time>2022-06-19T05:50:09Z</time>
      </trkpt>
      <trkpt lat="45.77392" lon="5.45178">
        <ele>226.6</ele>
        <time>2022-06-19T05:50:17Z</time>
      </trkpt>
      <trkpt lat="45.77413" lon="5.45164">
        <ele>226.4</ele>
        <time>2022-06-19T05:50:20Z</time>
      </trkpt>
      <trkpt lat="45.77459" lon="5.45142">
        <ele>226.4</ele>
        <time>2022-06-19T05:50:26Z</time>
      </trkpt>
      <trkpt lat="45.77509" lon="5.45131">
        <ele>225.8</ele>
        <time>2022-06-19T05:50:32Z</time>
      </trkpt>
      <trkpt lat="45.77553" lon="5.45124">
        <ele>225</ele>
        <time>2022-06-19T05:50:37Z</time>
      </trkpt>
      <trkpt lat="45.7757" lon="5.45122">
        <ele>224.4</ele>
        <time>2022-06-19T05:50:39Z</time>
      </trkpt>
      <trkpt lat="45.77588" lon="5.4512">
        <ele>223.8</ele>
        <time>2022-06-19T05:50:41Z</time>
      </trkpt>
      <trkpt lat="45.77637" lon="5.45115">
        <ele>223</ele>
        <time>2022-06-19T05:50:47Z</time>
      </trkpt>
      <trkpt lat="45.77654" lon="5.45113">
        <ele>223</ele>
        <time>2022-06-19T05:50:49Z</time>
      </trkpt>
      <trkpt lat="45.77709" lon="5.45102">
        <ele>223.4</ele>
        <time>2022-06-19T05:50:56Z</time>
      </trkpt>
      <trkpt lat="45.77716" lon="5.451">
        <ele>223.6</ele>
        <time>2022-06-19T05:50:57Z</time>
      </trkpt>
      <trkpt lat="45.77758" lon="5.45075">
        <ele>224.2</ele>
        <time>2022-06-19T05:51:03Z</time>
      </trkpt>
      <trkpt lat="45.77794" lon="5.45038">
        <ele>225.2</ele>
        <time>2022-06-19T05:51:09Z</time>
      </trkpt>
      <trkpt lat="45.778" lon="5.45031">
        <ele>225.2</ele>
        <time>2022-06-19T05:51:10Z</time>
      </trkpt>
      <trkpt lat="45.77843" lon="5.44969">
        <ele>225.8</ele>
        <time>2022-06-19T05:51:18Z</time>
      </trkpt>
      <trkpt lat="45.77849" lon="5.44961">
        <ele>225.8</ele>
        <time>2022-06-19T05:51:19Z</time>
      </trkpt>
      <trkpt lat="45.77887" lon="5.44923">
        <ele>225.6</ele>
        <time>2022-06-19T05:51:25Z</time>
      </trkpt>
      <trkpt lat="45.77932" lon="5.44899">
        <ele>225.6</ele>
        <time>2022-06-19T05:51:31Z</time>
      </trkpt>
      <trkpt lat="45.77979" lon="5.44889">
        <ele>224.8</ele>
        <time>2022-06-19T05:51:37Z</time>
      </trkpt>
      <trkpt lat="45.7804" lon="5.44897">
        <ele>224.2</ele>
        <time>2022-06-19T05:51:45Z</time>
      </trkpt>
      <trkpt lat="45.78072" lon="5.44899">
        <ele>224.6</ele>
        <time>2022-06-19T05:51:50Z</time>
      </trkpt>
      <trkpt lat="45.78078" lon="5.44899">
        <ele>224.6</ele>
        <time>2022-06-19T05:51:51Z</time>
      </trkpt>
      <trkpt lat="45.78088" lon="5.44903">
        <ele>225</ele>
        <time>2022-06-19T05:51:53Z</time>
      </trkpt>
      <trkpt lat="45.78098" lon="5.44916">
        <ele>225.2</ele>
        <time>2022-06-19T05:51:55Z</time>
      </trkpt>
      <trkpt lat="45.78102" lon="5.44924">
        <ele>225.4</ele>
        <time>2022-06-19T05:51:56Z</time>
      </trkpt>
      <trkpt lat="45.78128" lon="5.44969">
        <ele>225.2</ele>
        <time>2022-06-19T05:52:01Z</time>
      </trkpt>
      <trkpt lat="45.78163" lon="5.45011">
        <ele>224.6</ele>
        <time>2022-06-19T05:52:06Z</time>
      </trkpt>
      <trkpt lat="45.78178" lon="5.45027">
        <ele>224.2</ele>
        <time>2022-06-19T05:52:08Z</time>
      </trkpt>
      <trkpt lat="45.78194" lon="5.45042">
        <ele>223.2</ele>
        <time>2022-06-19T05:52:10Z</time>
      </trkpt>
      <trkpt lat="45.78211" lon="5.45055">
        <ele>222.4</ele>
        <time>2022-06-19T05:52:12Z</time>
      </trkpt>
      <trkpt lat="45.78228" lon="5.45067">
        <ele>221.8</ele>
        <time>2022-06-19T05:52:14Z</time>
      </trkpt>
      <trkpt lat="45.7826" lon="5.4509">
        <ele>220.8</ele>
        <time>2022-06-19T05:52:18Z</time>
      </trkpt>
      <trkpt lat="45.78299" lon="5.45116">
        <ele>220.2</ele>
        <time>2022-06-19T05:52:23Z</time>
      </trkpt>
      <trkpt lat="45.78341" lon="5.45146">
        <ele>220.2</ele>
        <time>2022-06-19T05:52:29Z</time>
      </trkpt>
      <trkpt lat="45.78406" lon="5.45192">
        <ele>221</ele>
        <time>2022-06-19T05:52:38Z</time>
      </trkpt>
      <trkpt lat="45.78462" lon="5.4523">
        <ele>220.4</ele>
        <time>2022-06-19T05:52:45Z</time>
      </trkpt>
      <trkpt lat="45.78479" lon="5.45241">
        <ele>220</ele>
        <time>2022-06-19T05:52:47Z</time>
      </trkpt>
      <trkpt lat="45.78488" lon="5.45246">
        <ele>219.8</ele>
        <time>2022-06-19T05:52:48Z</time>
      </trkpt>
      <trkpt lat="45.78497" lon="5.45252">
        <ele>219.4</ele>
        <time>2022-06-19T05:52:49Z</time>
      </trkpt>
      <trkpt lat="45.78504" lon="5.45261">
        <ele>219.2</ele>
        <time>2022-06-19T05:52:50Z</time>
      </trkpt>
      <trkpt lat="45.7851" lon="5.45272">
        <ele>219</ele>
        <time>2022-06-19T05:52:51Z</time>
      </trkpt>
      <trkpt lat="45.78513" lon="5.45286">
        <ele>218.8</ele>
        <time>2022-06-19T05:52:52Z</time>
      </trkpt>
      <trkpt lat="45.78513" lon="5.453">
        <ele>218.4</ele>
        <time>2022-06-19T05:52:53Z</time>
      </trkpt>
      <trkpt lat="45.78509" lon="5.45314">
        <ele>217.8</ele>
        <time>2022-06-19T05:52:54Z</time>
      </trkpt>
      <trkpt lat="45.78505" lon="5.45327">
        <ele>217.6</ele>
        <time>2022-06-19T05:52:55Z</time>
      </trkpt>
      <trkpt lat="45.78493" lon="5.45363">
        <ele>216.4</ele>
        <time>2022-06-19T05:52:58Z</time>
      </trkpt>
      <trkpt lat="45.78481" lon="5.45397">
        <ele>215.6</ele>
        <time>2022-06-19T05:53:01Z</time>
      </trkpt>
      <trkpt lat="45.78474" lon="5.45419">
        <ele>215.4</ele>
        <time>2022-06-19T05:53:03Z</time>
      </trkpt>
      <trkpt lat="45.78458" lon="5.45473">
        <ele>215</ele>
        <time>2022-06-19T05:53:08Z</time>
      </trkpt>
      <trkpt lat="45.78431" lon="5.45545">
        <ele>214.6</ele>
        <time>2022-06-19T05:53:15Z</time>
      </trkpt>
      <trkpt lat="45.78399" lon="5.45615">
        <ele>214.4</ele>
        <time>2022-06-19T05:53:22Z</time>
      </trkpt>
      <trkpt lat="45.78394" lon="5.45625">
        <ele>214.4</ele>
        <time>2022-06-19T05:53:23Z</time>
      </trkpt>
      <trkpt lat="45.7839" lon="5.45634">
        <ele>214.4</ele>
        <time>2022-06-19T05:53:24Z</time>
      </trkpt>
      <trkpt lat="45.78361" lon="5.45703">
        <ele>214</ele>
        <time>2022-06-19T05:53:31Z</time>
      </trkpt>
      <trkpt lat="45.78353" lon="5.45722">
        <ele>214</ele>
        <time>2022-06-19T05:53:33Z</time>
      </trkpt>
      <trkpt lat="45.78324" lon="5.45775">
        <ele>213.8</ele>
        <time>2022-06-19T05:53:39Z</time>
      </trkpt>
      <trkpt lat="45.78289" lon="5.45837">
        <ele>213.8</ele>
        <time>2022-06-19T05:53:46Z</time>
      </trkpt>
      <trkpt lat="45.7828" lon="5.45855">
        <ele>213.8</ele>
        <time>2022-06-19T05:53:48Z</time>
      </trkpt>
      <trkpt lat="45.78271" lon="5.45872">
        <ele>214</ele>
        <time>2022-06-19T05:53:50Z</time>
      </trkpt>
      <trkpt lat="45.78265" lon="5.45879">
        <ele>214</ele>
        <time>2022-06-19T05:53:51Z</time>
      </trkpt>
      <trkpt lat="45.7826" lon="5.45886">
        <ele>214.2</ele>
        <time>2022-06-19T05:53:52Z</time>
      </trkpt>
      <trkpt lat="45.78236" lon="5.45916">
        <ele>214.2</ele>
        <time>2022-06-19T05:53:56Z</time>
      </trkpt>
      <trkpt lat="45.78206" lon="5.4597">
        <ele>214</ele>
        <time>2022-06-19T05:54:02Z</time>
      </trkpt>
      <trkpt lat="45.78199" lon="5.4599">
        <ele>213.8</ele>
        <time>2022-06-19T05:54:04Z</time>
      </trkpt>
      <trkpt lat="45.78193" lon="5.46012">
        <ele>213.6</ele>
        <time>2022-06-19T05:54:06Z</time>
      </trkpt>
      <trkpt lat="45.78191" lon="5.46023">
        <ele>213.4</ele>
        <time>2022-06-19T05:54:07Z</time>
      </trkpt>
      <trkpt lat="45.78177" lon="5.46099">
        <ele>213</ele>
        <time>2022-06-19T05:54:14Z</time>
      </trkpt>
      <trkpt lat="45.78176" lon="5.4611">
        <ele>213</ele>
        <time>2022-06-19T05:54:15Z</time>
      </trkpt>
      <trkpt lat="45.78177" lon="5.46177">
        <ele>212.8</ele>
        <time>2022-06-19T05:54:21Z</time>
      </trkpt>
      <trkpt lat="45.78182" lon="5.46252">
        <ele>212.8</ele>
        <time>2022-06-19T05:54:28Z</time>
      </trkpt>
      <trkpt lat="45.78178" lon="5.46318">
        <ele>213.2</ele>
        <time>2022-06-19T05:54:34Z</time>
      </trkpt>
      <trkpt lat="45.78165" lon="5.46393">
        <ele>213.2</ele>
        <time>2022-06-19T05:54:41Z</time>
      </trkpt>
      <trkpt lat="45.78161" lon="5.46414">
        <ele>213.2</ele>
        <time>2022-06-19T05:54:43Z</time>
      </trkpt>
      <trkpt lat="45.78148" lon="5.4649">
        <ele>213.4</ele>
        <time>2022-06-19T05:54:50Z</time>
      </trkpt>
      <trkpt lat="45.78139" lon="5.46542">
        <ele>213.6</ele>
        <time>2022-06-19T05:54:55Z</time>
      </trkpt>
      <trkpt lat="45.78121" lon="5.46624">
        <ele>213.4</ele>
        <time>2022-06-19T05:55:03Z</time>
      </trkpt>
      <trkpt lat="45.78119" lon="5.46634">
        <ele>213.4</ele>
        <time>2022-06-19T05:55:04Z</time>
      </trkpt>
      <trkpt lat="45.78102" lon="5.46698">
        <ele>214.4</ele>
        <time>2022-06-19T05:55:11Z</time>
      </trkpt>
      <trkpt lat="45.78087" lon="5.46754">
        <ele>214.4</ele>
        <time>2022-06-19T05:55:18Z</time>
      </trkpt>
      <trkpt lat="45.78081" lon="5.46777">
        <ele>214.8</ele>
        <time>2022-06-19T05:55:21Z</time>
      </trkpt>
      <trkpt lat="45.78069" lon="5.46821">
        <ele>215.8</ele>
        <time>2022-06-19T05:55:27Z</time>
      </trkpt>
      <trkpt lat="45.78067" lon="5.46828">
        <ele>216</ele>
        <time>2022-06-19T05:55:28Z</time>
      </trkpt>
      <trkpt lat="45.78051" lon="5.46871">
        <ele>217.2</ele>
        <time>2022-06-19T05:55:35Z</time>
      </trkpt>
      <trkpt lat="45.78028" lon="5.46903">
        <ele>218.2</ele>
        <time>2022-06-19T05:55:41Z</time>
      </trkpt>
      <trkpt lat="45.78024" lon="5.46907">
        <ele>218.2</ele>
        <time>2022-06-19T05:55:42Z</time>
      </trkpt>
      <trkpt lat="45.78003" lon="5.46927">
        <ele>219.2</ele>
        <time>2022-06-19T05:55:47Z</time>
      </trkpt>
      <trkpt lat="45.7799" lon="5.46939">
        <ele>220.4</ele>
        <time>2022-06-19T05:55:50Z</time>
      </trkpt>
      <trkpt lat="45.77982" lon="5.46947">
        <ele>220.8</ele>
        <time>2022-06-19T05:55:52Z</time>
      </trkpt>
      <trkpt lat="45.77974" lon="5.46956">
        <ele>221.4</ele>
        <time>2022-06-19T05:55:54Z</time>
      </trkpt>
      <trkpt lat="45.77958" lon="5.46972">
        <ele>222.6</ele>
        <time>2022-06-19T05:55:58Z</time>
      </trkpt>
      <trkpt lat="45.77943" lon="5.46989">
        <ele>224</ele>
        <time>2022-06-19T05:56:02Z</time>
      </trkpt>
      <trkpt lat="45.77928" lon="5.47006">
        <ele>225</ele>
        <time>2022-06-19T05:56:06Z</time>
      </trkpt>
      <trkpt lat="45.77915" lon="5.47022">
        <ele>226</ele>
        <time>2022-06-19T05:56:10Z</time>
      </trkpt>
      <trkpt lat="45.77911" lon="5.47027">
        <ele>226.2</ele>
        <time>2022-06-19T05:56:11Z</time>
      </trkpt>
      <trkpt lat="45.77895" lon="5.4705">
        <ele>227</ele>
        <time>2022-06-19T05:56:17Z</time>
      </trkpt>
      <trkpt lat="45.77887" lon="5.47064">
        <ele>227.4</ele>
        <time>2022-06-19T05:56:20Z</time>
      </trkpt>
      <trkpt lat="45.77882" lon="5.47074">
        <ele>228</ele>
        <time>2022-06-19T05:56:22Z</time>
      </trkpt>
      <trkpt lat="45.7788" lon="5.47087">
        <ele>228.6</ele>
        <time>2022-06-19T05:56:24Z</time>
      </trkpt>
      <trkpt lat="45.77879" lon="5.47114">
        <ele>229.2</ele>
        <time>2022-06-19T05:56:28Z</time>
      </trkpt>
      <trkpt lat="45.77879" lon="5.4712">
        <ele>229.2</ele>
        <time>2022-06-19T05:56:29Z</time>
      </trkpt>
      <trkpt lat="45.77881" lon="5.4714">
        <ele>229.8</ele>
        <time>2022-06-19T05:56:32Z</time>
      </trkpt>
      <trkpt lat="45.77887" lon="5.47168">
        <ele>230.4</ele>
        <time>2022-06-19T05:56:36Z</time>
      </trkpt>
      <trkpt lat="45.77894" lon="5.47194">
        <ele>230.8</ele>
        <time>2022-06-19T05:56:40Z</time>
      </trkpt>
      <trkpt lat="45.77906" lon="5.47233">
        <ele>231.4</ele>
        <time>2022-06-19T05:56:46Z</time>
      </trkpt>
      <trkpt lat="45.77909" lon="5.47252">
        <ele>231.8</ele>
        <time>2022-06-19T05:56:49Z</time>
      </trkpt>
      <trkpt lat="45.7791" lon="5.47278">
        <ele>232.6</ele>
        <time>2022-06-19T05:56:53Z</time>
      </trkpt>
      <trkpt lat="45.7791" lon="5.47303">
        <ele>234.2</ele>
        <time>2022-06-19T05:56:57Z</time>
      </trkpt>
      <trkpt lat="45.7791" lon="5.4732">
        <ele>235.2</ele>
        <time>2022-06-19T05:57:00Z</time>
      </trkpt>
      <trkpt lat="45.77908" lon="5.47345">
        <ele>236.4</ele>
        <time>2022-06-19T05:57:04Z</time>
      </trkpt>
      <trkpt lat="45.77909" lon="5.4735">
        <ele>236.4</ele>
        <time>2022-06-19T05:57:05Z</time>
      </trkpt>
      <trkpt lat="45.77912" lon="5.4736">
        <ele>237.2</ele>
        <time>2022-06-19T05:57:07Z</time>
      </trkpt>
      <trkpt lat="45.77915" lon="5.47364">
        <ele>237.4</ele>
        <time>2022-06-19T05:57:08Z</time>
      </trkpt>
      <trkpt lat="45.77919" lon="5.47365">
        <ele>238</ele>
        <time>2022-06-19T05:57:09Z</time>
      </trkpt>
      <trkpt lat="45.77925" lon="5.47364">
        <ele>239</ele>
        <time>2022-06-19T05:57:11Z</time>
      </trkpt>
      <trkpt lat="45.77938" lon="5.47355">
        <ele>240.4</ele>
        <time>2022-06-19T05:57:14Z</time>
      </trkpt>
      <trkpt lat="45.77955" lon="5.47344">
        <ele>241.6</ele>
        <time>2022-06-19T05:57:18Z</time>
      </trkpt>
      <trkpt lat="45.77971" lon="5.47333">
        <ele>242.8</ele>
        <time>2022-06-19T05:57:22Z</time>
      </trkpt>
      <trkpt lat="45.77983" lon="5.47324">
        <ele>243.8</ele>
        <time>2022-06-19T05:57:25Z</time>
      </trkpt>
      <trkpt lat="45.77987" lon="5.47321">
        <ele>244</ele>
        <time>2022-06-19T05:57:26Z</time>
      </trkpt>
      <trkpt lat="45.78005" lon="5.47308">
        <ele>245.2</ele>
        <time>2022-06-19T05:57:30Z</time>
      </trkpt>
      <trkpt lat="45.78009" lon="5.47307">
        <ele>245.2</ele>
        <time>2022-06-19T05:57:31Z</time>
      </trkpt>
      <trkpt lat="45.78014" lon="5.47306">
        <ele>245.4</ele>
        <time>2022-06-19T05:57:32Z</time>
      </trkpt>
      <trkpt lat="45.78018" lon="5.47308">
        <ele>245.4</ele>
        <time>2022-06-19T05:57:33Z</time>
      </trkpt>
      <trkpt lat="45.7802" lon="5.47317">
        <ele>246.2</ele>
        <time>2022-06-19T05:57:35Z</time>
      </trkpt>
      <trkpt lat="45.78015" lon="5.47325">
        <ele>246.6</ele>
        <time>2022-06-19T05:57:37Z</time>
      </trkpt>
      <trkpt lat="45.78012" lon="5.47328">
        <ele>247</ele>
        <time>2022-06-19T05:57:38Z</time>
      </trkpt>
      <trkpt lat="45.78008" lon="5.47331">
        <ele>247.4</ele>
        <time>2022-06-19T05:57:39Z</time>
      </trkpt>
      <trkpt lat="45.77992" lon="5.47344">
        <ele>248.4</ele>
        <time>2022-06-19T05:57:43Z</time>
      </trkpt>
      <trkpt lat="45.77984" lon="5.47351">
        <ele>249.4</ele>
        <time>2022-06-19T05:57:45Z</time>
      </trkpt>
      <trkpt lat="45.7798" lon="5.47354">
        <ele>249.8</ele>
        <time>2022-06-19T05:57:46Z</time>
      </trkpt>
      <trkpt lat="45.77966" lon="5.47366">
        <ele>250.6</ele>
        <time>2022-06-19T05:57:50Z</time>
      </trkpt>
      <trkpt lat="45.77963" lon="5.47369">
        <ele>250.8</ele>
        <time>2022-06-19T05:57:51Z</time>
      </trkpt>
      <trkpt lat="45.77959" lon="5.47372">
        <ele>251</ele>
        <time>2022-06-19T05:57:52Z</time>
      </trkpt>
      <trkpt lat="45.77948" lon="5.47383">
        <ele>252</ele>
        <time>2022-06-19T05:57:55Z</time>
      </trkpt>
      <trkpt lat="45.77929" lon="5.474">
        <ele>253.2</ele>
        <time>2022-06-19T05:58:00Z</time>
      </trkpt>
      <trkpt lat="45.77925" lon="5.47402">
        <ele>253.2</ele>
        <time>2022-06-19T05:58:01Z</time>
      </trkpt>
      <trkpt lat="45.7791" lon="5.47412">
        <ele>254.4</ele>
        <time>2022-06-19T05:58:05Z</time>
      </trkpt>
      <trkpt lat="45.77891" lon="5.47421">
        <ele>255.4</ele>
        <time>2022-06-19T05:58:10Z</time>
      </trkpt>
      <trkpt lat="45.77879" lon="5.47429">
        <ele>256.8</ele>
        <time>2022-06-19T05:58:13Z</time>
      </trkpt>
      <trkpt lat="45.77864" lon="5.47441">
        <ele>258</ele>
        <time>2022-06-19T05:58:17Z</time>
      </trkpt>
      <trkpt lat="45.77853" lon="5.47451">
        <ele>258.6</ele>
        <time>2022-06-19T05:58:20Z</time>
      </trkpt>
      <trkpt lat="45.77844" lon="5.47457">
        <ele>259</ele>
        <time>2022-06-19T05:58:22Z</time>
      </trkpt>
      <trkpt lat="45.77836" lon="5.47464">
        <ele>260</ele>
        <time>2022-06-19T05:58:24Z</time>
      </trkpt>
      <trkpt lat="45.77825" lon="5.47477">
        <ele>260.6</ele>
        <time>2022-06-19T05:58:27Z</time>
      </trkpt>
      <trkpt lat="45.77814" lon="5.4749">
        <ele>261.2</ele>
        <time>2022-06-19T05:58:30Z</time>
      </trkpt>
      <trkpt lat="45.77807" lon="5.47498">
        <ele>261.6</ele>
        <time>2022-06-19T05:58:32Z</time>
      </trkpt>
      <trkpt lat="45.77804" lon="5.47502">
        <ele>262.4</ele>
        <time>2022-06-19T05:58:33Z</time>
      </trkpt>
      <trkpt lat="45.77799" lon="5.4751">
        <ele>263</ele>
        <time>2022-06-19T05:58:35Z</time>
      </trkpt>
      <trkpt lat="45.77793" lon="5.47519">
        <ele>263.6</ele>
        <time>2022-06-19T05:58:37Z</time>
      </trkpt>
      <trkpt lat="45.77783" lon="5.47537">
        <ele>264</ele>
        <time>2022-06-19T05:58:41Z</time>
      </trkpt>
      <trkpt lat="45.7778" lon="5.4754">
        <ele>264.4</ele>
        <time>2022-06-19T05:58:42Z</time>
      </trkpt>
      <trkpt lat="45.77777" lon="5.47545">
        <ele>264.6</ele>
        <time>2022-06-19T05:58:43Z</time>
      </trkpt>
      <trkpt lat="45.77768" lon="5.47559">
        <ele>265</ele>
        <time>2022-06-19T05:58:46Z</time>
      </trkpt>
      <trkpt lat="45.77763" lon="5.47565">
        <ele>265.4</ele>
        <time>2022-06-19T05:58:48Z</time>
      </trkpt>
      <trkpt lat="45.7776" lon="5.47569">
        <ele>265.8</ele>
        <time>2022-06-19T05:58:49Z</time>
      </trkpt>
      <trkpt lat="45.77751" lon="5.47583">
        <ele>266.8</ele>
        <time>2022-06-19T05:58:52Z</time>
      </trkpt>
      <trkpt lat="45.77748" lon="5.47588">
        <ele>267</ele>
        <time>2022-06-19T05:58:53Z</time>
      </trkpt>
      <trkpt lat="45.77742" lon="5.47598">
        <ele>267.4</ele>
        <time>2022-06-19T05:58:55Z</time>
      </trkpt>
      <trkpt lat="45.77739" lon="5.47603">
        <ele>268</ele>
        <time>2022-06-19T05:58:56Z</time>
      </trkpt>
      <trkpt lat="45.77732" lon="5.4762">
        <ele>268.6</ele>
        <time>2022-06-19T05:58:59Z</time>
      </trkpt>
      <trkpt lat="45.77728" lon="5.47632">
        <ele>269.2</ele>
        <time>2022-06-19T05:59:01Z</time>
      </trkpt>
      <trkpt lat="45.77726" lon="5.47636">
        <ele>269.4</ele>
        <time>2022-06-19T05:59:02Z</time>
      </trkpt>
      <trkpt lat="45.77723" lon="5.4765">
        <ele>270.4</ele>
        <time>2022-06-19T05:59:04Z</time>
      </trkpt>
      <trkpt lat="45.7772" lon="5.47662">
        <ele>270.8</ele>
        <time>2022-06-19T05:59:06Z</time>
      </trkpt>
      <trkpt lat="45.77719" lon="5.47668">
        <ele>271</ele>
        <time>2022-06-19T05:59:07Z</time>
      </trkpt>
      <trkpt lat="45.77718" lon="5.47675">
        <ele>271.2</ele>
        <time>2022-06-19T05:59:08Z</time>
      </trkpt>
      <trkpt lat="45.77717" lon="5.4769">
        <ele>271.6</ele>
        <time>2022-06-19T05:59:10Z</time>
      </trkpt>
      <trkpt lat="45.77717" lon="5.47697">
        <ele>272</ele>
        <time>2022-06-19T05:59:11Z</time>
      </trkpt>
      <trkpt lat="45.77716" lon="5.47705">
        <ele>272.6</ele>
        <time>2022-06-19T05:59:12Z</time>
      </trkpt>
      <trkpt lat="45.77716" lon="5.47713">
        <ele>272.8</ele>
        <time>2022-06-19T05:59:13Z</time>
      </trkpt>
      <trkpt lat="45.77714" lon="5.47744">
        <ele>273.4</ele>
        <time>2022-06-19T05:59:17Z</time>
      </trkpt>
      <trkpt lat="45.77717" lon="5.47792">
        <ele>273.6</ele>
        <time>2022-06-19T05:59:22Z</time>
      </trkpt>
      <trkpt lat="45.7773" lon="5.47841">
        <ele>273.2</ele>
        <time>2022-06-19T05:59:27Z</time>
      </trkpt>
      <trkpt lat="45.77756" lon="5.47918">
        <ele>272.4</ele>
        <time>2022-06-19T05:59:35Z</time>
      </trkpt>
      <trkpt lat="45.77773" lon="5.47965">
        <ele>271.8</ele>
        <time>2022-06-19T05:59:40Z</time>
      </trkpt>
      <trkpt lat="45.77786" lon="5.48001">
        <ele>271</ele>
        <time>2022-06-19T05:59:44Z</time>
      </trkpt>
      <trkpt lat="45.77795" lon="5.48027">
        <ele>270.8</ele>
        <time>2022-06-19T05:59:47Z</time>
      </trkpt>
      <trkpt lat="45.7781" lon="5.48068">
        <ele>270.8</ele>
        <time>2022-06-19T05:59:52Z</time>
      </trkpt>
      <trkpt lat="45.77835" lon="5.48139">
        <ele>271</ele>
        <time>2022-06-19T06:00:01Z</time>
      </trkpt>
      <trkpt lat="45.77838" lon="5.48147">
        <ele>271.2</ele>
        <time>2022-06-19T06:00:02Z</time>
      </trkpt>
      <trkpt lat="45.77852" lon="5.48202">
        <ele>271.8</ele>
        <time>2022-06-19T06:00:09Z</time>
      </trkpt>
      <trkpt lat="45.77854" lon="5.4821">
        <ele>272</ele>
        <time>2022-06-19T06:00:10Z</time>
      </trkpt>
      <trkpt lat="45.77859" lon="5.48268">
        <ele>273</ele>
        <time>2022-06-19T06:00:17Z</time>
      </trkpt>
      <trkpt lat="45.77864" lon="5.48344">
        <ele>273.8</ele>
        <time>2022-06-19T06:00:26Z</time>
      </trkpt>
      <trkpt lat="45.77865" lon="5.48369">
        <ele>274.2</ele>
        <time>2022-06-19T06:00:29Z</time>
      </trkpt>
      <trkpt lat="45.77866" lon="5.48399">
        <ele>274.4</ele>
        <time>2022-06-19T06:00:33Z</time>
      </trkpt>
      <trkpt lat="45.77867" lon="5.48406">
        <ele>274.4</ele>
        <time>2022-06-19T06:00:34Z</time>
      </trkpt>
      <trkpt lat="45.77871" lon="5.48418">
        <ele>274.6</ele>
        <time>2022-06-19T06:00:37Z</time>
      </trkpt>
      <trkpt lat="45.77871" lon="5.48419">
        <ele>274.6</ele>
        <time>2022-06-19T06:00:38Z</time>
      </trkpt>
      <trkpt lat="45.77872" lon="5.48425">
        <ele>274.8</ele>
        <time>2022-06-19T06:00:41Z</time>
      </trkpt>
      <trkpt lat="45.77874" lon="5.4845">
        <ele>275</ele>
        <time>2022-06-19T06:00:46Z</time>
      </trkpt>
      <trkpt lat="45.77879" lon="5.4848">
        <ele>275</ele>
        <time>2022-06-19T06:00:50Z</time>
      </trkpt>
      <trkpt lat="45.77883" lon="5.48495">
        <ele>275</ele>
        <time>2022-06-19T06:00:52Z</time>
      </trkpt>
      <trkpt lat="45.77889" lon="5.48516">
        <ele>275</ele>
        <time>2022-06-19T06:00:55Z</time>
      </trkpt>
      <trkpt lat="45.77894" lon="5.48529">
        <ele>275.2</ele>
        <time>2022-06-19T06:00:57Z</time>
      </trkpt>
      <trkpt lat="45.779" lon="5.48541">
        <ele>275.8</ele>
        <time>2022-06-19T06:00:59Z</time>
      </trkpt>
      <trkpt lat="45.77907" lon="5.48553">
        <ele>276.2</ele>
        <time>2022-06-19T06:01:01Z</time>
      </trkpt>
      <trkpt lat="45.77913" lon="5.48565">
        <ele>276.2</ele>
        <time>2022-06-19T06:01:03Z</time>
      </trkpt>
      <trkpt lat="45.77918" lon="5.48577">
        <ele>276.4</ele>
        <time>2022-06-19T06:01:05Z</time>
      </trkpt>
      <trkpt lat="45.77936" lon="5.48615">
        <ele>277.6</ele>
        <time>2022-06-19T06:01:12Z</time>
      </trkpt>
      <trkpt lat="45.77949" lon="5.48629">
        <ele>278.4</ele>
        <time>2022-06-19T06:01:16Z</time>
      </trkpt>
      <trkpt lat="45.77953" lon="5.48632">
        <ele>278.4</ele>
        <time>2022-06-19T06:01:17Z</time>
      </trkpt>
      <trkpt lat="45.7796" lon="5.48634">
        <ele>279.2</ele>
        <time>2022-06-19T06:01:19Z</time>
      </trkpt>
      <trkpt lat="45.77968" lon="5.48636">
        <ele>280.2</ele>
        <time>2022-06-19T06:01:21Z</time>
      </trkpt>
      <trkpt lat="45.7799" lon="5.48641">
        <ele>281.6</ele>
        <time>2022-06-19T06:01:26Z</time>
      </trkpt>
      <trkpt lat="45.78003" lon="5.48641">
        <ele>282.4</ele>
        <time>2022-06-19T06:01:29Z</time>
      </trkpt>
      <trkpt lat="45.78021" lon="5.4864">
        <ele>283.4</ele>
        <time>2022-06-19T06:01:33Z</time>
      </trkpt>
      <trkpt lat="45.78029" lon="5.48639">
        <ele>283.8</ele>
        <time>2022-06-19T06:01:35Z</time>
      </trkpt>
      <trkpt lat="45.78042" lon="5.48638">
        <ele>284.6</ele>
        <time>2022-06-19T06:01:38Z</time>
      </trkpt>
      <trkpt lat="45.78055" lon="5.48638">
        <ele>286</ele>
        <time>2022-06-19T06:01:41Z</time>
      </trkpt>
      <trkpt lat="45.7806" lon="5.48637">
        <ele>286.4</ele>
        <time>2022-06-19T06:01:42Z</time>
      </trkpt>
      <trkpt lat="45.78068" lon="5.48638">
        <ele>287.2</ele>
        <time>2022-06-19T06:01:44Z</time>
      </trkpt>
      <trkpt lat="45.78084" lon="5.48637">
        <ele>288.4</ele>
        <time>2022-06-19T06:01:48Z</time>
      </trkpt>
      <trkpt lat="45.78106" lon="5.48637">
        <ele>289.8</ele>
        <time>2022-06-19T06:01:53Z</time>
      </trkpt>
      <trkpt lat="45.7811" lon="5.48638">
        <ele>290</ele>
        <time>2022-06-19T06:01:54Z</time>
      </trkpt>
      <trkpt lat="45.78115" lon="5.48641">
        <ele>290.2</ele>
        <time>2022-06-19T06:01:55Z</time>
      </trkpt>
      <trkpt lat="45.78119" lon="5.48643">
        <ele>290.8</ele>
        <time>2022-06-19T06:01:56Z</time>
      </trkpt>
      <trkpt lat="45.78123" lon="5.48645">
        <ele>291</ele>
        <time>2022-06-19T06:01:57Z</time>
      </trkpt>
      <trkpt lat="45.7813" lon="5.4865">
        <ele>291.6</ele>
        <time>2022-06-19T06:01:59Z</time>
      </trkpt>
      <trkpt lat="45.78134" lon="5.48652">
        <ele>292</ele>
        <time>2022-06-19T06:02:00Z</time>
      </trkpt>
      <trkpt lat="45.78145" lon="5.48659">
        <ele>292.6</ele>
        <time>2022-06-19T06:02:03Z</time>
      </trkpt>
      <trkpt lat="45.78152" lon="5.48664">
        <ele>293.4</ele>
        <time>2022-06-19T06:02:05Z</time>
      </trkpt>
      <trkpt lat="45.78165" lon="5.48675">
        <ele>294.4</ele>
        <time>2022-06-19T06:02:09Z</time>
      </trkpt>
      <trkpt lat="45.78168" lon="5.48678">
        <ele>294.6</ele>
        <time>2022-06-19T06:02:10Z</time>
      </trkpt>
      <trkpt lat="45.78174" lon="5.48685">
        <ele>295</ele>
        <time>2022-06-19T06:02:12Z</time>
      </trkpt>
      <trkpt lat="45.7818" lon="5.48692">
        <ele>295.6</ele>
        <time>2022-06-19T06:02:14Z</time>
      </trkpt>
      <trkpt lat="45.78183" lon="5.48696">
        <ele>295.8</ele>
        <time>2022-06-19T06:02:15Z</time>
      </trkpt>
      <trkpt lat="45.78194" lon="5.48705">
        <ele>296.8</ele>
        <time>2022-06-19T06:02:18Z</time>
      </trkpt>
      <trkpt lat="45.78197" lon="5.48707">
        <ele>297</ele>
        <time>2022-06-19T06:02:19Z</time>
      </trkpt>
      <trkpt lat="45.78204" lon="5.48713">
        <ele>297.6</ele>
        <time>2022-06-19T06:02:21Z</time>
      </trkpt>
      <trkpt lat="45.78211" lon="5.48718">
        <ele>298.2</ele>
        <time>2022-06-19T06:02:23Z</time>
      </trkpt>
      <trkpt lat="45.78222" lon="5.48727">
        <ele>299</ele>
        <time>2022-06-19T06:02:26Z</time>
      </trkpt>
      <trkpt lat="45.78226" lon="5.48731">
        <ele>299.2</ele>
        <time>2022-06-19T06:02:27Z</time>
      </trkpt>
      <trkpt lat="45.78238" lon="5.48741">
        <ele>300</ele>
        <time>2022-06-19T06:02:30Z</time>
      </trkpt>
      <trkpt lat="45.78242" lon="5.48745">
        <ele>300.2</ele>
        <time>2022-06-19T06:02:31Z</time>
      </trkpt>
      <trkpt lat="45.78245" lon="5.4875">
        <ele>300.4</ele>
        <time>2022-06-19T06:02:32Z</time>
      </trkpt>
      <trkpt lat="45.78253" lon="5.48764">
        <ele>301.2</ele>
        <time>2022-06-19T06:02:35Z</time>
      </trkpt>
      <trkpt lat="45.78256" lon="5.48769">
        <ele>301.2</ele>
        <time>2022-06-19T06:02:36Z</time>
      </trkpt>
      <trkpt lat="45.7826" lon="5.48786">
        <ele>302.2</ele>
        <time>2022-06-19T06:02:39Z</time>
      </trkpt>
      <trkpt lat="45.78261" lon="5.48792">
        <ele>302.4</ele>
        <time>2022-06-19T06:02:40Z</time>
      </trkpt>
      <trkpt lat="45.78262" lon="5.48798">
        <ele>302.6</ele>
        <time>2022-06-19T06:02:41Z</time>
      </trkpt>
      <trkpt lat="45.7826" lon="5.48816">
        <ele>303.6</ele>
        <time>2022-06-19T06:02:44Z</time>
      </trkpt>
      <trkpt lat="45.78259" lon="5.48821">
        <ele>303.8</ele>
        <time>2022-06-19T06:02:45Z</time>
      </trkpt>
      <trkpt lat="45.78253" lon="5.48841">
        <ele>304.8</ele>
        <time>2022-06-19T06:02:49Z</time>
      </trkpt>
      <trkpt lat="45.78251" lon="5.48846">
        <ele>305</ele>
        <time>2022-06-19T06:02:50Z</time>
      </trkpt>
      <trkpt lat="45.78242" lon="5.48865">
        <ele>306.2</ele>
        <time>2022-06-19T06:02:54Z</time>
      </trkpt>
      <trkpt lat="45.78231" lon="5.4888">
        <ele>307</ele>
        <time>2022-06-19T06:02:58Z</time>
      </trkpt>
      <trkpt lat="45.78228" lon="5.48883">
        <ele>307.2</ele>
        <time>2022-06-19T06:02:59Z</time>
      </trkpt>
      <trkpt lat="45.78225" lon="5.48887">
        <ele>307.4</ele>
        <time>2022-06-19T06:03:00Z</time>
      </trkpt>
      <trkpt lat="45.78214" lon="5.48892">
        <ele>308.6</ele>
        <time>2022-06-19T06:03:03Z</time>
      </trkpt>
      <trkpt lat="45.78198" lon="5.48891">
        <ele>309.6</ele>
        <time>2022-06-19T06:03:07Z</time>
      </trkpt>
      <trkpt lat="45.78194" lon="5.48891">
        <ele>309.8</ele>
        <time>2022-06-19T06:03:08Z</time>
      </trkpt>
      <trkpt lat="45.7819" lon="5.48891">
        <ele>310</ele>
        <time>2022-06-19T06:03:09Z</time>
      </trkpt>
      <trkpt lat="45.78186" lon="5.48893">
        <ele>310.6</ele>
        <time>2022-06-19T06:03:10Z</time>
      </trkpt>
      <trkpt lat="45.78178" lon="5.48898">
        <ele>311.6</ele>
        <time>2022-06-19T06:03:12Z</time>
      </trkpt>
      <trkpt lat="45.78175" lon="5.48901">
        <ele>311.8</ele>
        <time>2022-06-19T06:03:13Z</time>
      </trkpt>
      <trkpt lat="45.78173" lon="5.48904">
        <ele>311.8</ele>
        <time>2022-06-19T06:03:14Z</time>
      </trkpt>
      <trkpt lat="45.78163" lon="5.48916">
        <ele>312.8</ele>
        <time>2022-06-19T06:03:18Z</time>
      </trkpt>
      <trkpt lat="45.7816" lon="5.4892">
        <ele>313</ele>
        <time>2022-06-19T06:03:19Z</time>
      </trkpt>
      <trkpt lat="45.78152" lon="5.48932">
        <ele>314.2</ele>
        <time>2022-06-19T06:03:22Z</time>
      </trkpt>
      <trkpt lat="45.78141" lon="5.48947">
        <ele>315.2</ele>
        <time>2022-06-19T06:03:26Z</time>
      </trkpt>
      <trkpt lat="45.7813" lon="5.48963">
        <ele>316.4</ele>
        <time>2022-06-19T06:03:30Z</time>
      </trkpt>
      <trkpt lat="45.78123" lon="5.48975">
        <ele>317.4</ele>
        <time>2022-06-19T06:03:33Z</time>
      </trkpt>
      <trkpt lat="45.78121" lon="5.48979">
        <ele>317.6</ele>
        <time>2022-06-19T06:03:34Z</time>
      </trkpt>
      <trkpt lat="45.78111" lon="5.48998">
        <ele>318.6</ele>
        <time>2022-06-19T06:03:38Z</time>
      </trkpt>
      <trkpt lat="45.78101" lon="5.49017">
        <ele>319.4</ele>
        <time>2022-06-19T06:03:42Z</time>
      </trkpt>
      <trkpt lat="45.78096" lon="5.49026">
        <ele>319.6</ele>
        <time>2022-06-19T06:03:44Z</time>
      </trkpt>
      <trkpt lat="45.78083" lon="5.49048">
        <ele>320.8</ele>
        <time>2022-06-19T06:03:49Z</time>
      </trkpt>
      <trkpt lat="45.78076" lon="5.49061">
        <ele>321.4</ele>
        <time>2022-06-19T06:03:52Z</time>
      </trkpt>
      <trkpt lat="45.78072" lon="5.4907">
        <ele>322</ele>
        <time>2022-06-19T06:03:54Z</time>
      </trkpt>
      <trkpt lat="45.7806" lon="5.49095">
        <ele>323.2</ele>
        <time>2022-06-19T06:03:59Z</time>
      </trkpt>
      <trkpt lat="45.78054" lon="5.49109">
        <ele>323.8</ele>
        <time>2022-06-19T06:04:02Z</time>
      </trkpt>
      <trkpt lat="45.78051" lon="5.49114">
        <ele>324.2</ele>
        <time>2022-06-19T06:04:03Z</time>
      </trkpt>
      <trkpt lat="45.78045" lon="5.49128">
        <ele>325.4</ele>
        <time>2022-06-19T06:04:06Z</time>
      </trkpt>
      <trkpt lat="45.78037" lon="5.49149">
        <ele>326.6</ele>
        <time>2022-06-19T06:04:10Z</time>
      </trkpt>
      <trkpt lat="45.78032" lon="5.49165">
        <ele>327.2</ele>
        <time>2022-06-19T06:04:13Z</time>
      </trkpt>
      <trkpt lat="45.78028" lon="5.49176">
        <ele>327.6</ele>
        <time>2022-06-19T06:04:15Z</time>
      </trkpt>
      <trkpt lat="45.78021" lon="5.49204">
        <ele>328.6</ele>
        <time>2022-06-19T06:04:20Z</time>
      </trkpt>
      <trkpt lat="45.78019" lon="5.4921">
        <ele>328.8</ele>
        <time>2022-06-19T06:04:21Z</time>
      </trkpt>
      <trkpt lat="45.78015" lon="5.49226">
        <ele>329.4</ele>
        <time>2022-06-19T06:04:24Z</time>
      </trkpt>
      <trkpt lat="45.78013" lon="5.49232">
        <ele>330</ele>
        <time>2022-06-19T06:04:25Z</time>
      </trkpt>
      <trkpt lat="45.78008" lon="5.49241">
        <ele>330.6</ele>
        <time>2022-06-19T06:04:27Z</time>
      </trkpt>
      <trkpt lat="45.78003" lon="5.49249">
        <ele>331</ele>
        <time>2022-06-19T06:04:29Z</time>
      </trkpt>
      <trkpt lat="45.77997" lon="5.49262">
        <ele>332.4</ele>
        <time>2022-06-19T06:04:32Z</time>
      </trkpt>
      <trkpt lat="45.77993" lon="5.49272">
        <ele>332.8</ele>
        <time>2022-06-19T06:04:34Z</time>
      </trkpt>
      <trkpt lat="45.77988" lon="5.49293">
        <ele>333.6</ele>
        <time>2022-06-19T06:04:38Z</time>
      </trkpt>
      <trkpt lat="45.77986" lon="5.49305">
        <ele>334.2</ele>
        <time>2022-06-19T06:04:40Z</time>
      </trkpt>
      <trkpt lat="45.77984" lon="5.49318">
        <ele>334.6</ele>
        <time>2022-06-19T06:04:42Z</time>
      </trkpt>
      <trkpt lat="45.77984" lon="5.49325">
        <ele>334.8</ele>
        <time>2022-06-19T06:04:43Z</time>
      </trkpt>
      <trkpt lat="45.77984" lon="5.49337">
        <ele>335.4</ele>
        <time>2022-06-19T06:04:45Z</time>
      </trkpt>
      <trkpt lat="45.77984" lon="5.49343">
        <ele>335.8</ele>
        <time>2022-06-19T06:04:46Z</time>
      </trkpt>
      <trkpt lat="45.77984" lon="5.49349">
        <ele>336</ele>
        <time>2022-06-19T06:04:47Z</time>
      </trkpt>
      <trkpt lat="45.77984" lon="5.49355">
        <ele>336.2</ele>
        <time>2022-06-19T06:04:48Z</time>
      </trkpt>
      <trkpt lat="45.77986" lon="5.49379">
        <ele>337.2</ele>
        <time>2022-06-19T06:04:52Z</time>
      </trkpt>
      <trkpt lat="45.77986" lon="5.49397">
        <ele>338.4</ele>
        <time>2022-06-19T06:04:55Z</time>
      </trkpt>
      <trkpt lat="45.77983" lon="5.4942">
        <ele>339</ele>
        <time>2022-06-19T06:04:59Z</time>
      </trkpt>
      <trkpt lat="45.77982" lon="5.49426">
        <ele>339.4</ele>
        <time>2022-06-19T06:05:00Z</time>
      </trkpt>
      <trkpt lat="45.77979" lon="5.49444">
        <ele>339.8</ele>
        <time>2022-06-19T06:05:03Z</time>
      </trkpt>
      <trkpt lat="45.77979" lon="5.4945">
        <ele>340.4</ele>
        <time>2022-06-19T06:05:04Z</time>
      </trkpt>
      <trkpt lat="45.77978" lon="5.49469">
        <ele>341.2</ele>
        <time>2022-06-19T06:05:07Z</time>
      </trkpt>
      <trkpt lat="45.77982" lon="5.49492">
        <ele>341.6</ele>
        <time>2022-06-19T06:05:11Z</time>
      </trkpt>
      <trkpt lat="45.77984" lon="5.49506">
        <ele>341.8</ele>
        <time>2022-06-19T06:05:13Z</time>
      </trkpt>
      <trkpt lat="45.77986" lon="5.49537">
        <ele>342.6</ele>
        <time>2022-06-19T06:05:18Z</time>
      </trkpt>
      <trkpt lat="45.77986" lon="5.49544">
        <ele>342.6</ele>
        <time>2022-06-19T06:05:19Z</time>
      </trkpt>
      <trkpt lat="45.77985" lon="5.4955">
        <ele>342.8</ele>
        <time>2022-06-19T06:05:20Z</time>
      </trkpt>
      <trkpt lat="45.77979" lon="5.49566">
        <ele>343.4</ele>
        <time>2022-06-19T06:05:23Z</time>
      </trkpt>
      <trkpt lat="45.77976" lon="5.49571">
        <ele>343.6</ele>
        <time>2022-06-19T06:05:24Z</time>
      </trkpt>
      <trkpt lat="45.77969" lon="5.4958">
        <ele>344</ele>
        <time>2022-06-19T06:05:26Z</time>
      </trkpt>
      <trkpt lat="45.77951" lon="5.49605">
        <ele>345</ele>
        <time>2022-06-19T06:05:32Z</time>
      </trkpt>
      <trkpt lat="45.77945" lon="5.49613">
        <ele>345.4</ele>
        <time>2022-06-19T06:05:34Z</time>
      </trkpt>
      <trkpt lat="45.77935" lon="5.49623">
        <ele>346.2</ele>
        <time>2022-06-19T06:05:37Z</time>
      </trkpt>
      <trkpt lat="45.77932" lon="5.49627">
        <ele>346</ele>
        <time>2022-06-19T06:05:38Z</time>
      </trkpt>
      <trkpt lat="45.77921" lon="5.49637">
        <ele>346.8</ele>
        <time>2022-06-19T06:05:41Z</time>
      </trkpt>
      <trkpt lat="45.77917" lon="5.4964">
        <ele>347</ele>
        <time>2022-06-19T06:05:42Z</time>
      </trkpt>
      <trkpt lat="45.77888" lon="5.49662">
        <ele>347.8</ele>
        <time>2022-06-19T06:05:49Z</time>
      </trkpt>
      <trkpt lat="45.77885" lon="5.49666">
        <ele>348</ele>
        <time>2022-06-19T06:05:50Z</time>
      </trkpt>
      <trkpt lat="45.77875" lon="5.49675">
        <ele>349</ele>
        <time>2022-06-19T06:05:53Z</time>
      </trkpt>
      <trkpt lat="45.7786" lon="5.49685">
        <ele>349.6</ele>
        <time>2022-06-19T06:05:57Z</time>
      </trkpt>
      <trkpt lat="45.7785" lon="5.49691">
        <ele>350</ele>
        <time>2022-06-19T06:05:59Z</time>
      </trkpt>
      <trkpt lat="45.77846" lon="5.49695">
        <ele>350.2</ele>
        <time>2022-06-19T06:06:00Z</time>
      </trkpt>
      <trkpt lat="45.77839" lon="5.49701">
        <ele>350.4</ele>
        <time>2022-06-19T06:06:02Z</time>
      </trkpt>
      <trkpt lat="45.77828" lon="5.49718">
        <ele>351.2</ele>
        <time>2022-06-19T06:06:05Z</time>
      </trkpt>
      <trkpt lat="45.77827" lon="5.49724">
        <ele>351.4</ele>
        <time>2022-06-19T06:06:06Z</time>
      </trkpt>
      <trkpt lat="45.77826" lon="5.49732">
        <ele>351.8</ele>
        <time>2022-06-19T06:06:07Z</time>
      </trkpt>
      <trkpt lat="45.77822" lon="5.49756">
        <ele>352.4</ele>
        <time>2022-06-19T06:06:10Z</time>
      </trkpt>
      <trkpt lat="45.77818" lon="5.49786">
        <ele>353.4</ele>
        <time>2022-06-19T06:06:14Z</time>
      </trkpt>
      <trkpt lat="45.77817" lon="5.49793">
        <ele>353.6</ele>
        <time>2022-06-19T06:06:15Z</time>
      </trkpt>
      <trkpt lat="45.7781" lon="5.49802">
        <ele>354.2</ele>
        <time>2022-06-19T06:06:17Z</time>
      </trkpt>
      <trkpt lat="45.77805" lon="5.49807">
        <ele>354.4</ele>
        <time>2022-06-19T06:06:18Z</time>
      </trkpt>
      <trkpt lat="45.77789" lon="5.49823">
        <ele>355.4</ele>
        <time>2022-06-19T06:06:23Z</time>
      </trkpt>
      <trkpt lat="45.77786" lon="5.49827">
        <ele>355.6</ele>
        <time>2022-06-19T06:06:24Z</time>
      </trkpt>
      <trkpt lat="45.77779" lon="5.49833">
        <ele>356.2</ele>
        <time>2022-06-19T06:06:26Z</time>
      </trkpt>
      <trkpt lat="45.77771" lon="5.49837">
        <ele>357</ele>
        <time>2022-06-19T06:06:28Z</time>
      </trkpt>
      <trkpt lat="45.77766" lon="5.49839">
        <ele>357.2</ele>
        <time>2022-06-19T06:06:29Z</time>
      </trkpt>
      <trkpt lat="45.7776" lon="5.4984">
        <ele>357.6</ele>
        <time>2022-06-19T06:06:30Z</time>
      </trkpt>
      <trkpt lat="45.77746" lon="5.4984">
        <ele>358</ele>
        <time>2022-06-19T06:06:33Z</time>
      </trkpt>
      <trkpt lat="45.77735" lon="5.49841">
        <ele>358.4</ele>
        <time>2022-06-19T06:06:35Z</time>
      </trkpt>
      <trkpt lat="45.77721" lon="5.49843">
        <ele>359.2</ele>
        <time>2022-06-19T06:06:38Z</time>
      </trkpt>
      <trkpt lat="45.77717" lon="5.49845">
        <ele>359.2</ele>
        <time>2022-06-19T06:06:39Z</time>
      </trkpt>
      <trkpt lat="45.77709" lon="5.49849">
        <ele>359.6</ele>
        <time>2022-06-19T06:06:41Z</time>
      </trkpt>
      <trkpt lat="45.777" lon="5.49855">
        <ele>360.4</ele>
        <time>2022-06-19T06:06:44Z</time>
      </trkpt>
      <trkpt lat="45.77693" lon="5.49862">
        <ele>360.6</ele>
        <time>2022-06-19T06:06:46Z</time>
      </trkpt>
      <trkpt lat="45.77683" lon="5.4987">
        <ele>361.2</ele>
        <time>2022-06-19T06:06:49Z</time>
      </trkpt>
      <trkpt lat="45.7768" lon="5.49873">
        <ele>361.6</ele>
        <time>2022-06-19T06:06:50Z</time>
      </trkpt>
      <trkpt lat="45.77673" lon="5.49878">
        <ele>362.4</ele>
        <time>2022-06-19T06:06:52Z</time>
      </trkpt>
      <trkpt lat="45.77666" lon="5.4988">
        <ele>362.6</ele>
        <time>2022-06-19T06:06:53Z</time>
      </trkpt>
      <trkpt lat="45.77663" lon="5.49882">
        <ele>362.8</ele>
        <time>2022-06-19T06:06:54Z</time>
      </trkpt>
      <trkpt lat="45.77647" lon="5.49894">
        <ele>363.6</ele>
        <time>2022-06-19T06:06:58Z</time>
      </trkpt>
      <trkpt lat="45.77643" lon="5.49897">
        <ele>363.8</ele>
        <time>2022-06-19T06:06:59Z</time>
      </trkpt>
      <trkpt lat="45.77624" lon="5.4991">
        <ele>364.6</ele>
        <time>2022-06-19T06:07:03Z</time>
      </trkpt>
      <trkpt lat="45.77615" lon="5.49915">
        <ele>365</ele>
        <time>2022-06-19T06:07:05Z</time>
      </trkpt>
      <trkpt lat="45.77609" lon="5.49918">
        <ele>365.2</ele>
        <time>2022-06-19T06:07:06Z</time>
      </trkpt>
      <trkpt lat="45.77596" lon="5.49926">
        <ele>366</ele>
        <time>2022-06-19T06:07:09Z</time>
      </trkpt>
      <trkpt lat="45.77593" lon="5.49929">
        <ele>366.4</ele>
        <time>2022-06-19T06:07:10Z</time>
      </trkpt>
      <trkpt lat="45.77584" lon="5.49936">
        <ele>366.6</ele>
        <time>2022-06-19T06:07:12Z</time>
      </trkpt>
      <trkpt lat="45.77572" lon="5.49946">
        <ele>367.6</ele>
        <time>2022-06-19T06:07:15Z</time>
      </trkpt>
      <trkpt lat="45.7756" lon="5.49953">
        <ele>368.2</ele>
        <time>2022-06-19T06:07:17Z</time>
      </trkpt>
      <trkpt lat="45.77553" lon="5.4996">
        <ele>368.6</ele>
        <time>2022-06-19T06:07:19Z</time>
      </trkpt>
      <trkpt lat="45.77548" lon="5.49963">
        <ele>368.6</ele>
        <time>2022-06-19T06:07:20Z</time>
      </trkpt>
      <trkpt lat="45.77543" lon="5.49965">
        <ele>368.8</ele>
        <time>2022-06-19T06:07:21Z</time>
      </trkpt>
      <trkpt lat="45.77532" lon="5.49969">
        <ele>369</ele>
        <time>2022-06-19T06:07:23Z</time>
      </trkpt>
      <trkpt lat="45.77516" lon="5.49977">
        <ele>370</ele>
        <time>2022-06-19T06:07:26Z</time>
      </trkpt>
      <trkpt lat="45.77511" lon="5.4998">
        <ele>370.2</ele>
        <time>2022-06-19T06:07:27Z</time>
      </trkpt>
      <trkpt lat="45.77487" lon="5.49997">
        <ele>371</ele>
        <time>2022-06-19T06:07:33Z</time>
      </trkpt>
      <trkpt lat="45.77485" lon="5.50001">
        <ele>371.6</ele>
        <time>2022-06-19T06:07:34Z</time>
      </trkpt>
      <trkpt lat="45.77482" lon="5.50006">
        <ele>371.8</ele>
        <time>2022-06-19T06:07:35Z</time>
      </trkpt>
      <trkpt lat="45.77479" lon="5.50011">
        <ele>372</ele>
        <time>2022-06-19T06:07:36Z</time>
      </trkpt>
      <trkpt lat="45.77471" lon="5.5002">
        <ele>372.2</ele>
        <time>2022-06-19T06:07:38Z</time>
      </trkpt>
      <trkpt lat="45.77467" lon="5.50024">
        <ele>372.2</ele>
        <time>2022-06-19T06:07:39Z</time>
      </trkpt>
      <trkpt lat="45.77464" lon="5.50027">
        <ele>372.6</ele>
        <time>2022-06-19T06:07:40Z</time>
      </trkpt>
      <trkpt lat="45.77453" lon="5.50045">
        <ele>373.6</ele>
        <time>2022-06-19T06:07:44Z</time>
      </trkpt>
      <trkpt lat="45.77447" lon="5.50057">
        <ele>374</ele>
        <time>2022-06-19T06:07:46Z</time>
      </trkpt>
      <trkpt lat="45.7744" lon="5.50073">
        <ele>374.6</ele>
        <time>2022-06-19T06:07:49Z</time>
      </trkpt>
      <trkpt lat="45.77432" lon="5.5009">
        <ele>375.6</ele>
        <time>2022-06-19T06:07:52Z</time>
      </trkpt>
      <trkpt lat="45.77429" lon="5.50097">
        <ele>375.6</ele>
        <time>2022-06-19T06:07:53Z</time>
      </trkpt>
      <trkpt lat="45.77421" lon="5.50115">
        <ele>376.2</ele>
        <time>2022-06-19T06:07:56Z</time>
      </trkpt>
      <trkpt lat="45.7742" lon="5.50121">
        <ele>376.4</ele>
        <time>2022-06-19T06:07:57Z</time>
      </trkpt>
      <trkpt lat="45.77417" lon="5.50136">
        <ele>377</ele>
        <time>2022-06-19T06:07:59Z</time>
      </trkpt>
      <trkpt lat="45.77413" lon="5.50149">
        <ele>377.2</ele>
        <time>2022-06-19T06:08:01Z</time>
      </trkpt>
      <trkpt lat="45.77407" lon="5.50162">
        <ele>377.6</ele>
        <time>2022-06-19T06:08:03Z</time>
      </trkpt>
      <trkpt lat="45.77404" lon="5.50168">
        <ele>378</ele>
        <time>2022-06-19T06:08:04Z</time>
      </trkpt>
      <trkpt lat="45.77386" lon="5.502">
        <ele>378.8</ele>
        <time>2022-06-19T06:08:10Z</time>
      </trkpt>
      <trkpt lat="45.7738" lon="5.5021">
        <ele>379.2</ele>
        <time>2022-06-19T06:08:12Z</time>
      </trkpt>
      <trkpt lat="45.77373" lon="5.50221">
        <ele>380</ele>
        <time>2022-06-19T06:08:14Z</time>
      </trkpt>
      <trkpt lat="45.77358" lon="5.50245">
        <ele>381</ele>
        <time>2022-06-19T06:08:19Z</time>
      </trkpt>
      <trkpt lat="45.77352" lon="5.50255">
        <ele>381.4</ele>
        <time>2022-06-19T06:08:21Z</time>
      </trkpt>
      <trkpt lat="45.77347" lon="5.50266">
        <ele>381.8</ele>
        <time>2022-06-19T06:08:23Z</time>
      </trkpt>
      <trkpt lat="45.77344" lon="5.5027">
        <ele>382</ele>
        <time>2022-06-19T06:08:24Z</time>
      </trkpt>
      <trkpt lat="45.77341" lon="5.50275">
        <ele>382.2</ele>
        <time>2022-06-19T06:08:25Z</time>
      </trkpt>
      <trkpt lat="45.77338" lon="5.5028">
        <ele>382.2</ele>
        <time>2022-06-19T06:08:26Z</time>
      </trkpt>
      <trkpt lat="45.77336" lon="5.50286">
        <ele>382.4</ele>
        <time>2022-06-19T06:08:27Z</time>
      </trkpt>
      <trkpt lat="45.77329" lon="5.50299">
        <ele>382.8</ele>
        <time>2022-06-19T06:08:29Z</time>
      </trkpt>
      <trkpt lat="45.77323" lon="5.50308">
        <ele>383</ele>
        <time>2022-06-19T06:08:31Z</time>
      </trkpt>
      <trkpt lat="45.77315" lon="5.5032">
        <ele>383.2</ele>
        <time>2022-06-19T06:08:33Z</time>
      </trkpt>
      <trkpt lat="45.77311" lon="5.50325">
        <ele>383.6</ele>
        <time>2022-06-19T06:08:34Z</time>
      </trkpt>
      <trkpt lat="45.77304" lon="5.50334">
        <ele>384.2</ele>
        <time>2022-06-19T06:08:36Z</time>
      </trkpt>
      <trkpt lat="45.77287" lon="5.50358">
        <ele>384.8</ele>
        <time>2022-06-19T06:08:41Z</time>
      </trkpt>
      <trkpt lat="45.77277" lon="5.50368">
        <ele>385</ele>
        <time>2022-06-19T06:08:43Z</time>
      </trkpt>
      <trkpt lat="45.77268" lon="5.50378">
        <ele>385.4</ele>
        <time>2022-06-19T06:08:45Z</time>
      </trkpt>
      <trkpt lat="45.77257" lon="5.50391">
        <ele>386</ele>
        <time>2022-06-19T06:08:48Z</time>
      </trkpt>
      <trkpt lat="45.77254" lon="5.50395">
        <ele>386</ele>
        <time>2022-06-19T06:08:49Z</time>
      </trkpt>
      <trkpt lat="45.77253" lon="5.50397">
        <ele>386.2</ele>
        <time>2022-06-19T06:08:50Z</time>
      </trkpt>
      <trkpt lat="45.77248" lon="5.50405">
        <ele>386.4</ele>
        <time>2022-06-19T06:08:52Z</time>
      </trkpt>
      <trkpt lat="45.77242" lon="5.50415">
        <ele>387</ele>
        <time>2022-06-19T06:08:54Z</time>
      </trkpt>
      <trkpt lat="45.77235" lon="5.50422">
        <ele>387.2</ele>
        <time>2022-06-19T06:08:55Z</time>
      </trkpt>
      <trkpt lat="45.77227" lon="5.50433">
        <ele>387.2</ele>
        <time>2022-06-19T06:08:56Z</time>
      </trkpt>
      <trkpt lat="45.77228" lon="5.50443">
        <ele>387.8</ele>
        <time>2022-06-19T06:08:58Z</time>
      </trkpt>
      <trkpt lat="45.77221" lon="5.50455">
        <ele>388.2</ele>
        <time>2022-06-19T06:09:00Z</time>
      </trkpt>
      <trkpt lat="45.77216" lon="5.50463">
        <ele>388.2</ele>
        <time>2022-06-19T06:09:01Z</time>
      </trkpt>
      <trkpt lat="45.7721" lon="5.50469">
        <ele>388.6</ele>
        <time>2022-06-19T06:09:02Z</time>
      </trkpt>
      <trkpt lat="45.77204" lon="5.5048">
        <ele>388.8</ele>
        <time>2022-06-19T06:09:04Z</time>
      </trkpt>
      <trkpt lat="45.77197" lon="5.505">
        <ele>389</ele>
        <time>2022-06-19T06:09:07Z</time>
      </trkpt>
      <trkpt lat="45.77195" lon="5.50506">
        <ele>389.2</ele>
        <time>2022-06-19T06:09:08Z</time>
      </trkpt>
      <trkpt lat="45.77191" lon="5.50517">
        <ele>389.2</ele>
        <time>2022-06-19T06:09:10Z</time>
      </trkpt>
      <trkpt lat="45.77179" lon="5.50544">
        <ele>389.6</ele>
        <time>2022-06-19T06:09:15Z</time>
      </trkpt>
      <trkpt lat="45.77175" lon="5.50555">
        <ele>390</ele>
        <time>2022-06-19T06:09:17Z</time>
      </trkpt>
      <trkpt lat="45.77172" lon="5.50561">
        <ele>390.2</ele>
        <time>2022-06-19T06:09:18Z</time>
      </trkpt>
      <trkpt lat="45.77169" lon="5.50566">
        <ele>390.4</ele>
        <time>2022-06-19T06:09:19Z</time>
      </trkpt>
      <trkpt lat="45.77153" lon="5.50596">
        <ele>390.8</ele>
        <time>2022-06-19T06:09:24Z</time>
      </trkpt>
      <trkpt lat="45.77147" lon="5.50608">
        <ele>391.4</ele>
        <time>2022-06-19T06:09:26Z</time>
      </trkpt>
      <trkpt lat="45.77144" lon="5.50614">
        <ele>391.4</ele>
        <time>2022-06-19T06:09:27Z</time>
      </trkpt>
      <trkpt lat="45.77142" lon="5.50621">
        <ele>391.4</ele>
        <time>2022-06-19T06:09:28Z</time>
      </trkpt>
      <trkpt lat="45.77135" lon="5.50641">
        <ele>391.8</ele>
        <time>2022-06-19T06:09:31Z</time>
      </trkpt>
      <trkpt lat="45.77133" lon="5.50646">
        <ele>392.2</ele>
        <time>2022-06-19T06:09:32Z</time>
      </trkpt>
      <trkpt lat="45.77131" lon="5.50654">
        <ele>392.2</ele>
        <time>2022-06-19T06:09:33Z</time>
      </trkpt>
      <trkpt lat="45.77119" lon="5.50696">
        <ele>393.2</ele>
        <time>2022-06-19T06:09:39Z</time>
      </trkpt>
      <trkpt lat="45.77117" lon="5.50702">
        <ele>393.4</ele>
        <time>2022-06-19T06:09:40Z</time>
      </trkpt>
      <trkpt lat="45.77111" lon="5.50719">
        <ele>393.8</ele>
        <time>2022-06-19T06:09:43Z</time>
      </trkpt>
      <trkpt lat="45.7711" lon="5.50724">
        <ele>394.2</ele>
        <time>2022-06-19T06:09:44Z</time>
      </trkpt>
      <trkpt lat="45.77106" lon="5.50731">
        <ele>394.2</ele>
        <time>2022-06-19T06:09:45Z</time>
      </trkpt>
      <trkpt lat="45.77103" lon="5.50736">
        <ele>394.8</ele>
        <time>2022-06-19T06:09:46Z</time>
      </trkpt>
      <trkpt lat="45.77093" lon="5.50752">
        <ele>395.4</ele>
        <time>2022-06-19T06:09:49Z</time>
      </trkpt>
      <trkpt lat="45.77086" lon="5.50762">
        <ele>395.6</ele>
        <time>2022-06-19T06:09:51Z</time>
      </trkpt>
      <trkpt lat="45.77075" lon="5.50773">
        <ele>395.8</ele>
        <time>2022-06-19T06:09:54Z</time>
      </trkpt>
      <trkpt lat="45.77067" lon="5.50781">
        <ele>396</ele>
        <time>2022-06-19T06:09:56Z</time>
      </trkpt>
      <trkpt lat="45.77056" lon="5.50791">
        <ele>396.2</ele>
        <time>2022-06-19T06:09:59Z</time>
      </trkpt>
      <trkpt lat="45.77053" lon="5.50795">
        <ele>396.4</ele>
        <time>2022-06-19T06:10:00Z</time>
      </trkpt>
      <trkpt lat="45.77044" lon="5.50808">
        <ele>397</ele>
        <time>2022-06-19T06:10:03Z</time>
      </trkpt>
      <trkpt lat="45.77038" lon="5.50822">
        <ele>397.4</ele>
        <time>2022-06-19T06:10:05Z</time>
      </trkpt>
      <trkpt lat="45.77027" lon="5.5085">
        <ele>397.8</ele>
        <time>2022-06-19T06:10:09Z</time>
      </trkpt>
      <trkpt lat="45.77023" lon="5.50873">
        <ele>398.4</ele>
        <time>2022-06-19T06:10:12Z</time>
      </trkpt>
      <trkpt lat="45.77022" lon="5.50881">
        <ele>398.6</ele>
        <time>2022-06-19T06:10:13Z</time>
      </trkpt>
      <trkpt lat="45.77021" lon="5.50896">
        <ele>399.2</ele>
        <time>2022-06-19T06:10:15Z</time>
      </trkpt>
      <trkpt lat="45.77021" lon="5.50904">
        <ele>399.4</ele>
        <time>2022-06-19T06:10:16Z</time>
      </trkpt>
      <trkpt lat="45.77022" lon="5.50911">
        <ele>399.6</ele>
        <time>2022-06-19T06:10:17Z</time>
      </trkpt>
      <trkpt lat="45.77021" lon="5.50926">
        <ele>399.8</ele>
        <time>2022-06-19T06:10:19Z</time>
      </trkpt>
      <trkpt lat="45.77018" lon="5.5094">
        <ele>400.2</ele>
        <time>2022-06-19T06:10:21Z</time>
      </trkpt>
      <trkpt lat="45.77012" lon="5.50954">
        <ele>401.2</ele>
        <time>2022-06-19T06:10:23Z</time>
      </trkpt>
      <trkpt lat="45.77004" lon="5.5099">
        <ele>402.4</ele>
        <time>2022-06-19T06:10:28Z</time>
      </trkpt>
      <trkpt lat="45.76998" lon="5.51009">
        <ele>402.8</ele>
        <time>2022-06-19T06:10:31Z</time>
      </trkpt>
      <trkpt lat="45.76991" lon="5.51036">
        <ele>403.4</ele>
        <time>2022-06-19T06:10:35Z</time>
      </trkpt>
      <trkpt lat="45.76981" lon="5.51069">
        <ele>404.2</ele>
        <time>2022-06-19T06:10:40Z</time>
      </trkpt>
      <trkpt lat="45.76979" lon="5.51075">
        <ele>404.2</ele>
        <time>2022-06-19T06:10:41Z</time>
      </trkpt>
      <trkpt lat="45.76964" lon="5.51113">
        <ele>405.4</ele>
        <time>2022-06-19T06:10:47Z</time>
      </trkpt>
      <trkpt lat="45.76959" lon="5.51125">
        <ele>405.6</ele>
        <time>2022-06-19T06:10:49Z</time>
      </trkpt>
      <trkpt lat="45.76956" lon="5.51132">
        <ele>405.6</ele>
        <time>2022-06-19T06:10:50Z</time>
      </trkpt>
      <trkpt lat="45.76945" lon="5.51156">
        <ele>406.4</ele>
        <time>2022-06-19T06:10:54Z</time>
      </trkpt>
      <trkpt lat="45.76942" lon="5.51162">
        <ele>406.6</ele>
        <time>2022-06-19T06:10:55Z</time>
      </trkpt>
      <trkpt lat="45.76911" lon="5.51209">
        <ele>407.6</ele>
        <time>2022-06-19T06:11:04Z</time>
      </trkpt>
      <trkpt lat="45.76907" lon="5.51213">
        <ele>407.6</ele>
        <time>2022-06-19T06:11:05Z</time>
      </trkpt>
      <trkpt lat="45.76892" lon="5.51232">
        <ele>408.6</ele>
        <time>2022-06-19T06:11:09Z</time>
      </trkpt>
      <trkpt lat="45.7688" lon="5.51246">
        <ele>409</ele>
        <time>2022-06-19T06:11:12Z</time>
      </trkpt>
      <trkpt lat="45.76876" lon="5.51251">
        <ele>409.2</ele>
        <time>2022-06-19T06:11:13Z</time>
      </trkpt>
      <trkpt lat="45.76862" lon="5.5127">
        <ele>409.8</ele>
        <time>2022-06-19T06:11:17Z</time>
      </trkpt>
      <trkpt lat="45.76843" lon="5.51295">
        <ele>410.8</ele>
        <time>2022-06-19T06:11:22Z</time>
      </trkpt>
      <trkpt lat="45.76839" lon="5.513">
        <ele>411</ele>
        <time>2022-06-19T06:11:23Z</time>
      </trkpt>
      <trkpt lat="45.76816" lon="5.5133">
        <ele>411.8</ele>
        <time>2022-06-19T06:11:29Z</time>
      </trkpt>
      <trkpt lat="45.76812" lon="5.51335">
        <ele>411.8</ele>
        <time>2022-06-19T06:11:30Z</time>
      </trkpt>
      <trkpt lat="45.76793" lon="5.51361">
        <ele>412.6</ele>
        <time>2022-06-19T06:11:35Z</time>
      </trkpt>
      <trkpt lat="45.76782" lon="5.51376">
        <ele>412.8</ele>
        <time>2022-06-19T06:11:38Z</time>
      </trkpt>
      <trkpt lat="45.76775" lon="5.51385">
        <ele>412.8</ele>
        <time>2022-06-19T06:11:40Z</time>
      </trkpt>
      <trkpt lat="45.76747" lon="5.51421">
        <ele>413.8</ele>
        <time>2022-06-19T06:11:47Z</time>
      </trkpt>
      <trkpt lat="45.76743" lon="5.51427">
        <ele>413.8</ele>
        <time>2022-06-19T06:11:48Z</time>
      </trkpt>
      <trkpt lat="45.76707" lon="5.51473">
        <ele>414.6</ele>
        <time>2022-06-19T06:11:57Z</time>
      </trkpt>
      <trkpt lat="45.76687" lon="5.51499">
        <ele>415</ele>
        <time>2022-06-19T06:12:02Z</time>
      </trkpt>
      <trkpt lat="45.76674" lon="5.51514">
        <ele>415.2</ele>
        <time>2022-06-19T06:12:05Z</time>
      </trkpt>
      <trkpt lat="45.76648" lon="5.51544">
        <ele>416</ele>
        <time>2022-06-19T06:12:11Z</time>
      </trkpt>
      <trkpt lat="45.76636" lon="5.51558">
        <ele>416.2</ele>
        <time>2022-06-19T06:12:14Z</time>
      </trkpt>
      <trkpt lat="45.76597" lon="5.51601">
        <ele>416.6</ele>
        <time>2022-06-19T06:12:23Z</time>
      </trkpt>
      <trkpt lat="45.76573" lon="5.51626">
        <ele>417</ele>
        <time>2022-06-19T06:12:28Z</time>
      </trkpt>
      <trkpt lat="45.7655" lon="5.51652">
        <ele>417.4</ele>
        <time>2022-06-19T06:12:33Z</time>
      </trkpt>
      <trkpt lat="45.76509" lon="5.51704">
        <ele>417.8</ele>
        <time>2022-06-19T06:12:43Z</time>
      </trkpt>
      <trkpt lat="45.76501" lon="5.51715">
        <ele>418</ele>
        <time>2022-06-19T06:12:45Z</time>
      </trkpt>
      <trkpt lat="45.76457" lon="5.51768">
        <ele>418.4</ele>
        <time>2022-06-19T06:12:55Z</time>
      </trkpt>
      <trkpt lat="45.76412" lon="5.51806">
        <ele>418.6</ele>
        <time>2022-06-19T06:13:04Z</time>
      </trkpt>
      <trkpt lat="45.76363" lon="5.51841">
        <ele>418.8</ele>
        <time>2022-06-19T06:13:13Z</time>
      </trkpt>
      <trkpt lat="45.76346" lon="5.51853">
        <ele>418.8</ele>
        <time>2022-06-19T06:13:16Z</time>
      </trkpt>
      <trkpt lat="45.7632" lon="5.51876">
        <ele>418.8</ele>
        <time>2022-06-19T06:13:21Z</time>
      </trkpt>
      <trkpt lat="45.76295" lon="5.519">
        <ele>419</ele>
        <time>2022-06-19T06:13:26Z</time>
      </trkpt>
      <trkpt lat="45.76252" lon="5.51947">
        <ele>419</ele>
        <time>2022-06-19T06:13:35Z</time>
      </trkpt>
      <trkpt lat="45.76246" lon="5.51953">
        <ele>419</ele>
        <time>2022-06-19T06:13:36Z</time>
      </trkpt>
      <trkpt lat="45.76202" lon="5.52">
        <ele>419.2</ele>
        <time>2022-06-19T06:13:45Z</time>
      </trkpt>
      <trkpt lat="45.76192" lon="5.52011">
        <ele>419.2</ele>
        <time>2022-06-19T06:13:47Z</time>
      </trkpt>
      <trkpt lat="45.76162" lon="5.52049">
        <ele>419.8</ele>
        <time>2022-06-19T06:13:54Z</time>
      </trkpt>
      <trkpt lat="45.76154" lon="5.5206">
        <ele>420</ele>
        <time>2022-06-19T06:13:56Z</time>
      </trkpt>
      <trkpt lat="45.76141" lon="5.52078">
        <ele>420.2</ele>
        <time>2022-06-19T06:13:59Z</time>
      </trkpt>
      <trkpt lat="45.76124" lon="5.52101">
        <ele>420.4</ele>
        <time>2022-06-19T06:14:03Z</time>
      </trkpt>
      <trkpt lat="45.76103" lon="5.52132">
        <ele>420.6</ele>
        <time>2022-06-19T06:14:08Z</time>
      </trkpt>
      <trkpt lat="45.7609" lon="5.5215">
        <ele>421</ele>
        <time>2022-06-19T06:14:11Z</time>
      </trkpt>
      <trkpt lat="45.76059" lon="5.5219">
        <ele>421.8</ele>
        <time>2022-06-19T06:14:18Z</time>
      </trkpt>
      <trkpt lat="45.76055" lon="5.52194">
        <ele>422.2</ele>
        <time>2022-06-19T06:14:19Z</time>
      </trkpt>
      <trkpt lat="45.76025" lon="5.52222">
        <ele>423</ele>
        <time>2022-06-19T06:14:25Z</time>
      </trkpt>
      <trkpt lat="45.76011" lon="5.52234">
        <ele>423</ele>
        <time>2022-06-19T06:14:28Z</time>
      </trkpt>
      <trkpt lat="45.75966" lon="5.52274">
        <ele>424</ele>
        <time>2022-06-19T06:14:37Z</time>
      </trkpt>
      <trkpt lat="45.75953" lon="5.52287">
        <ele>424.2</ele>
        <time>2022-06-19T06:14:40Z</time>
      </trkpt>
      <trkpt lat="45.75924" lon="5.52328">
        <ele>424</ele>
        <time>2022-06-19T06:14:46Z</time>
      </trkpt>
      <trkpt lat="45.75891" lon="5.52382">
        <ele>423.2</ele>
        <time>2022-06-19T06:14:53Z</time>
      </trkpt>
      <trkpt lat="45.75881" lon="5.52398">
        <ele>423</ele>
        <time>2022-06-19T06:14:55Z</time>
      </trkpt>
      <trkpt lat="45.75844" lon="5.5246">
        <ele>422</ele>
        <time>2022-06-19T06:15:03Z</time>
      </trkpt>
      <trkpt lat="45.7584" lon="5.52467">
        <ele>421.8</ele>
        <time>2022-06-19T06:15:04Z</time>
      </trkpt>
      <trkpt lat="45.75835" lon="5.52475">
        <ele>421.8</ele>
        <time>2022-06-19T06:15:05Z</time>
      </trkpt>
      <trkpt lat="45.75797" lon="5.52527">
        <ele>421.2</ele>
        <time>2022-06-19T06:15:13Z</time>
      </trkpt>
      <trkpt lat="45.75759" lon="5.52561">
        <ele>421.2</ele>
        <time>2022-06-19T06:15:20Z</time>
      </trkpt>
      <trkpt lat="45.75719" lon="5.52597">
        <ele>422</ele>
        <time>2022-06-19T06:15:28Z</time>
      </trkpt>
      <trkpt lat="45.75698" lon="5.52612">
        <ele>422.6</ele>
        <time>2022-06-19T06:15:32Z</time>
      </trkpt>
      <trkpt lat="45.7568" lon="5.52623">
        <ele>423</ele>
        <time>2022-06-19T06:15:35Z</time>
      </trkpt>
      <trkpt lat="45.75674" lon="5.52626">
        <ele>423</ele>
        <time>2022-06-19T06:15:36Z</time>
      </trkpt>
      <trkpt lat="45.75625" lon="5.52656">
        <ele>423</ele>
        <time>2022-06-19T06:15:45Z</time>
      </trkpt>
      <trkpt lat="45.75614" lon="5.52663">
        <ele>423.2</ele>
        <time>2022-06-19T06:15:47Z</time>
      </trkpt>
      <trkpt lat="45.75585" lon="5.52692">
        <ele>423.4</ele>
        <time>2022-06-19T06:15:53Z</time>
      </trkpt>
      <trkpt lat="45.75576" lon="5.52712">
        <ele>423.6</ele>
        <time>2022-06-19T06:15:56Z</time>
      </trkpt>
      <trkpt lat="45.75575" lon="5.5272">
        <ele>423.6</ele>
        <time>2022-06-19T06:15:57Z</time>
      </trkpt>
      <trkpt lat="45.75577" lon="5.52726">
        <ele>423.6</ele>
        <time>2022-06-19T06:15:58Z</time>
      </trkpt>
      <trkpt lat="45.7558" lon="5.52729">
        <ele>423.6</ele>
        <time>2022-06-19T06:15:59Z</time>
      </trkpt>
      <trkpt lat="45.7559" lon="5.52729">
        <ele>423.8</ele>
        <time>2022-06-19T06:16:01Z</time>
      </trkpt>
      <trkpt lat="45.75598" lon="5.52733">
        <ele>424</ele>
        <time>2022-06-19T06:16:03Z</time>
      </trkpt>
      <trkpt lat="45.7561" lon="5.52745">
        <ele>424.4</ele>
        <time>2022-06-19T06:16:06Z</time>
      </trkpt>
      <trkpt lat="45.75623" lon="5.52758">
        <ele>425</ele>
        <time>2022-06-19T06:16:09Z</time>
      </trkpt>
      <trkpt lat="45.75645" lon="5.52776">
        <ele>425.6</ele>
        <time>2022-06-19T06:16:14Z</time>
      </trkpt>
      <trkpt lat="45.7565" lon="5.52778">
        <ele>425.8</ele>
        <time>2022-06-19T06:16:15Z</time>
      </trkpt>
      <trkpt lat="45.75655" lon="5.52779">
        <ele>425.8</ele>
        <time>2022-06-19T06:16:16Z</time>
      </trkpt>
      <trkpt lat="45.75665" lon="5.52778">
        <ele>426</ele>
        <time>2022-06-19T06:16:18Z</time>
      </trkpt>
      <trkpt lat="45.75671" lon="5.52776">
        <ele>426.2</ele>
        <time>2022-06-19T06:16:19Z</time>
      </trkpt>
      <trkpt lat="45.75676" lon="5.52775">
        <ele>426.4</ele>
        <time>2022-06-19T06:16:20Z</time>
      </trkpt>
      <trkpt lat="45.75697" lon="5.52769">
        <ele>427</ele>
        <time>2022-06-19T06:16:24Z</time>
      </trkpt>
      <trkpt lat="45.75697" lon="5.52769">
        <ele>427.2</ele>
        <time>2022-06-19T06:16:25Z</time>
      </trkpt>
      <trkpt lat="45.75742" lon="5.52754">
        <ele>428.2</ele>
        <time>2022-06-19T06:16:33Z</time>
      </trkpt>
      <trkpt lat="45.75747" lon="5.52753">
        <ele>428.2</ele>
        <time>2022-06-19T06:16:34Z</time>
      </trkpt>
      <trkpt lat="45.75755" lon="5.52749">
        <ele>428.2</ele>
        <time>2022-06-19T06:16:36Z</time>
      </trkpt>
      <trkpt lat="45.75763" lon="5.52744">
        <ele>428.4</ele>
        <time>2022-06-19T06:16:38Z</time>
      </trkpt>
      <trkpt lat="45.7577" lon="5.5274">
        <ele>428.6</ele>
        <time>2022-06-19T06:16:40Z</time>
      </trkpt>
      <trkpt lat="45.7578" lon="5.52733">
        <ele>429.6</ele>
        <time>2022-06-19T06:16:43Z</time>
      </trkpt>
      <trkpt lat="45.75787" lon="5.52729">
        <ele>430.2</ele>
        <time>2022-06-19T06:16:45Z</time>
      </trkpt>
      <trkpt lat="45.75794" lon="5.52724">
        <ele>430.8</ele>
        <time>2022-06-19T06:16:47Z</time>
      </trkpt>
      <trkpt lat="45.75806" lon="5.52716">
        <ele>431.8</ele>
        <time>2022-06-19T06:16:50Z</time>
      </trkpt>
      <trkpt lat="45.75818" lon="5.52709">
        <ele>432.8</ele>
        <time>2022-06-19T06:16:54Z</time>
      </trkpt>
      <trkpt lat="45.75825" lon="5.52704">
        <ele>433.4</ele>
        <time>2022-06-19T06:16:56Z</time>
      </trkpt>
      <trkpt lat="45.75829" lon="5.52703">
        <ele>433.8</ele>
        <time>2022-06-19T06:16:57Z</time>
      </trkpt>
      <trkpt lat="45.75845" lon="5.52698">
        <ele>435</ele>
        <time>2022-06-19T06:17:02Z</time>
      </trkpt>
      <trkpt lat="45.75851" lon="5.52698">
        <ele>436</ele>
        <time>2022-06-19T06:17:04Z</time>
      </trkpt>
      <trkpt lat="45.75854" lon="5.52698">
        <ele>436.2</ele>
        <time>2022-06-19T06:17:05Z</time>
      </trkpt>
      <trkpt lat="45.75862" lon="5.52698">
        <ele>437.4</ele>
        <time>2022-06-19T06:17:08Z</time>
      </trkpt>
      <trkpt lat="45.75872" lon="5.52697">
        <ele>438.2</ele>
        <time>2022-06-19T06:17:11Z</time>
      </trkpt>
      <trkpt lat="45.75881" lon="5.52697">
        <ele>439.4</ele>
        <time>2022-06-19T06:17:14Z</time>
      </trkpt>
      <trkpt lat="45.7589" lon="5.52696">
        <ele>440.8</ele>
        <time>2022-06-19T06:17:17Z</time>
      </trkpt>
      <trkpt lat="45.75897" lon="5.52695">
        <ele>442.2</ele>
        <time>2022-06-19T06:17:20Z</time>
      </trkpt>
      <trkpt lat="45.7591" lon="5.52692">
        <ele>443.4</ele>
        <time>2022-06-19T06:17:24Z</time>
      </trkpt>
      <trkpt lat="45.75913" lon="5.52691">
        <ele>443.8</ele>
        <time>2022-06-19T06:17:25Z</time>
      </trkpt>
      <trkpt lat="45.75921" lon="5.52687">
        <ele>444.6</ele>
        <time>2022-06-19T06:17:28Z</time>
      </trkpt>
      <trkpt lat="45.75926" lon="5.52685">
        <ele>445.2</ele>
        <time>2022-06-19T06:17:30Z</time>
      </trkpt>
      <trkpt lat="45.75929" lon="5.52683">
        <ele>445.6</ele>
        <time>2022-06-19T06:17:31Z</time>
      </trkpt>
      <trkpt lat="45.75945" lon="5.52673">
        <ele>446.8</ele>
        <time>2022-06-19T06:17:36Z</time>
      </trkpt>
      <trkpt lat="45.75951" lon="5.52669">
        <ele>447</ele>
        <time>2022-06-19T06:17:38Z</time>
      </trkpt>
      <trkpt lat="45.75966" lon="5.52656">
        <ele>447.8</ele>
        <time>2022-06-19T06:17:43Z</time>
      </trkpt>
      <trkpt lat="45.7598" lon="5.52642">
        <ele>448.6</ele>
        <time>2022-06-19T06:17:47Z</time>
      </trkpt>
      <trkpt lat="45.75984" lon="5.52638">
        <ele>448.8</ele>
        <time>2022-06-19T06:17:48Z</time>
      </trkpt>
      <trkpt lat="45.75992" lon="5.52633">
        <ele>448.8</ele>
        <time>2022-06-19T06:17:50Z</time>
      </trkpt>
      <trkpt lat="45.75997" lon="5.52632">
        <ele>448.8</ele>
        <time>2022-06-19T06:17:51Z</time>
      </trkpt>
      <trkpt lat="45.76001" lon="5.52632">
        <ele>448.8</ele>
        <time>2022-06-19T06:17:52Z</time>
      </trkpt>
      <trkpt lat="45.76011" lon="5.52636">
        <ele>449.2</ele>
        <time>2022-06-19T06:17:55Z</time>
      </trkpt>
      <trkpt lat="45.76024" lon="5.52651">
        <ele>450</ele>
        <time>2022-06-19T06:18:00Z</time>
      </trkpt>
      <trkpt lat="45.76026" lon="5.52654">
        <ele>450.2</ele>
        <time>2022-06-19T06:18:01Z</time>
      </trkpt>
      <trkpt lat="45.76033" lon="5.5266">
        <ele>451.2</ele>
        <time>2022-06-19T06:18:04Z</time>
      </trkpt>
      <trkpt lat="45.76041" lon="5.52666">
        <ele>452.2</ele>
        <time>2022-06-19T06:18:07Z</time>
      </trkpt>
      <trkpt lat="45.76044" lon="5.52667">
        <ele>452.4</ele>
        <time>2022-06-19T06:18:08Z</time>
      </trkpt>
      <trkpt lat="45.76046" lon="5.52668">
        <ele>453.4</ele>
        <time>2022-06-19T06:18:09Z</time>
      </trkpt>
      <trkpt lat="45.7606" lon="5.52668">
        <ele>454.8</ele>
        <time>2022-06-19T06:18:14Z</time>
      </trkpt>
      <trkpt lat="45.76063" lon="5.52668">
        <ele>455.2</ele>
        <time>2022-06-19T06:18:15Z</time>
      </trkpt>
      <trkpt lat="45.76069" lon="5.52667">
        <ele>456</ele>
        <time>2022-06-19T06:18:17Z</time>
      </trkpt>
      <trkpt lat="45.76078" lon="5.52665">
        <ele>457.4</ele>
        <time>2022-06-19T06:18:20Z</time>
      </trkpt>
      <trkpt lat="45.76087" lon="5.52662">
        <ele>458.6</ele>
        <time>2022-06-19T06:18:23Z</time>
      </trkpt>
      <trkpt lat="45.7609" lon="5.52661">
        <ele>459</ele>
        <time>2022-06-19T06:18:24Z</time>
      </trkpt>
      <trkpt lat="45.761" lon="5.52659">
        <ele>460.2</ele>
        <time>2022-06-19T06:18:27Z</time>
      </trkpt>
      <trkpt lat="45.76109" lon="5.52659">
        <ele>461.4</ele>
        <time>2022-06-19T06:18:30Z</time>
      </trkpt>
      <trkpt lat="45.76112" lon="5.5266">
        <ele>461.4</ele>
        <time>2022-06-19T06:18:31Z</time>
      </trkpt>
      <trkpt lat="45.76121" lon="5.52666">
        <ele>462.6</ele>
        <time>2022-06-19T06:18:34Z</time>
      </trkpt>
      <trkpt lat="45.76123" lon="5.5267">
        <ele>463</ele>
        <time>2022-06-19T06:18:35Z</time>
      </trkpt>
      <trkpt lat="45.76125" lon="5.52674">
        <ele>463.8</ele>
        <time>2022-06-19T06:18:37Z</time>
      </trkpt>
      <trkpt lat="45.76135" lon="5.52692">
        <ele>464.8</ele>
        <time>2022-06-19T06:18:41Z</time>
      </trkpt>
      <trkpt lat="45.7614" lon="5.52704">
        <ele>465.4</ele>
        <time>2022-06-19T06:18:44Z</time>
      </trkpt>
      <trkpt lat="45.76144" lon="5.52711">
        <ele>466.2</ele>
        <time>2022-06-19T06:18:46Z</time>
      </trkpt>
      <trkpt lat="45.76146" lon="5.52722">
        <ele>467.6</ele>
        <time>2022-06-19T06:18:49Z</time>
      </trkpt>
      <trkpt lat="45.76148" lon="5.52725">
        <ele>468</ele>
        <time>2022-06-19T06:18:50Z</time>
      </trkpt>
      <trkpt lat="45.76151" lon="5.52731">
        <ele>468.8</ele>
        <time>2022-06-19T06:18:52Z</time>
      </trkpt>
      <trkpt lat="45.76153" lon="5.52734">
        <ele>469.2</ele>
        <time>2022-06-19T06:18:53Z</time>
      </trkpt>
      <trkpt lat="45.76156" lon="5.52738">
        <ele>469.2</ele>
        <time>2022-06-19T06:18:54Z</time>
      </trkpt>
      <trkpt lat="45.76159" lon="5.52744">
        <ele>470.2</ele>
        <time>2022-06-19T06:18:56Z</time>
      </trkpt>
      <trkpt lat="45.76166" lon="5.52756">
        <ele>471.2</ele>
        <time>2022-06-19T06:18:59Z</time>
      </trkpt>
      <trkpt lat="45.76168" lon="5.5276">
        <ele>471.4</ele>
        <time>2022-06-19T06:19:00Z</time>
      </trkpt>
      <trkpt lat="45.76175" lon="5.52777">
        <ele>472.6</ele>
        <time>2022-06-19T06:19:05Z</time>
      </trkpt>
      <trkpt lat="45.76176" lon="5.52783">
        <ele>473</ele>
        <time>2022-06-19T06:19:08Z</time>
      </trkpt>
      <trkpt lat="45.76176" lon="5.52786">
        <ele>473.4</ele>
        <time>2022-06-19T06:19:09Z</time>
      </trkpt>
      <trkpt lat="45.76175" lon="5.5279">
        <ele>473.6</ele>
        <time>2022-06-19T06:19:10Z</time>
      </trkpt>
      <trkpt lat="45.76175" lon="5.52796">
        <ele>473.8</ele>
        <time>2022-06-19T06:19:11Z</time>
      </trkpt>
      <trkpt lat="45.76176" lon="5.528">
        <ele>474.2</ele>
        <time>2022-06-19T06:19:12Z</time>
      </trkpt>
      <trkpt lat="45.76179" lon="5.52809">
        <ele>474.6</ele>
        <time>2022-06-19T06:19:14Z</time>
      </trkpt>
      <trkpt lat="45.76182" lon="5.52819">
        <ele>475</ele>
        <time>2022-06-19T06:19:16Z</time>
      </trkpt>
      <trkpt lat="45.76183" lon="5.52839">
        <ele>475.6</ele>
        <time>2022-06-19T06:19:20Z</time>
      </trkpt>
      <trkpt lat="45.76181" lon="5.5286">
        <ele>476.2</ele>
        <time>2022-06-19T06:19:24Z</time>
      </trkpt>
      <trkpt lat="45.76181" lon="5.52865">
        <ele>476.2</ele>
        <time>2022-06-19T06:19:25Z</time>
      </trkpt>
      <trkpt lat="45.76183" lon="5.52886">
        <ele>477</ele>
        <time>2022-06-19T06:19:29Z</time>
      </trkpt>
      <trkpt lat="45.76188" lon="5.52901">
        <ele>477.4</ele>
        <time>2022-06-19T06:19:32Z</time>
      </trkpt>
      <trkpt lat="45.76194" lon="5.52916">
        <ele>478</ele>
        <time>2022-06-19T06:19:35Z</time>
      </trkpt>
      <trkpt lat="45.76202" lon="5.52934">
        <ele>478.6</ele>
        <time>2022-06-19T06:19:39Z</time>
      </trkpt>
      <trkpt lat="45.76207" lon="5.52942">
        <ele>479.2</ele>
        <time>2022-06-19T06:19:41Z</time>
      </trkpt>
      <trkpt lat="45.76215" lon="5.52954">
        <ele>480.4</ele>
        <time>2022-06-19T06:19:44Z</time>
      </trkpt>
      <trkpt lat="45.76225" lon="5.5297">
        <ele>481.4</ele>
        <time>2022-06-19T06:19:48Z</time>
      </trkpt>
      <trkpt lat="45.76239" lon="5.52995">
        <ele>482.4</ele>
        <time>2022-06-19T06:19:54Z</time>
      </trkpt>
      <trkpt lat="45.76244" lon="5.53003">
        <ele>483</ele>
        <time>2022-06-19T06:19:56Z</time>
      </trkpt>
      <trkpt lat="45.7625" lon="5.53011">
        <ele>483.4</ele>
        <time>2022-06-19T06:19:58Z</time>
      </trkpt>
      <trkpt lat="45.76261" lon="5.53025">
        <ele>484.6</ele>
        <time>2022-06-19T06:20:02Z</time>
      </trkpt>
      <trkpt lat="45.76266" lon="5.53032">
        <ele>485</ele>
        <time>2022-06-19T06:20:04Z</time>
      </trkpt>
      <trkpt lat="45.76276" lon="5.53039">
        <ele>485.6</ele>
        <time>2022-06-19T06:20:07Z</time>
      </trkpt>
      <trkpt lat="45.7629" lon="5.53049">
        <ele>486.6</ele>
        <time>2022-06-19T06:20:11Z</time>
      </trkpt>
      <trkpt lat="45.76293" lon="5.53052">
        <ele>486.8</ele>
        <time>2022-06-19T06:20:12Z</time>
      </trkpt>
      <trkpt lat="45.76311" lon="5.5306">
        <ele>488</ele>
        <time>2022-06-19T06:20:17Z</time>
      </trkpt>
      <trkpt lat="45.76322" lon="5.53064">
        <ele>488.6</ele>
        <time>2022-06-19T06:20:20Z</time>
      </trkpt>
      <trkpt lat="45.76326" lon="5.53065">
        <ele>489</ele>
        <time>2022-06-19T06:20:21Z</time>
      </trkpt>
      <trkpt lat="45.76347" lon="5.53071">
        <ele>490.2</ele>
        <time>2022-06-19T06:20:27Z</time>
      </trkpt>
      <trkpt lat="45.76373" lon="5.53078">
        <ele>491.4</ele>
        <time>2022-06-19T06:20:34Z</time>
      </trkpt>
      <trkpt lat="45.76377" lon="5.53079">
        <ele>491.6</ele>
        <time>2022-06-19T06:20:35Z</time>
      </trkpt>
      <trkpt lat="45.76388" lon="5.53082">
        <ele>492.8</ele>
        <time>2022-06-19T06:20:38Z</time>
      </trkpt>
      <trkpt lat="45.76398" lon="5.53085">
        <ele>493.8</ele>
        <time>2022-06-19T06:20:42Z</time>
      </trkpt>
      <trkpt lat="45.76418" lon="5.53095">
        <ele>494.4</ele>
        <time>2022-06-19T06:20:47Z</time>
      </trkpt>
      <trkpt lat="45.76421" lon="5.53098">
        <ele>495</ele>
        <time>2022-06-19T06:20:48Z</time>
      </trkpt>
      <trkpt lat="45.76441" lon="5.53117">
        <ele>496.4</ele>
        <time>2022-06-19T06:20:54Z</time>
      </trkpt>
      <trkpt lat="45.76447" lon="5.53124">
        <ele>496.8</ele>
        <time>2022-06-19T06:20:56Z</time>
      </trkpt>
      <trkpt lat="45.76456" lon="5.53135">
        <ele>497.4</ele>
        <time>2022-06-19T06:20:59Z</time>
      </trkpt>
      <trkpt lat="45.76471" lon="5.53149">
        <ele>498.6</ele>
        <time>2022-06-19T06:21:04Z</time>
      </trkpt>
      <trkpt lat="45.76473" lon="5.53152">
        <ele>498.8</ele>
        <time>2022-06-19T06:21:05Z</time>
      </trkpt>
      <trkpt lat="45.76485" lon="5.53166">
        <ele>499.8</ele>
        <time>2022-06-19T06:21:09Z</time>
      </trkpt>
      <trkpt lat="45.765" lon="5.53184">
        <ele>500.8</ele>
        <time>2022-06-19T06:21:14Z</time>
      </trkpt>
      <trkpt lat="45.76503" lon="5.53187">
        <ele>501.2</ele>
        <time>2022-06-19T06:21:15Z</time>
      </trkpt>
      <trkpt lat="45.76518" lon="5.53205">
        <ele>502</ele>
        <time>2022-06-19T06:21:20Z</time>
      </trkpt>
      <trkpt lat="45.76531" lon="5.53218">
        <ele>503</ele>
        <time>2022-06-19T06:21:24Z</time>
      </trkpt>
      <trkpt lat="45.76535" lon="5.53221">
        <ele>503.4</ele>
        <time>2022-06-19T06:21:25Z</time>
      </trkpt>
      <trkpt lat="45.76548" lon="5.53232">
        <ele>504.2</ele>
        <time>2022-06-19T06:21:29Z</time>
      </trkpt>
      <trkpt lat="45.76552" lon="5.53235">
        <ele>504.6</ele>
        <time>2022-06-19T06:21:30Z</time>
      </trkpt>
      <trkpt lat="45.76562" lon="5.53243">
        <ele>505.4</ele>
        <time>2022-06-19T06:21:34Z</time>
      </trkpt>
      <trkpt lat="45.76579" lon="5.53257">
        <ele>506.4</ele>
        <time>2022-06-19T06:21:38Z</time>
      </trkpt>
      <trkpt lat="45.76581" lon="5.53259">
        <ele>506.8</ele>
        <time>2022-06-19T06:21:39Z</time>
      </trkpt>
      <trkpt lat="45.76601" lon="5.53274">
        <ele>508</ele>
        <time>2022-06-19T06:21:45Z</time>
      </trkpt>
      <trkpt lat="45.76604" lon="5.53276">
        <ele>508.2</ele>
        <time>2022-06-19T06:21:46Z</time>
      </trkpt>
      <trkpt lat="45.76611" lon="5.5328">
        <ele>509.2</ele>
        <time>2022-06-19T06:21:48Z</time>
      </trkpt>
      <trkpt lat="45.76622" lon="5.53285">
        <ele>510.2</ele>
        <time>2022-06-19T06:21:51Z</time>
      </trkpt>
      <trkpt lat="45.76632" lon="5.53286">
        <ele>510.6</ele>
        <time>2022-06-19T06:21:54Z</time>
      </trkpt>
      <trkpt lat="45.76641" lon="5.53282">
        <ele>511.4</ele>
        <time>2022-06-19T06:21:57Z</time>
      </trkpt>
      <trkpt lat="45.76647" lon="5.53274">
        <ele>511.6</ele>
        <time>2022-06-19T06:21:59Z</time>
      </trkpt>
      <trkpt lat="45.76655" lon="5.53262">
        <ele>512.8</ele>
        <time>2022-06-19T06:22:02Z</time>
      </trkpt>
      <trkpt lat="45.76671" lon="5.5324">
        <ele>513.6</ele>
        <time>2022-06-19T06:22:08Z</time>
      </trkpt>
      <trkpt lat="45.76679" lon="5.5323">
        <ele>513.8</ele>
        <time>2022-06-19T06:22:11Z</time>
      </trkpt>
      <trkpt lat="45.76689" lon="5.53222">
        <ele>514.8</ele>
        <time>2022-06-19T06:22:14Z</time>
      </trkpt>
      <trkpt lat="45.76693" lon="5.53219">
        <ele>514.8</ele>
        <time>2022-06-19T06:22:15Z</time>
      </trkpt>
      <trkpt lat="45.76703" lon="5.53212">
        <ele>516</ele>
        <time>2022-06-19T06:22:18Z</time>
      </trkpt>
      <trkpt lat="45.76721" lon="5.53196">
        <ele>516.8</ele>
        <time>2022-06-19T06:22:23Z</time>
      </trkpt>
      <trkpt lat="45.76725" lon="5.53194">
        <ele>517</ele>
        <time>2022-06-19T06:22:24Z</time>
      </trkpt>
      <trkpt lat="45.76744" lon="5.53188">
        <ele>517.8</ele>
        <time>2022-06-19T06:22:29Z</time>
      </trkpt>
      <trkpt lat="45.76751" lon="5.5319">
        <ele>518</ele>
        <time>2022-06-19T06:22:31Z</time>
      </trkpt>
      <trkpt lat="45.76766" lon="5.53198">
        <ele>519.4</ele>
        <time>2022-06-19T06:22:35Z</time>
      </trkpt>
      <trkpt lat="45.76785" lon="5.53203">
        <ele>520.2</ele>
        <time>2022-06-19T06:22:40Z</time>
      </trkpt>
      <trkpt lat="45.76791" lon="5.53201">
        <ele>521.4</ele>
        <time>2022-06-19T06:22:42Z</time>
      </trkpt>
      <trkpt lat="45.7681" lon="5.53196">
        <ele>522.4</ele>
        <time>2022-06-19T06:22:47Z</time>
      </trkpt>
      <trkpt lat="45.76821" lon="5.53194">
        <ele>523</ele>
        <time>2022-06-19T06:22:50Z</time>
      </trkpt>
      <trkpt lat="45.76837" lon="5.5319">
        <ele>523.8</ele>
        <time>2022-06-19T06:22:54Z</time>
      </trkpt>
      <trkpt lat="45.76854" lon="5.53183">
        <ele>524.8</ele>
        <time>2022-06-19T06:22:59Z</time>
      </trkpt>
      <trkpt lat="45.76858" lon="5.53182">
        <ele>525</ele>
        <time>2022-06-19T06:23:00Z</time>
      </trkpt>
      <trkpt lat="45.76868" lon="5.53185">
        <ele>525.4</ele>
        <time>2022-06-19T06:23:03Z</time>
      </trkpt>
      <trkpt lat="45.76871" lon="5.53194">
        <ele>525.8</ele>
        <time>2022-06-19T06:23:05Z</time>
      </trkpt>
      <trkpt lat="45.7687" lon="5.53199">
        <ele>526</ele>
        <time>2022-06-19T06:23:06Z</time>
      </trkpt>
      <trkpt lat="45.76859" lon="5.53213">
        <ele>526.8</ele>
        <time>2022-06-19T06:23:10Z</time>
      </trkpt>
      <trkpt lat="45.76845" lon="5.53226">
        <ele>528.2</ele>
        <time>2022-06-19T06:23:14Z</time>
      </trkpt>
      <trkpt lat="45.76832" lon="5.53238">
        <ele>529.4</ele>
        <time>2022-06-19T06:23:18Z</time>
      </trkpt>
      <trkpt lat="45.76828" lon="5.53241">
        <ele>529.8</ele>
        <time>2022-06-19T06:23:19Z</time>
      </trkpt>
      <trkpt lat="45.76817" lon="5.53247">
        <ele>530.4</ele>
        <time>2022-06-19T06:23:22Z</time>
      </trkpt>
      <trkpt lat="45.76797" lon="5.53264">
        <ele>531.4</ele>
        <time>2022-06-19T06:23:28Z</time>
      </trkpt>
      <trkpt lat="45.76794" lon="5.53267">
        <ele>531.8</ele>
        <time>2022-06-19T06:23:29Z</time>
      </trkpt>
      <trkpt lat="45.76785" lon="5.53279">
        <ele>532.8</ele>
        <time>2022-06-19T06:23:32Z</time>
      </trkpt>
      <trkpt lat="45.76774" lon="5.53295">
        <ele>534.2</ele>
        <time>2022-06-19T06:23:36Z</time>
      </trkpt>
      <trkpt lat="45.76771" lon="5.53299">
        <ele>534.4</ele>
        <time>2022-06-19T06:23:37Z</time>
      </trkpt>
      <trkpt lat="45.76765" lon="5.53312">
        <ele>535.2</ele>
        <time>2022-06-19T06:23:40Z</time>
      </trkpt>
      <trkpt lat="45.76753" lon="5.53335">
        <ele>536.4</ele>
        <time>2022-06-19T06:23:45Z</time>
      </trkpt>
      <trkpt lat="45.76746" lon="5.53355">
        <ele>537.4</ele>
        <time>2022-06-19T06:23:49Z</time>
      </trkpt>
      <trkpt lat="45.76736" lon="5.53379">
        <ele>538.6</ele>
        <time>2022-06-19T06:23:54Z</time>
      </trkpt>
      <trkpt lat="45.76726" lon="5.53401">
        <ele>539.8</ele>
        <time>2022-06-19T06:23:59Z</time>
      </trkpt>
      <trkpt lat="45.76718" lon="5.53419">
        <ele>540.8</ele>
        <time>2022-06-19T06:24:03Z</time>
      </trkpt>
      <trkpt lat="45.76716" lon="5.53423">
        <ele>541</ele>
        <time>2022-06-19T06:24:04Z</time>
      </trkpt>
      <trkpt lat="45.76711" lon="5.53432">
        <ele>541.8</ele>
        <time>2022-06-19T06:24:06Z</time>
      </trkpt>
      <trkpt lat="45.76706" lon="5.53441">
        <ele>542</ele>
        <time>2022-06-19T06:24:08Z</time>
      </trkpt>
      <trkpt lat="45.76696" lon="5.53456">
        <ele>543</ele>
        <time>2022-06-19T06:24:12Z</time>
      </trkpt>
      <trkpt lat="45.76693" lon="5.53459">
        <ele>543.4</ele>
        <time>2022-06-19T06:24:13Z</time>
      </trkpt>
      <trkpt lat="45.76682" lon="5.53474">
        <ele>544.4</ele>
        <time>2022-06-19T06:24:17Z</time>
      </trkpt>
      <trkpt lat="45.76678" lon="5.53489">
        <ele>545.4</ele>
        <time>2022-06-19T06:24:20Z</time>
      </trkpt>
      <trkpt lat="45.76678" lon="5.535">
        <ele>546.2</ele>
        <time>2022-06-19T06:24:22Z</time>
      </trkpt>
      <trkpt lat="45.76681" lon="5.53511">
        <ele>546.6</ele>
        <time>2022-06-19T06:24:24Z</time>
      </trkpt>
      <trkpt lat="45.76687" lon="5.53526">
        <ele>547.8</ele>
        <time>2022-06-19T06:24:27Z</time>
      </trkpt>
      <trkpt lat="45.76691" lon="5.53537">
        <ele>548.2</ele>
        <time>2022-06-19T06:24:29Z</time>
      </trkpt>
      <trkpt lat="45.76692" lon="5.53543">
        <ele>548.4</ele>
        <time>2022-06-19T06:24:30Z</time>
      </trkpt>
      <trkpt lat="45.76694" lon="5.5356">
        <ele>548.8</ele>
        <time>2022-06-19T06:24:33Z</time>
      </trkpt>
      <trkpt lat="45.76691" lon="5.5357">
        <ele>549.4</ele>
        <time>2022-06-19T06:24:35Z</time>
      </trkpt>
      <trkpt lat="45.76687" lon="5.53578">
        <ele>550</ele>
        <time>2022-06-19T06:24:37Z</time>
      </trkpt>
      <trkpt lat="45.76678" lon="5.5359">
        <ele>550.6</ele>
        <time>2022-06-19T06:24:40Z</time>
      </trkpt>
      <trkpt lat="45.76668" lon="5.53599">
        <ele>551.2</ele>
        <time>2022-06-19T06:24:43Z</time>
      </trkpt>
      <trkpt lat="45.76654" lon="5.53607">
        <ele>551.8</ele>
        <time>2022-06-19T06:24:47Z</time>
      </trkpt>
      <trkpt lat="45.76644" lon="5.53611">
        <ele>552.4</ele>
        <time>2022-06-19T06:24:50Z</time>
      </trkpt>
      <trkpt lat="45.7663" lon="5.53616">
        <ele>553.6</ele>
        <time>2022-06-19T06:24:54Z</time>
      </trkpt>
      <trkpt lat="45.76613" lon="5.53619">
        <ele>554.2</ele>
        <time>2022-06-19T06:24:58Z</time>
      </trkpt>
      <trkpt lat="45.76609" lon="5.5362">
        <ele>554.4</ele>
        <time>2022-06-19T06:24:59Z</time>
      </trkpt>
      <trkpt lat="45.76587" lon="5.53623">
        <ele>555.6</ele>
        <time>2022-06-19T06:25:05Z</time>
      </trkpt>
      <trkpt lat="45.76584" lon="5.53623">
        <ele>555.8</ele>
        <time>2022-06-19T06:25:06Z</time>
      </trkpt>
      <trkpt lat="45.76575" lon="5.53623">
        <ele>557</ele>
        <time>2022-06-19T06:25:09Z</time>
      </trkpt>
      <trkpt lat="45.76561" lon="5.53623">
        <ele>558.4</ele>
        <time>2022-06-19T06:25:13Z</time>
      </trkpt>
      <trkpt lat="45.76544" lon="5.53621">
        <ele>559.6</ele>
        <time>2022-06-19T06:25:17Z</time>
      </trkpt>
      <trkpt lat="45.76537" lon="5.5362">
        <ele>560</ele>
        <time>2022-06-19T06:25:19Z</time>
      </trkpt>
      <trkpt lat="45.76529" lon="5.53619">
        <ele>560.6</ele>
        <time>2022-06-19T06:25:21Z</time>
      </trkpt>
      <trkpt lat="45.7652" lon="5.53622">
        <ele>561.6</ele>
        <time>2022-06-19T06:25:24Z</time>
      </trkpt>
      <trkpt lat="45.76516" lon="5.53634">
        <ele>562.6</ele>
        <time>2022-06-19T06:25:27Z</time>
      </trkpt>
      <trkpt lat="45.76516" lon="5.53638">
        <ele>562.8</ele>
        <time>2022-06-19T06:25:28Z</time>
      </trkpt>
      <trkpt lat="45.76524" lon="5.53646">
        <ele>563.8</ele>
        <time>2022-06-19T06:25:31Z</time>
      </trkpt>
      <trkpt lat="45.76531" lon="5.53652">
        <ele>564.2</ele>
        <time>2022-06-19T06:25:33Z</time>
      </trkpt>
      <trkpt lat="45.76537" lon="5.53659">
        <ele>564.8</ele>
        <time>2022-06-19T06:25:35Z</time>
      </trkpt>
      <trkpt lat="45.76545" lon="5.53667">
        <ele>565.8</ele>
        <time>2022-06-19T06:25:38Z</time>
      </trkpt>
      <trkpt lat="45.76547" lon="5.53669">
        <ele>566.2</ele>
        <time>2022-06-19T06:25:39Z</time>
      </trkpt>
      <trkpt lat="45.76553" lon="5.53677">
        <ele>567</ele>
        <time>2022-06-19T06:25:42Z</time>
      </trkpt>
      <trkpt lat="45.76558" lon="5.53682">
        <ele>567.6</ele>
        <time>2022-06-19T06:25:44Z</time>
      </trkpt>
      <trkpt lat="45.76563" lon="5.53687">
        <ele>568.2</ele>
        <time>2022-06-19T06:25:46Z</time>
      </trkpt>
      <trkpt lat="45.76578" lon="5.53699">
        <ele>568.8</ele>
        <time>2022-06-19T06:25:50Z</time>
      </trkpt>
      <trkpt lat="45.7658" lon="5.53702">
        <ele>569.2</ele>
        <time>2022-06-19T06:25:51Z</time>
      </trkpt>
      <trkpt lat="45.76594" lon="5.53713">
        <ele>570</ele>
        <time>2022-06-19T06:25:56Z</time>
      </trkpt>
      <trkpt lat="45.76611" lon="5.53722">
        <ele>571.2</ele>
        <time>2022-06-19T06:26:01Z</time>
      </trkpt>
      <trkpt lat="45.76619" lon="5.53726">
        <ele>571.8</ele>
        <time>2022-06-19T06:26:03Z</time>
      </trkpt>
      <trkpt lat="45.76628" lon="5.5373">
        <ele>572.4</ele>
        <time>2022-06-19T06:26:05Z</time>
      </trkpt>
      <trkpt lat="45.76639" lon="5.53738">
        <ele>572.8</ele>
        <time>2022-06-19T06:26:08Z</time>
      </trkpt>
      <trkpt lat="45.76645" lon="5.53741">
        <ele>573.4</ele>
        <time>2022-06-19T06:26:09Z</time>
      </trkpt>
      <trkpt lat="45.76668" lon="5.53752">
        <ele>574.6</ele>
        <time>2022-06-19T06:26:14Z</time>
      </trkpt>
      <trkpt lat="45.76678" lon="5.53757">
        <ele>575.2</ele>
        <time>2022-06-19T06:26:16Z</time>
      </trkpt>
      <trkpt lat="45.76686" lon="5.53761">
        <ele>575.8</ele>
        <time>2022-06-19T06:26:18Z</time>
      </trkpt>
      <trkpt lat="45.76708" lon="5.53769">
        <ele>577</ele>
        <time>2022-06-19T06:26:24Z</time>
      </trkpt>
      <trkpt lat="45.76726" lon="5.53775">
        <ele>578</ele>
        <time>2022-06-19T06:26:29Z</time>
      </trkpt>
      <trkpt lat="45.76741" lon="5.53778">
        <ele>579</ele>
        <time>2022-06-19T06:26:33Z</time>
      </trkpt>
      <trkpt lat="45.76763" lon="5.53781">
        <ele>580.4</ele>
        <time>2022-06-19T06:26:39Z</time>
      </trkpt>
      <trkpt lat="45.76775" lon="5.53783">
        <ele>581</ele>
        <time>2022-06-19T06:26:42Z</time>
      </trkpt>
      <trkpt lat="45.76782" lon="5.53785">
        <ele>581.4</ele>
        <time>2022-06-19T06:26:44Z</time>
      </trkpt>
      <trkpt lat="45.76797" lon="5.53793">
        <ele>582.2</ele>
        <time>2022-06-19T06:26:48Z</time>
      </trkpt>
      <trkpt lat="45.76804" lon="5.53798">
        <ele>582.8</ele>
        <time>2022-06-19T06:26:50Z</time>
      </trkpt>
      <trkpt lat="45.76817" lon="5.53818">
        <ele>583.4</ele>
        <time>2022-06-19T06:26:55Z</time>
      </trkpt>
      <trkpt lat="45.76819" lon="5.53822">
        <ele>583.8</ele>
        <time>2022-06-19T06:26:56Z</time>
      </trkpt>
      <trkpt lat="45.76824" lon="5.53838">
        <ele>584.8</ele>
        <time>2022-06-19T06:26:59Z</time>
      </trkpt>
      <trkpt lat="45.76827" lon="5.53854">
        <ele>585.8</ele>
        <time>2022-06-19T06:27:02Z</time>
      </trkpt>
      <trkpt lat="45.76827" lon="5.53859">
        <ele>586</ele>
        <time>2022-06-19T06:27:03Z</time>
      </trkpt>
      <trkpt lat="45.76828" lon="5.53882">
        <ele>587.4</ele>
        <time>2022-06-19T06:27:07Z</time>
      </trkpt>
      <trkpt lat="45.76827" lon="5.53898">
        <ele>588.2</ele>
        <time>2022-06-19T06:27:10Z</time>
      </trkpt>
      <trkpt lat="45.76826" lon="5.53904">
        <ele>588.4</ele>
        <time>2022-06-19T06:27:11Z</time>
      </trkpt>
      <trkpt lat="45.76817" lon="5.53929">
        <ele>589.4</ele>
        <time>2022-06-19T06:27:16Z</time>
      </trkpt>
      <trkpt lat="45.76815" lon="5.53934">
        <ele>589.4</ele>
        <time>2022-06-19T06:27:17Z</time>
      </trkpt>
      <trkpt lat="45.76807" lon="5.53947">
        <ele>590</ele>
        <time>2022-06-19T06:27:20Z</time>
      </trkpt>
      <trkpt lat="45.76802" lon="5.53955">
        <ele>590.2</ele>
        <time>2022-06-19T06:27:22Z</time>
      </trkpt>
      <trkpt lat="45.76799" lon="5.53959">
        <ele>590.4</ele>
        <time>2022-06-19T06:27:23Z</time>
      </trkpt>
      <trkpt lat="45.76796" lon="5.53963">
        <ele>590.4</ele>
        <time>2022-06-19T06:27:24Z</time>
      </trkpt>
      <trkpt lat="45.76781" lon="5.53981">
        <ele>591.6</ele>
        <time>2022-06-19T06:27:29Z</time>
      </trkpt>
      <trkpt lat="45.76768" lon="5.53995">
        <ele>592.8</ele>
        <time>2022-06-19T06:27:33Z</time>
      </trkpt>
      <trkpt lat="45.76748" lon="5.54013">
        <ele>594</ele>
        <time>2022-06-19T06:27:39Z</time>
      </trkpt>
      <trkpt lat="45.76741" lon="5.54016">
        <ele>594.2</ele>
        <time>2022-06-19T06:27:41Z</time>
      </trkpt>
      <trkpt lat="45.76729" lon="5.54018">
        <ele>595</ele>
        <time>2022-06-19T06:27:44Z</time>
      </trkpt>
      <trkpt lat="45.7671" lon="5.54022">
        <ele>596.2</ele>
        <time>2022-06-19T06:27:49Z</time>
      </trkpt>
      <trkpt lat="45.76706" lon="5.54023">
        <ele>596.6</ele>
        <time>2022-06-19T06:27:50Z</time>
      </trkpt>
      <trkpt lat="45.76689" lon="5.54039">
        <ele>597.4</ele>
        <time>2022-06-19T06:27:55Z</time>
      </trkpt>
      <trkpt lat="45.76679" lon="5.54049">
        <ele>598.6</ele>
        <time>2022-06-19T06:27:58Z</time>
      </trkpt>
      <trkpt lat="45.76664" lon="5.54067">
        <ele>599.6</ele>
        <time>2022-06-19T06:28:03Z</time>
      </trkpt>
      <trkpt lat="45.76658" lon="5.54077">
        <ele>599.8</ele>
        <time>2022-06-19T06:28:05Z</time>
      </trkpt>
      <trkpt lat="45.76638" lon="5.54108">
        <ele>600</ele>
        <time>2022-06-19T06:28:11Z</time>
      </trkpt>
      <trkpt lat="45.76631" lon="5.54118">
        <ele>600.2</ele>
        <time>2022-06-19T06:28:13Z</time>
      </trkpt>
      <trkpt lat="45.76621" lon="5.54129">
        <ele>600.4</ele>
        <time>2022-06-19T06:28:16Z</time>
      </trkpt>
      <trkpt lat="45.76617" lon="5.54132">
        <ele>600.6</ele>
        <time>2022-06-19T06:28:17Z</time>
      </trkpt>
      <trkpt lat="45.76608" lon="5.5414">
        <ele>600.6</ele>
        <time>2022-06-19T06:28:19Z</time>
      </trkpt>
      <trkpt lat="45.7658" lon="5.54163">
        <ele>601</ele>
        <time>2022-06-19T06:28:25Z</time>
      </trkpt>
      <trkpt lat="45.76575" lon="5.54168">
        <ele>601</ele>
        <time>2022-06-19T06:28:26Z</time>
      </trkpt>
      <trkpt lat="45.76527" lon="5.54208">
        <ele>601.2</ele>
        <time>2022-06-19T06:28:36Z</time>
      </trkpt>
      <trkpt lat="45.76489" lon="5.54235">
        <ele>601.6</ele>
        <time>2022-06-19T06:28:44Z</time>
      </trkpt>
      <trkpt lat="45.76473" lon="5.54239">
        <ele>602.2</ele>
        <time>2022-06-19T06:28:47Z</time>
      </trkpt>
      <trkpt lat="45.76461" lon="5.54237">
        <ele>602.2</ele>
        <time>2022-06-19T06:28:49Z</time>
      </trkpt>
      <trkpt lat="45.7645" lon="5.54233">
        <ele>602.2</ele>
        <time>2022-06-19T06:28:51Z</time>
      </trkpt>
      <trkpt lat="45.76437" lon="5.54232">
        <ele>602.4</ele>
        <time>2022-06-19T06:28:53Z</time>
      </trkpt>
      <trkpt lat="45.7643" lon="5.54234">
        <ele>602.4</ele>
        <time>2022-06-19T06:28:54Z</time>
      </trkpt>
      <trkpt lat="45.76424" lon="5.54237">
        <ele>602.4</ele>
        <time>2022-06-19T06:28:55Z</time>
      </trkpt>
      <trkpt lat="45.76415" lon="5.54244">
        <ele>602.2</ele>
        <time>2022-06-19T06:28:57Z</time>
      </trkpt>
      <trkpt lat="45.7641" lon="5.54249">
        <ele>602</ele>
        <time>2022-06-19T06:28:58Z</time>
      </trkpt>
      <trkpt lat="45.76406" lon="5.54255">
        <ele>602</ele>
        <time>2022-06-19T06:28:59Z</time>
      </trkpt>
      <trkpt lat="45.76399" lon="5.54268">
        <ele>602.4</ele>
        <time>2022-06-19T06:29:01Z</time>
      </trkpt>
      <trkpt lat="45.76397" lon="5.54274">
        <ele>602.4</ele>
        <time>2022-06-19T06:29:02Z</time>
      </trkpt>
      <trkpt lat="45.76393" lon="5.54289">
        <ele>602.6</ele>
        <time>2022-06-19T06:29:04Z</time>
      </trkpt>
      <trkpt lat="45.76392" lon="5.54297">
        <ele>602.6</ele>
        <time>2022-06-19T06:29:05Z</time>
      </trkpt>
      <trkpt lat="45.76392" lon="5.54314">
        <ele>603</ele>
        <time>2022-06-19T06:29:07Z</time>
      </trkpt>
      <trkpt lat="45.76393" lon="5.54329">
        <ele>603.6</ele>
        <time>2022-06-19T06:29:09Z</time>
      </trkpt>
      <trkpt lat="45.76393" lon="5.54345">
        <ele>603.8</ele>
        <time>2022-06-19T06:29:11Z</time>
      </trkpt>
      <trkpt lat="45.76392" lon="5.54368">
        <ele>604.4</ele>
        <time>2022-06-19T06:29:14Z</time>
      </trkpt>
      <trkpt lat="45.76392" lon="5.54376">
        <ele>604.6</ele>
        <time>2022-06-19T06:29:15Z</time>
      </trkpt>
      <trkpt lat="45.76392" lon="5.54417">
        <ele>605.4</ele>
        <time>2022-06-19T06:29:20Z</time>
      </trkpt>
      <trkpt lat="45.76393" lon="5.54425">
        <ele>605.6</ele>
        <time>2022-06-19T06:29:21Z</time>
      </trkpt>
      <trkpt lat="45.76395" lon="5.5444">
        <ele>606</ele>
        <time>2022-06-19T06:29:23Z</time>
      </trkpt>
      <trkpt lat="45.76397" lon="5.54455">
        <ele>606.4</ele>
        <time>2022-06-19T06:29:25Z</time>
      </trkpt>
      <trkpt lat="45.76396" lon="5.54462">
        <ele>606.6</ele>
        <time>2022-06-19T06:29:26Z</time>
      </trkpt>
      <trkpt lat="45.76395" lon="5.54476">
        <ele>606.8</ele>
        <time>2022-06-19T06:29:28Z</time>
      </trkpt>
      <trkpt lat="45.76397" lon="5.54499">
        <ele>607.4</ele>
        <time>2022-06-19T06:29:31Z</time>
      </trkpt>
      <trkpt lat="45.76399" lon="5.54506">
        <ele>607.6</ele>
        <time>2022-06-19T06:29:32Z</time>
      </trkpt>
      <trkpt lat="45.764" lon="5.5452">
        <ele>608</ele>
        <time>2022-06-19T06:29:34Z</time>
      </trkpt>
      <trkpt lat="45.76403" lon="5.5453">
        <ele>608.2</ele>
        <time>2022-06-19T06:29:36Z</time>
      </trkpt>
      <trkpt lat="45.76408" lon="5.54543">
        <ele>608.8</ele>
        <time>2022-06-19T06:29:38Z</time>
      </trkpt>
      <trkpt lat="45.76409" lon="5.54566">
        <ele>609.4</ele>
        <time>2022-06-19T06:29:41Z</time>
      </trkpt>
      <trkpt lat="45.76408" lon="5.54575">
        <ele>609.8</ele>
        <time>2022-06-19T06:29:42Z</time>
      </trkpt>
      <trkpt lat="45.76409" lon="5.54587">
        <ele>610.8</ele>
        <time>2022-06-19T06:29:44Z</time>
      </trkpt>
      <trkpt lat="45.76413" lon="5.54606">
        <ele>611.8</ele>
        <time>2022-06-19T06:29:47Z</time>
      </trkpt>
      <trkpt lat="45.76415" lon="5.54613">
        <ele>611.8</ele>
        <time>2022-06-19T06:29:48Z</time>
      </trkpt>
      <trkpt lat="45.76416" lon="5.54619">
        <ele>612</ele>
        <time>2022-06-19T06:29:49Z</time>
      </trkpt>
      <trkpt lat="45.7642" lon="5.54634">
        <ele>612.8</ele>
        <time>2022-06-19T06:29:52Z</time>
      </trkpt>
      <trkpt lat="45.7642" lon="5.5464">
        <ele>613</ele>
        <time>2022-06-19T06:29:53Z</time>
      </trkpt>
      <trkpt lat="45.76421" lon="5.54648">
        <ele>613.2</ele>
        <time>2022-06-19T06:29:54Z</time>
      </trkpt>
      <trkpt lat="45.76423" lon="5.54669">
        <ele>613.6</ele>
        <time>2022-06-19T06:29:57Z</time>
      </trkpt>
      <trkpt lat="45.76423" lon="5.54676">
        <ele>613.8</ele>
        <time>2022-06-19T06:29:58Z</time>
      </trkpt>
      <trkpt lat="45.76419" lon="5.54727">
        <ele>615.2</ele>
        <time>2022-06-19T06:30:05Z</time>
      </trkpt>
      <trkpt lat="45.76416" lon="5.54762">
        <ele>616.6</ele>
        <time>2022-06-19T06:30:10Z</time>
      </trkpt>
      <trkpt lat="45.76416" lon="5.54769">
        <ele>616.8</ele>
        <time>2022-06-19T06:30:11Z</time>
      </trkpt>
      <trkpt lat="45.76414" lon="5.54791">
        <ele>617.2</ele>
        <time>2022-06-19T06:30:14Z</time>
      </trkpt>
      <trkpt lat="45.76412" lon="5.54813">
        <ele>617.6</ele>
        <time>2022-06-19T06:30:17Z</time>
      </trkpt>
      <trkpt lat="45.76409" lon="5.54826">
        <ele>617.8</ele>
        <time>2022-06-19T06:30:19Z</time>
      </trkpt>
      <trkpt lat="45.76403" lon="5.54837">
        <ele>618.4</ele>
        <time>2022-06-19T06:30:21Z</time>
      </trkpt>
      <trkpt lat="45.76399" lon="5.54842">
        <ele>619.2</ele>
        <time>2022-06-19T06:30:22Z</time>
      </trkpt>
      <trkpt lat="45.76393" lon="5.54851">
        <ele>620</ele>
        <time>2022-06-19T06:30:24Z</time>
      </trkpt>
      <trkpt lat="45.76389" lon="5.54855">
        <ele>620.2</ele>
        <time>2022-06-19T06:30:25Z</time>
      </trkpt>
      <trkpt lat="45.76377" lon="5.54866">
        <ele>620.8</ele>
        <time>2022-06-19T06:30:28Z</time>
      </trkpt>
      <trkpt lat="45.76369" lon="5.54873">
        <ele>621.4</ele>
        <time>2022-06-19T06:30:30Z</time>
      </trkpt>
      <trkpt lat="45.76364" lon="5.54878">
        <ele>621.8</ele>
        <time>2022-06-19T06:30:31Z</time>
      </trkpt>
      <trkpt lat="45.76353" lon="5.54887">
        <ele>622.4</ele>
        <time>2022-06-19T06:30:34Z</time>
      </trkpt>
      <trkpt lat="45.76351" lon="5.5489">
        <ele>622.8</ele>
        <time>2022-06-19T06:30:35Z</time>
      </trkpt>
      <trkpt lat="45.76348" lon="5.54893">
        <ele>623.2</ele>
        <time>2022-06-19T06:30:36Z</time>
      </trkpt>
      <trkpt lat="45.76339" lon="5.54904">
        <ele>623.6</ele>
        <time>2022-06-19T06:30:39Z</time>
      </trkpt>
      <trkpt lat="45.76336" lon="5.54907">
        <ele>623.8</ele>
        <time>2022-06-19T06:30:40Z</time>
      </trkpt>
      <trkpt lat="45.76329" lon="5.54914">
        <ele>624.4</ele>
        <time>2022-06-19T06:30:42Z</time>
      </trkpt>
      <trkpt lat="45.76326" lon="5.54918">
        <ele>624.8</ele>
        <time>2022-06-19T06:30:43Z</time>
      </trkpt>
      <trkpt lat="45.76321" lon="5.54922">
        <ele>625</ele>
        <time>2022-06-19T06:30:44Z</time>
      </trkpt>
      <trkpt lat="45.76316" lon="5.54925">
        <ele>625</ele>
        <time>2022-06-19T06:30:45Z</time>
      </trkpt>
      <trkpt lat="45.76312" lon="5.54928">
        <ele>625.2</ele>
        <time>2022-06-19T06:30:46Z</time>
      </trkpt>
      <trkpt lat="45.76303" lon="5.54933">
        <ele>626</ele>
        <time>2022-06-19T06:30:48Z</time>
      </trkpt>
      <trkpt lat="45.76293" lon="5.54937">
        <ele>626.6</ele>
        <time>2022-06-19T06:30:50Z</time>
      </trkpt>
      <trkpt lat="45.76279" lon="5.54943">
        <ele>627.2</ele>
        <time>2022-06-19T06:30:53Z</time>
      </trkpt>
      <trkpt lat="45.76258" lon="5.54951">
        <ele>627.8</ele>
        <time>2022-06-19T06:30:57Z</time>
      </trkpt>
      <trkpt lat="45.76249" lon="5.54956">
        <ele>628.2</ele>
        <time>2022-06-19T06:30:59Z</time>
      </trkpt>
      <trkpt lat="45.76222" lon="5.54968">
        <ele>628.8</ele>
        <time>2022-06-19T06:31:05Z</time>
      </trkpt>
      <trkpt lat="45.76217" lon="5.54969">
        <ele>629.2</ele>
        <time>2022-06-19T06:31:06Z</time>
      </trkpt>
      <trkpt lat="45.76205" lon="5.54971">
        <ele>630</ele>
        <time>2022-06-19T06:31:09Z</time>
      </trkpt>
      <trkpt lat="45.762" lon="5.54972">
        <ele>630.2</ele>
        <time>2022-06-19T06:31:10Z</time>
      </trkpt>
      <trkpt lat="45.76196" lon="5.54971">
        <ele>630.8</ele>
        <time>2022-06-19T06:31:11Z</time>
      </trkpt>
      <trkpt lat="45.76188" lon="5.54971">
        <ele>631.6</ele>
        <time>2022-06-19T06:31:13Z</time>
      </trkpt>
      <trkpt lat="45.76174" lon="5.54972">
        <ele>632.6</ele>
        <time>2022-06-19T06:31:16Z</time>
      </trkpt>
      <trkpt lat="45.76171" lon="5.54973">
        <ele>632.8</ele>
        <time>2022-06-19T06:31:17Z</time>
      </trkpt>
      <trkpt lat="45.76163" lon="5.54976">
        <ele>633.4</ele>
        <time>2022-06-19T06:31:19Z</time>
      </trkpt>
      <trkpt lat="45.76157" lon="5.54984">
        <ele>633.6</ele>
        <time>2022-06-19T06:31:21Z</time>
      </trkpt>
      <trkpt lat="45.76153" lon="5.54989">
        <ele>633.8</ele>
        <time>2022-06-19T06:31:22Z</time>
      </trkpt>
      <trkpt lat="45.76147" lon="5.54997">
        <ele>634</ele>
        <time>2022-06-19T06:31:24Z</time>
      </trkpt>
      <trkpt lat="45.76139" lon="5.55008">
        <ele>634.4</ele>
        <time>2022-06-19T06:31:26Z</time>
      </trkpt>
      <trkpt lat="45.76126" lon="5.55021">
        <ele>635.2</ele>
        <time>2022-06-19T06:31:30Z</time>
      </trkpt>
      <trkpt lat="45.76113" lon="5.55031">
        <ele>636</ele>
        <time>2022-06-19T06:31:33Z</time>
      </trkpt>
      <trkpt lat="45.76101" lon="5.55041">
        <ele>637</ele>
        <time>2022-06-19T06:31:36Z</time>
      </trkpt>
      <trkpt lat="45.76097" lon="5.55044">
        <ele>637</ele>
        <time>2022-06-19T06:31:37Z</time>
      </trkpt>
      <trkpt lat="45.76094" lon="5.55047">
        <ele>637.2</ele>
        <time>2022-06-19T06:31:38Z</time>
      </trkpt>
      <trkpt lat="45.7609" lon="5.5505">
        <ele>637.2</ele>
        <time>2022-06-19T06:31:39Z</time>
      </trkpt>
      <trkpt lat="45.76078" lon="5.55063">
        <ele>638</ele>
        <time>2022-06-19T06:31:42Z</time>
      </trkpt>
      <trkpt lat="45.76075" lon="5.55067">
        <ele>638.2</ele>
        <time>2022-06-19T06:31:43Z</time>
      </trkpt>
      <trkpt lat="45.76069" lon="5.55074">
        <ele>638.4</ele>
        <time>2022-06-19T06:31:45Z</time>
      </trkpt>
      <trkpt lat="45.76061" lon="5.55085">
        <ele>638.8</ele>
        <time>2022-06-19T06:31:47Z</time>
      </trkpt>
      <trkpt lat="45.76055" lon="5.55094">
        <ele>638.8</ele>
        <time>2022-06-19T06:31:49Z</time>
      </trkpt>
      <trkpt lat="45.76052" lon="5.55099">
        <ele>639.2</ele>
        <time>2022-06-19T06:31:50Z</time>
      </trkpt>
      <trkpt lat="45.76048" lon="5.55105">
        <ele>639.4</ele>
        <time>2022-06-19T06:31:51Z</time>
      </trkpt>
      <trkpt lat="45.76039" lon="5.55119">
        <ele>640.8</ele>
        <time>2022-06-19T06:31:54Z</time>
      </trkpt>
      <trkpt lat="45.76028" lon="5.55136">
        <ele>641.2</ele>
        <time>2022-06-19T06:31:57Z</time>
      </trkpt>
      <trkpt lat="45.76024" lon="5.55141">
        <ele>641.6</ele>
        <time>2022-06-19T06:31:58Z</time>
      </trkpt>
      <trkpt lat="45.76019" lon="5.55152">
        <ele>642.2</ele>
        <time>2022-06-19T06:32:00Z</time>
      </trkpt>
      <trkpt lat="45.76017" lon="5.55157">
        <ele>642.8</ele>
        <time>2022-06-19T06:32:01Z</time>
      </trkpt>
      <trkpt lat="45.76013" lon="5.55162">
        <ele>643</ele>
        <time>2022-06-19T06:32:02Z</time>
      </trkpt>
      <trkpt lat="45.76006" lon="5.55172">
        <ele>643.4</ele>
        <time>2022-06-19T06:32:04Z</time>
      </trkpt>
      <trkpt lat="45.76002" lon="5.55183">
        <ele>644</ele>
        <time>2022-06-19T06:32:06Z</time>
      </trkpt>
      <trkpt lat="45.76" lon="5.55192">
        <ele>644.6</ele>
        <time>2022-06-19T06:32:08Z</time>
      </trkpt>
      <trkpt lat="45.75998" lon="5.55197">
        <ele>644.8</ele>
        <time>2022-06-19T06:32:09Z</time>
      </trkpt>
      <trkpt lat="45.75989" lon="5.55218">
        <ele>645.2</ele>
        <time>2022-06-19T06:32:13Z</time>
      </trkpt>
      <trkpt lat="45.75982" lon="5.55234">
        <ele>646.2</ele>
        <time>2022-06-19T06:32:16Z</time>
      </trkpt>
      <trkpt lat="45.7598" lon="5.55238">
        <ele>646.4</ele>
        <time>2022-06-19T06:32:17Z</time>
      </trkpt>
      <trkpt lat="45.75977" lon="5.55243">
        <ele>646.8</ele>
        <time>2022-06-19T06:32:18Z</time>
      </trkpt>
      <trkpt lat="45.75975" lon="5.55247">
        <ele>647.4</ele>
        <time>2022-06-19T06:32:19Z</time>
      </trkpt>
      <trkpt lat="45.75969" lon="5.55256">
        <ele>648.4</ele>
        <time>2022-06-19T06:32:21Z</time>
      </trkpt>
      <trkpt lat="45.75967" lon="5.55261">
        <ele>648.6</ele>
        <time>2022-06-19T06:32:22Z</time>
      </trkpt>
      <trkpt lat="45.75965" lon="5.55265">
        <ele>648.6</ele>
        <time>2022-06-19T06:32:23Z</time>
      </trkpt>
      <trkpt lat="45.75962" lon="5.55273">
        <ele>648.8</ele>
        <time>2022-06-19T06:32:25Z</time>
      </trkpt>
      <trkpt lat="45.7596" lon="5.55278">
        <ele>649</ele>
        <time>2022-06-19T06:32:26Z</time>
      </trkpt>
      <trkpt lat="45.75959" lon="5.55282">
        <ele>649.2</ele>
        <time>2022-06-19T06:32:27Z</time>
      </trkpt>
      <trkpt lat="45.75956" lon="5.55286">
        <ele>649.2</ele>
        <time>2022-06-19T06:32:28Z</time>
      </trkpt>
      <trkpt lat="45.75946" lon="5.55302">
        <ele>650</ele>
        <time>2022-06-19T06:32:31Z</time>
      </trkpt>
      <trkpt lat="45.75941" lon="5.55308">
        <ele>650.2</ele>
        <time>2022-06-19T06:32:32Z</time>
      </trkpt>
      <trkpt lat="45.75937" lon="5.55312">
        <ele>650.4</ele>
        <time>2022-06-19T06:32:33Z</time>
      </trkpt>
      <trkpt lat="45.75929" lon="5.55331">
        <ele>651</ele>
        <time>2022-06-19T06:32:36Z</time>
      </trkpt>
      <trkpt lat="45.75921" lon="5.55343">
        <ele>651.4</ele>
        <time>2022-06-19T06:32:38Z</time>
      </trkpt>
      <trkpt lat="45.75919" lon="5.5535">
        <ele>651.8</ele>
        <time>2022-06-19T06:32:39Z</time>
      </trkpt>
      <trkpt lat="45.75912" lon="5.55361">
        <ele>652.4</ele>
        <time>2022-06-19T06:32:41Z</time>
      </trkpt>
      <trkpt lat="45.75913" lon="5.55371">
        <ele>652.4</ele>
        <time>2022-06-19T06:32:42Z</time>
      </trkpt>
      <trkpt lat="45.75914" lon="5.55377">
        <ele>652.8</ele>
        <time>2022-06-19T06:32:43Z</time>
      </trkpt>
      <trkpt lat="45.7591" lon="5.55388">
        <ele>653.2</ele>
        <time>2022-06-19T06:32:45Z</time>
      </trkpt>
      <trkpt lat="45.75907" lon="5.55395">
        <ele>653.6</ele>
        <time>2022-06-19T06:32:46Z</time>
      </trkpt>
      <trkpt lat="45.75901" lon="5.55406">
        <ele>654.4</ele>
        <time>2022-06-19T06:32:48Z</time>
      </trkpt>
      <trkpt lat="45.75899" lon="5.55411">
        <ele>654.6</ele>
        <time>2022-06-19T06:32:49Z</time>
      </trkpt>
      <trkpt lat="45.75897" lon="5.55416">
        <ele>654.6</ele>
        <time>2022-06-19T06:32:50Z</time>
      </trkpt>
      <trkpt lat="45.75894" lon="5.55421">
        <ele>654.8</ele>
        <time>2022-06-19T06:32:51Z</time>
      </trkpt>
      <trkpt lat="45.75889" lon="5.55433">
        <ele>655.2</ele>
        <time>2022-06-19T06:32:53Z</time>
      </trkpt>
      <trkpt lat="45.75885" lon="5.55439">
        <ele>655.8</ele>
        <time>2022-06-19T06:32:54Z</time>
      </trkpt>
      <trkpt lat="45.75882" lon="5.55453">
        <ele>656.8</ele>
        <time>2022-06-19T06:32:56Z</time>
      </trkpt>
      <trkpt lat="45.75882" lon="5.55467">
        <ele>657.2</ele>
        <time>2022-06-19T06:32:58Z</time>
      </trkpt>
      <trkpt lat="45.75883" lon="5.55474">
        <ele>657.4</ele>
        <time>2022-06-19T06:32:59Z</time>
      </trkpt>
      <trkpt lat="45.75882" lon="5.5549">
        <ele>658</ele>
        <time>2022-06-19T06:33:01Z</time>
      </trkpt>
      <trkpt lat="45.75882" lon="5.55504">
        <ele>658.4</ele>
        <time>2022-06-19T06:33:03Z</time>
      </trkpt>
      <trkpt lat="45.75881" lon="5.55517">
        <ele>658.6</ele>
        <time>2022-06-19T06:33:05Z</time>
      </trkpt>
      <trkpt lat="45.75879" lon="5.55524">
        <ele>658.8</ele>
        <time>2022-06-19T06:33:06Z</time>
      </trkpt>
      <trkpt lat="45.75878" lon="5.5553">
        <ele>659.4</ele>
        <time>2022-06-19T06:33:07Z</time>
      </trkpt>
      <trkpt lat="45.75871" lon="5.55542">
        <ele>660</ele>
        <time>2022-06-19T06:33:09Z</time>
      </trkpt>
      <trkpt lat="45.75869" lon="5.55548">
        <ele>660</ele>
        <time>2022-06-19T06:33:10Z</time>
      </trkpt>
      <trkpt lat="45.75859" lon="5.55564">
        <ele>660.6</ele>
        <time>2022-06-19T06:33:13Z</time>
      </trkpt>
      <trkpt lat="45.75854" lon="5.55574">
        <ele>660.6</ele>
        <time>2022-06-19T06:33:15Z</time>
      </trkpt>
      <trkpt lat="45.75849" lon="5.55585">
        <ele>661</ele>
        <time>2022-06-19T06:33:17Z</time>
      </trkpt>
      <trkpt lat="45.75844" lon="5.55601">
        <ele>662</ele>
        <time>2022-06-19T06:33:20Z</time>
      </trkpt>
      <trkpt lat="45.7584" lon="5.55612">
        <ele>662.4</ele>
        <time>2022-06-19T06:33:22Z</time>
      </trkpt>
      <trkpt lat="45.75838" lon="5.55617">
        <ele>663</ele>
        <time>2022-06-19T06:33:23Z</time>
      </trkpt>
      <trkpt lat="45.75836" lon="5.55622">
        <ele>663.2</ele>
        <time>2022-06-19T06:33:24Z</time>
      </trkpt>
      <trkpt lat="45.75835" lon="5.55627">
        <ele>663.6</ele>
        <time>2022-06-19T06:33:25Z</time>
      </trkpt>
      <trkpt lat="45.75834" lon="5.55632">
        <ele>664</ele>
        <time>2022-06-19T06:33:26Z</time>
      </trkpt>
      <trkpt lat="45.75834" lon="5.55639">
        <ele>664.4</ele>
        <time>2022-06-19T06:33:27Z</time>
      </trkpt>
      <trkpt lat="45.7584" lon="5.55659">
        <ele>665.6</ele>
        <time>2022-06-19T06:33:30Z</time>
      </trkpt>
      <trkpt lat="45.75849" lon="5.55673">
        <ele>666.2</ele>
        <time>2022-06-19T06:33:33Z</time>
      </trkpt>
      <trkpt lat="45.75853" lon="5.55677">
        <ele>666.4</ele>
        <time>2022-06-19T06:33:34Z</time>
      </trkpt>
      <trkpt lat="45.75856" lon="5.55682">
        <ele>666.4</ele>
        <time>2022-06-19T06:33:35Z</time>
      </trkpt>
      <trkpt lat="45.75863" lon="5.55691">
        <ele>667.4</ele>
        <time>2022-06-19T06:33:37Z</time>
      </trkpt>
      <trkpt lat="45.75867" lon="5.55695">
        <ele>667.6</ele>
        <time>2022-06-19T06:33:38Z</time>
      </trkpt>
      <trkpt lat="45.75876" lon="5.557">
        <ele>668</ele>
        <time>2022-06-19T06:33:40Z</time>
      </trkpt>
      <trkpt lat="45.7588" lon="5.55703">
        <ele>668.2</ele>
        <time>2022-06-19T06:33:41Z</time>
      </trkpt>
      <trkpt lat="45.75884" lon="5.55705">
        <ele>668.6</ele>
        <time>2022-06-19T06:33:42Z</time>
      </trkpt>
      <trkpt lat="45.7589" lon="5.55708">
        <ele>669</ele>
        <time>2022-06-19T06:33:44Z</time>
      </trkpt>
      <trkpt lat="45.75894" lon="5.55711">
        <ele>669.2</ele>
        <time>2022-06-19T06:33:45Z</time>
      </trkpt>
      <trkpt lat="45.75899" lon="5.55715">
        <ele>669.6</ele>
        <time>2022-06-19T06:33:46Z</time>
      </trkpt>
      <trkpt lat="45.75907" lon="5.55726">
        <ele>670</ele>
        <time>2022-06-19T06:33:48Z</time>
      </trkpt>
      <trkpt lat="45.75914" lon="5.5574">
        <ele>670.2</ele>
        <time>2022-06-19T06:33:50Z</time>
      </trkpt>
      <trkpt lat="45.75923" lon="5.55752">
        <ele>670.4</ele>
        <time>2022-06-19T06:33:52Z</time>
      </trkpt>
      <trkpt lat="45.75932" lon="5.55767">
        <ele>671.6</ele>
        <time>2022-06-19T06:33:55Z</time>
      </trkpt>
      <trkpt lat="45.75939" lon="5.55777">
        <ele>672</ele>
        <time>2022-06-19T06:33:57Z</time>
      </trkpt>
      <trkpt lat="45.75952" lon="5.55786">
        <ele>672.4</ele>
        <time>2022-06-19T06:34:01Z</time>
      </trkpt>
      <trkpt lat="45.75956" lon="5.55785">
        <ele>672.6</ele>
        <time>2022-06-19T06:34:02Z</time>
      </trkpt>
      <trkpt lat="45.75964" lon="5.55788">
        <ele>673</ele>
        <time>2022-06-19T06:34:04Z</time>
      </trkpt>
      <trkpt lat="45.75967" lon="5.55789">
        <ele>673</ele>
        <time>2022-06-19T06:34:05Z</time>
      </trkpt>
      <trkpt lat="45.75975" lon="5.55792">
        <ele>673.8</ele>
        <time>2022-06-19T06:34:07Z</time>
      </trkpt>
      <trkpt lat="45.75991" lon="5.55794">
        <ele>674.6</ele>
        <time>2022-06-19T06:34:11Z</time>
      </trkpt>
      <trkpt lat="45.75996" lon="5.55794">
        <ele>674.8</ele>
        <time>2022-06-19T06:34:12Z</time>
      </trkpt>
      <trkpt lat="45.76004" lon="5.55793">
        <ele>675.2</ele>
        <time>2022-06-19T06:34:14Z</time>
      </trkpt>
      <trkpt lat="45.76013" lon="5.55794">
        <ele>676</ele>
        <time>2022-06-19T06:34:16Z</time>
      </trkpt>
      <trkpt lat="45.76023" lon="5.55795">
        <ele>676.8</ele>
        <time>2022-06-19T06:34:18Z</time>
      </trkpt>
      <trkpt lat="45.76027" lon="5.55796">
        <ele>677</ele>
        <time>2022-06-19T06:34:19Z</time>
      </trkpt>
      <trkpt lat="45.76036" lon="5.55796">
        <ele>677.4</ele>
        <time>2022-06-19T06:34:21Z</time>
      </trkpt>
      <trkpt lat="45.76045" lon="5.558">
        <ele>677.6</ele>
        <time>2022-06-19T06:34:23Z</time>
      </trkpt>
      <trkpt lat="45.76049" lon="5.55801">
        <ele>677.8</ele>
        <time>2022-06-19T06:34:24Z</time>
      </trkpt>
      <trkpt lat="45.7607" lon="5.55809">
        <ele>678.2</ele>
        <time>2022-06-19T06:34:28Z</time>
      </trkpt>
      <trkpt lat="45.76092" lon="5.55812">
        <ele>679.6</ele>
        <time>2022-06-19T06:34:32Z</time>
      </trkpt>
      <trkpt lat="45.76106" lon="5.55815">
        <ele>680.2</ele>
        <time>2022-06-19T06:34:35Z</time>
      </trkpt>
      <trkpt lat="45.76126" lon="5.55813">
        <ele>680.8</ele>
        <time>2022-06-19T06:34:39Z</time>
      </trkpt>
      <trkpt lat="45.76144" lon="5.55809">
        <ele>681.8</ele>
        <time>2022-06-19T06:34:43Z</time>
      </trkpt>
      <trkpt lat="45.76149" lon="5.55807">
        <ele>682.2</ele>
        <time>2022-06-19T06:34:44Z</time>
      </trkpt>
      <trkpt lat="45.76163" lon="5.55802">
        <ele>683.2</ele>
        <time>2022-06-19T06:34:47Z</time>
      </trkpt>
      <trkpt lat="45.76167" lon="5.55801">
        <ele>683.4</ele>
        <time>2022-06-19T06:34:48Z</time>
      </trkpt>
      <trkpt lat="45.76186" lon="5.55796">
        <ele>684</ele>
        <time>2022-06-19T06:34:52Z</time>
      </trkpt>
      <trkpt lat="45.76191" lon="5.55796">
        <ele>684.4</ele>
        <time>2022-06-19T06:34:53Z</time>
      </trkpt>
      <trkpt lat="45.76205" lon="5.55794">
        <ele>685.6</ele>
        <time>2022-06-19T06:34:56Z</time>
      </trkpt>
      <trkpt lat="45.76212" lon="5.55794">
        <ele>685.6</ele>
        <time>2022-06-19T06:34:58Z</time>
      </trkpt>
      <trkpt lat="45.76221" lon="5.55794">
        <ele>686.2</ele>
        <time>2022-06-19T06:35:00Z</time>
      </trkpt>
      <trkpt lat="45.76224" lon="5.55794">
        <ele>686.6</ele>
        <time>2022-06-19T06:35:01Z</time>
      </trkpt>
      <trkpt lat="45.76231" lon="5.55793">
        <ele>687.2</ele>
        <time>2022-06-19T06:35:03Z</time>
      </trkpt>
      <trkpt lat="45.76235" lon="5.55793">
        <ele>687.2</ele>
        <time>2022-06-19T06:35:04Z</time>
      </trkpt>
      <trkpt lat="45.76245" lon="5.55794">
        <ele>687.6</ele>
        <time>2022-06-19T06:35:06Z</time>
      </trkpt>
      <trkpt lat="45.76252" lon="5.55793">
        <ele>688.6</ele>
        <time>2022-06-19T06:35:08Z</time>
      </trkpt>
      <trkpt lat="45.76257" lon="5.55793">
        <ele>688.8</ele>
        <time>2022-06-19T06:35:09Z</time>
      </trkpt>
      <trkpt lat="45.76268" lon="5.55792">
        <ele>689.4</ele>
        <time>2022-06-19T06:35:11Z</time>
      </trkpt>
      <trkpt lat="45.76282" lon="5.55792">
        <ele>690</ele>
        <time>2022-06-19T06:35:14Z</time>
      </trkpt>
      <trkpt lat="45.76304" lon="5.55796">
        <ele>690.8</ele>
        <time>2022-06-19T06:35:19Z</time>
      </trkpt>
      <trkpt lat="45.76314" lon="5.55799">
        <ele>691.2</ele>
        <time>2022-06-19T06:35:21Z</time>
      </trkpt>
      <trkpt lat="45.76328" lon="5.558">
        <ele>692.4</ele>
        <time>2022-06-19T06:35:24Z</time>
      </trkpt>
      <trkpt lat="45.76339" lon="5.55803">
        <ele>692.8</ele>
        <time>2022-06-19T06:35:26Z</time>
      </trkpt>
      <trkpt lat="45.76344" lon="5.55805">
        <ele>693</ele>
        <time>2022-06-19T06:35:27Z</time>
      </trkpt>
      <trkpt lat="45.76357" lon="5.55806">
        <ele>693.4</ele>
        <time>2022-06-19T06:35:30Z</time>
      </trkpt>
      <trkpt lat="45.76365" lon="5.55808">
        <ele>694</ele>
        <time>2022-06-19T06:35:32Z</time>
      </trkpt>
      <trkpt lat="45.76369" lon="5.55813">
        <ele>694</ele>
        <time>2022-06-19T06:35:33Z</time>
      </trkpt>
      <trkpt lat="45.76374" lon="5.55819">
        <ele>694</ele>
        <time>2022-06-19T06:35:34Z</time>
      </trkpt>
      <trkpt lat="45.76378" lon="5.55825">
        <ele>694.4</ele>
        <time>2022-06-19T06:35:35Z</time>
      </trkpt>
      <trkpt lat="45.76393" lon="5.55846">
        <ele>695.6</ele>
        <time>2022-06-19T06:35:39Z</time>
      </trkpt>
      <trkpt lat="45.76397" lon="5.55859">
        <ele>696.2</ele>
        <time>2022-06-19T06:35:41Z</time>
      </trkpt>
      <trkpt lat="45.76397" lon="5.5587">
        <ele>696.6</ele>
        <time>2022-06-19T06:35:43Z</time>
      </trkpt>
      <trkpt lat="45.76398" lon="5.55876">
        <ele>697</ele>
        <time>2022-06-19T06:35:44Z</time>
      </trkpt>
      <trkpt lat="45.76402" lon="5.55885">
        <ele>697.6</ele>
        <time>2022-06-19T06:35:45Z</time>
      </trkpt>
      <trkpt lat="45.76406" lon="5.55894">
        <ele>698</ele>
        <time>2022-06-19T06:35:46Z</time>
      </trkpt>
      <trkpt lat="45.76408" lon="5.55905">
        <ele>698.6</ele>
        <time>2022-06-19T06:35:48Z</time>
      </trkpt>
      <trkpt lat="45.7641" lon="5.55912">
        <ele>698.8</ele>
        <time>2022-06-19T06:35:49Z</time>
      </trkpt>
      <trkpt lat="45.76414" lon="5.55925">
        <ele>699</ele>
        <time>2022-06-19T06:35:51Z</time>
      </trkpt>
      <trkpt lat="45.76417" lon="5.55937">
        <ele>699.2</ele>
        <time>2022-06-19T06:35:53Z</time>
      </trkpt>
      <trkpt lat="45.76418" lon="5.5595">
        <ele>699.6</ele>
        <time>2022-06-19T06:35:55Z</time>
      </trkpt>
      <trkpt lat="45.76418" lon="5.55956">
        <ele>699.8</ele>
        <time>2022-06-19T06:35:56Z</time>
      </trkpt>
      <trkpt lat="45.76417" lon="5.55962">
        <ele>700</ele>
        <time>2022-06-19T06:35:57Z</time>
      </trkpt>
      <trkpt lat="45.76416" lon="5.55968">
        <ele>700.2</ele>
        <time>2022-06-19T06:35:58Z</time>
      </trkpt>
      <trkpt lat="45.76411" lon="5.55986">
        <ele>701</ele>
        <time>2022-06-19T06:36:01Z</time>
      </trkpt>
      <trkpt lat="45.76408" lon="5.55998">
        <ele>701.6</ele>
        <time>2022-06-19T06:36:03Z</time>
      </trkpt>
      <trkpt lat="45.76403" lon="5.56009">
        <ele>702.6</ele>
        <time>2022-06-19T06:36:05Z</time>
      </trkpt>
      <trkpt lat="45.76401" lon="5.56015">
        <ele>703</ele>
        <time>2022-06-19T06:36:06Z</time>
      </trkpt>
      <trkpt lat="45.764" lon="5.56026">
        <ele>703.8</ele>
        <time>2022-06-19T06:36:08Z</time>
      </trkpt>
      <trkpt lat="45.76399" lon="5.56046">
        <ele>704.4</ele>
        <time>2022-06-19T06:36:11Z</time>
      </trkpt>
      <trkpt lat="45.76397" lon="5.56058">
        <ele>704.6</ele>
        <time>2022-06-19T06:36:13Z</time>
      </trkpt>
      <trkpt lat="45.76397" lon="5.56065">
        <ele>704.8</ele>
        <time>2022-06-19T06:36:14Z</time>
      </trkpt>
      <trkpt lat="45.76396" lon="5.56072">
        <ele>705.2</ele>
        <time>2022-06-19T06:36:15Z</time>
      </trkpt>
      <trkpt lat="45.76391" lon="5.56092">
        <ele>705.8</ele>
        <time>2022-06-19T06:36:18Z</time>
      </trkpt>
      <trkpt lat="45.76389" lon="5.56098">
        <ele>706</ele>
        <time>2022-06-19T06:36:19Z</time>
      </trkpt>
      <trkpt lat="45.76386" lon="5.56103">
        <ele>706.2</ele>
        <time>2022-06-19T06:36:20Z</time>
      </trkpt>
      <trkpt lat="45.76383" lon="5.56108">
        <ele>706.6</ele>
        <time>2022-06-19T06:36:21Z</time>
      </trkpt>
      <trkpt lat="45.7638" lon="5.56111">
        <ele>707</ele>
        <time>2022-06-19T06:36:22Z</time>
      </trkpt>
      <trkpt lat="45.76372" lon="5.56117">
        <ele>707.4</ele>
        <time>2022-06-19T06:36:24Z</time>
      </trkpt>
      <trkpt lat="45.76361" lon="5.56125">
        <ele>708</ele>
        <time>2022-06-19T06:36:27Z</time>
      </trkpt>
      <trkpt lat="45.76358" lon="5.56129">
        <ele>708</ele>
        <time>2022-06-19T06:36:28Z</time>
      </trkpt>
      <trkpt lat="45.76356" lon="5.56133">
        <ele>708.4</ele>
        <time>2022-06-19T06:36:29Z</time>
      </trkpt>
      <trkpt lat="45.76353" lon="5.56136">
        <ele>708.6</ele>
        <time>2022-06-19T06:36:30Z</time>
      </trkpt>
      <trkpt lat="45.76349" lon="5.5614">
        <ele>708.8</ele>
        <time>2022-06-19T06:36:31Z</time>
      </trkpt>
      <trkpt lat="45.76346" lon="5.56144">
        <ele>709.2</ele>
        <time>2022-06-19T06:36:32Z</time>
      </trkpt>
      <trkpt lat="45.7634" lon="5.56149">
        <ele>709.8</ele>
        <time>2022-06-19T06:36:34Z</time>
      </trkpt>
      <trkpt lat="45.76336" lon="5.56154">
        <ele>710.4</ele>
        <time>2022-06-19T06:36:35Z</time>
      </trkpt>
      <trkpt lat="45.76334" lon="5.56158">
        <ele>710.6</ele>
        <time>2022-06-19T06:36:36Z</time>
      </trkpt>
      <trkpt lat="45.76322" lon="5.56169">
        <ele>711</ele>
        <time>2022-06-19T06:36:39Z</time>
      </trkpt>
      <trkpt lat="45.76312" lon="5.5618">
        <ele>711.6</ele>
        <time>2022-06-19T06:36:41Z</time>
      </trkpt>
      <trkpt lat="45.76296" lon="5.56199">
        <ele>712.6</ele>
        <time>2022-06-19T06:36:45Z</time>
      </trkpt>
      <trkpt lat="45.76289" lon="5.5621">
        <ele>713</ele>
        <time>2022-06-19T06:36:47Z</time>
      </trkpt>
      <trkpt lat="45.76271" lon="5.56235">
        <ele>713.8</ele>
        <time>2022-06-19T06:36:52Z</time>
      </trkpt>
      <trkpt lat="45.76259" lon="5.56249">
        <ele>714</ele>
        <time>2022-06-19T06:36:55Z</time>
      </trkpt>
      <trkpt lat="45.7625" lon="5.5626">
        <ele>714.6</ele>
        <time>2022-06-19T06:36:57Z</time>
      </trkpt>
      <trkpt lat="45.76243" lon="5.56269">
        <ele>714.8</ele>
        <time>2022-06-19T06:36:59Z</time>
      </trkpt>
      <trkpt lat="45.76233" lon="5.56276">
        <ele>715</ele>
        <time>2022-06-19T06:37:01Z</time>
      </trkpt>
      <trkpt lat="45.76202" lon="5.56302">
        <ele>715.8</ele>
        <time>2022-06-19T06:37:08Z</time>
      </trkpt>
      <trkpt lat="45.76183" lon="5.56338">
        <ele>716.6</ele>
        <time>2022-06-19T06:37:14Z</time>
      </trkpt>
      <trkpt lat="45.76181" lon="5.56345">
        <ele>716.8</ele>
        <time>2022-06-19T06:37:15Z</time>
      </trkpt>
      <trkpt lat="45.76168" lon="5.56385">
        <ele>717.8</ele>
        <time>2022-06-19T06:37:21Z</time>
      </trkpt>
      <trkpt lat="45.76163" lon="5.56398">
        <ele>718.2</ele>
        <time>2022-06-19T06:37:23Z</time>
      </trkpt>
      <trkpt lat="45.76158" lon="5.56411">
        <ele>718.8</ele>
        <time>2022-06-19T06:37:25Z</time>
      </trkpt>
      <trkpt lat="45.76143" lon="5.56451">
        <ele>720</ele>
        <time>2022-06-19T06:37:31Z</time>
      </trkpt>
      <trkpt lat="45.76135" lon="5.5647">
        <ele>720.2</ele>
        <time>2022-06-19T06:37:34Z</time>
      </trkpt>
      <trkpt lat="45.76132" lon="5.56485">
        <ele>720.4</ele>
        <time>2022-06-19T06:37:36Z</time>
      </trkpt>
      <trkpt lat="45.76122" lon="5.56536">
        <ele>720.4</ele>
        <time>2022-06-19T06:37:42Z</time>
      </trkpt>
      <trkpt lat="45.7612" lon="5.56543">
        <ele>720.4</ele>
        <time>2022-06-19T06:37:43Z</time>
      </trkpt>
      <trkpt lat="45.76112" lon="5.56583">
        <ele>720.8</ele>
        <time>2022-06-19T06:37:48Z</time>
      </trkpt>
      <trkpt lat="45.76102" lon="5.56643">
        <ele>720.4</ele>
        <time>2022-06-19T06:37:55Z</time>
      </trkpt>
      <trkpt lat="45.76095" lon="5.56705">
        <ele>719.8</ele>
        <time>2022-06-19T06:38:02Z</time>
      </trkpt>
      <trkpt lat="45.76083" lon="5.56767">
        <ele>719.4</ele>
        <time>2022-06-19T06:38:09Z</time>
      </trkpt>
      <trkpt lat="45.76079" lon="5.56822">
        <ele>719.4</ele>
        <time>2022-06-19T06:38:15Z</time>
      </trkpt>
      <trkpt lat="45.7608" lon="5.5685">
        <ele>719.6</ele>
        <time>2022-06-19T06:38:18Z</time>
      </trkpt>
      <trkpt lat="45.7608" lon="5.56868">
        <ele>719.6</ele>
        <time>2022-06-19T06:38:20Z</time>
      </trkpt>
      <trkpt lat="45.76079" lon="5.56877">
        <ele>719.6</ele>
        <time>2022-06-19T06:38:21Z</time>
      </trkpt>
      <trkpt lat="45.76077" lon="5.56887">
        <ele>719.6</ele>
        <time>2022-06-19T06:38:22Z</time>
      </trkpt>
      <trkpt lat="45.76073" lon="5.56903">
        <ele>719.4</ele>
        <time>2022-06-19T06:38:24Z</time>
      </trkpt>
      <trkpt lat="45.76069" lon="5.5691">
        <ele>719.6</ele>
        <time>2022-06-19T06:38:25Z</time>
      </trkpt>
      <trkpt lat="45.76054" lon="5.56936">
        <ele>719.6</ele>
        <time>2022-06-19T06:38:29Z</time>
      </trkpt>
      <trkpt lat="45.76046" lon="5.56948">
        <ele>719.8</ele>
        <time>2022-06-19T06:38:31Z</time>
      </trkpt>
      <trkpt lat="45.76022" lon="5.56985">
        <ele>720.6</ele>
        <time>2022-06-19T06:38:37Z</time>
      </trkpt>
      <trkpt lat="45.76016" lon="5.56998">
        <ele>720.8</ele>
        <time>2022-06-19T06:38:39Z</time>
      </trkpt>
      <trkpt lat="45.76012" lon="5.57006">
        <ele>720.8</ele>
        <time>2022-06-19T06:38:40Z</time>
      </trkpt>
      <trkpt lat="45.76" lon="5.57027">
        <ele>721.2</ele>
        <time>2022-06-19T06:38:43Z</time>
      </trkpt>
      <trkpt lat="45.75992" lon="5.5704">
        <ele>721.4</ele>
        <time>2022-06-19T06:38:45Z</time>
      </trkpt>
      <trkpt lat="45.75984" lon="5.57051">
        <ele>721.8</ele>
        <time>2022-06-19T06:38:47Z</time>
      </trkpt>
      <trkpt lat="45.75969" lon="5.57063">
        <ele>722.2</ele>
        <time>2022-06-19T06:38:50Z</time>
      </trkpt>
      <trkpt lat="45.75964" lon="5.57068">
        <ele>722.4</ele>
        <time>2022-06-19T06:38:51Z</time>
      </trkpt>
      <trkpt lat="45.75955" lon="5.57077">
        <ele>722.8</ele>
        <time>2022-06-19T06:38:53Z</time>
      </trkpt>
      <trkpt lat="45.7595" lon="5.57082">
        <ele>722.8</ele>
        <time>2022-06-19T06:38:54Z</time>
      </trkpt>
      <trkpt lat="45.75941" lon="5.57092">
        <ele>723.4</ele>
        <time>2022-06-19T06:38:56Z</time>
      </trkpt>
      <trkpt lat="45.75936" lon="5.57097">
        <ele>723.6</ele>
        <time>2022-06-19T06:38:57Z</time>
      </trkpt>
      <trkpt lat="45.75932" lon="5.57104">
        <ele>723.8</ele>
        <time>2022-06-19T06:38:58Z</time>
      </trkpt>
      <trkpt lat="45.75927" lon="5.57119">
        <ele>724</ele>
        <time>2022-06-19T06:39:00Z</time>
      </trkpt>
      <trkpt lat="45.75926" lon="5.57146">
        <ele>724.2</ele>
        <time>2022-06-19T06:39:03Z</time>
      </trkpt>
      <trkpt lat="45.75927" lon="5.57156">
        <ele>724.4</ele>
        <time>2022-06-19T06:39:04Z</time>
      </trkpt>
      <trkpt lat="45.75929" lon="5.57181">
        <ele>724.6</ele>
        <time>2022-06-19T06:39:07Z</time>
      </trkpt>
      <trkpt lat="45.75934" lon="5.57216">
        <ele>725</ele>
        <time>2022-06-19T06:39:11Z</time>
      </trkpt>
      <trkpt lat="45.75937" lon="5.5725">
        <ele>725.6</ele>
        <time>2022-06-19T06:39:15Z</time>
      </trkpt>
      <trkpt lat="45.75937" lon="5.57259">
        <ele>725.6</ele>
        <time>2022-06-19T06:39:16Z</time>
      </trkpt>
      <trkpt lat="45.75935" lon="5.57268">
        <ele>725.8</ele>
        <time>2022-06-19T06:39:17Z</time>
      </trkpt>
      <trkpt lat="45.7592" lon="5.57296">
        <ele>725.8</ele>
        <time>2022-06-19T06:39:21Z</time>
      </trkpt>
      <trkpt lat="45.75892" lon="5.57334">
        <ele>726</ele>
        <time>2022-06-19T06:39:27Z</time>
      </trkpt>
      <trkpt lat="45.75868" lon="5.5737">
        <ele>725.8</ele>
        <time>2022-06-19T06:39:32Z</time>
      </trkpt>
      <trkpt lat="45.75853" lon="5.5739">
        <ele>725.6</ele>
        <time>2022-06-19T06:39:35Z</time>
      </trkpt>
      <trkpt lat="45.75821" lon="5.5743">
        <ele>724.4</ele>
        <time>2022-06-19T06:39:40Z</time>
      </trkpt>
      <trkpt lat="45.75796" lon="5.57467">
        <ele>723.4</ele>
        <time>2022-06-19T06:39:44Z</time>
      </trkpt>
      <trkpt lat="45.75789" lon="5.57474">
        <ele>723.2</ele>
        <time>2022-06-19T06:39:45Z</time>
      </trkpt>
      <trkpt lat="45.75781" lon="5.5748">
        <ele>723.2</ele>
        <time>2022-06-19T06:39:46Z</time>
      </trkpt>
      <trkpt lat="45.75765" lon="5.57494">
        <ele>722.4</ele>
        <time>2022-06-19T06:39:48Z</time>
      </trkpt>
      <trkpt lat="45.75759" lon="5.57506">
        <ele>721.2</ele>
        <time>2022-06-19T06:39:49Z</time>
      </trkpt>
      <trkpt lat="45.75755" lon="5.5752">
        <ele>721</ele>
        <time>2022-06-19T06:39:50Z</time>
      </trkpt>
      <trkpt lat="45.75751" lon="5.57533">
        <ele>720.4</ele>
        <time>2022-06-19T06:39:51Z</time>
      </trkpt>
      <trkpt lat="45.75749" lon="5.57548">
        <ele>720</ele>
        <time>2022-06-19T06:39:52Z</time>
      </trkpt>
      <trkpt lat="45.75745" lon="5.57579">
        <ele>718.4</ele>
        <time>2022-06-19T06:39:54Z</time>
      </trkpt>
      <trkpt lat="45.75743" lon="5.57593">
        <ele>717.8</ele>
        <time>2022-06-19T06:39:55Z</time>
      </trkpt>
      <trkpt lat="45.75741" lon="5.57607">
        <ele>717.4</ele>
        <time>2022-06-19T06:39:56Z</time>
      </trkpt>
      <trkpt lat="45.75739" lon="5.5762">
        <ele>717</ele>
        <time>2022-06-19T06:39:57Z</time>
      </trkpt>
      <trkpt lat="45.75732" lon="5.57631">
        <ele>716.4</ele>
        <time>2022-06-19T06:39:58Z</time>
      </trkpt>
      <trkpt lat="45.75708" lon="5.57647">
        <ele>715.4</ele>
        <time>2022-06-19T06:40:00Z</time>
      </trkpt>
      <trkpt lat="45.75695" lon="5.57656">
        <ele>714.8</ele>
        <time>2022-06-19T06:40:01Z</time>
      </trkpt>
      <trkpt lat="45.75683" lon="5.57668">
        <ele>714</ele>
        <time>2022-06-19T06:40:02Z</time>
      </trkpt>
      <trkpt lat="45.75673" lon="5.57682">
        <ele>713</ele>
        <time>2022-06-19T06:40:03Z</time>
      </trkpt>
      <trkpt lat="45.75665" lon="5.57697">
        <ele>712.8</ele>
        <time>2022-06-19T06:40:04Z</time>
      </trkpt>
      <trkpt lat="45.75657" lon="5.57709">
        <ele>712</ele>
        <time>2022-06-19T06:40:05Z</time>
      </trkpt>
      <trkpt lat="45.7564" lon="5.57732">
        <ele>711</ele>
        <time>2022-06-19T06:40:07Z</time>
      </trkpt>
      <trkpt lat="45.75618" lon="5.57748">
        <ele>709.6</ele>
        <time>2022-06-19T06:40:09Z</time>
      </trkpt>
      <trkpt lat="45.75596" lon="5.57765">
        <ele>708.6</ele>
        <time>2022-06-19T06:40:11Z</time>
      </trkpt>
      <trkpt lat="45.75585" lon="5.57775">
        <ele>707.8</ele>
        <time>2022-06-19T06:40:12Z</time>
      </trkpt>
      <trkpt lat="45.75574" lon="5.57785">
        <ele>707.4</ele>
        <time>2022-06-19T06:40:13Z</time>
      </trkpt>
      <trkpt lat="45.75553" lon="5.57807">
        <ele>706</ele>
        <time>2022-06-19T06:40:15Z</time>
      </trkpt>
      <trkpt lat="45.75543" lon="5.57817">
        <ele>705.4</ele>
        <time>2022-06-19T06:40:16Z</time>
      </trkpt>
      <trkpt lat="45.75532" lon="5.57828">
        <ele>704.2</ele>
        <time>2022-06-19T06:40:17Z</time>
      </trkpt>
      <trkpt lat="45.75512" lon="5.5785">
        <ele>702.6</ele>
        <time>2022-06-19T06:40:19Z</time>
      </trkpt>
      <trkpt lat="45.75505" lon="5.57864">
        <ele>702.2</ele>
        <time>2022-06-19T06:40:20Z</time>
      </trkpt>
      <trkpt lat="45.75501" lon="5.57881">
        <ele>700.8</ele>
        <time>2022-06-19T06:40:21Z</time>
      </trkpt>
      <trkpt lat="45.75502" lon="5.57898">
        <ele>700.2</ele>
        <time>2022-06-19T06:40:22Z</time>
      </trkpt>
      <trkpt lat="45.75503" lon="5.57915">
        <ele>699</ele>
        <time>2022-06-19T06:40:23Z</time>
      </trkpt>
      <trkpt lat="45.75503" lon="5.57933">
        <ele>698</ele>
        <time>2022-06-19T06:40:24Z</time>
      </trkpt>
      <trkpt lat="45.755" lon="5.57951">
        <ele>697.6</ele>
        <time>2022-06-19T06:40:25Z</time>
      </trkpt>
      <trkpt lat="45.75494" lon="5.57962">
        <ele>696.4</ele>
        <time>2022-06-19T06:40:26Z</time>
      </trkpt>
      <trkpt lat="45.75486" lon="5.57972">
        <ele>696</ele>
        <time>2022-06-19T06:40:27Z</time>
      </trkpt>
      <trkpt lat="45.75477" lon="5.5798">
        <ele>695.2</ele>
        <time>2022-06-19T06:40:28Z</time>
      </trkpt>
      <trkpt lat="45.7545" lon="5.58003">
        <ele>693.8</ele>
        <time>2022-06-19T06:40:31Z</time>
      </trkpt>
      <trkpt lat="45.75436" lon="5.58024">
        <ele>693.2</ele>
        <time>2022-06-19T06:40:33Z</time>
      </trkpt>
      <trkpt lat="45.75432" lon="5.58036">
        <ele>693.2</ele>
        <time>2022-06-19T06:40:34Z</time>
      </trkpt>
      <trkpt lat="45.75429" lon="5.58049">
        <ele>693.2</ele>
        <time>2022-06-19T06:40:35Z</time>
      </trkpt>
      <trkpt lat="45.75427" lon="5.58073">
        <ele>693</ele>
        <time>2022-06-19T06:40:37Z</time>
      </trkpt>
      <trkpt lat="45.7543" lon="5.58098">
        <ele>693</ele>
        <time>2022-06-19T06:40:39Z</time>
      </trkpt>
      <trkpt lat="45.75434" lon="5.58122">
        <ele>693.4</ele>
        <time>2022-06-19T06:40:41Z</time>
      </trkpt>
      <trkpt lat="45.75433" lon="5.58145">
        <ele>693.8</ele>
        <time>2022-06-19T06:40:43Z</time>
      </trkpt>
      <trkpt lat="45.75429" lon="5.58166">
        <ele>694.4</ele>
        <time>2022-06-19T06:40:45Z</time>
      </trkpt>
      <trkpt lat="45.75425" lon="5.58176">
        <ele>694.8</ele>
        <time>2022-06-19T06:40:46Z</time>
      </trkpt>
      <trkpt lat="45.75418" lon="5.58196">
        <ele>695.8</ele>
        <time>2022-06-19T06:40:48Z</time>
      </trkpt>
      <trkpt lat="45.75414" lon="5.58218">
        <ele>696.6</ele>
        <time>2022-06-19T06:40:50Z</time>
      </trkpt>
      <trkpt lat="45.75415" lon="5.58229">
        <ele>696.8</ele>
        <time>2022-06-19T06:40:51Z</time>
      </trkpt>
      <trkpt lat="45.75417" lon="5.5824">
        <ele>697</ele>
        <time>2022-06-19T06:40:52Z</time>
      </trkpt>
      <trkpt lat="45.75419" lon="5.58252">
        <ele>697</ele>
        <time>2022-06-19T06:40:53Z</time>
      </trkpt>
      <trkpt lat="45.75436" lon="5.58299">
        <ele>697</ele>
        <time>2022-06-19T06:40:57Z</time>
      </trkpt>
      <trkpt lat="45.75438" lon="5.58311">
        <ele>696.8</ele>
        <time>2022-06-19T06:40:58Z</time>
      </trkpt>
      <trkpt lat="45.7544" lon="5.58338">
        <ele>696</ele>
        <time>2022-06-19T06:41:00Z</time>
      </trkpt>
      <trkpt lat="45.75439" lon="5.58351">
        <ele>695.4</ele>
        <time>2022-06-19T06:41:01Z</time>
      </trkpt>
      <trkpt lat="45.75438" lon="5.58365">
        <ele>695.2</ele>
        <time>2022-06-19T06:41:02Z</time>
      </trkpt>
      <trkpt lat="45.75434" lon="5.58392">
        <ele>694.6</ele>
        <time>2022-06-19T06:41:04Z</time>
      </trkpt>
      <trkpt lat="45.7543" lon="5.58405">
        <ele>694.2</ele>
        <time>2022-06-19T06:41:05Z</time>
      </trkpt>
      <trkpt lat="45.75426" lon="5.58417">
        <ele>693.6</ele>
        <time>2022-06-19T06:41:06Z</time>
      </trkpt>
      <trkpt lat="45.75415" lon="5.58439">
        <ele>693</ele>
        <time>2022-06-19T06:41:08Z</time>
      </trkpt>
      <trkpt lat="45.75398" lon="5.58469">
        <ele>692.2</ele>
        <time>2022-06-19T06:41:11Z</time>
      </trkpt>
      <trkpt lat="45.75362" lon="5.58509">
        <ele>691.8</ele>
        <time>2022-06-19T06:41:16Z</time>
      </trkpt>
      <trkpt lat="45.75335" lon="5.58535">
        <ele>691.6</ele>
        <time>2022-06-19T06:41:20Z</time>
      </trkpt>
      <trkpt lat="45.75327" lon="5.58545">
        <ele>691.6</ele>
        <time>2022-06-19T06:41:21Z</time>
      </trkpt>
      <trkpt lat="45.75322" lon="5.58554">
        <ele>691.6</ele>
        <time>2022-06-19T06:41:22Z</time>
      </trkpt>
      <trkpt lat="45.75316" lon="5.5858">
        <ele>691.6</ele>
        <time>2022-06-19T06:41:24Z</time>
      </trkpt>
      <trkpt lat="45.75311" lon="5.58624">
        <ele>691.4</ele>
        <time>2022-06-19T06:41:27Z</time>
      </trkpt>
      <trkpt lat="45.75306" lon="5.58636">
        <ele>691.2</ele>
        <time>2022-06-19T06:41:28Z</time>
      </trkpt>
      <trkpt lat="45.7529" lon="5.58661">
        <ele>691</ele>
        <time>2022-06-19T06:41:30Z</time>
      </trkpt>
      <trkpt lat="45.75283" lon="5.5867">
        <ele>690.8</ele>
        <time>2022-06-19T06:41:31Z</time>
      </trkpt>
      <trkpt lat="45.75275" lon="5.58681">
        <ele>690.6</ele>
        <time>2022-06-19T06:41:32Z</time>
      </trkpt>
      <trkpt lat="45.75259" lon="5.58704">
        <ele>689.2</ele>
        <time>2022-06-19T06:41:34Z</time>
      </trkpt>
      <trkpt lat="45.75254" lon="5.58717">
        <ele>688.8</ele>
        <time>2022-06-19T06:41:35Z</time>
      </trkpt>
      <trkpt lat="45.75238" lon="5.58747">
        <ele>688.2</ele>
        <time>2022-06-19T06:41:37Z</time>
      </trkpt>
      <trkpt lat="45.75229" lon="5.58758">
        <ele>687.2</ele>
        <time>2022-06-19T06:41:38Z</time>
      </trkpt>
      <trkpt lat="45.75221" lon="5.58771">
        <ele>686.8</ele>
        <time>2022-06-19T06:41:39Z</time>
      </trkpt>
      <trkpt lat="45.75213" lon="5.58783">
        <ele>685.8</ele>
        <time>2022-06-19T06:41:40Z</time>
      </trkpt>
      <trkpt lat="45.75205" lon="5.58796">
        <ele>684.8</ele>
        <time>2022-06-19T06:41:41Z</time>
      </trkpt>
      <trkpt lat="45.75187" lon="5.5882">
        <ele>683.4</ele>
        <time>2022-06-19T06:41:43Z</time>
      </trkpt>
      <trkpt lat="45.7518" lon="5.5883">
        <ele>683</ele>
        <time>2022-06-19T06:41:44Z</time>
      </trkpt>
      <trkpt lat="45.7517" lon="5.58845">
        <ele>682</ele>
        <time>2022-06-19T06:41:45Z</time>
      </trkpt>
      <trkpt lat="45.75153" lon="5.58868">
        <ele>681</ele>
        <time>2022-06-19T06:41:47Z</time>
      </trkpt>
      <trkpt lat="45.75137" lon="5.58891">
        <ele>680</ele>
        <time>2022-06-19T06:41:49Z</time>
      </trkpt>
      <trkpt lat="45.75128" lon="5.58909">
        <ele>678.4</ele>
        <time>2022-06-19T06:41:50Z</time>
      </trkpt>
      <trkpt lat="45.75117" lon="5.58942">
        <ele>676.8</ele>
        <time>2022-06-19T06:41:52Z</time>
      </trkpt>
      <trkpt lat="45.75107" lon="5.5897">
        <ele>675.4</ele>
        <time>2022-06-19T06:41:54Z</time>
      </trkpt>
      <trkpt lat="45.75102" lon="5.5898">
        <ele>674.8</ele>
        <time>2022-06-19T06:41:55Z</time>
      </trkpt>
      <trkpt lat="45.75087" lon="5.59004">
        <ele>673.6</ele>
        <time>2022-06-19T06:41:57Z</time>
      </trkpt>
      <trkpt lat="45.75073" lon="5.59012">
        <ele>672.6</ele>
        <time>2022-06-19T06:41:59Z</time>
      </trkpt>
      <trkpt lat="45.75064" lon="5.59018">
        <ele>672.4</ele>
        <time>2022-06-19T06:42:00Z</time>
      </trkpt>
      <trkpt lat="45.75055" lon="5.59026">
        <ele>672.4</ele>
        <time>2022-06-19T06:42:01Z</time>
      </trkpt>
      <trkpt lat="45.75035" lon="5.5905">
        <ele>671.6</ele>
        <time>2022-06-19T06:42:04Z</time>
      </trkpt>
      <trkpt lat="45.75006" lon="5.59081">
        <ele>670.8</ele>
        <time>2022-06-19T06:42:07Z</time>
      </trkpt>
      <trkpt lat="45.75" lon="5.59091">
        <ele>670.4</ele>
        <time>2022-06-19T06:42:08Z</time>
      </trkpt>
      <trkpt lat="45.74993" lon="5.59104">
        <ele>670</ele>
        <time>2022-06-19T06:42:09Z</time>
      </trkpt>
      <trkpt lat="45.74979" lon="5.59127">
        <ele>669</ele>
        <time>2022-06-19T06:42:11Z</time>
      </trkpt>
      <trkpt lat="45.7496" lon="5.59142">
        <ele>667.6</ele>
        <time>2022-06-19T06:42:13Z</time>
      </trkpt>
      <trkpt lat="45.74949" lon="5.59145">
        <ele>667.2</ele>
        <time>2022-06-19T06:42:14Z</time>
      </trkpt>
      <trkpt lat="45.74938" lon="5.59144">
        <ele>666.4</ele>
        <time>2022-06-19T06:42:15Z</time>
      </trkpt>
      <trkpt lat="45.74927" lon="5.59139">
        <ele>665.2</ele>
        <time>2022-06-19T06:42:16Z</time>
      </trkpt>
      <trkpt lat="45.74905" lon="5.59128">
        <ele>663.8</ele>
        <time>2022-06-19T06:42:18Z</time>
      </trkpt>
      <trkpt lat="45.74893" lon="5.59128">
        <ele>663.4</ele>
        <time>2022-06-19T06:42:19Z</time>
      </trkpt>
      <trkpt lat="45.74881" lon="5.5913">
        <ele>662.2</ele>
        <time>2022-06-19T06:42:20Z</time>
      </trkpt>
      <trkpt lat="45.74867" lon="5.59134">
        <ele>661.8</ele>
        <time>2022-06-19T06:42:21Z</time>
      </trkpt>
      <trkpt lat="45.74858" lon="5.59137">
        <ele>661</ele>
        <time>2022-06-19T06:42:22Z</time>
      </trkpt>
      <trkpt lat="45.74846" lon="5.59141">
        <ele>660.2</ele>
        <time>2022-06-19T06:42:23Z</time>
      </trkpt>
      <trkpt lat="45.74824" lon="5.59151">
        <ele>659.6</ele>
        <time>2022-06-19T06:42:25Z</time>
      </trkpt>
      <trkpt lat="45.74801" lon="5.59162">
        <ele>658.2</ele>
        <time>2022-06-19T06:42:27Z</time>
      </trkpt>
      <trkpt lat="45.74779" lon="5.59174">
        <ele>656.8</ele>
        <time>2022-06-19T06:42:29Z</time>
      </trkpt>
      <trkpt lat="45.74768" lon="5.59181">
        <ele>655.4</ele>
        <time>2022-06-19T06:42:30Z</time>
      </trkpt>
      <trkpt lat="45.74747" lon="5.59198">
        <ele>654.4</ele>
        <time>2022-06-19T06:42:32Z</time>
      </trkpt>
      <trkpt lat="45.74734" lon="5.5921">
        <ele>654.2</ele>
        <time>2022-06-19T06:42:33Z</time>
      </trkpt>
      <trkpt lat="45.74726" lon="5.59218">
        <ele>653</ele>
        <time>2022-06-19T06:42:34Z</time>
      </trkpt>
      <trkpt lat="45.74702" lon="5.5924">
        <ele>651</ele>
        <time>2022-06-19T06:42:36Z</time>
      </trkpt>
      <trkpt lat="45.74681" lon="5.59257">
        <ele>649.6</ele>
        <time>2022-06-19T06:42:38Z</time>
      </trkpt>
      <trkpt lat="45.74672" lon="5.59263">
        <ele>648.6</ele>
        <time>2022-06-19T06:42:39Z</time>
      </trkpt>
      <trkpt lat="45.74661" lon="5.5927">
        <ele>648.2</ele>
        <time>2022-06-19T06:42:40Z</time>
      </trkpt>
      <trkpt lat="45.74636" lon="5.59284">
        <ele>647.2</ele>
        <time>2022-06-19T06:42:42Z</time>
      </trkpt>
      <trkpt lat="45.74626" lon="5.5929">
        <ele>646.2</ele>
        <time>2022-06-19T06:42:43Z</time>
      </trkpt>
      <trkpt lat="45.74619" lon="5.59293">
        <ele>646</ele>
        <time>2022-06-19T06:42:44Z</time>
      </trkpt>
      <trkpt lat="45.7461" lon="5.59298">
        <ele>645</ele>
        <time>2022-06-19T06:42:45Z</time>
      </trkpt>
      <trkpt lat="45.74603" lon="5.59308">
        <ele>644</ele>
        <time>2022-06-19T06:42:46Z</time>
      </trkpt>
      <trkpt lat="45.74602" lon="5.59318">
        <ele>643.6</ele>
        <time>2022-06-19T06:42:47Z</time>
      </trkpt>
      <trkpt lat="45.74605" lon="5.59325">
        <ele>642.2</ele>
        <time>2022-06-19T06:42:48Z</time>
      </trkpt>
      <trkpt lat="45.74615" lon="5.59332">
        <ele>640.4</ele>
        <time>2022-06-19T06:42:50Z</time>
      </trkpt>
      <trkpt lat="45.74621" lon="5.5933">
        <ele>639.6</ele>
        <time>2022-06-19T06:42:51Z</time>
      </trkpt>
      <trkpt lat="45.74629" lon="5.59328">
        <ele>638.6</ele>
        <time>2022-06-19T06:42:52Z</time>
      </trkpt>
      <trkpt lat="45.74649" lon="5.59325">
        <ele>637.4</ele>
        <time>2022-06-19T06:42:54Z</time>
      </trkpt>
      <trkpt lat="45.74675" lon="5.59328">
        <ele>635.8</ele>
        <time>2022-06-19T06:42:57Z</time>
      </trkpt>
      <trkpt lat="45.74687" lon="5.59332">
        <ele>635.4</ele>
        <time>2022-06-19T06:42:58Z</time>
      </trkpt>
      <trkpt lat="45.74696" lon="5.59336">
        <ele>635.2</ele>
        <time>2022-06-19T06:42:59Z</time>
      </trkpt>
      <trkpt lat="45.74705" lon="5.59342">
        <ele>634.4</ele>
        <time>2022-06-19T06:43:00Z</time>
      </trkpt>
      <trkpt lat="45.74724" lon="5.59352">
        <ele>633.6</ele>
        <time>2022-06-19T06:43:02Z</time>
      </trkpt>
      <trkpt lat="45.74735" lon="5.59354">
        <ele>633.4</ele>
        <time>2022-06-19T06:43:03Z</time>
      </trkpt>
      <trkpt lat="45.74743" lon="5.59352">
        <ele>632.6</ele>
        <time>2022-06-19T06:43:04Z</time>
      </trkpt>
      <trkpt lat="45.74754" lon="5.59349">
        <ele>632.2</ele>
        <time>2022-06-19T06:43:05Z</time>
      </trkpt>
      <trkpt lat="45.74777" lon="5.59342">
        <ele>631</ele>
        <time>2022-06-19T06:43:07Z</time>
      </trkpt>
      <trkpt lat="45.74788" lon="5.59337">
        <ele>630.6</ele>
        <time>2022-06-19T06:43:08Z</time>
      </trkpt>
      <trkpt lat="45.74799" lon="5.59331">
        <ele>630</ele>
        <time>2022-06-19T06:43:09Z</time>
      </trkpt>
      <trkpt lat="45.74807" lon="5.59324">
        <ele>629.6</ele>
        <time>2022-06-19T06:43:10Z</time>
      </trkpt>
      <trkpt lat="45.74816" lon="5.59316">
        <ele>629</ele>
        <time>2022-06-19T06:43:11Z</time>
      </trkpt>
      <trkpt lat="45.74834" lon="5.59302">
        <ele>628.2</ele>
        <time>2022-06-19T06:43:13Z</time>
      </trkpt>
      <trkpt lat="45.74844" lon="5.59299">
        <ele>627</ele>
        <time>2022-06-19T06:43:14Z</time>
      </trkpt>
      <trkpt lat="45.74854" lon="5.59297">
        <ele>626.6</ele>
        <time>2022-06-19T06:43:15Z</time>
      </trkpt>
      <trkpt lat="45.74862" lon="5.59301">
        <ele>625.8</ele>
        <time>2022-06-19T06:43:16Z</time>
      </trkpt>
      <trkpt lat="45.74867" lon="5.59309">
        <ele>625.4</ele>
        <time>2022-06-19T06:43:17Z</time>
      </trkpt>
      <trkpt lat="45.74869" lon="5.59322">
        <ele>624.4</ele>
        <time>2022-06-19T06:43:18Z</time>
      </trkpt>
      <trkpt lat="45.74866" lon="5.59333">
        <ele>623.8</ele>
        <time>2022-06-19T06:43:19Z</time>
      </trkpt>
      <trkpt lat="45.7486" lon="5.59341">
        <ele>622.8</ele>
        <time>2022-06-19T06:43:20Z</time>
      </trkpt>
      <trkpt lat="45.74852" lon="5.59349">
        <ele>622</ele>
        <time>2022-06-19T06:43:21Z</time>
      </trkpt>
      <trkpt lat="45.7484" lon="5.59358">
        <ele>621.6</ele>
        <time>2022-06-19T06:43:22Z</time>
      </trkpt>
      <trkpt lat="45.74817" lon="5.59374">
        <ele>620.4</ele>
        <time>2022-06-19T06:43:24Z</time>
      </trkpt>
      <trkpt lat="45.74808" lon="5.5938">
        <ele>619.4</ele>
        <time>2022-06-19T06:43:25Z</time>
      </trkpt>
      <trkpt lat="45.74798" lon="5.59387">
        <ele>618.8</ele>
        <time>2022-06-19T06:43:26Z</time>
      </trkpt>
      <trkpt lat="45.74774" lon="5.59401">
        <ele>617.2</ele>
        <time>2022-06-19T06:43:28Z</time>
      </trkpt>
      <trkpt lat="45.74754" lon="5.59411">
        <ele>616</ele>
        <time>2022-06-19T06:43:30Z</time>
      </trkpt>
      <trkpt lat="45.74729" lon="5.59421">
        <ele>614.2</ele>
        <time>2022-06-19T06:43:32Z</time>
      </trkpt>
      <trkpt lat="45.74707" lon="5.59427">
        <ele>613.2</ele>
        <time>2022-06-19T06:43:34Z</time>
      </trkpt>
      <trkpt lat="45.74668" lon="5.59438">
        <ele>611.4</ele>
        <time>2022-06-19T06:43:37Z</time>
      </trkpt>
      <trkpt lat="45.74643" lon="5.59447">
        <ele>610</ele>
        <time>2022-06-19T06:43:39Z</time>
      </trkpt>
      <trkpt lat="45.74631" lon="5.5945">
        <ele>609.6</ele>
        <time>2022-06-19T06:43:40Z</time>
      </trkpt>
      <trkpt lat="45.74618" lon="5.59452">
        <ele>608.4</ele>
        <time>2022-06-19T06:43:41Z</time>
      </trkpt>
      <trkpt lat="45.74592" lon="5.59453">
        <ele>606.8</ele>
        <time>2022-06-19T06:43:43Z</time>
      </trkpt>
      <trkpt lat="45.74579" lon="5.59453">
        <ele>605.4</ele>
        <time>2022-06-19T06:43:44Z</time>
      </trkpt>
      <trkpt lat="45.74553" lon="5.59455">
        <ele>603.8</ele>
        <time>2022-06-19T06:43:46Z</time>
      </trkpt>
      <trkpt lat="45.74528" lon="5.59456">
        <ele>602.6</ele>
        <time>2022-06-19T06:43:48Z</time>
      </trkpt>
      <trkpt lat="45.74492" lon="5.59454">
        <ele>600.6</ele>
        <time>2022-06-19T06:43:51Z</time>
      </trkpt>
      <trkpt lat="45.74476" lon="5.59454">
        <ele>600</ele>
        <time>2022-06-19T06:43:52Z</time>
      </trkpt>
      <trkpt lat="45.74465" lon="5.59455">
        <ele>598.6</ele>
        <time>2022-06-19T06:43:53Z</time>
      </trkpt>
      <trkpt lat="45.74439" lon="5.59458">
        <ele>596.6</ele>
        <time>2022-06-19T06:43:55Z</time>
      </trkpt>
      <trkpt lat="45.74426" lon="5.59461">
        <ele>595.6</ele>
        <time>2022-06-19T06:43:56Z</time>
      </trkpt>
      <trkpt lat="45.74398" lon="5.59467">
        <ele>593.8</ele>
        <time>2022-06-19T06:43:58Z</time>
      </trkpt>
      <trkpt lat="45.74372" lon="5.59475">
        <ele>592.6</ele>
        <time>2022-06-19T06:44:00Z</time>
      </trkpt>
      <trkpt lat="45.74346" lon="5.59485">
        <ele>590.8</ele>
        <time>2022-06-19T06:44:02Z</time>
      </trkpt>
      <trkpt lat="45.74333" lon="5.5949">
        <ele>589.6</ele>
        <time>2022-06-19T06:44:03Z</time>
      </trkpt>
      <trkpt lat="45.74308" lon="5.595">
        <ele>588</ele>
        <time>2022-06-19T06:44:05Z</time>
      </trkpt>
      <trkpt lat="45.74285" lon="5.59508">
        <ele>587</ele>
        <time>2022-06-19T06:44:07Z</time>
      </trkpt>
      <trkpt lat="45.74275" lon="5.59513">
        <ele>585.8</ele>
        <time>2022-06-19T06:44:08Z</time>
      </trkpt>
      <trkpt lat="45.74267" lon="5.59517">
        <ele>584.6</ele>
        <time>2022-06-19T06:44:09Z</time>
      </trkpt>
      <trkpt lat="45.7426" lon="5.59521">
        <ele>583</ele>
        <time>2022-06-19T06:44:10Z</time>
      </trkpt>
      <trkpt lat="45.74255" lon="5.59526">
        <ele>581.8</ele>
        <time>2022-06-19T06:44:11Z</time>
      </trkpt>
      <trkpt lat="45.74253" lon="5.59531">
        <ele>580.4</ele>
        <time>2022-06-19T06:44:12Z</time>
      </trkpt>
      <trkpt lat="45.74254" lon="5.59536">
        <ele>579.8</ele>
        <time>2022-06-19T06:44:13Z</time>
      </trkpt>
      <trkpt lat="45.74257" lon="5.59539">
        <ele>578.6</ele>
        <time>2022-06-19T06:44:14Z</time>
      </trkpt>
      <trkpt lat="45.74261" lon="5.59539">
        <ele>578</ele>
        <time>2022-06-19T06:44:15Z</time>
      </trkpt>
      <trkpt lat="45.74264" lon="5.59538">
        <ele>576.8</ele>
        <time>2022-06-19T06:44:16Z</time>
      </trkpt>
      <trkpt lat="45.74278" lon="5.5953">
        <ele>575.6</ele>
        <time>2022-06-19T06:44:19Z</time>
      </trkpt>
      <trkpt lat="45.74291" lon="5.59525">
        <ele>574.2</ele>
        <time>2022-06-19T06:44:21Z</time>
      </trkpt>
      <trkpt lat="45.74308" lon="5.5952">
        <ele>573.8</ele>
        <time>2022-06-19T06:44:23Z</time>
      </trkpt>
      <trkpt lat="45.74326" lon="5.59518">
        <ele>573</ele>
        <time>2022-06-19T06:44:25Z</time>
      </trkpt>
      <trkpt lat="45.74346" lon="5.59519">
        <ele>572.2</ele>
        <time>2022-06-19T06:44:27Z</time>
      </trkpt>
      <trkpt lat="45.74357" lon="5.5952">
        <ele>571.6</ele>
        <time>2022-06-19T06:44:28Z</time>
      </trkpt>
      <trkpt lat="45.74397" lon="5.59526">
        <ele>570.6</ele>
        <time>2022-06-19T06:44:32Z</time>
      </trkpt>
      <trkpt lat="45.7442" lon="5.59528">
        <ele>569.6</ele>
        <time>2022-06-19T06:44:34Z</time>
      </trkpt>
      <trkpt lat="45.74432" lon="5.5953">
        <ele>568.4</ele>
        <time>2022-06-19T06:44:35Z</time>
      </trkpt>
      <trkpt lat="45.74454" lon="5.59534">
        <ele>567.4</ele>
        <time>2022-06-19T06:44:37Z</time>
      </trkpt>
      <trkpt lat="45.7449" lon="5.59539">
        <ele>565.4</ele>
        <time>2022-06-19T06:44:40Z</time>
      </trkpt>
      <trkpt lat="45.74514" lon="5.5954">
        <ele>564.2</ele>
        <time>2022-06-19T06:44:42Z</time>
      </trkpt>
      <trkpt lat="45.74527" lon="5.5954">
        <ele>563.8</ele>
        <time>2022-06-19T06:44:43Z</time>
      </trkpt>
      <trkpt lat="45.74552" lon="5.59539">
        <ele>563</ele>
        <time>2022-06-19T06:44:45Z</time>
      </trkpt>
      <trkpt lat="45.74564" lon="5.59539">
        <ele>562.4</ele>
        <time>2022-06-19T06:44:46Z</time>
      </trkpt>
      <trkpt lat="45.74577" lon="5.59538">
        <ele>561.6</ele>
        <time>2022-06-19T06:44:47Z</time>
      </trkpt>
      <trkpt lat="45.74604" lon="5.59539">
        <ele>559.8</ele>
        <time>2022-06-19T06:44:49Z</time>
      </trkpt>
      <trkpt lat="45.74617" lon="5.59541">
        <ele>559</ele>
        <time>2022-06-19T06:44:50Z</time>
      </trkpt>
      <trkpt lat="45.7463" lon="5.59542">
        <ele>558</ele>
        <time>2022-06-19T06:44:51Z</time>
      </trkpt>
      <trkpt lat="45.74656" lon="5.59544">
        <ele>555.6</ele>
        <time>2022-06-19T06:44:53Z</time>
      </trkpt>
      <trkpt lat="45.7467" lon="5.59545">
        <ele>554.4</ele>
        <time>2022-06-19T06:44:54Z</time>
      </trkpt>
      <trkpt lat="45.74697" lon="5.59543">
        <ele>552</ele>
        <time>2022-06-19T06:44:56Z</time>
      </trkpt>
      <trkpt lat="45.74724" lon="5.59542">
        <ele>550.2</ele>
        <time>2022-06-19T06:44:58Z</time>
      </trkpt>
      <trkpt lat="45.74738" lon="5.59542">
        <ele>549.8</ele>
        <time>2022-06-19T06:44:59Z</time>
      </trkpt>
      <trkpt lat="45.74751" lon="5.59542">
        <ele>548.8</ele>
        <time>2022-06-19T06:45:00Z</time>
      </trkpt>
      <trkpt lat="45.74765" lon="5.59541">
        <ele>547.6</ele>
        <time>2022-06-19T06:45:01Z</time>
      </trkpt>
      <trkpt lat="45.74778" lon="5.5954">
        <ele>547.4</ele>
        <time>2022-06-19T06:45:02Z</time>
      </trkpt>
      <trkpt lat="45.74792" lon="5.59538">
        <ele>545.2</ele>
        <time>2022-06-19T06:45:03Z</time>
      </trkpt>
      <trkpt lat="45.74819" lon="5.59533">
        <ele>543.2</ele>
        <time>2022-06-19T06:45:05Z</time>
      </trkpt>
      <trkpt lat="45.74845" lon="5.59528">
        <ele>541.2</ele>
        <time>2022-06-19T06:45:07Z</time>
      </trkpt>
      <trkpt lat="45.74872" lon="5.59526">
        <ele>540</ele>
        <time>2022-06-19T06:45:09Z</time>
      </trkpt>
      <trkpt lat="45.74899" lon="5.59527">
        <ele>539.2</ele>
        <time>2022-06-19T06:45:11Z</time>
      </trkpt>
      <trkpt lat="45.74913" lon="5.59529">
        <ele>537.6</ele>
        <time>2022-06-19T06:45:12Z</time>
      </trkpt>
      <trkpt lat="45.7494" lon="5.59535">
        <ele>535.6</ele>
        <time>2022-06-19T06:45:14Z</time>
      </trkpt>
      <trkpt lat="45.74954" lon="5.59537">
        <ele>534</ele>
        <time>2022-06-19T06:45:15Z</time>
      </trkpt>
      <trkpt lat="45.74967" lon="5.59539">
        <ele>533.2</ele>
        <time>2022-06-19T06:45:16Z</time>
      </trkpt>
      <trkpt lat="45.74981" lon="5.5954">
        <ele>531.8</ele>
        <time>2022-06-19T06:45:17Z</time>
      </trkpt>
      <trkpt lat="45.75023" lon="5.59541">
        <ele>530.6</ele>
        <time>2022-06-19T06:45:19Z</time>
      </trkpt>
      <trkpt lat="45.7505" lon="5.59542">
        <ele>529.4</ele>
        <time>2022-06-19T06:45:21Z</time>
      </trkpt>
      <trkpt lat="45.7505" lon="5.59542">
        <ele>527.4</ele>
        <time>2022-06-19T06:45:22Z</time>
      </trkpt>
      <trkpt lat="45.75093" lon="5.59542">
        <ele>525.4</ele>
        <time>2022-06-19T06:45:24Z</time>
      </trkpt>
      <trkpt lat="45.75121" lon="5.59542">
        <ele>524</ele>
        <time>2022-06-19T06:45:26Z</time>
      </trkpt>
      <trkpt lat="45.75149" lon="5.59551">
        <ele>521.6</ele>
        <time>2022-06-19T06:45:28Z</time>
      </trkpt>
      <trkpt lat="45.75149" lon="5.59551">
        <ele>520.2</ele>
        <time>2022-06-19T06:45:29Z</time>
      </trkpt>
      <trkpt lat="45.75176" lon="5.59568">
        <ele>519.6</ele>
        <time>2022-06-19T06:45:30Z</time>
      </trkpt>
      <trkpt lat="45.75189" lon="5.59578">
        <ele>518.4</ele>
        <time>2022-06-19T06:45:31Z</time>
      </trkpt>
      <trkpt lat="45.75201" lon="5.5959">
        <ele>517.2</ele>
        <time>2022-06-19T06:45:32Z</time>
      </trkpt>
      <trkpt lat="45.75213" lon="5.59603">
        <ele>515.6</ele>
        <time>2022-06-19T06:45:33Z</time>
      </trkpt>
      <trkpt lat="45.75235" lon="5.59629">
        <ele>513.6</ele>
        <time>2022-06-19T06:45:35Z</time>
      </trkpt>
      <trkpt lat="45.75246" lon="5.5964">
        <ele>512.2</ele>
        <time>2022-06-19T06:45:36Z</time>
      </trkpt>
      <trkpt lat="45.7526" lon="5.59648">
        <ele>510.6</ele>
        <time>2022-06-19T06:45:38Z</time>
      </trkpt>
      <trkpt lat="45.75286" lon="5.59662">
        <ele>510.2</ele>
        <time>2022-06-19T06:45:39Z</time>
      </trkpt>
      <trkpt lat="45.75286" lon="5.59662">
        <ele>509</ele>
        <time>2022-06-19T06:45:40Z</time>
      </trkpt>
      <trkpt lat="45.75299" lon="5.59669">
        <ele>508.4</ele>
        <time>2022-06-19T06:45:41Z</time>
      </trkpt>
      <trkpt lat="45.75324" lon="5.59684">
        <ele>507.2</ele>
        <time>2022-06-19T06:45:42Z</time>
      </trkpt>
      <trkpt lat="45.75338" lon="5.59691">
        <ele>506</ele>
        <time>2022-06-19T06:45:43Z</time>
      </trkpt>
      <trkpt lat="45.75364" lon="5.59706">
        <ele>504.6</ele>
        <time>2022-06-19T06:45:45Z</time>
      </trkpt>
      <trkpt lat="45.75377" lon="5.59714">
        <ele>503</ele>
        <time>2022-06-19T06:45:47Z</time>
      </trkpt>
      <trkpt lat="45.75404" lon="5.59732">
        <ele>502</ele>
        <time>2022-06-19T06:45:48Z</time>
      </trkpt>
      <trkpt lat="45.75404" lon="5.59732">
        <ele>500.6</ele>
        <time>2022-06-19T06:45:49Z</time>
      </trkpt>
      <trkpt lat="45.75429" lon="5.59752">
        <ele>499.4</ele>
        <time>2022-06-19T06:45:50Z</time>
      </trkpt>
      <trkpt lat="45.75454" lon="5.59767">
        <ele>497.2</ele>
        <time>2022-06-19T06:45:52Z</time>
      </trkpt>
      <trkpt lat="45.75465" lon="5.59775">
        <ele>496.6</ele>
        <time>2022-06-19T06:45:53Z</time>
      </trkpt>
      <trkpt lat="45.75465" lon="5.59775">
        <ele>495.2</ele>
        <time>2022-06-19T06:45:54Z</time>
      </trkpt>
      <trkpt lat="45.75496" lon="5.59796">
        <ele>493.4</ele>
        <time>2022-06-19T06:45:56Z</time>
      </trkpt>
      <trkpt lat="45.75505" lon="5.59805">
        <ele>492.4</ele>
        <time>2022-06-19T06:45:57Z</time>
      </trkpt>
      <trkpt lat="45.75513" lon="5.59816">
        <ele>491.4</ele>
        <time>2022-06-19T06:45:58Z</time>
      </trkpt>
      <trkpt lat="45.75513" lon="5.59816">
        <ele>490</ele>
        <time>2022-06-19T06:45:59Z</time>
      </trkpt>
      <trkpt lat="45.75525" lon="5.59843">
        <ele>489.4</ele>
        <time>2022-06-19T06:46:00Z</time>
      </trkpt>
      <trkpt lat="45.7553" lon="5.59857">
        <ele>487.8</ele>
        <time>2022-06-19T06:46:01Z</time>
      </trkpt>
      <trkpt lat="45.75538" lon="5.59869">
        <ele>487</ele>
        <time>2022-06-19T06:46:02Z</time>
      </trkpt>
      <trkpt lat="45.75547" lon="5.59879">
        <ele>486.2</ele>
        <time>2022-06-19T06:46:03Z</time>
      </trkpt>
      <trkpt lat="45.75558" lon="5.59886">
        <ele>484.2</ele>
        <time>2022-06-19T06:46:04Z</time>
      </trkpt>
      <trkpt lat="45.75582" lon="5.59901">
        <ele>482.2</ele>
        <time>2022-06-19T06:46:06Z</time>
      </trkpt>
      <trkpt lat="45.75595" lon="5.59908">
        <ele>480.6</ele>
        <time>2022-06-19T06:46:08Z</time>
      </trkpt>
      <trkpt lat="45.75632" lon="5.5993">
        <ele>479</ele>
        <time>2022-06-19T06:46:10Z</time>
      </trkpt>
      <trkpt lat="45.75658" lon="5.59944">
        <ele>476.4</ele>
        <time>2022-06-19T06:46:12Z</time>
      </trkpt>
      <trkpt lat="45.7567" lon="5.59952">
        <ele>475.2</ele>
        <time>2022-06-19T06:46:13Z</time>
      </trkpt>
      <trkpt lat="45.75683" lon="5.59959">
        <ele>473.4</ele>
        <time>2022-06-19T06:46:15Z</time>
      </trkpt>
      <trkpt lat="45.75721" lon="5.59983">
        <ele>471.4</ele>
        <time>2022-06-19T06:46:17Z</time>
      </trkpt>
      <trkpt lat="45.75734" lon="5.59992">
        <ele>469.2</ele>
        <time>2022-06-19T06:46:19Z</time>
      </trkpt>
      <trkpt lat="45.75758" lon="5.60011">
        <ele>467.2</ele>
        <time>2022-06-19T06:46:20Z</time>
      </trkpt>
      <trkpt lat="45.75758" lon="5.60011">
        <ele>466.4</ele>
        <time>2022-06-19T06:46:21Z</time>
      </trkpt>
      <trkpt lat="45.75781" lon="5.60033">
        <ele>465.6</ele>
        <time>2022-06-19T06:46:22Z</time>
      </trkpt>
      <trkpt lat="45.75804" lon="5.60055">
        <ele>464.2</ele>
        <time>2022-06-19T06:46:24Z</time>
      </trkpt>
      <trkpt lat="45.75828" lon="5.60075">
        <ele>462.4</ele>
        <time>2022-06-19T06:46:26Z</time>
      </trkpt>
      <trkpt lat="45.75841" lon="5.60085">
        <ele>460.8</ele>
        <time>2022-06-19T06:46:27Z</time>
      </trkpt>
      <trkpt lat="45.75866" lon="5.60102">
        <ele>458.4</ele>
        <time>2022-06-19T06:46:29Z</time>
      </trkpt>
      <trkpt lat="45.75878" lon="5.60112">
        <ele>457.2</ele>
        <time>2022-06-19T06:46:31Z</time>
      </trkpt>
      <trkpt lat="45.75915" lon="5.60143">
        <ele>455.8</ele>
        <time>2022-06-19T06:46:33Z</time>
      </trkpt>
      <trkpt lat="45.75927" lon="5.60153">
        <ele>454.6</ele>
        <time>2022-06-19T06:46:34Z</time>
      </trkpt>
      <trkpt lat="45.75939" lon="5.60164">
        <ele>453.8</ele>
        <time>2022-06-19T06:46:35Z</time>
      </trkpt>
      <trkpt lat="45.75939" lon="5.60164">
        <ele>453</ele>
        <time>2022-06-19T06:46:36Z</time>
      </trkpt>
      <trkpt lat="45.75974" lon="5.602">
        <ele>450.6</ele>
        <time>2022-06-19T06:46:38Z</time>
      </trkpt>
      <trkpt lat="45.75995" lon="5.60227">
        <ele>448.4</ele>
        <time>2022-06-19T06:46:40Z</time>
      </trkpt>
      <trkpt lat="45.75995" lon="5.60227">
        <ele>446.6</ele>
        <time>2022-06-19T06:46:41Z</time>
      </trkpt>
      <trkpt lat="45.76025" lon="5.6027">
        <ele>445.2</ele>
        <time>2022-06-19T06:46:43Z</time>
      </trkpt>
      <trkpt lat="45.76035" lon="5.60283">
        <ele>442.6</ele>
        <time>2022-06-19T06:46:45Z</time>
      </trkpt>
      <trkpt lat="45.76057" lon="5.60308">
        <ele>440.6</ele>
        <time>2022-06-19T06:46:47Z</time>
      </trkpt>
      <trkpt lat="45.76078" lon="5.60337">
        <ele>439.8</ele>
        <time>2022-06-19T06:46:48Z</time>
      </trkpt>
      <trkpt lat="45.76086" lon="5.60353">
        <ele>439.4</ele>
        <time>2022-06-19T06:46:49Z</time>
      </trkpt>
      <trkpt lat="45.76086" lon="5.60353">
        <ele>438.2</ele>
        <time>2022-06-19T06:46:50Z</time>
      </trkpt>
      <trkpt lat="45.76105" lon="5.60384">
        <ele>437.4</ele>
        <time>2022-06-19T06:46:51Z</time>
      </trkpt>
      <trkpt lat="45.76115" lon="5.60396">
        <ele>435</ele>
        <time>2022-06-19T06:46:52Z</time>
      </trkpt>
      <trkpt lat="45.7614" lon="5.60419">
        <ele>433</ele>
        <time>2022-06-19T06:46:54Z</time>
      </trkpt>
      <trkpt lat="45.76152" lon="5.60428">
        <ele>431.6</ele>
        <time>2022-06-19T06:46:55Z</time>
      </trkpt>
      <trkpt lat="45.76152" lon="5.60428">
        <ele>431</ele>
        <time>2022-06-19T06:46:56Z</time>
      </trkpt>
      <trkpt lat="45.76178" lon="5.60443">
        <ele>429.2</ele>
        <time>2022-06-19T06:46:57Z</time>
      </trkpt>
      <trkpt lat="45.76204" lon="5.60459">
        <ele>426.8</ele>
        <time>2022-06-19T06:46:59Z</time>
      </trkpt>
      <trkpt lat="45.76216" lon="5.60467">
        <ele>426.2</ele>
        <time>2022-06-19T06:47:00Z</time>
      </trkpt>
      <trkpt lat="45.76228" lon="5.60477">
        <ele>425.2</ele>
        <time>2022-06-19T06:47:01Z</time>
      </trkpt>
      <trkpt lat="45.76228" lon="5.60477">
        <ele>424</ele>
        <time>2022-06-19T06:47:02Z</time>
      </trkpt>
      <trkpt lat="45.76261" lon="5.6051">
        <ele>422</ele>
        <time>2022-06-19T06:47:04Z</time>
      </trkpt>
      <trkpt lat="45.76272" lon="5.60521">
        <ele>421.4</ele>
        <time>2022-06-19T06:47:05Z</time>
      </trkpt>
      <trkpt lat="45.76272" lon="5.60521">
        <ele>420.2</ele>
        <time>2022-06-19T06:47:06Z</time>
      </trkpt>
      <trkpt lat="45.76304" lon="5.60556">
        <ele>418</ele>
        <time>2022-06-19T06:47:08Z</time>
      </trkpt>
      <trkpt lat="45.76314" lon="5.60569">
        <ele>417</ele>
        <time>2022-06-19T06:47:09Z</time>
      </trkpt>
      <trkpt lat="45.76335" lon="5.60596">
        <ele>415.8</ele>
        <time>2022-06-19T06:47:11Z</time>
      </trkpt>
      <trkpt lat="45.76344" lon="5.6061">
        <ele>415.6</ele>
        <time>2022-06-19T06:47:12Z</time>
      </trkpt>
      <trkpt lat="45.76353" lon="5.60624">
        <ele>414.4</ele>
        <time>2022-06-19T06:47:13Z</time>
      </trkpt>
      <trkpt lat="45.76368" lon="5.60653">
        <ele>412.4</ele>
        <time>2022-06-19T06:47:15Z</time>
      </trkpt>
      <trkpt lat="45.76373" lon="5.60664">
        <ele>412</ele>
        <time>2022-06-19T06:47:16Z</time>
      </trkpt>
      <trkpt lat="45.76378" lon="5.60678">
        <ele>410.6</ele>
        <time>2022-06-19T06:47:17Z</time>
      </trkpt>
      <trkpt lat="45.7638" lon="5.60709">
        <ele>409</ele>
        <time>2022-06-19T06:47:19Z</time>
      </trkpt>
      <trkpt lat="45.76378" lon="5.60733">
        <ele>408</ele>
        <time>2022-06-19T06:47:21Z</time>
      </trkpt>
      <trkpt lat="45.76376" lon="5.60738">
        <ele>407.4</ele>
        <time>2022-06-19T06:47:22Z</time>
      </trkpt>
      <trkpt lat="45.76376" lon="5.60738">
        <ele>406.8</ele>
        <time>2022-06-19T06:47:23Z</time>
      </trkpt>
      <trkpt lat="45.76368" lon="5.60745">
        <ele>405.8</ele>
        <time>2022-06-19T06:47:24Z</time>
      </trkpt>
      <trkpt lat="45.76368" lon="5.60745">
        <ele>405</ele>
        <time>2022-06-19T06:47:25Z</time>
      </trkpt>
      <trkpt lat="45.76359" lon="5.60744">
        <ele>404.6</ele>
        <time>2022-06-19T06:47:26Z</time>
      </trkpt>
      <trkpt lat="45.76349" lon="5.60742">
        <ele>404.2</ele>
        <time>2022-06-19T06:47:28Z</time>
      </trkpt>
      <trkpt lat="45.76342" lon="5.60742">
        <ele>404</ele>
        <time>2022-06-19T06:47:29Z</time>
      </trkpt>
      <trkpt lat="45.76319" lon="5.60745">
        <ele>403.6</ele>
        <time>2022-06-19T06:47:33Z</time>
      </trkpt>
      <trkpt lat="45.76292" lon="5.6075">
        <ele>404</ele>
        <time>2022-06-19T06:47:39Z</time>
      </trkpt>
      <trkpt lat="45.76279" lon="5.60753">
        <ele>404</ele>
        <time>2022-06-19T06:47:40Z</time>
      </trkpt>
      <trkpt lat="45.76224" lon="5.60766">
        <ele>404.4</ele>
        <time>2022-06-19T06:47:47Z</time>
      </trkpt>
      <trkpt lat="45.76175" lon="5.60777">
        <ele>404</ele>
        <time>2022-06-19T06:47:53Z</time>
      </trkpt>
      <trkpt lat="45.76166" lon="5.60777">
        <ele>404</ele>
        <time>2022-06-19T06:47:54Z</time>
      </trkpt>
      <trkpt lat="45.76149" lon="5.60777">
        <ele>403.4</ele>
        <time>2022-06-19T06:47:56Z</time>
      </trkpt>
      <trkpt lat="45.76132" lon="5.60774">
        <ele>403</ele>
        <time>2022-06-19T06:47:58Z</time>
      </trkpt>
      <trkpt lat="45.76124" lon="5.60772">
        <ele>402.6</ele>
        <time>2022-06-19T06:47:59Z</time>
      </trkpt>
      <trkpt lat="45.76116" lon="5.60769">
        <ele>402.4</ele>
        <time>2022-06-19T06:48:00Z</time>
      </trkpt>
      <trkpt lat="45.76099" lon="5.6076">
        <ele>401.4</ele>
        <time>2022-06-19T06:48:02Z</time>
      </trkpt>
      <trkpt lat="45.76091" lon="5.60755">
        <ele>401</ele>
        <time>2022-06-19T06:48:04Z</time>
      </trkpt>
      <trkpt lat="45.7607" lon="5.60734">
        <ele>400.4</ele>
        <time>2022-06-19T06:48:07Z</time>
      </trkpt>
      <trkpt lat="45.76056" lon="5.60719">
        <ele>400.6</ele>
        <time>2022-06-19T06:48:09Z</time>
      </trkpt>
      <trkpt lat="45.76004" lon="5.60657">
        <ele>399.6</ele>
        <time>2022-06-19T06:48:16Z</time>
      </trkpt>
      <trkpt lat="45.76004" lon="5.60657">
        <ele>399.4</ele>
        <time>2022-06-19T06:48:17Z</time>
      </trkpt>
      <trkpt lat="45.75963" lon="5.60602">
        <ele>398.4</ele>
        <time>2022-06-19T06:48:23Z</time>
      </trkpt>
      <trkpt lat="45.75944" lon="5.60578">
        <ele>398.2</ele>
        <time>2022-06-19T06:48:26Z</time>
      </trkpt>
      <trkpt lat="45.75905" lon="5.6053">
        <ele>397.8</ele>
        <time>2022-06-19T06:48:32Z</time>
      </trkpt>
      <trkpt lat="45.75874" lon="5.60495">
        <ele>397.2</ele>
        <time>2022-06-19T06:48:38Z</time>
      </trkpt>
      <trkpt lat="45.75846" lon="5.60469">
        <ele>397</ele>
        <time>2022-06-19T06:48:41Z</time>
      </trkpt>
      <trkpt lat="45.75803" lon="5.60435">
        <ele>397</ele>
        <time>2022-06-19T06:48:47Z</time>
      </trkpt>
      <trkpt lat="45.75795" lon="5.60431">
        <ele>397</ele>
        <time>2022-06-19T06:48:48Z</time>
      </trkpt>
      <trkpt lat="45.75779" lon="5.60424">
        <ele>397.2</ele>
        <time>2022-06-19T06:48:50Z</time>
      </trkpt>
      <trkpt lat="45.75754" lon="5.60417">
        <ele>397.2</ele>
        <time>2022-06-19T06:48:54Z</time>
      </trkpt>
      <trkpt lat="45.75709" lon="5.60414">
        <ele>396.4</ele>
        <time>2022-06-19T06:48:59Z</time>
      </trkpt>
      <trkpt lat="45.7569" lon="5.60415">
        <ele>396.2</ele>
        <time>2022-06-19T06:49:00Z</time>
      </trkpt>
      <trkpt lat="45.75642" lon="5.6042">
        <ele>395</ele>
        <time>2022-06-19T06:49:05Z</time>
      </trkpt>
      <trkpt lat="45.75632" lon="5.60419">
        <ele>394.8</ele>
        <time>2022-06-19T06:49:06Z</time>
      </trkpt>
      <trkpt lat="45.75614" lon="5.60413">
        <ele>394</ele>
        <time>2022-06-19T06:49:08Z</time>
      </trkpt>
      <trkpt lat="45.75602" lon="5.60408">
        <ele>393.4</ele>
        <time>2022-06-19T06:49:09Z</time>
      </trkpt>
      <trkpt lat="45.75585" lon="5.60394">
        <ele>392.4</ele>
        <time>2022-06-19T06:49:11Z</time>
      </trkpt>
      <trkpt lat="45.75577" lon="5.60386">
        <ele>391.6</ele>
        <time>2022-06-19T06:49:12Z</time>
      </trkpt>
      <trkpt lat="45.75552" lon="5.60369">
        <ele>390.6</ele>
        <time>2022-06-19T06:49:15Z</time>
      </trkpt>
      <trkpt lat="45.75544" lon="5.60364">
        <ele>390.2</ele>
        <time>2022-06-19T06:49:16Z</time>
      </trkpt>
      <trkpt lat="45.75536" lon="5.6036">
        <ele>390.2</ele>
        <time>2022-06-19T06:49:17Z</time>
      </trkpt>
      <trkpt lat="45.75486" lon="5.60332">
        <ele>389.4</ele>
        <time>2022-06-19T06:49:24Z</time>
      </trkpt>
      <trkpt lat="45.75431" lon="5.60302">
        <ele>389.8</ele>
        <time>2022-06-19T06:49:32Z</time>
      </trkpt>
      <trkpt lat="45.75425" lon="5.60299">
        <ele>390</ele>
        <time>2022-06-19T06:49:33Z</time>
      </trkpt>
      <trkpt lat="45.7537" lon="5.60274">
        <ele>391.2</ele>
        <time>2022-06-19T06:49:41Z</time>
      </trkpt>
      <trkpt lat="45.75358" lon="5.60269">
        <ele>391.4</ele>
        <time>2022-06-19T06:49:43Z</time>
      </trkpt>
      <trkpt lat="45.75351" lon="5.60267">
        <ele>391.6</ele>
        <time>2022-06-19T06:49:44Z</time>
      </trkpt>
      <trkpt lat="45.75311" lon="5.60257">
        <ele>391.8</ele>
        <time>2022-06-19T06:49:50Z</time>
      </trkpt>
      <trkpt lat="45.75261" lon="5.60245">
        <ele>392.2</ele>
        <time>2022-06-19T06:49:58Z</time>
      </trkpt>
      <trkpt lat="45.75243" lon="5.60239">
        <ele>392.4</ele>
        <time>2022-06-19T06:50:00Z</time>
      </trkpt>
      <trkpt lat="45.75228" lon="5.60235">
        <ele>392.8</ele>
        <time>2022-06-19T06:50:02Z</time>
      </trkpt>
      <trkpt lat="45.75186" lon="5.60223">
        <ele>394</ele>
        <time>2022-06-19T06:50:09Z</time>
      </trkpt>
      <trkpt lat="45.7518" lon="5.60221">
        <ele>394</ele>
        <time>2022-06-19T06:50:10Z</time>
      </trkpt>
      <trkpt lat="45.75161" lon="5.60212">
        <ele>395</ele>
        <time>2022-06-19T06:50:14Z</time>
      </trkpt>
      <trkpt lat="45.75151" lon="5.60206">
        <ele>395.2</ele>
        <time>2022-06-19T06:50:16Z</time>
      </trkpt>
      <trkpt lat="45.75124" lon="5.60189">
        <ele>396</ele>
        <time>2022-06-19T06:50:22Z</time>
      </trkpt>
      <trkpt lat="45.75115" lon="5.60183">
        <ele>396.4</ele>
        <time>2022-06-19T06:50:24Z</time>
      </trkpt>
      <trkpt lat="45.75098" lon="5.6017">
        <ele>397.6</ele>
        <time>2022-06-19T06:50:28Z</time>
      </trkpt>
      <trkpt lat="45.75075" lon="5.60155">
        <ele>398.4</ele>
        <time>2022-06-19T06:50:33Z</time>
      </trkpt>
      <trkpt lat="45.75066" lon="5.60149">
        <ele>398.6</ele>
        <time>2022-06-19T06:50:35Z</time>
      </trkpt>
      <trkpt lat="45.75047" lon="5.60139">
        <ele>399.6</ele>
        <time>2022-06-19T06:50:39Z</time>
      </trkpt>
      <trkpt lat="45.75038" lon="5.60136">
        <ele>400.2</ele>
        <time>2022-06-19T06:50:41Z</time>
      </trkpt>
      <trkpt lat="45.75028" lon="5.60133">
        <ele>400.8</ele>
        <time>2022-06-19T06:50:43Z</time>
      </trkpt>
      <trkpt lat="45.75012" lon="5.60131">
        <ele>402</ele>
        <time>2022-06-19T06:50:46Z</time>
      </trkpt>
      <trkpt lat="45.74993" lon="5.60129">
        <ele>402.8</ele>
        <time>2022-06-19T06:50:50Z</time>
      </trkpt>
      <trkpt lat="45.74989" lon="5.60128">
        <ele>403</ele>
        <time>2022-06-19T06:50:51Z</time>
      </trkpt>
      <trkpt lat="45.74984" lon="5.60129">
        <ele>403.2</ele>
        <time>2022-06-19T06:50:52Z</time>
      </trkpt>
      <trkpt lat="45.74967" lon="5.6013">
        <ele>404.2</ele>
        <time>2022-06-19T06:50:55Z</time>
      </trkpt>
      <trkpt lat="45.74962" lon="5.6013">
        <ele>404.4</ele>
        <time>2022-06-19T06:50:56Z</time>
      </trkpt>
      <trkpt lat="45.74956" lon="5.6013">
        <ele>404.6</ele>
        <time>2022-06-19T06:50:57Z</time>
      </trkpt>
      <trkpt lat="45.7492" lon="5.60129">
        <ele>404.6</ele>
        <time>2022-06-19T06:51:03Z</time>
      </trkpt>
      <trkpt lat="45.74891" lon="5.60118">
        <ele>404.4</ele>
        <time>2022-06-19T06:51:07Z</time>
      </trkpt>
      <trkpt lat="45.7486" lon="5.60103">
        <ele>404.2</ele>
        <time>2022-06-19T06:51:11Z</time>
      </trkpt>
      <trkpt lat="45.74848" lon="5.60101">
        <ele>403.8</ele>
        <time>2022-06-19T06:51:12Z</time>
      </trkpt>
      <trkpt lat="45.74838" lon="5.60099">
        <ele>403.2</ele>
        <time>2022-06-19T06:51:14Z</time>
      </trkpt>
      <trkpt lat="45.748" lon="5.60095">
        <ele>401.8</ele>
        <time>2022-06-19T06:51:17Z</time>
      </trkpt>
      <trkpt lat="45.74791" lon="5.60093">
        <ele>401.6</ele>
        <time>2022-06-19T06:51:18Z</time>
      </trkpt>
      <trkpt lat="45.74784" lon="5.60092">
        <ele>400.4</ele>
        <time>2022-06-19T06:51:20Z</time>
      </trkpt>
      <trkpt lat="45.7475" lon="5.60085">
        <ele>399.6</ele>
        <time>2022-06-19T06:51:23Z</time>
      </trkpt>
      <trkpt lat="45.74725" lon="5.60081">
        <ele>399</ele>
        <time>2022-06-19T06:51:26Z</time>
      </trkpt>
      <trkpt lat="45.74667" lon="5.60069">
        <ele>398.4</ele>
        <time>2022-06-19T06:51:33Z</time>
      </trkpt>
      <trkpt lat="45.7465" lon="5.60066">
        <ele>398.4</ele>
        <time>2022-06-19T06:51:35Z</time>
      </trkpt>
      <trkpt lat="45.74619" lon="5.6006">
        <ele>398.4</ele>
        <time>2022-06-19T06:51:39Z</time>
      </trkpt>
      <trkpt lat="45.74604" lon="5.60058">
        <ele>398.4</ele>
        <time>2022-06-19T06:51:41Z</time>
      </trkpt>
      <trkpt lat="45.74543" lon="5.60055">
        <ele>398.4</ele>
        <time>2022-06-19T06:51:48Z</time>
      </trkpt>
      <trkpt lat="45.74534" lon="5.60056">
        <ele>398.4</ele>
        <time>2022-06-19T06:51:49Z</time>
      </trkpt>
      <trkpt lat="45.74488" lon="5.60062">
        <ele>397</ele>
        <time>2022-06-19T06:51:54Z</time>
      </trkpt>
      <trkpt lat="45.74472" lon="5.60064">
        <ele>395.8</ele>
        <time>2022-06-19T06:51:56Z</time>
      </trkpt>
      <trkpt lat="45.74462" lon="5.60065">
        <ele>395.8</ele>
        <time>2022-06-19T06:51:57Z</time>
      </trkpt>
      <trkpt lat="45.74441" lon="5.60067">
        <ele>394.6</ele>
        <time>2022-06-19T06:51:59Z</time>
      </trkpt>
      <trkpt lat="45.74403" lon="5.60071">
        <ele>393.2</ele>
        <time>2022-06-19T06:52:03Z</time>
      </trkpt>
      <trkpt lat="45.74376" lon="5.60076">
        <ele>392.6</ele>
        <time>2022-06-19T06:52:06Z</time>
      </trkpt>
      <trkpt lat="45.74354" lon="5.60079">
        <ele>392</ele>
        <time>2022-06-19T06:52:08Z</time>
      </trkpt>
      <trkpt lat="45.74337" lon="5.60082">
        <ele>391.2</ele>
        <time>2022-06-19T06:52:10Z</time>
      </trkpt>
      <trkpt lat="45.74316" lon="5.60084">
        <ele>390.4</ele>
        <time>2022-06-19T06:52:12Z</time>
      </trkpt>
      <trkpt lat="45.74296" lon="5.60087">
        <ele>389.8</ele>
        <time>2022-06-19T06:52:14Z</time>
      </trkpt>
      <trkpt lat="45.74274" lon="5.60089">
        <ele>389</ele>
        <time>2022-06-19T06:52:16Z</time>
      </trkpt>
      <trkpt lat="45.7424" lon="5.60093">
        <ele>387.2</ele>
        <time>2022-06-19T06:52:19Z</time>
      </trkpt>
      <trkpt lat="45.74229" lon="5.60095">
        <ele>386.4</ele>
        <time>2022-06-19T06:52:20Z</time>
      </trkpt>
      <trkpt lat="45.74221" lon="5.60096">
        <ele>386.2</ele>
        <time>2022-06-19T06:52:21Z</time>
      </trkpt>
      <trkpt lat="45.74197" lon="5.60099">
        <ele>385.4</ele>
        <time>2022-06-19T06:52:23Z</time>
      </trkpt>
      <trkpt lat="45.74166" lon="5.60102">
        <ele>384.4</ele>
        <time>2022-06-19T06:52:26Z</time>
      </trkpt>
      <trkpt lat="45.74126" lon="5.60109">
        <ele>383.2</ele>
        <time>2022-06-19T06:52:30Z</time>
      </trkpt>
      <trkpt lat="45.74095" lon="5.60111">
        <ele>381.8</ele>
        <time>2022-06-19T06:52:33Z</time>
      </trkpt>
      <trkpt lat="45.74046" lon="5.60115">
        <ele>381.4</ele>
        <time>2022-06-19T06:52:38Z</time>
      </trkpt>
      <trkpt lat="45.74026" lon="5.60117">
        <ele>381</ele>
        <time>2022-06-19T06:52:40Z</time>
      </trkpt>
      <trkpt lat="45.74005" lon="5.60117">
        <ele>380.6</ele>
        <time>2022-06-19T06:52:42Z</time>
      </trkpt>
      <trkpt lat="45.73995" lon="5.60116">
        <ele>380</ele>
        <time>2022-06-19T06:52:43Z</time>
      </trkpt>
      <trkpt lat="45.73985" lon="5.60114">
        <ele>379.8</ele>
        <time>2022-06-19T06:52:44Z</time>
      </trkpt>
      <trkpt lat="45.73966" lon="5.60109">
        <ele>379.4</ele>
        <time>2022-06-19T06:52:46Z</time>
      </trkpt>
      <trkpt lat="45.73948" lon="5.60104">
        <ele>379</ele>
        <time>2022-06-19T06:52:48Z</time>
      </trkpt>
      <trkpt lat="45.73931" lon="5.60095">
        <ele>378.4</ele>
        <time>2022-06-19T06:52:50Z</time>
      </trkpt>
      <trkpt lat="45.73916" lon="5.60084">
        <ele>378.2</ele>
        <time>2022-06-19T06:52:52Z</time>
      </trkpt>
      <trkpt lat="45.73873" lon="5.60053">
        <ele>378.6</ele>
        <time>2022-06-19T06:52:58Z</time>
      </trkpt>
      <trkpt lat="45.73844" lon="5.60038">
        <ele>379.2</ele>
        <time>2022-06-19T06:53:02Z</time>
      </trkpt>
      <trkpt lat="45.73828" lon="5.60032">
        <ele>379.4</ele>
        <time>2022-06-19T06:53:04Z</time>
      </trkpt>
      <trkpt lat="45.73798" lon="5.60021">
        <ele>379.6</ele>
        <time>2022-06-19T06:53:08Z</time>
      </trkpt>
      <trkpt lat="45.7376" lon="5.60009">
        <ele>379.8</ele>
        <time>2022-06-19T06:53:13Z</time>
      </trkpt>
      <trkpt lat="45.73706" lon="5.59991">
        <ele>379.4</ele>
        <time>2022-06-19T06:53:20Z</time>
      </trkpt>
      <trkpt lat="45.73681" lon="5.59987">
        <ele>379</ele>
        <time>2022-06-19T06:53:23Z</time>
      </trkpt>
      <trkpt lat="45.73657" lon="5.5999">
        <ele>378.6</ele>
        <time>2022-06-19T06:53:26Z</time>
      </trkpt>
      <trkpt lat="45.73641" lon="5.59994">
        <ele>378.4</ele>
        <time>2022-06-19T06:53:28Z</time>
      </trkpt>
      <trkpt lat="45.73583" lon="5.60007">
        <ele>378</ele>
        <time>2022-06-19T06:53:35Z</time>
      </trkpt>
      <trkpt lat="45.73559" lon="5.60016">
        <ele>377.8</ele>
        <time>2022-06-19T06:53:38Z</time>
      </trkpt>
      <trkpt lat="45.73552" lon="5.60021">
        <ele>377.8</ele>
        <time>2022-06-19T06:53:39Z</time>
      </trkpt>
      <trkpt lat="45.73544" lon="5.60028">
        <ele>377.8</ele>
        <time>2022-06-19T06:53:40Z</time>
      </trkpt>
      <trkpt lat="45.73531" lon="5.60044">
        <ele>377.6</ele>
        <time>2022-06-19T06:53:42Z</time>
      </trkpt>
      <trkpt lat="45.73526" lon="5.60051">
        <ele>377.6</ele>
        <time>2022-06-19T06:53:43Z</time>
      </trkpt>
      <trkpt lat="45.73497" lon="5.60099">
        <ele>376.8</ele>
        <time>2022-06-19T06:53:48Z</time>
      </trkpt>
      <trkpt lat="45.73489" lon="5.60108">
        <ele>376.8</ele>
        <time>2022-06-19T06:53:49Z</time>
      </trkpt>
      <trkpt lat="45.73482" lon="5.60114">
        <ele>376.6</ele>
        <time>2022-06-19T06:53:50Z</time>
      </trkpt>
      <trkpt lat="45.73465" lon="5.60122">
        <ele>376.6</ele>
        <time>2022-06-19T06:53:52Z</time>
      </trkpt>
      <trkpt lat="45.73457" lon="5.60124">
        <ele>376.2</ele>
        <time>2022-06-19T06:53:53Z</time>
      </trkpt>
      <trkpt lat="45.73448" lon="5.60123">
        <ele>376</ele>
        <time>2022-06-19T06:53:54Z</time>
      </trkpt>
      <trkpt lat="45.73433" lon="5.60118">
        <ele>375.6</ele>
        <time>2022-06-19T06:53:56Z</time>
      </trkpt>
      <trkpt lat="45.73377" lon="5.60092">
        <ele>375</ele>
        <time>2022-06-19T06:54:03Z</time>
      </trkpt>
      <trkpt lat="45.73324" lon="5.60084">
        <ele>374.8</ele>
        <time>2022-06-19T06:54:09Z</time>
      </trkpt>
      <trkpt lat="45.73315" lon="5.60085">
        <ele>374.4</ele>
        <time>2022-06-19T06:54:10Z</time>
      </trkpt>
      <trkpt lat="45.73273" lon="5.60096">
        <ele>373.2</ele>
        <time>2022-06-19T06:54:15Z</time>
      </trkpt>
      <trkpt lat="45.73214" lon="5.60123">
        <ele>372.4</ele>
        <time>2022-06-19T06:54:22Z</time>
      </trkpt>
      <trkpt lat="45.7318" lon="5.60132">
        <ele>372.2</ele>
        <time>2022-06-19T06:54:26Z</time>
      </trkpt>
      <trkpt lat="45.73163" lon="5.60133">
        <ele>372</ele>
        <time>2022-06-19T06:54:28Z</time>
      </trkpt>
      <trkpt lat="45.73119" lon="5.60125">
        <ele>371.8</ele>
        <time>2022-06-19T06:54:33Z</time>
      </trkpt>
      <trkpt lat="45.73085" lon="5.60127">
        <ele>371.4</ele>
        <time>2022-06-19T06:54:37Z</time>
      </trkpt>
      <trkpt lat="45.73077" lon="5.6013">
        <ele>371.4</ele>
        <time>2022-06-19T06:54:38Z</time>
      </trkpt>
      <trkpt lat="45.7306" lon="5.60134">
        <ele>371.2</ele>
        <time>2022-06-19T06:54:40Z</time>
      </trkpt>
      <trkpt lat="45.73052" lon="5.60138">
        <ele>371.2</ele>
        <time>2022-06-19T06:54:41Z</time>
      </trkpt>
      <trkpt lat="45.73045" lon="5.60144">
        <ele>371</ele>
        <time>2022-06-19T06:54:42Z</time>
      </trkpt>
      <trkpt lat="45.73032" lon="5.60165">
        <ele>370.6</ele>
        <time>2022-06-19T06:54:44Z</time>
      </trkpt>
      <trkpt lat="45.7303" lon="5.60178">
        <ele>370.4</ele>
        <time>2022-06-19T06:54:45Z</time>
      </trkpt>
      <trkpt lat="45.73029" lon="5.60188">
        <ele>370.2</ele>
        <time>2022-06-19T06:54:46Z</time>
      </trkpt>
      <trkpt lat="45.73028" lon="5.602">
        <ele>369.8</ele>
        <time>2022-06-19T06:54:47Z</time>
      </trkpt>
      <trkpt lat="45.73028" lon="5.60228">
        <ele>369.6</ele>
        <time>2022-06-19T06:54:49Z</time>
      </trkpt>
      <trkpt lat="45.73028" lon="5.60261">
        <ele>369</ele>
        <time>2022-06-19T06:54:52Z</time>
      </trkpt>
      <trkpt lat="45.73026" lon="5.60285">
        <ele>368.8</ele>
        <time>2022-06-19T06:54:54Z</time>
      </trkpt>
      <trkpt lat="45.73025" lon="5.60297">
        <ele>368.8</ele>
        <time>2022-06-19T06:54:55Z</time>
      </trkpt>
      <trkpt lat="45.73022" lon="5.60308">
        <ele>368.6</ele>
        <time>2022-06-19T06:54:56Z</time>
      </trkpt>
      <trkpt lat="45.73016" lon="5.60329">
        <ele>368.6</ele>
        <time>2022-06-19T06:54:58Z</time>
      </trkpt>
      <trkpt lat="45.73005" lon="5.60351">
        <ele>368.6</ele>
        <time>2022-06-19T06:55:00Z</time>
      </trkpt>
      <trkpt lat="45.72996" lon="5.60367">
        <ele>368.4</ele>
        <time>2022-06-19T06:55:02Z</time>
      </trkpt>
      <trkpt lat="45.72957" lon="5.6043">
        <ele>368</ele>
        <time>2022-06-19T06:55:09Z</time>
      </trkpt>
      <trkpt lat="45.72923" lon="5.60467">
        <ele>367.8</ele>
        <time>2022-06-19T06:55:14Z</time>
      </trkpt>
      <trkpt lat="45.72915" lon="5.60471">
        <ele>367.4</ele>
        <time>2022-06-19T06:55:15Z</time>
      </trkpt>
      <trkpt lat="45.7289" lon="5.60483">
        <ele>367.2</ele>
        <time>2022-06-19T06:55:18Z</time>
      </trkpt>
      <trkpt lat="45.72843" lon="5.60495">
        <ele>366.6</ele>
        <time>2022-06-19T06:55:24Z</time>
      </trkpt>
      <trkpt lat="45.72803" lon="5.60504">
        <ele>365.4</ele>
        <time>2022-06-19T06:55:29Z</time>
      </trkpt>
      <trkpt lat="45.72787" lon="5.60508">
        <ele>365.6</ele>
        <time>2022-06-19T06:55:31Z</time>
      </trkpt>
      <trkpt lat="45.72734" lon="5.60525">
        <ele>365.2</ele>
        <time>2022-06-19T06:55:37Z</time>
      </trkpt>
      <trkpt lat="45.72726" lon="5.60531">
        <ele>364.8</ele>
        <time>2022-06-19T06:55:38Z</time>
      </trkpt>
      <trkpt lat="45.72718" lon="5.60537">
        <ele>364.6</ele>
        <time>2022-06-19T06:55:39Z</time>
      </trkpt>
      <trkpt lat="45.72712" lon="5.60543">
        <ele>364.4</ele>
        <time>2022-06-19T06:55:40Z</time>
      </trkpt>
      <trkpt lat="45.727" lon="5.60563">
        <ele>364.2</ele>
        <time>2022-06-19T06:55:42Z</time>
      </trkpt>
      <trkpt lat="45.72694" lon="5.60577">
        <ele>363.2</ele>
        <time>2022-06-19T06:55:43Z</time>
      </trkpt>
      <trkpt lat="45.7269" lon="5.60589">
        <ele>362.8</ele>
        <time>2022-06-19T06:55:44Z</time>
      </trkpt>
      <trkpt lat="45.72684" lon="5.60613">
        <ele>361.8</ele>
        <time>2022-06-19T06:55:46Z</time>
      </trkpt>
      <trkpt lat="45.72677" lon="5.6064">
        <ele>360.8</ele>
        <time>2022-06-19T06:55:48Z</time>
      </trkpt>
      <trkpt lat="45.72672" lon="5.60653">
        <ele>360.6</ele>
        <time>2022-06-19T06:55:49Z</time>
      </trkpt>
      <trkpt lat="45.72666" lon="5.60665">
        <ele>360.2</ele>
        <time>2022-06-19T06:55:50Z</time>
      </trkpt>
      <trkpt lat="45.72654" lon="5.60688">
        <ele>359.4</ele>
        <time>2022-06-19T06:55:52Z</time>
      </trkpt>
      <trkpt lat="45.72646" lon="5.60701">
        <ele>359</ele>
        <time>2022-06-19T06:55:53Z</time>
      </trkpt>
      <trkpt lat="45.72631" lon="5.60721">
        <ele>358.2</ele>
        <time>2022-06-19T06:55:55Z</time>
      </trkpt>
      <trkpt lat="45.72624" lon="5.60731">
        <ele>357.4</ele>
        <time>2022-06-19T06:55:56Z</time>
      </trkpt>
      <trkpt lat="45.72618" lon="5.6074">
        <ele>356.6</ele>
        <time>2022-06-19T06:55:57Z</time>
      </trkpt>
      <trkpt lat="45.72598" lon="5.6078">
        <ele>355.4</ele>
        <time>2022-06-19T06:56:00Z</time>
      </trkpt>
      <trkpt lat="45.7259" lon="5.60808">
        <ele>354.4</ele>
        <time>2022-06-19T06:56:02Z</time>
      </trkpt>
      <trkpt lat="45.72588" lon="5.60824">
        <ele>353.6</ele>
        <time>2022-06-19T06:56:03Z</time>
      </trkpt>
      <trkpt lat="45.72587" lon="5.6084">
        <ele>352.2</ele>
        <time>2022-06-19T06:56:04Z</time>
      </trkpt>
      <trkpt lat="45.72587" lon="5.60875">
        <ele>351.2</ele>
        <time>2022-06-19T06:56:06Z</time>
      </trkpt>
      <trkpt lat="45.72586" lon="5.60888">
        <ele>350.8</ele>
        <time>2022-06-19T06:56:07Z</time>
      </trkpt>
      <trkpt lat="45.72583" lon="5.60923">
        <ele>349.8</ele>
        <time>2022-06-19T06:56:09Z</time>
      </trkpt>
      <trkpt lat="45.72578" lon="5.60937">
        <ele>348.6</ele>
        <time>2022-06-19T06:56:10Z</time>
      </trkpt>
      <trkpt lat="45.72572" lon="5.60951">
        <ele>347.8</ele>
        <time>2022-06-19T06:56:11Z</time>
      </trkpt>
      <trkpt lat="45.72564" lon="5.60964">
        <ele>347.6</ele>
        <time>2022-06-19T06:56:12Z</time>
      </trkpt>
      <trkpt lat="45.72556" lon="5.60976">
        <ele>347</ele>
        <time>2022-06-19T06:56:13Z</time>
      </trkpt>
      <trkpt lat="45.72547" lon="5.60987">
        <ele>346</ele>
        <time>2022-06-19T06:56:14Z</time>
      </trkpt>
      <trkpt lat="45.72537" lon="5.60996">
        <ele>344.6</ele>
        <time>2022-06-19T06:56:15Z</time>
      </trkpt>
      <trkpt lat="45.72517" lon="5.61014">
        <ele>342.8</ele>
        <time>2022-06-19T06:56:17Z</time>
      </trkpt>
      <trkpt lat="45.72509" lon="5.61021">
        <ele>341.6</ele>
        <time>2022-06-19T06:56:18Z</time>
      </trkpt>
      <trkpt lat="45.72488" lon="5.6104">
        <ele>340.2</ele>
        <time>2022-06-19T06:56:20Z</time>
      </trkpt>
      <trkpt lat="45.72478" lon="5.61047">
        <ele>339.8</ele>
        <time>2022-06-19T06:56:21Z</time>
      </trkpt>
      <trkpt lat="45.72468" lon="5.61052">
        <ele>338.8</ele>
        <time>2022-06-19T06:56:22Z</time>
      </trkpt>
      <trkpt lat="45.7246" lon="5.61056">
        <ele>338.4</ele>
        <time>2022-06-19T06:56:23Z</time>
      </trkpt>
      <trkpt lat="45.72449" lon="5.61059">
        <ele>337.6</ele>
        <time>2022-06-19T06:56:24Z</time>
      </trkpt>
      <trkpt lat="45.72426" lon="5.61064">
        <ele>337</ele>
        <time>2022-06-19T06:56:26Z</time>
      </trkpt>
      <trkpt lat="45.72415" lon="5.61067">
        <ele>336.4</ele>
        <time>2022-06-19T06:56:27Z</time>
      </trkpt>
      <trkpt lat="45.72395" lon="5.61074">
        <ele>335.2</ele>
        <time>2022-06-19T06:56:29Z</time>
      </trkpt>
      <trkpt lat="45.72386" lon="5.61079">
        <ele>335</ele>
        <time>2022-06-19T06:56:30Z</time>
      </trkpt>
      <trkpt lat="45.7236" lon="5.61098">
        <ele>334.2</ele>
        <time>2022-06-19T06:56:33Z</time>
      </trkpt>
      <trkpt lat="45.72343" lon="5.61111">
        <ele>333.6</ele>
        <time>2022-06-19T06:56:35Z</time>
      </trkpt>
      <trkpt lat="45.72326" lon="5.61126">
        <ele>333</ele>
        <time>2022-06-19T06:56:37Z</time>
      </trkpt>
      <trkpt lat="45.72295" lon="5.61154">
        <ele>332</ele>
        <time>2022-06-19T06:56:41Z</time>
      </trkpt>
      <trkpt lat="45.72287" lon="5.61161">
        <ele>331.8</ele>
        <time>2022-06-19T06:56:42Z</time>
      </trkpt>
      <trkpt lat="45.72241" lon="5.61207">
        <ele>331.2</ele>
        <time>2022-06-19T06:56:48Z</time>
      </trkpt>
      <trkpt lat="45.72235" lon="5.61211">
        <ele>331</ele>
        <time>2022-06-19T06:56:49Z</time>
      </trkpt>
      <trkpt lat="45.72204" lon="5.61234">
        <ele>330.6</ele>
        <time>2022-06-19T06:56:53Z</time>
      </trkpt>
      <trkpt lat="45.7219" lon="5.61249">
        <ele>330.4</ele>
        <time>2022-06-19T06:56:55Z</time>
      </trkpt>
      <trkpt lat="45.72146" lon="5.61289">
        <ele>330.2</ele>
        <time>2022-06-19T06:57:01Z</time>
      </trkpt>
      <trkpt lat="45.72133" lon="5.61302">
        <ele>330.2</ele>
        <time>2022-06-19T06:57:03Z</time>
      </trkpt>
      <trkpt lat="45.72122" lon="5.61317">
        <ele>330.4</ele>
        <time>2022-06-19T06:57:05Z</time>
      </trkpt>
      <trkpt lat="45.72096" lon="5.61365">
        <ele>331.2</ele>
        <time>2022-06-19T06:57:11Z</time>
      </trkpt>
      <trkpt lat="45.72053" lon="5.61426">
        <ele>331.4</ele>
        <time>2022-06-19T06:57:19Z</time>
      </trkpt>
      <trkpt lat="45.72048" lon="5.61435">
        <ele>331.4</ele>
        <time>2022-06-19T06:57:20Z</time>
      </trkpt>
      <trkpt lat="45.7204" lon="5.61456">
        <ele>331</ele>
        <time>2022-06-19T06:57:22Z</time>
      </trkpt>
      <trkpt lat="45.72037" lon="5.61467">
        <ele>330.8</ele>
        <time>2022-06-19T06:57:23Z</time>
      </trkpt>
      <trkpt lat="45.72033" lon="5.615">
        <ele>330</ele>
        <time>2022-06-19T06:57:26Z</time>
      </trkpt>
      <trkpt lat="45.72032" lon="5.61508">
        <ele>329.6</ele>
        <time>2022-06-19T06:57:27Z</time>
      </trkpt>
      <trkpt lat="45.72031" lon="5.61518">
        <ele>329</ele>
        <time>2022-06-19T06:57:30Z</time>
      </trkpt>
      <trkpt lat="45.72031" lon="5.61518">
        <ele>327.8</ele>
        <time>2022-06-19T06:57:33Z</time>
      </trkpt>
      <trkpt lat="45.72031" lon="5.61518">
        <ele>327.2</ele>
        <time>2022-06-19T06:57:35Z</time>
      </trkpt>
      <trkpt lat="45.72031" lon="5.61518">
        <ele>326.8</ele>
        <time>2022-06-19T06:57:37Z</time>
      </trkpt>
      <trkpt lat="45.72031" lon="5.61518">
        <ele>325.8</ele>
        <time>2022-06-19T06:57:53Z</time>
      </trkpt>
      <trkpt lat="45.72027" lon="5.61527">
        <ele>325.6</ele>
        <time>2022-06-19T06:57:58Z</time>
      </trkpt>
      <trkpt lat="45.7202" lon="5.61549">
        <ele>325.4</ele>
        <time>2022-06-19T06:58:02Z</time>
      </trkpt>
      <trkpt lat="45.72006" lon="5.61588">
        <ele>325</ele>
        <time>2022-06-19T06:58:07Z</time>
      </trkpt>
      <trkpt lat="45.72003" lon="5.61597">
        <ele>325</ele>
        <time>2022-06-19T06:58:08Z</time>
      </trkpt>
      <trkpt lat="45.71983" lon="5.61648">
        <ele>324.6</ele>
        <time>2022-06-19T06:58:14Z</time>
      </trkpt>
      <trkpt lat="45.71964" lon="5.61692">
        <ele>323.8</ele>
        <time>2022-06-19T06:58:19Z</time>
      </trkpt>
      <trkpt lat="45.7196" lon="5.61701">
        <ele>323.6</ele>
        <time>2022-06-19T06:58:20Z</time>
      </trkpt>
      <trkpt lat="45.71937" lon="5.61742">
        <ele>323</ele>
        <time>2022-06-19T06:58:25Z</time>
      </trkpt>
      <trkpt lat="45.71921" lon="5.61763">
        <ele>322.8</ele>
        <time>2022-06-19T06:58:29Z</time>
      </trkpt>
      <trkpt lat="45.71909" lon="5.61776">
        <ele>322.8</ele>
        <time>2022-06-19T06:58:30Z</time>
      </trkpt>
      <trkpt lat="45.71898" lon="5.61789">
        <ele>322.4</ele>
        <time>2022-06-19T06:58:32Z</time>
      </trkpt>
      <trkpt lat="45.71865" lon="5.6183">
        <ele>322.2</ele>
        <time>2022-06-19T06:58:37Z</time>
      </trkpt>
      <trkpt lat="45.71859" lon="5.61836">
        <ele>322</ele>
        <time>2022-06-19T06:58:38Z</time>
      </trkpt>
      <trkpt lat="45.71835" lon="5.6186">
        <ele>320</ele>
        <time>2022-06-19T06:58:41Z</time>
      </trkpt>
      <trkpt lat="45.7183" lon="5.61867">
        <ele>319.6</ele>
        <time>2022-06-19T06:58:42Z</time>
      </trkpt>
      <trkpt lat="45.71822" lon="5.61878">
        <ele>319</ele>
        <time>2022-06-19T06:58:43Z</time>
      </trkpt>
      <trkpt lat="45.71818" lon="5.61886">
        <ele>319</ele>
        <time>2022-06-19T06:58:44Z</time>
      </trkpt>
      <trkpt lat="45.71804" lon="5.6192">
        <ele>318.6</ele>
        <time>2022-06-19T06:58:47Z</time>
      </trkpt>
      <trkpt lat="45.71797" lon="5.61939">
        <ele>317.8</ele>
        <time>2022-06-19T06:58:49Z</time>
      </trkpt>
      <trkpt lat="45.71778" lon="5.61979">
        <ele>317</ele>
        <time>2022-06-19T06:58:53Z</time>
      </trkpt>
      <trkpt lat="45.71745" lon="5.62032">
        <ele>316.8</ele>
        <time>2022-06-19T06:58:59Z</time>
      </trkpt>
      <trkpt lat="45.71738" lon="5.62038">
        <ele>316.8</ele>
        <time>2022-06-19T06:59:00Z</time>
      </trkpt>
      <trkpt lat="45.71731" lon="5.62042">
        <ele>316.6</ele>
        <time>2022-06-19T06:59:01Z</time>
      </trkpt>
      <trkpt lat="45.71714" lon="5.62045">
        <ele>316.6</ele>
        <time>2022-06-19T06:59:03Z</time>
      </trkpt>
      <trkpt lat="45.71673" lon="5.62034">
        <ele>317</ele>
        <time>2022-06-19T06:59:08Z</time>
      </trkpt>
      <trkpt lat="45.71648" lon="5.62027">
        <ele>317.2</ele>
        <time>2022-06-19T06:59:11Z</time>
      </trkpt>
      <trkpt lat="45.71632" lon="5.62026">
        <ele>317.2</ele>
        <time>2022-06-19T06:59:13Z</time>
      </trkpt>
      <trkpt lat="45.71584" lon="5.6203">
        <ele>317.4</ele>
        <time>2022-06-19T06:59:19Z</time>
      </trkpt>
      <trkpt lat="45.71528" lon="5.6204">
        <ele>317.6</ele>
        <time>2022-06-19T06:59:26Z</time>
      </trkpt>
      <trkpt lat="45.71505" lon="5.62044">
        <ele>317.8</ele>
        <time>2022-06-19T06:59:29Z</time>
      </trkpt>
      <trkpt lat="45.71497" lon="5.62045">
        <ele>318</ele>
        <time>2022-06-19T06:59:30Z</time>
      </trkpt>
      <trkpt lat="45.71475" lon="5.62056">
        <ele>318</ele>
        <time>2022-06-19T06:59:33Z</time>
      </trkpt>
      <trkpt lat="45.71434" lon="5.62089">
        <ele>318</ele>
        <time>2022-06-19T06:59:39Z</time>
      </trkpt>
      <trkpt lat="45.71428" lon="5.62095">
        <ele>317.8</ele>
        <time>2022-06-19T06:59:40Z</time>
      </trkpt>
      <trkpt lat="45.71399" lon="5.62115">
        <ele>317.6</ele>
        <time>2022-06-19T06:59:44Z</time>
      </trkpt>
      <trkpt lat="45.71353" lon="5.62136">
        <ele>317.2</ele>
        <time>2022-06-19T06:59:50Z</time>
      </trkpt>
      <trkpt lat="45.71321" lon="5.6215">
        <ele>317</ele>
        <time>2022-06-19T06:59:54Z</time>
      </trkpt>
      <trkpt lat="45.71299" lon="5.62161">
        <ele>316.6</ele>
        <time>2022-06-19T06:59:57Z</time>
      </trkpt>
      <trkpt lat="45.71246" lon="5.62182">
        <ele>316</ele>
        <time>2022-06-19T07:00:04Z</time>
      </trkpt>
      <trkpt lat="45.71231" lon="5.62189">
        <ele>316</ele>
        <time>2022-06-19T07:00:06Z</time>
      </trkpt>
      <trkpt lat="45.71223" lon="5.62193">
        <ele>316</ele>
        <time>2022-06-19T07:00:07Z</time>
      </trkpt>
      <trkpt lat="45.71179" lon="5.62226">
        <ele>315.8</ele>
        <time>2022-06-19T07:00:13Z</time>
      </trkpt>
      <trkpt lat="45.7113" lon="5.62268">
        <ele>315.8</ele>
        <time>2022-06-19T07:00:20Z</time>
      </trkpt>
      <trkpt lat="45.71083" lon="5.6231">
        <ele>315.8</ele>
        <time>2022-06-19T07:00:27Z</time>
      </trkpt>
      <trkpt lat="45.71076" lon="5.62316">
        <ele>315.8</ele>
        <time>2022-06-19T07:00:28Z</time>
      </trkpt>
      <trkpt lat="45.71027" lon="5.62354">
        <ele>316.6</ele>
        <time>2022-06-19T07:00:35Z</time>
      </trkpt>
      <trkpt lat="45.71" lon="5.62375">
        <ele>317.2</ele>
        <time>2022-06-19T07:00:39Z</time>
      </trkpt>
      <trkpt lat="45.70979" lon="5.6239">
        <ele>317.2</ele>
        <time>2022-06-19T07:00:42Z</time>
      </trkpt>
      <trkpt lat="45.70942" lon="5.62412">
        <ele>317</ele>
        <time>2022-06-19T07:00:47Z</time>
      </trkpt>
      <trkpt lat="45.70899" lon="5.62436">
        <ele>317.2</ele>
        <time>2022-06-19T07:00:53Z</time>
      </trkpt>
      <trkpt lat="45.70864" lon="5.6247">
        <ele>317</ele>
        <time>2022-06-19T07:00:58Z</time>
      </trkpt>
      <trkpt lat="45.70821" lon="5.62508">
        <ele>316.6</ele>
        <time>2022-06-19T07:01:04Z</time>
      </trkpt>
      <trkpt lat="45.7078" lon="5.62541">
        <ele>316.4</ele>
        <time>2022-06-19T07:01:10Z</time>
      </trkpt>
      <trkpt lat="45.70768" lon="5.62553">
        <ele>316.2</ele>
        <time>2022-06-19T07:01:12Z</time>
      </trkpt>
      <trkpt lat="45.70748" lon="5.62569">
        <ele>316.4</ele>
        <time>2022-06-19T07:01:15Z</time>
      </trkpt>
      <trkpt lat="45.70707" lon="5.62597">
        <ele>317</ele>
        <time>2022-06-19T07:01:21Z</time>
      </trkpt>
      <trkpt lat="45.707" lon="5.62602">
        <ele>317</ele>
        <time>2022-06-19T07:01:22Z</time>
      </trkpt>
      <trkpt lat="45.70678" lon="5.62621">
        <ele>317</ele>
        <time>2022-06-19T07:01:25Z</time>
      </trkpt>
      <trkpt lat="45.7066" lon="5.62642">
        <ele>316.6</ele>
        <time>2022-06-19T07:01:28Z</time>
      </trkpt>
      <trkpt lat="45.70651" lon="5.6266">
        <ele>316.8</ele>
        <time>2022-06-19T07:01:30Z</time>
      </trkpt>
      <trkpt lat="45.70633" lon="5.62705">
        <ele>316.8</ele>
        <time>2022-06-19T07:01:34Z</time>
      </trkpt>
      <trkpt lat="45.7063" lon="5.62716">
        <ele>316.6</ele>
        <time>2022-06-19T07:01:35Z</time>
      </trkpt>
      <trkpt lat="45.70622" lon="5.62774">
        <ele>317</ele>
        <time>2022-06-19T07:01:40Z</time>
      </trkpt>
      <trkpt lat="45.70616" lon="5.62835">
        <ele>316.2</ele>
        <time>2022-06-19T07:01:45Z</time>
      </trkpt>
      <trkpt lat="45.70607" lon="5.62898">
        <ele>315.8</ele>
        <time>2022-06-19T07:01:50Z</time>
      </trkpt>
      <trkpt lat="45.70601" lon="5.62945">
        <ele>315</ele>
        <time>2022-06-19T07:01:54Z</time>
      </trkpt>
      <trkpt lat="45.70601" lon="5.62969">
        <ele>314.8</ele>
        <time>2022-06-19T07:01:56Z</time>
      </trkpt>
      <trkpt lat="45.70597" lon="5.63039">
        <ele>313.8</ele>
        <time>2022-06-19T07:02:02Z</time>
      </trkpt>
      <trkpt lat="45.70596" lon="5.63051">
        <ele>313.8</ele>
        <time>2022-06-19T07:02:03Z</time>
      </trkpt>
      <trkpt lat="45.70588" lon="5.63122">
        <ele>313.6</ele>
        <time>2022-06-19T07:02:09Z</time>
      </trkpt>
      <trkpt lat="45.70575" lon="5.63207">
        <ele>314</ele>
        <time>2022-06-19T07:02:17Z</time>
      </trkpt>
      <trkpt lat="45.70562" lon="5.63258">
        <ele>314.6</ele>
        <time>2022-06-19T07:02:22Z</time>
      </trkpt>
      <trkpt lat="45.70548" lon="5.63287">
        <ele>314.8</ele>
        <time>2022-06-19T07:02:25Z</time>
      </trkpt>
      <trkpt lat="45.70537" lon="5.63305">
        <ele>314.8</ele>
        <time>2022-06-19T07:02:27Z</time>
      </trkpt>
      <trkpt lat="45.70505" lon="5.63342">
        <ele>314.4</ele>
        <time>2022-06-19T07:02:32Z</time>
      </trkpt>
      <trkpt lat="45.70472" lon="5.6337">
        <ele>314</ele>
        <time>2022-06-19T07:02:37Z</time>
      </trkpt>
      <trkpt lat="45.70459" lon="5.63381">
        <ele>314</ele>
        <time>2022-06-19T07:02:39Z</time>
      </trkpt>
      <trkpt lat="45.70445" lon="5.63392">
        <ele>313.8</ele>
        <time>2022-06-19T07:02:41Z</time>
      </trkpt>
      <trkpt lat="45.70438" lon="5.63397">
        <ele>313.8</ele>
        <time>2022-06-19T07:02:42Z</time>
      </trkpt>
      <trkpt lat="45.70418" lon="5.63414">
        <ele>313.8</ele>
        <time>2022-06-19T07:02:45Z</time>
      </trkpt>
      <trkpt lat="45.70411" lon="5.63421">
        <ele>314</ele>
        <time>2022-06-19T07:02:46Z</time>
      </trkpt>
      <trkpt lat="45.70398" lon="5.63436">
        <ele>314</ele>
        <time>2022-06-19T07:02:48Z</time>
      </trkpt>
      <trkpt lat="45.70386" lon="5.63454">
        <ele>314</ele>
        <time>2022-06-19T07:02:50Z</time>
      </trkpt>
      <trkpt lat="45.7038" lon="5.63461">
        <ele>313.8</ele>
        <time>2022-06-19T07:02:51Z</time>
      </trkpt>
      <trkpt lat="45.70374" lon="5.63469">
        <ele>313.8</ele>
        <time>2022-06-19T07:02:52Z</time>
      </trkpt>
      <trkpt lat="45.70359" lon="5.63497">
        <ele>313.8</ele>
        <time>2022-06-19T07:02:55Z</time>
      </trkpt>
      <trkpt lat="45.70355" lon="5.63507">
        <ele>313.6</ele>
        <time>2022-06-19T07:02:56Z</time>
      </trkpt>
      <trkpt lat="45.70351" lon="5.63518">
        <ele>313.6</ele>
        <time>2022-06-19T07:02:57Z</time>
      </trkpt>
      <trkpt lat="45.7034" lon="5.63551">
        <ele>313.2</ele>
        <time>2022-06-19T07:03:00Z</time>
      </trkpt>
      <trkpt lat="45.70314" lon="5.63611">
        <ele>313</ele>
        <time>2022-06-19T07:03:06Z</time>
      </trkpt>
      <trkpt lat="45.70286" lon="5.63656">
        <ele>312.4</ele>
        <time>2022-06-19T07:03:11Z</time>
      </trkpt>
      <trkpt lat="45.70274" lon="5.63672">
        <ele>312.2</ele>
        <time>2022-06-19T07:03:13Z</time>
      </trkpt>
      <trkpt lat="45.70231" lon="5.6373">
        <ele>311.8</ele>
        <time>2022-06-19T07:03:20Z</time>
      </trkpt>
      <trkpt lat="45.70193" lon="5.63784">
        <ele>311.6</ele>
        <time>2022-06-19T07:03:27Z</time>
      </trkpt>
      <trkpt lat="45.70174" lon="5.6382">
        <ele>311.4</ele>
        <time>2022-06-19T07:03:31Z</time>
      </trkpt>
      <trkpt lat="45.70161" lon="5.6385">
        <ele>311.2</ele>
        <time>2022-06-19T07:03:34Z</time>
      </trkpt>
      <trkpt lat="45.70132" lon="5.63918">
        <ele>310.8</ele>
        <time>2022-06-19T07:03:41Z</time>
      </trkpt>
      <trkpt lat="45.70119" lon="5.63948">
        <ele>310.8</ele>
        <time>2022-06-19T07:03:44Z</time>
      </trkpt>
      <trkpt lat="45.7009" lon="5.64013">
        <ele>311.2</ele>
        <time>2022-06-19T07:03:51Z</time>
      </trkpt>
      <trkpt lat="45.70066" lon="5.64075">
        <ele>311.6</ele>
        <time>2022-06-19T07:03:58Z</time>
      </trkpt>
      <trkpt lat="45.70033" lon="5.64137">
        <ele>312.4</ele>
        <time>2022-06-19T07:04:05Z</time>
      </trkpt>
      <trkpt lat="45.7002" lon="5.64164">
        <ele>312.6</ele>
        <time>2022-06-19T07:04:08Z</time>
      </trkpt>
      <trkpt lat="45.70006" lon="5.64192">
        <ele>312.6</ele>
        <time>2022-06-19T07:04:11Z</time>
      </trkpt>
      <trkpt lat="45.69978" lon="5.64257">
        <ele>312.2</ele>
        <time>2022-06-19T07:04:18Z</time>
      </trkpt>
      <trkpt lat="45.69948" lon="5.64315">
        <ele>311.6</ele>
        <time>2022-06-19T07:04:24Z</time>
      </trkpt>
      <trkpt lat="45.69935" lon="5.64348">
        <ele>310.8</ele>
        <time>2022-06-19T07:04:27Z</time>
      </trkpt>
      <trkpt lat="45.69921" lon="5.64381">
        <ele>309.6</ele>
        <time>2022-06-19T07:04:30Z</time>
      </trkpt>
      <trkpt lat="45.69892" lon="5.64451">
        <ele>308.8</ele>
        <time>2022-06-19T07:04:37Z</time>
      </trkpt>
      <trkpt lat="45.69864" lon="5.64507">
        <ele>308.6</ele>
        <time>2022-06-19T07:04:43Z</time>
      </trkpt>
      <trkpt lat="45.69859" lon="5.64516">
        <ele>308.6</ele>
        <time>2022-06-19T07:04:44Z</time>
      </trkpt>
      <trkpt lat="45.69824" lon="5.64577">
        <ele>308</ele>
        <time>2022-06-19T07:04:51Z</time>
      </trkpt>
      <trkpt lat="45.6981" lon="5.64602">
        <ele>308</ele>
        <time>2022-06-19T07:04:54Z</time>
      </trkpt>
      <trkpt lat="45.69806" lon="5.6461">
        <ele>308.2</ele>
        <time>2022-06-19T07:04:55Z</time>
      </trkpt>
      <trkpt lat="45.698" lon="5.64628">
        <ele>308.4</ele>
        <time>2022-06-19T07:04:57Z</time>
      </trkpt>
      <trkpt lat="45.69799" lon="5.64658">
        <ele>309</ele>
        <time>2022-06-19T07:05:00Z</time>
      </trkpt>
      <trkpt lat="45.698" lon="5.64667">
        <ele>309.2</ele>
        <time>2022-06-19T07:05:01Z</time>
      </trkpt>
      <trkpt lat="45.69802" lon="5.64684">
        <ele>309.6</ele>
        <time>2022-06-19T07:05:03Z</time>
      </trkpt>
      <trkpt lat="45.69803" lon="5.64693">
        <ele>309.8</ele>
        <time>2022-06-19T07:05:04Z</time>
      </trkpt>
      <trkpt lat="45.69807" lon="5.64712">
        <ele>310.2</ele>
        <time>2022-06-19T07:05:06Z</time>
      </trkpt>
      <trkpt lat="45.69809" lon="5.6472">
        <ele>310.8</ele>
        <time>2022-06-19T07:05:07Z</time>
      </trkpt>
      <trkpt lat="45.69812" lon="5.64727">
        <ele>311.2</ele>
        <time>2022-06-19T07:05:08Z</time>
      </trkpt>
      <trkpt lat="45.69822" lon="5.64741">
        <ele>311.8</ele>
        <time>2022-06-19T07:05:10Z</time>
      </trkpt>
      <trkpt lat="45.69827" lon="5.64747">
        <ele>312</ele>
        <time>2022-06-19T07:05:11Z</time>
      </trkpt>
      <trkpt lat="45.69848" lon="5.64767">
        <ele>313</ele>
        <time>2022-06-19T07:05:15Z</time>
      </trkpt>
      <trkpt lat="45.69872" lon="5.6479">
        <ele>313.4</ele>
        <time>2022-06-19T07:05:19Z</time>
      </trkpt>
      <trkpt lat="45.69917" lon="5.64833">
        <ele>314.2</ele>
        <time>2022-06-19T07:05:27Z</time>
      </trkpt>
      <trkpt lat="45.69949" lon="5.64862">
        <ele>315.4</ele>
        <time>2022-06-19T07:05:33Z</time>
      </trkpt>
      <trkpt lat="45.69954" lon="5.64866">
        <ele>315.4</ele>
        <time>2022-06-19T07:05:34Z</time>
      </trkpt>
      <trkpt lat="45.69978" lon="5.64887">
        <ele>315.8</ele>
        <time>2022-06-19T07:05:38Z</time>
      </trkpt>
      <trkpt lat="45.69986" lon="5.64898">
        <ele>316.4</ele>
        <time>2022-06-19T07:05:40Z</time>
      </trkpt>
      <trkpt lat="45.69991" lon="5.64913">
        <ele>316.6</ele>
        <time>2022-06-19T07:05:42Z</time>
      </trkpt>
      <trkpt lat="45.69991" lon="5.6492">
        <ele>316.8</ele>
        <time>2022-06-19T07:05:43Z</time>
      </trkpt>
      <trkpt lat="45.6999" lon="5.64926">
        <ele>317</ele>
        <time>2022-06-19T07:05:44Z</time>
      </trkpt>
      <trkpt lat="45.69987" lon="5.6494">
        <ele>317.4</ele>
        <time>2022-06-19T07:05:46Z</time>
      </trkpt>
      <trkpt lat="45.69983" lon="5.64945">
        <ele>317.6</ele>
        <time>2022-06-19T07:05:47Z</time>
      </trkpt>
      <trkpt lat="45.69977" lon="5.64949">
        <ele>317.6</ele>
        <time>2022-06-19T07:05:48Z</time>
      </trkpt>
      <trkpt lat="45.69965" lon="5.64955">
        <ele>317.6</ele>
        <time>2022-06-19T07:05:50Z</time>
      </trkpt>
      <trkpt lat="45.69919" lon="5.64977">
        <ele>317.6</ele>
        <time>2022-06-19T07:05:56Z</time>
      </trkpt>
      <trkpt lat="45.69885" lon="5.64992">
        <ele>316.6</ele>
        <time>2022-06-19T07:06:00Z</time>
      </trkpt>
      <trkpt lat="45.69877" lon="5.64997">
        <ele>316.4</ele>
        <time>2022-06-19T07:06:01Z</time>
      </trkpt>
      <trkpt lat="45.69845" lon="5.65014">
        <ele>315.4</ele>
        <time>2022-06-19T07:06:05Z</time>
      </trkpt>
      <trkpt lat="45.6982" lon="5.65032">
        <ele>315</ele>
        <time>2022-06-19T07:06:08Z</time>
      </trkpt>
      <trkpt lat="45.69804" lon="5.65045">
        <ele>314.2</ele>
        <time>2022-06-19T07:06:10Z</time>
      </trkpt>
      <trkpt lat="45.69771" lon="5.65074">
        <ele>313.2</ele>
        <time>2022-06-19T07:06:14Z</time>
      </trkpt>
      <trkpt lat="45.69754" lon="5.65089">
        <ele>313</ele>
        <time>2022-06-19T07:06:16Z</time>
      </trkpt>
      <trkpt lat="45.69728" lon="5.65107">
        <ele>311.8</ele>
        <time>2022-06-19T07:06:19Z</time>
      </trkpt>
      <trkpt lat="45.69719" lon="5.65112">
        <ele>311.4</ele>
        <time>2022-06-19T07:06:20Z</time>
      </trkpt>
      <trkpt lat="45.69692" lon="5.65125">
        <ele>310.4</ele>
        <time>2022-06-19T07:06:23Z</time>
      </trkpt>
      <trkpt lat="45.69666" lon="5.65136">
        <ele>310</ele>
        <time>2022-06-19T07:06:26Z</time>
      </trkpt>
      <trkpt lat="45.69644" lon="5.65146">
        <ele>309.6</ele>
        <time>2022-06-19T07:06:29Z</time>
      </trkpt>
      <trkpt lat="45.69637" lon="5.6515">
        <ele>309.4</ele>
        <time>2022-06-19T07:06:30Z</time>
      </trkpt>
      <trkpt lat="45.69599" lon="5.65176">
        <ele>309.2</ele>
        <time>2022-06-19T07:06:35Z</time>
      </trkpt>
      <trkpt lat="45.69561" lon="5.65204">
        <ele>309</ele>
        <time>2022-06-19T07:06:40Z</time>
      </trkpt>
      <trkpt lat="45.69554" lon="5.65209">
        <ele>309</ele>
        <time>2022-06-19T07:06:41Z</time>
      </trkpt>
      <trkpt lat="45.69526" lon="5.6523">
        <ele>309.6</ele>
        <time>2022-06-19T07:06:45Z</time>
      </trkpt>
      <trkpt lat="45.69481" lon="5.65261">
        <ele>309.6</ele>
        <time>2022-06-19T07:06:51Z</time>
      </trkpt>
      <trkpt lat="45.69425" lon="5.65291">
        <ele>309.6</ele>
        <time>2022-06-19T07:06:58Z</time>
      </trkpt>
      <trkpt lat="45.69416" lon="5.65296">
        <ele>309.6</ele>
        <time>2022-06-19T07:06:59Z</time>
      </trkpt>
      <trkpt lat="45.69364" lon="5.65324">
        <ele>309.6</ele>
        <time>2022-06-19T07:07:06Z</time>
      </trkpt>
      <trkpt lat="45.69346" lon="5.65334">
        <ele>309.4</ele>
        <time>2022-06-19T07:07:08Z</time>
      </trkpt>
      <trkpt lat="45.6929" lon="5.65364">
        <ele>309.2</ele>
        <time>2022-06-19T07:07:15Z</time>
      </trkpt>
      <trkpt lat="45.69276" lon="5.65372">
        <ele>309</ele>
        <time>2022-06-19T07:07:17Z</time>
      </trkpt>
      <trkpt lat="45.69218" lon="5.65393">
        <ele>309.2</ele>
        <time>2022-06-19T07:07:24Z</time>
      </trkpt>
      <trkpt lat="45.6917" lon="5.654">
        <ele>309.4</ele>
        <time>2022-06-19T07:07:30Z</time>
      </trkpt>
      <trkpt lat="45.69113" lon="5.65408">
        <ele>309.8</ele>
        <time>2022-06-19T07:07:37Z</time>
      </trkpt>
      <trkpt lat="45.69056" lon="5.65417">
        <ele>310</ele>
        <time>2022-06-19T07:07:44Z</time>
      </trkpt>
      <trkpt lat="45.69048" lon="5.65419">
        <ele>310</ele>
        <time>2022-06-19T07:07:45Z</time>
      </trkpt>
      <trkpt lat="45.6899" lon="5.6543">
        <ele>309.8</ele>
        <time>2022-06-19T07:07:52Z</time>
      </trkpt>
      <trkpt lat="45.68967" lon="5.65434">
        <ele>309.6</ele>
        <time>2022-06-19T07:07:55Z</time>
      </trkpt>
      <trkpt lat="45.68917" lon="5.65444">
        <ele>309.2</ele>
        <time>2022-06-19T07:08:01Z</time>
      </trkpt>
      <trkpt lat="45.68902" lon="5.65447">
        <ele>309.2</ele>
        <time>2022-06-19T07:08:03Z</time>
      </trkpt>
      <trkpt lat="45.68844" lon="5.65457">
        <ele>308.8</ele>
        <time>2022-06-19T07:08:10Z</time>
      </trkpt>
      <trkpt lat="45.68827" lon="5.6546">
        <ele>308.8</ele>
        <time>2022-06-19T07:08:12Z</time>
      </trkpt>
      <trkpt lat="45.68803" lon="5.65461">
        <ele>308.6</ele>
        <time>2022-06-19T07:08:15Z</time>
      </trkpt>
      <trkpt lat="45.68794" lon="5.65462">
        <ele>308.6</ele>
        <time>2022-06-19T07:08:16Z</time>
      </trkpt>
      <trkpt lat="45.68742" lon="5.65461">
        <ele>308.2</ele>
        <time>2022-06-19T07:08:22Z</time>
      </trkpt>
      <trkpt lat="45.6869" lon="5.65456">
        <ele>307.6</ele>
        <time>2022-06-19T07:08:28Z</time>
      </trkpt>
      <trkpt lat="45.68646" lon="5.65452">
        <ele>306.4</ele>
        <time>2022-06-19T07:08:33Z</time>
      </trkpt>
      <trkpt lat="45.68586" lon="5.65445">
        <ele>305.4</ele>
        <time>2022-06-19T07:08:40Z</time>
      </trkpt>
      <trkpt lat="45.68566" lon="5.65443">
        <ele>305.4</ele>
        <time>2022-06-19T07:08:42Z</time>
      </trkpt>
      <trkpt lat="45.68548" lon="5.65441">
        <ele>305.2</ele>
        <time>2022-06-19T07:08:44Z</time>
      </trkpt>
      <trkpt lat="45.68487" lon="5.65434">
        <ele>304.2</ele>
        <time>2022-06-19T07:08:51Z</time>
      </trkpt>
      <trkpt lat="45.68459" lon="5.65432">
        <ele>304</ele>
        <time>2022-06-19T07:08:54Z</time>
      </trkpt>
      <trkpt lat="45.68397" lon="5.65424">
        <ele>303.6</ele>
        <time>2022-06-19T07:09:01Z</time>
      </trkpt>
      <trkpt lat="45.68369" lon="5.65418">
        <ele>303.4</ele>
        <time>2022-06-19T07:09:04Z</time>
      </trkpt>
      <trkpt lat="45.68311" lon="5.65396">
        <ele>303.4</ele>
        <time>2022-06-19T07:09:11Z</time>
      </trkpt>
      <trkpt lat="45.68277" lon="5.65376">
        <ele>303.2</ele>
        <time>2022-06-19T07:09:15Z</time>
      </trkpt>
      <trkpt lat="45.68231" lon="5.65349">
        <ele>302.6</ele>
        <time>2022-06-19T07:09:21Z</time>
      </trkpt>
      <trkpt lat="45.68175" lon="5.65316">
        <ele>302.4</ele>
        <time>2022-06-19T07:09:28Z</time>
      </trkpt>
      <trkpt lat="45.68166" lon="5.6531">
        <ele>302.4</ele>
        <time>2022-06-19T07:09:29Z</time>
      </trkpt>
      <trkpt lat="45.68113" lon="5.65277">
        <ele>302.4</ele>
        <time>2022-06-19T07:09:36Z</time>
      </trkpt>
      <trkpt lat="45.6809" lon="5.65263">
        <ele>302.4</ele>
        <time>2022-06-19T07:09:39Z</time>
      </trkpt>
      <trkpt lat="45.68036" lon="5.6523">
        <ele>302.4</ele>
        <time>2022-06-19T07:09:46Z</time>
      </trkpt>
      <trkpt lat="45.68013" lon="5.65216">
        <ele>302.4</ele>
        <time>2022-06-19T07:09:49Z</time>
      </trkpt>
      <trkpt lat="45.67996" lon="5.65206">
        <ele>302.2</ele>
        <time>2022-06-19T07:09:51Z</time>
      </trkpt>
      <trkpt lat="45.67943" lon="5.65173">
        <ele>301.4</ele>
        <time>2022-06-19T07:09:58Z</time>
      </trkpt>
      <trkpt lat="45.67935" lon="5.65168">
        <ele>301.2</ele>
        <time>2022-06-19T07:09:59Z</time>
      </trkpt>
      <trkpt lat="45.67896" lon="5.65145">
        <ele>301.2</ele>
        <time>2022-06-19T07:10:04Z</time>
      </trkpt>
      <trkpt lat="45.67842" lon="5.65112">
        <ele>301</ele>
        <time>2022-06-19T07:10:11Z</time>
      </trkpt>
      <trkpt lat="45.67819" lon="5.65099">
        <ele>300.8</ele>
        <time>2022-06-19T07:10:14Z</time>
      </trkpt>
      <trkpt lat="45.67766" lon="5.65066">
        <ele>301.2</ele>
        <time>2022-06-19T07:10:21Z</time>
      </trkpt>
      <trkpt lat="45.67715" lon="5.65036">
        <ele>301.2</ele>
        <time>2022-06-19T07:10:28Z</time>
      </trkpt>
      <trkpt lat="45.67698" lon="5.65026">
        <ele>301</ele>
        <time>2022-06-19T07:10:30Z</time>
      </trkpt>
      <trkpt lat="45.67646" lon="5.64989">
        <ele>300.6</ele>
        <time>2022-06-19T07:10:37Z</time>
      </trkpt>
      <trkpt lat="45.67625" lon="5.64972">
        <ele>300.6</ele>
        <time>2022-06-19T07:10:40Z</time>
      </trkpt>
      <trkpt lat="45.67602" lon="5.64952">
        <ele>300.4</ele>
        <time>2022-06-19T07:10:43Z</time>
      </trkpt>
      <trkpt lat="45.6758" lon="5.64932">
        <ele>300.4</ele>
        <time>2022-06-19T07:10:46Z</time>
      </trkpt>
      <trkpt lat="45.67538" lon="5.64894">
        <ele>299.8</ele>
        <time>2022-06-19T07:10:52Z</time>
      </trkpt>
      <trkpt lat="45.6751" lon="5.64872">
        <ele>299.6</ele>
        <time>2022-06-19T07:10:56Z</time>
      </trkpt>
      <trkpt lat="45.67493" lon="5.64858">
        <ele>299.4</ele>
        <time>2022-06-19T07:10:58Z</time>
      </trkpt>
      <trkpt lat="45.67444" lon="5.64804">
        <ele>299.4</ele>
        <time>2022-06-19T07:11:05Z</time>
      </trkpt>
      <trkpt lat="45.67433" lon="5.64787">
        <ele>299.4</ele>
        <time>2022-06-19T07:11:07Z</time>
      </trkpt>
      <trkpt lat="45.6742" lon="5.64758">
        <ele>299.4</ele>
        <time>2022-06-19T07:11:10Z</time>
      </trkpt>
      <trkpt lat="45.6741" lon="5.64736">
        <ele>299.6</ele>
        <time>2022-06-19T07:11:12Z</time>
      </trkpt>
      <trkpt lat="45.67404" lon="5.64714">
        <ele>299.6</ele>
        <time>2022-06-19T07:11:14Z</time>
      </trkpt>
      <trkpt lat="45.67393" lon="5.64655">
        <ele>299.6</ele>
        <time>2022-06-19T07:11:19Z</time>
      </trkpt>
      <trkpt lat="45.67392" lon="5.64642">
        <ele>299.8</ele>
        <time>2022-06-19T07:11:20Z</time>
      </trkpt>
      <trkpt lat="45.67392" lon="5.64603">
        <ele>299.8</ele>
        <time>2022-06-19T07:11:23Z</time>
      </trkpt>
      <trkpt lat="45.67393" lon="5.64591">
        <ele>299.6</ele>
        <time>2022-06-19T07:11:24Z</time>
      </trkpt>
      <trkpt lat="45.67404" lon="5.64516">
        <ele>299.6</ele>
        <time>2022-06-19T07:11:30Z</time>
      </trkpt>
      <trkpt lat="45.67417" lon="5.64454">
        <ele>299.4</ele>
        <time>2022-06-19T07:11:35Z</time>
      </trkpt>
      <trkpt lat="45.6742" lon="5.64442">
        <ele>299.4</ele>
        <time>2022-06-19T07:11:36Z</time>
      </trkpt>
      <trkpt lat="45.67429" lon="5.6439">
        <ele>298.8</ele>
        <time>2022-06-19T07:11:40Z</time>
      </trkpt>
      <trkpt lat="45.6744" lon="5.64316">
        <ele>298.6</ele>
        <time>2022-06-19T07:11:46Z</time>
      </trkpt>
      <trkpt lat="45.67441" lon="5.64291">
        <ele>298.6</ele>
        <time>2022-06-19T07:11:48Z</time>
      </trkpt>
      <trkpt lat="45.67441" lon="5.64278">
        <ele>298.4</ele>
        <time>2022-06-19T07:11:49Z</time>
      </trkpt>
      <trkpt lat="45.6744" lon="5.64253">
        <ele>298.4</ele>
        <time>2022-06-19T07:11:51Z</time>
      </trkpt>
      <trkpt lat="45.67434" lon="5.64174">
        <ele>298.2</ele>
        <time>2022-06-19T07:11:57Z</time>
      </trkpt>
      <trkpt lat="45.67424" lon="5.64135">
        <ele>298.2</ele>
        <time>2022-06-19T07:12:00Z</time>
      </trkpt>
      <trkpt lat="45.67419" lon="5.64107">
        <ele>297.6</ele>
        <time>2022-06-19T07:12:02Z</time>
      </trkpt>
      <trkpt lat="45.67413" lon="5.64078">
        <ele>297.2</ele>
        <time>2022-06-19T07:12:04Z</time>
      </trkpt>
      <trkpt lat="45.67405" lon="5.64011">
        <ele>296.6</ele>
        <time>2022-06-19T07:12:09Z</time>
      </trkpt>
      <trkpt lat="45.67402" lon="5.63987">
        <ele>296.4</ele>
        <time>2022-06-19T07:12:11Z</time>
      </trkpt>
      <trkpt lat="45.67392" lon="5.63909">
        <ele>295.6</ele>
        <time>2022-06-19T07:12:17Z</time>
      </trkpt>
      <trkpt lat="45.6739" lon="5.63897">
        <ele>295.4</ele>
        <time>2022-06-19T07:12:18Z</time>
      </trkpt>
      <trkpt lat="45.67375" lon="5.63838">
        <ele>295.2</ele>
        <time>2022-06-19T07:12:23Z</time>
      </trkpt>
      <trkpt lat="45.67349" lon="5.63769">
        <ele>294.4</ele>
        <time>2022-06-19T07:12:29Z</time>
      </trkpt>
      <trkpt lat="45.67345" lon="5.63758">
        <ele>294.4</ele>
        <time>2022-06-19T07:12:30Z</time>
      </trkpt>
      <trkpt lat="45.67322" lon="5.63701">
        <ele>293.4</ele>
        <time>2022-06-19T07:12:35Z</time>
      </trkpt>
      <trkpt lat="45.67296" lon="5.63632">
        <ele>292.6</ele>
        <time>2022-06-19T07:12:41Z</time>
      </trkpt>
      <trkpt lat="45.6727" lon="5.63563">
        <ele>292.4</ele>
        <time>2022-06-19T07:12:47Z</time>
      </trkpt>
      <trkpt lat="45.67244" lon="5.63496">
        <ele>292.8</ele>
        <time>2022-06-19T07:12:53Z</time>
      </trkpt>
      <trkpt lat="45.6724" lon="5.63484">
        <ele>292.8</ele>
        <time>2022-06-19T07:12:54Z</time>
      </trkpt>
      <trkpt lat="45.67219" lon="5.63428">
        <ele>292.4</ele>
        <time>2022-06-19T07:12:59Z</time>
      </trkpt>
      <trkpt lat="45.67193" lon="5.63358">
        <ele>291.8</ele>
        <time>2022-06-19T07:13:05Z</time>
      </trkpt>
      <trkpt lat="45.67168" lon="5.6329">
        <ele>291.8</ele>
        <time>2022-06-19T07:13:11Z</time>
      </trkpt>
      <trkpt lat="45.67151" lon="5.63245">
        <ele>291.4</ele>
        <time>2022-06-19T07:13:15Z</time>
      </trkpt>
      <trkpt lat="45.67147" lon="5.63235">
        <ele>291.2</ele>
        <time>2022-06-19T07:13:16Z</time>
      </trkpt>
      <trkpt lat="45.67118" lon="5.63158">
        <ele>290.6</ele>
        <time>2022-06-19T07:13:23Z</time>
      </trkpt>
      <trkpt lat="45.6711" lon="5.63137">
        <ele>290.6</ele>
        <time>2022-06-19T07:13:25Z</time>
      </trkpt>
      <trkpt lat="45.67102" lon="5.63115">
        <ele>290.2</ele>
        <time>2022-06-19T07:13:27Z</time>
      </trkpt>
      <trkpt lat="45.67078" lon="5.63052">
        <ele>290</ele>
        <time>2022-06-19T07:13:33Z</time>
      </trkpt>
      <trkpt lat="45.6707" lon="5.63032">
        <ele>290.2</ele>
        <time>2022-06-19T07:13:35Z</time>
      </trkpt>
      <trkpt lat="45.67057" lon="5.62991">
        <ele>290.4</ele>
        <time>2022-06-19T07:13:39Z</time>
      </trkpt>
      <trkpt lat="45.6703" lon="5.62917">
        <ele>290.6</ele>
        <time>2022-06-19T07:13:46Z</time>
      </trkpt>
      <trkpt lat="45.67026" lon="5.62906">
        <ele>290.6</ele>
        <time>2022-06-19T07:13:47Z</time>
      </trkpt>
      <trkpt lat="45.67" lon="5.62834">
        <ele>290.6</ele>
        <time>2022-06-19T07:13:54Z</time>
      </trkpt>
      <trkpt lat="45.66996" lon="5.62823">
        <ele>290.6</ele>
        <time>2022-06-19T07:13:55Z</time>
      </trkpt>
      <trkpt lat="45.66967" lon="5.62749">
        <ele>290.8</ele>
        <time>2022-06-19T07:14:02Z</time>
      </trkpt>
      <trkpt lat="45.66938" lon="5.62675">
        <ele>291.2</ele>
        <time>2022-06-19T07:14:09Z</time>
      </trkpt>
      <trkpt lat="45.66926" lon="5.62645">
        <ele>290.8</ele>
        <time>2022-06-19T07:14:12Z</time>
      </trkpt>
      <trkpt lat="45.66895" lon="5.62575">
        <ele>290.6</ele>
        <time>2022-06-19T07:14:19Z</time>
      </trkpt>
      <trkpt lat="45.66891" lon="5.62566">
        <ele>290.6</ele>
        <time>2022-06-19T07:14:20Z</time>
      </trkpt>
      <trkpt lat="45.66874" lon="5.62515">
        <ele>290.2</ele>
        <time>2022-06-19T07:14:25Z</time>
      </trkpt>
      <trkpt lat="45.66869" lon="5.62493">
        <ele>290.2</ele>
        <time>2022-06-19T07:14:27Z</time>
      </trkpt>
      <trkpt lat="45.66864" lon="5.62459">
        <ele>289.8</ele>
        <time>2022-06-19T07:14:30Z</time>
      </trkpt>
      <trkpt lat="45.66859" lon="5.62438">
        <ele>289.8</ele>
        <time>2022-06-19T07:14:32Z</time>
      </trkpt>
      <trkpt lat="45.66852" lon="5.6242">
        <ele>290</ele>
        <time>2022-06-19T07:14:34Z</time>
      </trkpt>
      <trkpt lat="45.66836" lon="5.62395">
        <ele>290</ele>
        <time>2022-06-19T07:14:37Z</time>
      </trkpt>
      <trkpt lat="45.6683" lon="5.62386">
        <ele>290.2</ele>
        <time>2022-06-19T07:14:38Z</time>
      </trkpt>
      <trkpt lat="45.66805" lon="5.62357">
        <ele>290.4</ele>
        <time>2022-06-19T07:14:41Z</time>
      </trkpt>
      <trkpt lat="45.66796" lon="5.62334">
        <ele>290.6</ele>
        <time>2022-06-19T07:14:43Z</time>
      </trkpt>
      <trkpt lat="45.66786" lon="5.62283">
        <ele>290.4</ele>
        <time>2022-06-19T07:14:47Z</time>
      </trkpt>
      <trkpt lat="45.66787" lon="5.6227">
        <ele>290.4</ele>
        <time>2022-06-19T07:14:48Z</time>
      </trkpt>
      <trkpt lat="45.66791" lon="5.62194">
        <ele>289.2</ele>
        <time>2022-06-19T07:14:54Z</time>
      </trkpt>
      <trkpt lat="45.66797" lon="5.6213">
        <ele>288.2</ele>
        <time>2022-06-19T07:14:59Z</time>
      </trkpt>
      <trkpt lat="45.668" lon="5.62077">
        <ele>287.4</ele>
        <time>2022-06-19T07:15:03Z</time>
      </trkpt>
      <trkpt lat="45.66797" lon="5.62052">
        <ele>287</ele>
        <time>2022-06-19T07:15:05Z</time>
      </trkpt>
      <trkpt lat="45.66793" lon="5.62026">
        <ele>286.6</ele>
        <time>2022-06-19T07:15:07Z</time>
      </trkpt>
      <trkpt lat="45.66779" lon="5.61979">
        <ele>285.8</ele>
        <time>2022-06-19T07:15:11Z</time>
      </trkpt>
      <trkpt lat="45.66766" lon="5.61944">
        <ele>285.2</ele>
        <time>2022-06-19T07:15:14Z</time>
      </trkpt>
      <trkpt lat="45.66755" lon="5.61912">
        <ele>284.8</ele>
        <time>2022-06-19T07:15:17Z</time>
      </trkpt>
      <trkpt lat="45.66749" lon="5.61903">
        <ele>284.8</ele>
        <time>2022-06-19T07:15:18Z</time>
      </trkpt>
      <trkpt lat="45.66736" lon="5.61885">
        <ele>284.6</ele>
        <time>2022-06-19T07:15:20Z</time>
      </trkpt>
      <trkpt lat="45.66704" lon="5.61814">
        <ele>283.6</ele>
        <time>2022-06-19T07:15:27Z</time>
      </trkpt>
      <trkpt lat="45.66702" lon="5.61804">
        <ele>283.4</ele>
        <time>2022-06-19T07:15:28Z</time>
      </trkpt>
      <trkpt lat="45.66679" lon="5.61731">
        <ele>283.4</ele>
        <time>2022-06-19T07:15:35Z</time>
      </trkpt>
      <trkpt lat="45.66662" lon="5.61683">
        <ele>283</ele>
        <time>2022-06-19T07:15:40Z</time>
      </trkpt>
      <trkpt lat="45.66658" lon="5.61674">
        <ele>283</ele>
        <time>2022-06-19T07:15:41Z</time>
      </trkpt>
      <trkpt lat="45.66646" lon="5.61643">
        <ele>283</ele>
        <time>2022-06-19T07:15:44Z</time>
      </trkpt>
      <trkpt lat="45.66641" lon="5.61635">
        <ele>283</ele>
        <time>2022-06-19T07:15:45Z</time>
      </trkpt>
      <trkpt lat="45.66624" lon="5.6161">
        <ele>283</ele>
        <time>2022-06-19T07:15:48Z</time>
      </trkpt>
      <trkpt lat="45.66594" lon="5.61575">
        <ele>282.6</ele>
        <time>2022-06-19T07:15:53Z</time>
      </trkpt>
      <trkpt lat="45.66589" lon="5.61566">
        <ele>282.2</ele>
        <time>2022-06-19T07:15:54Z</time>
      </trkpt>
      <trkpt lat="45.66584" lon="5.61557">
        <ele>281.8</ele>
        <time>2022-06-19T07:15:55Z</time>
      </trkpt>
      <trkpt lat="45.66579" lon="5.61544">
        <ele>281.6</ele>
        <time>2022-06-19T07:15:56Z</time>
      </trkpt>
      <trkpt lat="45.66576" lon="5.61536">
        <ele>281.2</ele>
        <time>2022-06-19T07:15:57Z</time>
      </trkpt>
      <trkpt lat="45.66574" lon="5.61524">
        <ele>281</ele>
        <time>2022-06-19T07:15:58Z</time>
      </trkpt>
      <trkpt lat="45.66572" lon="5.61509">
        <ele>280.8</ele>
        <time>2022-06-19T07:15:59Z</time>
      </trkpt>
      <trkpt lat="45.66574" lon="5.61498">
        <ele>280.6</ele>
        <time>2022-06-19T07:16:00Z</time>
      </trkpt>
      <trkpt lat="45.66578" lon="5.6147">
        <ele>279.6</ele>
        <time>2022-06-19T07:16:02Z</time>
      </trkpt>
      <trkpt lat="45.6658" lon="5.61444">
        <ele>279.2</ele>
        <time>2022-06-19T07:16:04Z</time>
      </trkpt>
      <trkpt lat="45.66582" lon="5.61431">
        <ele>279.2</ele>
        <time>2022-06-19T07:16:05Z</time>
      </trkpt>
      <trkpt lat="45.66591" lon="5.61405">
        <ele>279</ele>
        <time>2022-06-19T07:16:07Z</time>
      </trkpt>
      <trkpt lat="45.66609" lon="5.61388">
        <ele>278.2</ele>
        <time>2022-06-19T07:16:09Z</time>
      </trkpt>
      <trkpt lat="45.6663" lon="5.61375">
        <ele>276.8</ele>
        <time>2022-06-19T07:16:11Z</time>
      </trkpt>
      <trkpt lat="45.66652" lon="5.61365">
        <ele>275.8</ele>
        <time>2022-06-19T07:16:13Z</time>
      </trkpt>
      <trkpt lat="45.66663" lon="5.61358">
        <ele>275.6</ele>
        <time>2022-06-19T07:16:14Z</time>
      </trkpt>
      <trkpt lat="45.66687" lon="5.61344">
        <ele>274.2</ele>
        <time>2022-06-19T07:16:16Z</time>
      </trkpt>
      <trkpt lat="45.6671" lon="5.6133">
        <ele>272.8</ele>
        <time>2022-06-19T07:16:18Z</time>
      </trkpt>
      <trkpt lat="45.66734" lon="5.61316">
        <ele>271.2</ele>
        <time>2022-06-19T07:16:20Z</time>
      </trkpt>
      <trkpt lat="45.66758" lon="5.61304">
        <ele>269.4</ele>
        <time>2022-06-19T07:16:22Z</time>
      </trkpt>
      <trkpt lat="45.6677" lon="5.61297">
        <ele>268.8</ele>
        <time>2022-06-19T07:16:23Z</time>
      </trkpt>
      <trkpt lat="45.66784" lon="5.61289">
        <ele>267.4</ele>
        <time>2022-06-19T07:16:24Z</time>
      </trkpt>
      <trkpt lat="45.66797" lon="5.61283">
        <ele>266</ele>
        <time>2022-06-19T07:16:25Z</time>
      </trkpt>
      <trkpt lat="45.6682" lon="5.61274">
        <ele>264</ele>
        <time>2022-06-19T07:16:27Z</time>
      </trkpt>
      <trkpt lat="45.6685" lon="5.61264">
        <ele>262.6</ele>
        <time>2022-06-19T07:16:29Z</time>
      </trkpt>
      <trkpt lat="45.6686" lon="5.61259">
        <ele>262.4</ele>
        <time>2022-06-19T07:16:30Z</time>
      </trkpt>
      <trkpt lat="45.66872" lon="5.6125">
        <ele>261</ele>
        <time>2022-06-19T07:16:31Z</time>
      </trkpt>
      <trkpt lat="45.66884" lon="5.61238">
        <ele>260</ele>
        <time>2022-06-19T07:16:32Z</time>
      </trkpt>
      <trkpt lat="45.6691" lon="5.61213">
        <ele>257.8</ele>
        <time>2022-06-19T07:16:34Z</time>
      </trkpt>
      <trkpt lat="45.66937" lon="5.61205">
        <ele>254.8</ele>
        <time>2022-06-19T07:16:36Z</time>
      </trkpt>
      <trkpt lat="45.66963" lon="5.61205">
        <ele>252.6</ele>
        <time>2022-06-19T07:16:38Z</time>
      </trkpt>
      <trkpt lat="45.66975" lon="5.61204">
        <ele>250.6</ele>
        <time>2022-06-19T07:16:39Z</time>
      </trkpt>
      <trkpt lat="45.66992" lon="5.612">
        <ele>250</ele>
        <time>2022-06-19T07:16:40Z</time>
      </trkpt>
      <trkpt lat="45.67002" lon="5.61192">
        <ele>249</ele>
        <time>2022-06-19T07:16:41Z</time>
      </trkpt>
      <trkpt lat="45.67027" lon="5.61176">
        <ele>247</ele>
        <time>2022-06-19T07:16:43Z</time>
      </trkpt>
      <trkpt lat="45.67036" lon="5.61163">
        <ele>246</ele>
        <time>2022-06-19T07:16:44Z</time>
      </trkpt>
      <trkpt lat="45.67046" lon="5.61148">
        <ele>244.8</ele>
        <time>2022-06-19T07:16:45Z</time>
      </trkpt>
      <trkpt lat="45.67056" lon="5.61134">
        <ele>243.6</ele>
        <time>2022-06-19T07:16:46Z</time>
      </trkpt>
      <trkpt lat="45.67066" lon="5.6112">
        <ele>242.6</ele>
        <time>2022-06-19T07:16:47Z</time>
      </trkpt>
      <trkpt lat="45.67077" lon="5.6111">
        <ele>241</ele>
        <time>2022-06-19T07:16:48Z</time>
      </trkpt>
      <trkpt lat="45.67089" lon="5.611">
        <ele>240.4</ele>
        <time>2022-06-19T07:16:49Z</time>
      </trkpt>
      <trkpt lat="45.67101" lon="5.61093">
        <ele>239.6</ele>
        <time>2022-06-19T07:16:50Z</time>
      </trkpt>
      <trkpt lat="45.67127" lon="5.61079">
        <ele>237.4</ele>
        <time>2022-06-19T07:16:52Z</time>
      </trkpt>
      <trkpt lat="45.67139" lon="5.61072">
        <ele>236.6</ele>
        <time>2022-06-19T07:16:53Z</time>
      </trkpt>
      <trkpt lat="45.67151" lon="5.61062">
        <ele>235.6</ele>
        <time>2022-06-19T07:16:54Z</time>
      </trkpt>
      <trkpt lat="45.67162" lon="5.61051">
        <ele>234</ele>
        <time>2022-06-19T07:16:55Z</time>
      </trkpt>
      <trkpt lat="45.67182" lon="5.61028">
        <ele>232</ele>
        <time>2022-06-19T07:16:57Z</time>
      </trkpt>
      <trkpt lat="45.67205" lon="5.61007">
        <ele>230.4</ele>
        <time>2022-06-19T07:16:59Z</time>
      </trkpt>
      <trkpt lat="45.67217" lon="5.60997">
        <ele>229.8</ele>
        <time>2022-06-19T07:17:00Z</time>
      </trkpt>
      <trkpt lat="45.67229" lon="5.60989">
        <ele>228.8</ele>
        <time>2022-06-19T07:17:01Z</time>
      </trkpt>
      <trkpt lat="45.67242" lon="5.60982">
        <ele>227.8</ele>
        <time>2022-06-19T07:17:02Z</time>
      </trkpt>
      <trkpt lat="45.67265" lon="5.60969">
        <ele>225.8</ele>
        <time>2022-06-19T07:17:04Z</time>
      </trkpt>
      <trkpt lat="45.67276" lon="5.6096">
        <ele>225</ele>
        <time>2022-06-19T07:17:05Z</time>
      </trkpt>
      <trkpt lat="45.67282" lon="5.60952">
        <ele>224.2</ele>
        <time>2022-06-19T07:17:06Z</time>
      </trkpt>
      <trkpt lat="45.67285" lon="5.6094">
        <ele>223.8</ele>
        <time>2022-06-19T07:17:07Z</time>
      </trkpt>
      <trkpt lat="45.6729" lon="5.60927">
        <ele>222.4</ele>
        <time>2022-06-19T07:17:08Z</time>
      </trkpt>
      <trkpt lat="45.67296" lon="5.60919">
        <ele>221.2</ele>
        <time>2022-06-19T07:17:09Z</time>
      </trkpt>
      <trkpt lat="45.67312" lon="5.60907">
        <ele>219.8</ele>
        <time>2022-06-19T07:17:11Z</time>
      </trkpt>
      <trkpt lat="45.6732" lon="5.60902">
        <ele>219.6</ele>
        <time>2022-06-19T07:17:12Z</time>
      </trkpt>
      <trkpt lat="45.67327" lon="5.60899">
        <ele>218.6</ele>
        <time>2022-06-19T07:17:13Z</time>
      </trkpt>
      <trkpt lat="45.67352" lon="5.60884">
        <ele>217.4</ele>
        <time>2022-06-19T07:17:16Z</time>
      </trkpt>
      <trkpt lat="45.67366" lon="5.60875">
        <ele>217</ele>
        <time>2022-06-19T07:17:18Z</time>
      </trkpt>
      <trkpt lat="45.67383" lon="5.60864">
        <ele>217</ele>
        <time>2022-06-19T07:17:20Z</time>
      </trkpt>
      <trkpt lat="45.67404" lon="5.6085">
        <ele>216.6</ele>
        <time>2022-06-19T07:17:23Z</time>
      </trkpt>
      <trkpt lat="45.67427" lon="5.60832">
        <ele>216.4</ele>
        <time>2022-06-19T07:17:26Z</time>
      </trkpt>
      <trkpt lat="45.67476" lon="5.60784">
        <ele>215.8</ele>
        <time>2022-06-19T07:17:33Z</time>
      </trkpt>
      <trkpt lat="45.67483" lon="5.60777">
        <ele>215.8</ele>
        <time>2022-06-19T07:17:34Z</time>
      </trkpt>
      <trkpt lat="45.67496" lon="5.60761">
        <ele>215.6</ele>
        <time>2022-06-19T07:17:36Z</time>
      </trkpt>
      <trkpt lat="45.67527" lon="5.60718">
        <ele>215.4</ele>
        <time>2022-06-19T07:17:41Z</time>
      </trkpt>
      <trkpt lat="45.67557" lon="5.60677">
        <ele>215.2</ele>
        <time>2022-06-19T07:17:46Z</time>
      </trkpt>
      <trkpt lat="45.67578" lon="5.60646">
        <ele>215.2</ele>
        <time>2022-06-19T07:17:50Z</time>
      </trkpt>
      <trkpt lat="45.67614" lon="5.60595">
        <ele>215.8</ele>
        <time>2022-06-19T07:17:57Z</time>
      </trkpt>
      <trkpt lat="45.6762" lon="5.60588">
        <ele>215.8</ele>
        <time>2022-06-19T07:17:58Z</time>
      </trkpt>
      <trkpt lat="45.67625" lon="5.60574">
        <ele>216.2</ele>
        <time>2022-06-19T07:18:00Z</time>
      </trkpt>
      <trkpt lat="45.67624" lon="5.60557">
        <ele>216.4</ele>
        <time>2022-06-19T07:18:02Z</time>
      </trkpt>
      <trkpt lat="45.67622" lon="5.60547">
        <ele>216.4</ele>
        <time>2022-06-19T07:18:03Z</time>
      </trkpt>
      <trkpt lat="45.67613" lon="5.60492">
        <ele>216.2</ele>
        <time>2022-06-19T07:18:08Z</time>
      </trkpt>
      <trkpt lat="45.676" lon="5.6042">
        <ele>215.2</ele>
        <time>2022-06-19T07:18:14Z</time>
      </trkpt>
      <trkpt lat="45.67595" lon="5.60395">
        <ele>214.2</ele>
        <time>2022-06-19T07:18:16Z</time>
      </trkpt>
      <trkpt lat="45.67586" lon="5.60344">
        <ele>213.2</ele>
        <time>2022-06-19T07:18:20Z</time>
      </trkpt>
      <trkpt lat="45.67579" lon="5.60259">
        <ele>212.2</ele>
        <time>2022-06-19T07:18:27Z</time>
      </trkpt>
      <trkpt lat="45.67579" lon="5.60249">
        <ele>212.2</ele>
        <time>2022-06-19T07:18:28Z</time>
      </trkpt>
      <trkpt lat="45.6757" lon="5.60178">
        <ele>211.8</ele>
        <time>2022-06-19T07:18:34Z</time>
      </trkpt>
      <trkpt lat="45.67549" lon="5.60101">
        <ele>212</ele>
        <time>2022-06-19T07:18:41Z</time>
      </trkpt>
      <trkpt lat="45.67522" lon="5.60024">
        <ele>211.8</ele>
        <time>2022-06-19T07:18:48Z</time>
      </trkpt>
      <trkpt lat="45.67515" lon="5.60003">
        <ele>211.8</ele>
        <time>2022-06-19T07:18:50Z</time>
      </trkpt>
      <trkpt lat="45.6749" lon="5.59929">
        <ele>211.8</ele>
        <time>2022-06-19T07:18:57Z</time>
      </trkpt>
      <trkpt lat="45.67479" lon="5.59899">
        <ele>212.2</ele>
        <time>2022-06-19T07:19:00Z</time>
      </trkpt>
      <trkpt lat="45.67454" lon="5.59823">
        <ele>212.2</ele>
        <time>2022-06-19T07:19:07Z</time>
      </trkpt>
      <trkpt lat="45.67436" lon="5.59769">
        <ele>212</ele>
        <time>2022-06-19T07:19:12Z</time>
      </trkpt>
      <trkpt lat="45.67411" lon="5.59694">
        <ele>211.6</ele>
        <time>2022-06-19T07:19:19Z</time>
      </trkpt>
      <trkpt lat="45.67408" lon="5.59684">
        <ele>211.4</ele>
        <time>2022-06-19T07:19:20Z</time>
      </trkpt>
      <trkpt lat="45.67395" lon="5.59639">
        <ele>211.2</ele>
        <time>2022-06-19T07:19:24Z</time>
      </trkpt>
      <trkpt lat="45.67374" lon="5.59561">
        <ele>210.8</ele>
        <time>2022-06-19T07:19:31Z</time>
      </trkpt>
      <trkpt lat="45.67366" lon="5.59528">
        <ele>211</ele>
        <time>2022-06-19T07:19:34Z</time>
      </trkpt>
      <trkpt lat="45.67347" lon="5.59451">
        <ele>211.2</ele>
        <time>2022-06-19T07:19:41Z</time>
      </trkpt>
      <trkpt lat="45.67338" lon="5.59417">
        <ele>211.2</ele>
        <time>2022-06-19T07:19:44Z</time>
      </trkpt>
      <trkpt lat="45.67327" lon="5.59373">
        <ele>211.4</ele>
        <time>2022-06-19T07:19:48Z</time>
      </trkpt>
      <trkpt lat="45.67313" lon="5.59317">
        <ele>211.2</ele>
        <time>2022-06-19T07:19:53Z</time>
      </trkpt>
      <trkpt lat="45.67295" lon="5.5924">
        <ele>211</ele>
        <time>2022-06-19T07:20:00Z</time>
      </trkpt>
      <trkpt lat="45.67285" lon="5.59196">
        <ele>211.2</ele>
        <time>2022-06-19T07:20:04Z</time>
      </trkpt>
      <trkpt lat="45.67265" lon="5.59119">
        <ele>211.6</ele>
        <time>2022-06-19T07:20:11Z</time>
      </trkpt>
      <trkpt lat="45.67254" lon="5.59074">
        <ele>211.6</ele>
        <time>2022-06-19T07:20:15Z</time>
      </trkpt>
      <trkpt lat="45.67235" lon="5.58998">
        <ele>211.6</ele>
        <time>2022-06-19T07:20:22Z</time>
      </trkpt>
      <trkpt lat="45.6722" lon="5.58942">
        <ele>211.8</ele>
        <time>2022-06-19T07:20:27Z</time>
      </trkpt>
      <trkpt lat="45.672" lon="5.58862">
        <ele>212</ele>
        <time>2022-06-19T07:20:34Z</time>
      </trkpt>
      <trkpt lat="45.67194" lon="5.58839">
        <ele>211.8</ele>
        <time>2022-06-19T07:20:36Z</time>
      </trkpt>
      <trkpt lat="45.67175" lon="5.58763">
        <ele>211.6</ele>
        <time>2022-06-19T07:20:43Z</time>
      </trkpt>
      <trkpt lat="45.67166" lon="5.58728">
        <ele>211.6</ele>
        <time>2022-06-19T07:20:46Z</time>
      </trkpt>
      <trkpt lat="45.67148" lon="5.58653">
        <ele>211.6</ele>
        <time>2022-06-19T07:20:53Z</time>
      </trkpt>
      <trkpt lat="45.67142" lon="5.58629">
        <ele>211.8</ele>
        <time>2022-06-19T07:20:55Z</time>
      </trkpt>
      <trkpt lat="45.67123" lon="5.58555">
        <ele>212.4</ele>
        <time>2022-06-19T07:21:02Z</time>
      </trkpt>
      <trkpt lat="45.67116" lon="5.58525">
        <ele>212.4</ele>
        <time>2022-06-19T07:21:05Z</time>
      </trkpt>
      <trkpt lat="45.67096" lon="5.58446">
        <ele>212.4</ele>
        <time>2022-06-19T07:21:12Z</time>
      </trkpt>
      <trkpt lat="45.67089" lon="5.58416">
        <ele>212.4</ele>
        <time>2022-06-19T07:21:15Z</time>
      </trkpt>
      <trkpt lat="45.67068" lon="5.5833">
        <ele>212.4</ele>
        <time>2022-06-19T07:21:23Z</time>
      </trkpt>
      <trkpt lat="45.67063" lon="5.5831">
        <ele>212.6</ele>
        <time>2022-06-19T07:21:25Z</time>
      </trkpt>
      <trkpt lat="45.67045" lon="5.58242">
        <ele>213.2</ele>
        <time>2022-06-19T07:21:32Z</time>
      </trkpt>
      <trkpt lat="45.67041" lon="5.58222">
        <ele>213.4</ele>
        <time>2022-06-19T07:21:34Z</time>
      </trkpt>
      <trkpt lat="45.67034" lon="5.58183">
        <ele>214.2</ele>
        <time>2022-06-19T07:21:38Z</time>
      </trkpt>
      <trkpt lat="45.67033" lon="5.58163">
        <ele>214.8</ele>
        <time>2022-06-19T07:21:40Z</time>
      </trkpt>
      <trkpt lat="45.67033" lon="5.58153">
        <ele>214.8</ele>
        <time>2022-06-19T07:21:41Z</time>
      </trkpt>
      <trkpt lat="45.67035" lon="5.58134">
        <ele>215.4</ele>
        <time>2022-06-19T07:21:43Z</time>
      </trkpt>
      <trkpt lat="45.67041" lon="5.58105">
        <ele>216.6</ele>
        <time>2022-06-19T07:21:46Z</time>
      </trkpt>
      <trkpt lat="45.67056" lon="5.58059">
        <ele>218</ele>
        <time>2022-06-19T07:21:51Z</time>
      </trkpt>
      <trkpt lat="45.67063" lon="5.58043">
        <ele>218.4</ele>
        <time>2022-06-19T07:21:53Z</time>
      </trkpt>
      <trkpt lat="45.67082" lon="5.58">
        <ele>219.2</ele>
        <time>2022-06-19T07:21:58Z</time>
      </trkpt>
      <trkpt lat="45.67101" lon="5.57957">
        <ele>219.8</ele>
        <time>2022-06-19T07:22:03Z</time>
      </trkpt>
      <trkpt lat="45.67116" lon="5.57924">
        <ele>220.2</ele>
        <time>2022-06-19T07:22:07Z</time>
      </trkpt>
      <trkpt lat="45.67131" lon="5.5789">
        <ele>220.8</ele>
        <time>2022-06-19T07:22:11Z</time>
      </trkpt>
      <trkpt lat="45.67154" lon="5.5784">
        <ele>221.6</ele>
        <time>2022-06-19T07:22:17Z</time>
      </trkpt>
      <trkpt lat="45.67159" lon="5.57832">
        <ele>221.6</ele>
        <time>2022-06-19T07:22:18Z</time>
      </trkpt>
      <trkpt lat="45.67195" lon="5.57784">
        <ele>222</ele>
        <time>2022-06-19T07:22:25Z</time>
      </trkpt>
      <trkpt lat="45.67205" lon="5.57773">
        <ele>222.6</ele>
        <time>2022-06-19T07:22:27Z</time>
      </trkpt>
      <trkpt lat="45.6721" lon="5.57766">
        <ele>223</ele>
        <time>2022-06-19T07:22:28Z</time>
      </trkpt>
      <trkpt lat="45.67225" lon="5.57746">
        <ele>223.6</ele>
        <time>2022-06-19T07:22:31Z</time>
      </trkpt>
      <trkpt lat="45.67234" lon="5.57732">
        <ele>223.8</ele>
        <time>2022-06-19T07:22:33Z</time>
      </trkpt>
      <trkpt lat="45.67253" lon="5.57703">
        <ele>224.2</ele>
        <time>2022-06-19T07:22:37Z</time>
      </trkpt>
      <trkpt lat="45.67257" lon="5.57695">
        <ele>224.4</ele>
        <time>2022-06-19T07:22:38Z</time>
      </trkpt>
      <trkpt lat="45.67262" lon="5.57677">
        <ele>224.4</ele>
        <time>2022-06-19T07:22:40Z</time>
      </trkpt>
      <trkpt lat="45.67262" lon="5.57658">
        <ele>224.6</ele>
        <time>2022-06-19T07:22:42Z</time>
      </trkpt>
      <trkpt lat="45.6726" lon="5.57649">
        <ele>224.6</ele>
        <time>2022-06-19T07:22:43Z</time>
      </trkpt>
      <trkpt lat="45.67255" lon="5.5764">
        <ele>224.6</ele>
        <time>2022-06-19T07:22:44Z</time>
      </trkpt>
      <trkpt lat="45.67244" lon="5.57626">
        <ele>225</ele>
        <time>2022-06-19T07:22:46Z</time>
      </trkpt>
      <trkpt lat="45.67237" lon="5.57619">
        <ele>225</ele>
        <time>2022-06-19T07:22:47Z</time>
      </trkpt>
      <trkpt lat="45.67195" lon="5.57583">
        <ele>224.8</ele>
        <time>2022-06-19T07:22:53Z</time>
      </trkpt>
      <trkpt lat="45.67155" lon="5.57556">
        <ele>223.6</ele>
        <time>2022-06-19T07:22:58Z</time>
      </trkpt>
      <trkpt lat="45.67122" lon="5.57533">
        <ele>222.6</ele>
        <time>2022-06-19T07:23:02Z</time>
      </trkpt>
      <trkpt lat="45.67082" lon="5.57508">
        <ele>221.6</ele>
        <time>2022-06-19T07:23:07Z</time>
      </trkpt>
      <trkpt lat="45.67025" lon="5.57472">
        <ele>220.8</ele>
        <time>2022-06-19T07:23:14Z</time>
      </trkpt>
      <trkpt lat="45.67017" lon="5.57466">
        <ele>220.8</ele>
        <time>2022-06-19T07:23:15Z</time>
      </trkpt>
      <trkpt lat="45.67009" lon="5.57461">
        <ele>220.6</ele>
        <time>2022-06-19T07:23:16Z</time>
      </trkpt>
      <trkpt lat="45.66961" lon="5.57431">
        <ele>219.8</ele>
        <time>2022-06-19T07:23:22Z</time>
      </trkpt>
      <trkpt lat="45.66937" lon="5.57415">
        <ele>219.4</ele>
        <time>2022-06-19T07:23:25Z</time>
      </trkpt>
      <trkpt lat="45.66883" lon="5.5738">
        <ele>219</ele>
        <time>2022-06-19T07:23:32Z</time>
      </trkpt>
      <trkpt lat="45.66874" lon="5.57375">
        <ele>218.8</ele>
        <time>2022-06-19T07:23:33Z</time>
      </trkpt>
      <trkpt lat="45.66857" lon="5.57364">
        <ele>218.6</ele>
        <time>2022-06-19T07:23:35Z</time>
      </trkpt>
      <trkpt lat="45.66815" lon="5.57338">
        <ele>217.6</ele>
        <time>2022-06-19T07:23:40Z</time>
      </trkpt>
      <trkpt lat="45.6678" lon="5.57317">
        <ele>216.8</ele>
        <time>2022-06-19T07:23:44Z</time>
      </trkpt>
      <trkpt lat="45.66762" lon="5.57307">
        <ele>216.6</ele>
        <time>2022-06-19T07:23:46Z</time>
      </trkpt>
      <trkpt lat="45.66728" lon="5.57287">
        <ele>215.8</ele>
        <time>2022-06-19T07:23:50Z</time>
      </trkpt>
      <trkpt lat="45.66719" lon="5.57282">
        <ele>215.4</ele>
        <time>2022-06-19T07:23:51Z</time>
      </trkpt>
      <trkpt lat="45.66693" lon="5.57268">
        <ele>214.8</ele>
        <time>2022-06-19T07:23:54Z</time>
      </trkpt>
      <trkpt lat="45.66676" lon="5.57258">
        <ele>214.4</ele>
        <time>2022-06-19T07:23:56Z</time>
      </trkpt>
      <trkpt lat="45.66626" lon="5.57228">
        <ele>213.4</ele>
        <time>2022-06-19T07:24:02Z</time>
      </trkpt>
      <trkpt lat="45.66618" lon="5.57222">
        <ele>213.2</ele>
        <time>2022-06-19T07:24:03Z</time>
      </trkpt>
      <trkpt lat="45.66573" lon="5.57182">
        <ele>212.8</ele>
        <time>2022-06-19T07:24:09Z</time>
      </trkpt>
      <trkpt lat="45.66533" lon="5.57131">
        <ele>212.8</ele>
        <time>2022-06-19T07:24:15Z</time>
      </trkpt>
      <trkpt lat="45.66491" lon="5.57063">
        <ele>212.8</ele>
        <time>2022-06-19T07:24:22Z</time>
      </trkpt>
      <trkpt lat="45.66457" lon="5.56988">
        <ele>213.2</ele>
        <time>2022-06-19T07:24:29Z</time>
      </trkpt>
      <trkpt lat="45.66433" lon="5.56906">
        <ele>213.2</ele>
        <time>2022-06-19T07:24:36Z</time>
      </trkpt>
      <trkpt lat="45.6643" lon="5.56894">
        <ele>213.2</ele>
        <time>2022-06-19T07:24:37Z</time>
      </trkpt>
      <trkpt lat="45.66417" lon="5.56809">
        <ele>213.4</ele>
        <time>2022-06-19T07:24:44Z</time>
      </trkpt>
      <trkpt lat="45.66415" lon="5.56722">
        <ele>213.2</ele>
        <time>2022-06-19T07:24:52Z</time>
      </trkpt>
      <trkpt lat="45.66421" lon="5.56633">
        <ele>213.4</ele>
        <time>2022-06-19T07:24:59Z</time>
      </trkpt>
      <trkpt lat="45.66438" lon="5.56548">
        <ele>213.4</ele>
        <time>2022-06-19T07:25:06Z</time>
      </trkpt>
      <trkpt lat="45.66455" lon="5.56464">
        <ele>213.4</ele>
        <time>2022-06-19T07:25:13Z</time>
      </trkpt>
      <trkpt lat="45.66472" lon="5.56384">
        <ele>213</ele>
        <time>2022-06-19T07:25:20Z</time>
      </trkpt>
      <trkpt lat="45.66474" lon="5.56372">
        <ele>213</ele>
        <time>2022-06-19T07:25:21Z</time>
      </trkpt>
      <trkpt lat="45.6649" lon="5.56292">
        <ele>213</ele>
        <time>2022-06-19T07:25:28Z</time>
      </trkpt>
      <trkpt lat="45.66493" lon="5.5628">
        <ele>213.2</ele>
        <time>2022-06-19T07:25:29Z</time>
      </trkpt>
      <trkpt lat="45.66509" lon="5.56199">
        <ele>213.4</ele>
        <time>2022-06-19T07:25:36Z</time>
      </trkpt>
      <trkpt lat="45.66514" lon="5.56176">
        <ele>213.4</ele>
        <time>2022-06-19T07:25:38Z</time>
      </trkpt>
      <trkpt lat="45.6653" lon="5.56098">
        <ele>213.2</ele>
        <time>2022-06-19T07:25:45Z</time>
      </trkpt>
      <trkpt lat="45.66533" lon="5.56086">
        <ele>213.2</ele>
        <time>2022-06-19T07:25:46Z</time>
      </trkpt>
      <trkpt lat="45.66549" lon="5.56007">
        <ele>213</ele>
        <time>2022-06-19T07:25:53Z</time>
      </trkpt>
      <trkpt lat="45.66565" lon="5.55928">
        <ele>213</ele>
        <time>2022-06-19T07:26:00Z</time>
      </trkpt>
      <trkpt lat="45.66571" lon="5.55894">
        <ele>213</ele>
        <time>2022-06-19T07:26:03Z</time>
      </trkpt>
      <trkpt lat="45.66588" lon="5.55811">
        <ele>213.4</ele>
        <time>2022-06-19T07:26:10Z</time>
      </trkpt>
      <trkpt lat="45.66595" lon="5.55775">
        <ele>213.4</ele>
        <time>2022-06-19T07:26:13Z</time>
      </trkpt>
      <trkpt lat="45.66612" lon="5.55693">
        <ele>213.4</ele>
        <time>2022-06-19T07:26:20Z</time>
      </trkpt>
      <trkpt lat="45.66626" lon="5.55622">
        <ele>213.2</ele>
        <time>2022-06-19T07:26:26Z</time>
      </trkpt>
      <trkpt lat="45.66642" lon="5.55542">
        <ele>213</ele>
        <time>2022-06-19T07:26:33Z</time>
      </trkpt>
      <trkpt lat="45.66646" lon="5.55519">
        <ele>213</ele>
        <time>2022-06-19T07:26:35Z</time>
      </trkpt>
      <trkpt lat="45.66661" lon="5.5544">
        <ele>213</ele>
        <time>2022-06-19T07:26:42Z</time>
      </trkpt>
      <trkpt lat="45.66664" lon="5.55429">
        <ele>213</ele>
        <time>2022-06-19T07:26:43Z</time>
      </trkpt>
      <trkpt lat="45.6668" lon="5.5535">
        <ele>213</ele>
        <time>2022-06-19T07:26:50Z</time>
      </trkpt>
      <trkpt lat="45.66682" lon="5.55339">
        <ele>213</ele>
        <time>2022-06-19T07:26:51Z</time>
      </trkpt>
      <trkpt lat="45.66699" lon="5.55262">
        <ele>212.8</ele>
        <time>2022-06-19T07:26:58Z</time>
      </trkpt>
      <trkpt lat="45.66714" lon="5.55182">
        <ele>212.8</ele>
        <time>2022-06-19T07:27:05Z</time>
      </trkpt>
      <trkpt lat="45.66719" lon="5.5516">
        <ele>212.8</ele>
        <time>2022-06-19T07:27:07Z</time>
      </trkpt>
      <trkpt lat="45.66736" lon="5.55079">
        <ele>212.6</ele>
        <time>2022-06-19T07:27:14Z</time>
      </trkpt>
      <trkpt lat="45.6674" lon="5.55055">
        <ele>212.6</ele>
        <time>2022-06-19T07:27:16Z</time>
      </trkpt>
      <trkpt lat="45.66756" lon="5.54977">
        <ele>212.8</ele>
        <time>2022-06-19T07:27:23Z</time>
      </trkpt>
      <trkpt lat="45.66762" lon="5.54943">
        <ele>213</ele>
        <time>2022-06-19T07:27:26Z</time>
      </trkpt>
      <trkpt lat="45.66769" lon="5.54914">
        <ele>213</ele>
        <time>2022-06-19T07:27:29Z</time>
      </trkpt>
      <trkpt lat="45.66773" lon="5.54908">
        <ele>213</ele>
        <time>2022-06-19T07:27:30Z</time>
      </trkpt>
      <trkpt lat="45.66778" lon="5.54904">
        <ele>213</ele>
        <time>2022-06-19T07:27:31Z</time>
      </trkpt>
      <trkpt lat="45.66783" lon="5.54904">
        <ele>212.8</ele>
        <time>2022-06-19T07:27:32Z</time>
      </trkpt>
      <trkpt lat="45.66788" lon="5.54906">
        <ele>212.8</ele>
        <time>2022-06-19T07:27:33Z</time>
      </trkpt>
      <trkpt lat="45.66804" lon="5.54918">
        <ele>212.6</ele>
        <time>2022-06-19T07:27:36Z</time>
      </trkpt>
      <trkpt lat="45.6681" lon="5.54922">
        <ele>212.4</ele>
        <time>2022-06-19T07:27:37Z</time>
      </trkpt>
      <trkpt lat="45.66848" lon="5.54946">
        <ele>211.8</ele>
        <time>2022-06-19T07:27:43Z</time>
      </trkpt>
      <trkpt lat="45.66872" lon="5.54967">
        <ele>212</ele>
        <time>2022-06-19T07:27:47Z</time>
      </trkpt>
      <trkpt lat="45.66883" lon="5.5498">
        <ele>212.2</ele>
        <time>2022-06-19T07:27:49Z</time>
      </trkpt>
      <trkpt lat="45.66931" lon="5.55035">
        <ele>212.6</ele>
        <time>2022-06-19T07:27:58Z</time>
      </trkpt>
      <trkpt lat="45.66936" lon="5.5504">
        <ele>212.8</ele>
        <time>2022-06-19T07:27:59Z</time>
      </trkpt>
      <trkpt lat="45.66985" lon="5.55097">
        <ele>212.2</ele>
        <time>2022-06-19T07:28:08Z</time>
      </trkpt>
      <trkpt lat="45.67013" lon="5.55141">
        <ele>211.8</ele>
        <time>2022-06-19T07:28:14Z</time>
      </trkpt>
      <trkpt lat="45.67045" lon="5.55204">
        <ele>211.6</ele>
        <time>2022-06-19T07:28:22Z</time>
      </trkpt>
      <trkpt lat="45.67056" lon="5.55212">
        <ele>211.6</ele>
        <time>2022-06-19T07:28:24Z</time>
      </trkpt>
      <trkpt lat="45.67063" lon="5.55212">
        <ele>211.6</ele>
        <time>2022-06-19T07:28:25Z</time>
      </trkpt>
      <trkpt lat="45.67069" lon="5.5521">
        <ele>211.6</ele>
        <time>2022-06-19T07:28:26Z</time>
      </trkpt>
      <trkpt lat="45.67081" lon="5.55202">
        <ele>211.4</ele>
        <time>2022-06-19T07:28:28Z</time>
      </trkpt>
      <trkpt lat="45.67118" lon="5.5517">
        <ele>211.6</ele>
        <time>2022-06-19T07:28:34Z</time>
      </trkpt>
      <trkpt lat="45.67159" lon="5.55132">
        <ele>211.4</ele>
        <time>2022-06-19T07:28:41Z</time>
      </trkpt>
      <trkpt lat="45.67195" lon="5.5511">
        <ele>211.4</ele>
        <time>2022-06-19T07:28:48Z</time>
      </trkpt>
      <trkpt lat="45.67197" lon="5.55108">
        <ele>211.4</ele>
        <time>2022-06-19T07:28:49Z</time>
      </trkpt>
      <trkpt lat="45.67198" lon="5.55104">
        <ele>211.6</ele>
        <time>2022-06-19T07:28:51Z</time>
      </trkpt>
      <trkpt lat="45.67193" lon="5.55082">
        <ele>211.8</ele>
        <time>2022-06-19T07:28:55Z</time>
      </trkpt>
      <trkpt lat="45.67191" lon="5.55069">
        <ele>211.8</ele>
        <time>2022-06-19T07:28:57Z</time>
      </trkpt>
      <trkpt lat="45.67184" lon="5.55046">
        <ele>211.8</ele>
        <time>2022-06-19T07:29:00Z</time>
      </trkpt>
      <trkpt lat="45.67164" lon="5.54996">
        <ele>211.8</ele>
        <time>2022-06-19T07:29:06Z</time>
      </trkpt>
      <trkpt lat="45.67158" lon="5.54978">
        <ele>211.8</ele>
        <time>2022-06-19T07:29:08Z</time>
      </trkpt>
      <trkpt lat="45.67151" lon="5.54949">
        <ele>211.8</ele>
        <time>2022-06-19T07:29:11Z</time>
      </trkpt>
      <trkpt lat="45.67149" lon="5.54939">
        <ele>211.8</ele>
        <time>2022-06-19T07:29:12Z</time>
      </trkpt>
      <trkpt lat="45.67135" lon="5.549">
        <ele>211.8</ele>
        <time>2022-06-19T07:29:16Z</time>
      </trkpt>
      <trkpt lat="45.67098" lon="5.54832">
        <ele>211.8</ele>
        <time>2022-06-19T07:29:24Z</time>
      </trkpt>
      <trkpt lat="45.6709" lon="5.54814">
        <ele>211.8</ele>
        <time>2022-06-19T07:29:26Z</time>
      </trkpt>
      <trkpt lat="45.67072" lon="5.5478">
        <ele>212</ele>
        <time>2022-06-19T07:29:30Z</time>
      </trkpt>
      <trkpt lat="45.67037" lon="5.54725">
        <ele>212.2</ele>
        <time>2022-06-19T07:29:37Z</time>
      </trkpt>
      <trkpt lat="45.67008" lon="5.54661">
        <ele>212.2</ele>
        <time>2022-06-19T07:29:44Z</time>
      </trkpt>
      <trkpt lat="45.67002" lon="5.54642">
        <ele>212.2</ele>
        <time>2022-06-19T07:29:46Z</time>
      </trkpt>
      <trkpt lat="45.66998" lon="5.54622">
        <ele>212.2</ele>
        <time>2022-06-19T07:29:48Z</time>
      </trkpt>
      <trkpt lat="45.66997" lon="5.54612">
        <ele>212.2</ele>
        <time>2022-06-19T07:29:49Z</time>
      </trkpt>
      <trkpt lat="45.66994" lon="5.54592">
        <ele>212.4</ele>
        <time>2022-06-19T07:29:51Z</time>
      </trkpt>
      <trkpt lat="45.6699" lon="5.54583">
        <ele>212.4</ele>
        <time>2022-06-19T07:29:52Z</time>
      </trkpt>
      <trkpt lat="45.66986" lon="5.54574">
        <ele>212.4</ele>
        <time>2022-06-19T07:29:53Z</time>
      </trkpt>
      <trkpt lat="45.66975" lon="5.54559">
        <ele>212.4</ele>
        <time>2022-06-19T07:29:55Z</time>
      </trkpt>
      <trkpt lat="45.66941" lon="5.54518">
        <ele>212.8</ele>
        <time>2022-06-19T07:30:01Z</time>
      </trkpt>
      <trkpt lat="45.66932" lon="5.54505">
        <ele>213</ele>
        <time>2022-06-19T07:30:03Z</time>
      </trkpt>
      <trkpt lat="45.66929" lon="5.54499">
        <ele>213</ele>
        <time>2022-06-19T07:30:04Z</time>
      </trkpt>
      <trkpt lat="45.66927" lon="5.54489">
        <ele>213</ele>
        <time>2022-06-19T07:30:06Z</time>
      </trkpt>
      <trkpt lat="45.6693" lon="5.54478">
        <ele>213</ele>
        <time>2022-06-19T07:30:08Z</time>
      </trkpt>
      <trkpt lat="45.66934" lon="5.54473">
        <ele>212.8</ele>
        <time>2022-06-19T07:30:09Z</time>
      </trkpt>
      <trkpt lat="45.66958" lon="5.54446">
        <ele>212.4</ele>
        <time>2022-06-19T07:30:14Z</time>
      </trkpt>
      <trkpt lat="45.6699" lon="5.54404">
        <ele>212.4</ele>
        <time>2022-06-19T07:30:20Z</time>
      </trkpt>
      <trkpt lat="45.66995" lon="5.54398">
        <ele>212.6</ele>
        <time>2022-06-19T07:30:21Z</time>
      </trkpt>
      <trkpt lat="45.67008" lon="5.54387">
        <ele>212.8</ele>
        <time>2022-06-19T07:30:23Z</time>
      </trkpt>
      <trkpt lat="45.67016" lon="5.54383">
        <ele>213</ele>
        <time>2022-06-19T07:30:24Z</time>
      </trkpt>
      <trkpt lat="45.67023" lon="5.54381">
        <ele>213</ele>
        <time>2022-06-19T07:30:25Z</time>
      </trkpt>
      <trkpt lat="45.67045" lon="5.54377">
        <ele>213.2</ele>
        <time>2022-06-19T07:30:28Z</time>
      </trkpt>
      <trkpt lat="45.67089" lon="5.54376">
        <ele>212.8</ele>
        <time>2022-06-19T07:30:34Z</time>
      </trkpt>
      <trkpt lat="45.67103" lon="5.54379">
        <ele>212.8</ele>
        <time>2022-06-19T07:30:36Z</time>
      </trkpt>
      <trkpt lat="45.67116" lon="5.54376">
        <ele>212.8</ele>
        <time>2022-06-19T07:30:38Z</time>
      </trkpt>
      <trkpt lat="45.67131" lon="5.54358">
        <ele>213</ele>
        <time>2022-06-19T07:30:41Z</time>
      </trkpt>
      <trkpt lat="45.67147" lon="5.54337">
        <ele>213.2</ele>
        <time>2022-06-19T07:30:44Z</time>
      </trkpt>
      <trkpt lat="45.67164" lon="5.54318">
        <ele>213.2</ele>
        <time>2022-06-19T07:30:47Z</time>
      </trkpt>
      <trkpt lat="45.67201" lon="5.5428">
        <ele>212.8</ele>
        <time>2022-06-19T07:30:53Z</time>
      </trkpt>
      <trkpt lat="45.67242" lon="5.54231">
        <ele>212.6</ele>
        <time>2022-06-19T07:31:00Z</time>
      </trkpt>
      <trkpt lat="45.67273" lon="5.54169">
        <ele>213.2</ele>
        <time>2022-06-19T07:31:07Z</time>
      </trkpt>
      <trkpt lat="45.67306" lon="5.54097">
        <ele>212.8</ele>
        <time>2022-06-19T07:31:15Z</time>
      </trkpt>
      <trkpt lat="45.67325" lon="5.54065">
        <ele>212.4</ele>
        <time>2022-06-19T07:31:19Z</time>
      </trkpt>
      <trkpt lat="45.6734" lon="5.54042">
        <ele>212.2</ele>
        <time>2022-06-19T07:31:22Z</time>
      </trkpt>
      <trkpt lat="45.67378" lon="5.53993">
        <ele>212.8</ele>
        <time>2022-06-19T07:31:29Z</time>
      </trkpt>
      <trkpt lat="45.67425" lon="5.53938">
        <ele>212.8</ele>
        <time>2022-06-19T07:31:37Z</time>
      </trkpt>
      <trkpt lat="45.6743" lon="5.53931">
        <ele>212.8</ele>
        <time>2022-06-19T07:31:38Z</time>
      </trkpt>
      <trkpt lat="45.67437" lon="5.53924">
        <ele>212.8</ele>
        <time>2022-06-19T07:31:39Z</time>
      </trkpt>
      <trkpt lat="45.67451" lon="5.53915">
        <ele>212.8</ele>
        <time>2022-06-19T07:31:41Z</time>
      </trkpt>
      <trkpt lat="45.67458" lon="5.53912">
        <ele>212.8</ele>
        <time>2022-06-19T07:31:42Z</time>
      </trkpt>
      <trkpt lat="45.67466" lon="5.53911">
        <ele>212.6</ele>
        <time>2022-06-19T07:31:43Z</time>
      </trkpt>
      <trkpt lat="45.67489" lon="5.53915">
        <ele>212.6</ele>
        <time>2022-06-19T07:31:46Z</time>
      </trkpt>
      <trkpt lat="45.67535" lon="5.53928">
        <ele>212.8</ele>
        <time>2022-06-19T07:31:52Z</time>
      </trkpt>
      <trkpt lat="45.6758" lon="5.53924">
        <ele>213.2</ele>
        <time>2022-06-19T07:31:58Z</time>
      </trkpt>
      <trkpt lat="45.67627" lon="5.53919">
        <ele>213</ele>
        <time>2022-06-19T07:32:04Z</time>
      </trkpt>
      <trkpt lat="45.67649" lon="5.53917">
        <ele>212.8</ele>
        <time>2022-06-19T07:32:07Z</time>
      </trkpt>
      <trkpt lat="45.67661" lon="5.53911">
        <ele>212.6</ele>
        <time>2022-06-19T07:32:09Z</time>
      </trkpt>
      <trkpt lat="45.67667" lon="5.53898">
        <ele>212.4</ele>
        <time>2022-06-19T07:32:11Z</time>
      </trkpt>
      <trkpt lat="45.67667" lon="5.5389">
        <ele>212.4</ele>
        <time>2022-06-19T07:32:12Z</time>
      </trkpt>
      <trkpt lat="45.67665" lon="5.53882">
        <ele>212.4</ele>
        <time>2022-06-19T07:32:13Z</time>
      </trkpt>
      <trkpt lat="45.67656" lon="5.53868">
        <ele>212.4</ele>
        <time>2022-06-19T07:32:15Z</time>
      </trkpt>
      <trkpt lat="45.67626" lon="5.53836">
        <ele>212.8</ele>
        <time>2022-06-19T07:32:20Z</time>
      </trkpt>
      <trkpt lat="45.67575" lon="5.5378">
        <ele>213</ele>
        <time>2022-06-19T07:32:28Z</time>
      </trkpt>
      <trkpt lat="45.67568" lon="5.53773">
        <ele>213</ele>
        <time>2022-06-19T07:32:29Z</time>
      </trkpt>
      <trkpt lat="45.67519" lon="5.53719">
        <ele>213</ele>
        <time>2022-06-19T07:32:37Z</time>
      </trkpt>
      <trkpt lat="45.67513" lon="5.53712">
        <ele>213</ele>
        <time>2022-06-19T07:32:38Z</time>
      </trkpt>
      <trkpt lat="45.67467" lon="5.53673">
        <ele>213</ele>
        <time>2022-06-19T07:32:45Z</time>
      </trkpt>
      <trkpt lat="45.6746" lon="5.53667">
        <ele>213</ele>
        <time>2022-06-19T07:32:46Z</time>
      </trkpt>
      <trkpt lat="45.67451" lon="5.5365">
        <ele>212.8</ele>
        <time>2022-06-19T07:32:48Z</time>
      </trkpt>
      <trkpt lat="45.67451" lon="5.5363">
        <ele>212.8</ele>
        <time>2022-06-19T07:32:50Z</time>
      </trkpt>
      <trkpt lat="45.67462" lon="5.53567">
        <ele>212.8</ele>
        <time>2022-06-19T07:32:56Z</time>
      </trkpt>
      <trkpt lat="45.67475" lon="5.53503">
        <ele>213.6</ele>
        <time>2022-06-19T07:33:02Z</time>
      </trkpt>
      <trkpt lat="45.67487" lon="5.53463">
        <ele>214</ele>
        <time>2022-06-19T07:33:06Z</time>
      </trkpt>
      <trkpt lat="45.675" lon="5.53426">
        <ele>214</ele>
        <time>2022-06-19T07:33:10Z</time>
      </trkpt>
      <trkpt lat="45.67526" lon="5.53346">
        <ele>214.4</ele>
        <time>2022-06-19T07:33:18Z</time>
      </trkpt>
      <trkpt lat="45.67529" lon="5.53336">
        <ele>214.2</ele>
        <time>2022-06-19T07:33:19Z</time>
      </trkpt>
      <trkpt lat="45.67556" lon="5.53255">
        <ele>214.6</ele>
        <time>2022-06-19T07:33:27Z</time>
      </trkpt>
      <trkpt lat="45.67562" lon="5.53234">
        <ele>214.6</ele>
        <time>2022-06-19T07:33:29Z</time>
      </trkpt>
      <trkpt lat="45.67573" lon="5.53194">
        <ele>214.4</ele>
        <time>2022-06-19T07:33:33Z</time>
      </trkpt>
      <trkpt lat="45.67574" lon="5.53183">
        <ele>214.4</ele>
        <time>2022-06-19T07:33:34Z</time>
      </trkpt>
      <trkpt lat="45.67573" lon="5.53132">
        <ele>214.2</ele>
        <time>2022-06-19T07:33:39Z</time>
      </trkpt>
      <trkpt lat="45.6756" lon="5.53105">
        <ele>214.2</ele>
        <time>2022-06-19T07:33:42Z</time>
      </trkpt>
      <trkpt lat="45.67526" lon="5.53039">
        <ele>214</ele>
        <time>2022-06-19T07:33:49Z</time>
      </trkpt>
      <trkpt lat="45.6752" lon="5.53017">
        <ele>214.4</ele>
        <time>2022-06-19T07:33:51Z</time>
      </trkpt>
      <trkpt lat="45.67519" lon="5.52992">
        <ele>214.4</ele>
        <time>2022-06-19T07:33:53Z</time>
      </trkpt>
      <trkpt lat="45.6752" lon="5.52914">
        <ele>214.8</ele>
        <time>2022-06-19T07:34:00Z</time>
      </trkpt>
      <trkpt lat="45.67519" lon="5.529">
        <ele>214.8</ele>
        <time>2022-06-19T07:34:01Z</time>
      </trkpt>
      <trkpt lat="45.67514" lon="5.52832">
        <ele>214.6</ele>
        <time>2022-06-19T07:34:07Z</time>
      </trkpt>
      <trkpt lat="45.67502" lon="5.52753">
        <ele>214.6</ele>
        <time>2022-06-19T07:34:14Z</time>
      </trkpt>
      <trkpt lat="45.67499" lon="5.52731">
        <ele>214.6</ele>
        <time>2022-06-19T07:34:16Z</time>
      </trkpt>
      <trkpt lat="45.67491" lon="5.5266">
        <ele>214.6</ele>
        <time>2022-06-19T07:34:23Z</time>
      </trkpt>
      <trkpt lat="45.67486" lon="5.52601">
        <ele>214.4</ele>
        <time>2022-06-19T07:34:29Z</time>
      </trkpt>
      <trkpt lat="45.67483" lon="5.5257">
        <ele>214.4</ele>
        <time>2022-06-19T07:34:32Z</time>
      </trkpt>
      <trkpt lat="45.67477" lon="5.52553">
        <ele>214.4</ele>
        <time>2022-06-19T07:34:34Z</time>
      </trkpt>
      <trkpt lat="45.67467" lon="5.52538">
        <ele>214.2</ele>
        <time>2022-06-19T07:34:36Z</time>
      </trkpt>
      <trkpt lat="45.6746" lon="5.52532">
        <ele>214.2</ele>
        <time>2022-06-19T07:34:37Z</time>
      </trkpt>
      <trkpt lat="45.67409" lon="5.52486">
        <ele>213.6</ele>
        <time>2022-06-19T07:34:45Z</time>
      </trkpt>
      <trkpt lat="45.67363" lon="5.52448">
        <ele>213.4</ele>
        <time>2022-06-19T07:34:52Z</time>
      </trkpt>
      <trkpt lat="45.67349" lon="5.52437">
        <ele>213.4</ele>
        <time>2022-06-19T07:34:54Z</time>
      </trkpt>
      <trkpt lat="45.67297" lon="5.52393">
        <ele>213.4</ele>
        <time>2022-06-19T07:35:02Z</time>
      </trkpt>
      <trkpt lat="45.67272" lon="5.52371">
        <ele>213.4</ele>
        <time>2022-06-19T07:35:06Z</time>
      </trkpt>
      <trkpt lat="45.67228" lon="5.5233">
        <ele>213.6</ele>
        <time>2022-06-19T07:35:13Z</time>
      </trkpt>
      <trkpt lat="45.67192" lon="5.52304">
        <ele>214.4</ele>
        <time>2022-06-19T07:35:19Z</time>
      </trkpt>
      <trkpt lat="45.67187" lon="5.52301">
        <ele>214.4</ele>
        <time>2022-06-19T07:35:20Z</time>
      </trkpt>
      <trkpt lat="45.67182" lon="5.52297">
        <ele>214.4</ele>
        <time>2022-06-19T07:35:22Z</time>
      </trkpt>
      <trkpt lat="45.67179" lon="5.52295">
        <ele>214.2</ele>
        <time>2022-06-19T07:35:24Z</time>
      </trkpt>
      <trkpt lat="45.67179" lon="5.52294">
        <ele>214.2</ele>
        <time>2022-06-19T07:35:25Z</time>
      </trkpt>
      <trkpt lat="45.67178" lon="5.52288">
        <ele>214</ele>
        <time>2022-06-19T07:35:27Z</time>
      </trkpt>
      <trkpt lat="45.6718" lon="5.52281">
        <ele>214.2</ele>
        <time>2022-06-19T07:35:29Z</time>
      </trkpt>
      <trkpt lat="45.67188" lon="5.52255">
        <ele>214</ele>
        <time>2022-06-19T07:35:33Z</time>
      </trkpt>
      <trkpt lat="45.67192" lon="5.52241">
        <ele>214</ele>
        <time>2022-06-19T07:35:35Z</time>
      </trkpt>
      <trkpt lat="45.67197" lon="5.52209">
        <ele>214</ele>
        <time>2022-06-19T07:35:39Z</time>
      </trkpt>
      <trkpt lat="45.67204" lon="5.5214">
        <ele>214</ele>
        <time>2022-06-19T07:35:47Z</time>
      </trkpt>
      <trkpt lat="45.67205" lon="5.52077">
        <ele>214.4</ele>
        <time>2022-06-19T07:35:54Z</time>
      </trkpt>
      <trkpt lat="45.67204" lon="5.51996">
        <ele>214.6</ele>
        <time>2022-06-19T07:36:03Z</time>
      </trkpt>
      <trkpt lat="45.67204" lon="5.51926">
        <ele>214.6</ele>
        <time>2022-06-19T07:36:10Z</time>
      </trkpt>
      <trkpt lat="45.672" lon="5.51852">
        <ele>214.2</ele>
        <time>2022-06-19T07:36:17Z</time>
      </trkpt>
      <trkpt lat="45.67192" lon="5.51768">
        <ele>214.4</ele>
        <time>2022-06-19T07:36:25Z</time>
      </trkpt>
      <trkpt lat="45.6719" lon="5.51747">
        <ele>214.4</ele>
        <time>2022-06-19T07:36:27Z</time>
      </trkpt>
      <trkpt lat="45.67179" lon="5.51666">
        <ele>214.6</ele>
        <time>2022-06-19T07:36:35Z</time>
      </trkpt>
      <trkpt lat="45.67176" lon="5.51657">
        <ele>214.6</ele>
        <time>2022-06-19T07:36:36Z</time>
      </trkpt>
      <trkpt lat="45.67166" lon="5.51614">
        <ele>214.8</ele>
        <time>2022-06-19T07:36:41Z</time>
      </trkpt>
      <trkpt lat="45.67166" lon="5.51608">
        <ele>214.8</ele>
        <time>2022-06-19T07:36:42Z</time>
      </trkpt>
      <trkpt lat="45.67168" lon="5.51604">
        <ele>214.8</ele>
        <time>2022-06-19T07:36:43Z</time>
      </trkpt>
      <trkpt lat="45.67176" lon="5.51601">
        <ele>214.8</ele>
        <time>2022-06-19T07:36:45Z</time>
      </trkpt>
      <trkpt lat="45.67203" lon="5.51601">
        <ele>214.6</ele>
        <time>2022-06-19T07:36:50Z</time>
      </trkpt>
      <trkpt lat="45.67237" lon="5.51597">
        <ele>214.6</ele>
        <time>2022-06-19T07:36:55Z</time>
      </trkpt>
      <trkpt lat="45.67284" lon="5.51582">
        <ele>214.8</ele>
        <time>2022-06-19T07:37:02Z</time>
      </trkpt>
      <trkpt lat="45.67298" lon="5.51577">
        <ele>214.6</ele>
        <time>2022-06-19T07:37:04Z</time>
      </trkpt>
      <trkpt lat="45.67319" lon="5.51567">
        <ele>214.6</ele>
        <time>2022-06-19T07:37:07Z</time>
      </trkpt>
      <trkpt lat="45.67333" lon="5.51561">
        <ele>215</ele>
        <time>2022-06-19T07:37:09Z</time>
      </trkpt>
      <trkpt lat="45.67349" lon="5.5156">
        <ele>215.2</ele>
        <time>2022-06-19T07:37:11Z</time>
      </trkpt>
      <trkpt lat="45.67355" lon="5.51561">
        <ele>215.2</ele>
        <time>2022-06-19T07:37:12Z</time>
      </trkpt>
      <trkpt lat="45.67407" lon="5.51564">
        <ele>215.6</ele>
        <time>2022-06-19T07:37:19Z</time>
      </trkpt>
      <trkpt lat="45.67414" lon="5.51562">
        <ele>215.6</ele>
        <time>2022-06-19T07:37:20Z</time>
      </trkpt>
      <trkpt lat="45.6742" lon="5.51558">
        <ele>215.6</ele>
        <time>2022-06-19T07:37:21Z</time>
      </trkpt>
      <trkpt lat="45.6743" lon="5.51547">
        <ele>215.6</ele>
        <time>2022-06-19T07:37:23Z</time>
      </trkpt>
      <trkpt lat="45.67437" lon="5.51531">
        <ele>215.6</ele>
        <time>2022-06-19T07:37:25Z</time>
      </trkpt>
      <trkpt lat="45.67439" lon="5.51522">
        <ele>215.4</ele>
        <time>2022-06-19T07:37:26Z</time>
      </trkpt>
      <trkpt lat="45.67452" lon="5.51459">
        <ele>215.4</ele>
        <time>2022-06-19T07:37:33Z</time>
      </trkpt>
      <trkpt lat="45.67463" lon="5.51408">
        <ele>215</ele>
        <time>2022-06-19T07:37:39Z</time>
      </trkpt>
      <trkpt lat="45.67467" lon="5.51396">
        <ele>214.6</ele>
        <time>2022-06-19T07:37:42Z</time>
      </trkpt>
      <trkpt lat="45.6747" lon="5.51394">
        <ele>214.4</ele>
        <time>2022-06-19T07:37:45Z</time>
      </trkpt>
      <trkpt lat="45.67482" lon="5.51395">
        <ele>214.2</ele>
        <time>2022-06-19T07:37:49Z</time>
      </trkpt>
      <trkpt lat="45.67486" lon="5.51396">
        <ele>214</ele>
        <time>2022-06-19T07:37:50Z</time>
      </trkpt>
      <trkpt lat="45.67512" lon="5.51408">
        <ele>213.4</ele>
        <time>2022-06-19T07:37:55Z</time>
      </trkpt>
      <trkpt lat="45.67553" lon="5.51433">
        <ele>213.4</ele>
        <time>2022-06-19T07:38:02Z</time>
      </trkpt>
      <trkpt lat="45.67605" lon="5.51463">
        <ele>213.4</ele>
        <time>2022-06-19T07:38:10Z</time>
      </trkpt>
      <trkpt lat="45.67611" lon="5.51467">
        <ele>213.4</ele>
        <time>2022-06-19T07:38:11Z</time>
      </trkpt>
      <trkpt lat="45.67665" lon="5.51498">
        <ele>213.4</ele>
        <time>2022-06-19T07:38:19Z</time>
      </trkpt>
      <trkpt lat="45.67672" lon="5.51502">
        <ele>213.4</ele>
        <time>2022-06-19T07:38:20Z</time>
      </trkpt>
      <trkpt lat="45.67707" lon="5.51523">
        <ele>213</ele>
        <time>2022-06-19T07:38:25Z</time>
      </trkpt>
      <trkpt lat="45.67736" lon="5.51539">
        <ele>213</ele>
        <time>2022-06-19T07:38:29Z</time>
      </trkpt>
      <trkpt lat="45.67785" lon="5.51564">
        <ele>213</ele>
        <time>2022-06-19T07:38:36Z</time>
      </trkpt>
      <trkpt lat="45.67793" lon="5.51565">
        <ele>213</ele>
        <time>2022-06-19T07:38:37Z</time>
      </trkpt>
      <trkpt lat="45.67808" lon="5.51563">
        <ele>213.2</ele>
        <time>2022-06-19T07:38:39Z</time>
      </trkpt>
      <trkpt lat="45.67815" lon="5.51561">
        <ele>213.2</ele>
        <time>2022-06-19T07:38:40Z</time>
      </trkpt>
      <trkpt lat="45.67822" lon="5.51557">
        <ele>213.2</ele>
        <time>2022-06-19T07:38:41Z</time>
      </trkpt>
      <trkpt lat="45.67842" lon="5.51539">
        <ele>213</ele>
        <time>2022-06-19T07:38:44Z</time>
      </trkpt>
      <trkpt lat="45.6789" lon="5.51485">
        <ele>213.4</ele>
        <time>2022-06-19T07:38:52Z</time>
      </trkpt>
      <trkpt lat="45.67908" lon="5.51464">
        <ele>213.4</ele>
        <time>2022-06-19T07:38:55Z</time>
      </trkpt>
      <trkpt lat="45.67942" lon="5.51425">
        <ele>213.2</ele>
        <time>2022-06-19T07:39:01Z</time>
      </trkpt>
      <trkpt lat="45.67954" lon="5.51412">
        <ele>213.2</ele>
        <time>2022-06-19T07:39:03Z</time>
      </trkpt>
      <trkpt lat="45.68002" lon="5.51356">
        <ele>213.6</ele>
        <time>2022-06-19T07:39:11Z</time>
      </trkpt>
      <trkpt lat="45.68015" lon="5.5134">
        <ele>213.6</ele>
        <time>2022-06-19T07:39:13Z</time>
      </trkpt>
      <trkpt lat="45.68057" lon="5.51293">
        <ele>213.6</ele>
        <time>2022-06-19T07:39:20Z</time>
      </trkpt>
      <trkpt lat="45.68076" lon="5.5127">
        <ele>213.6</ele>
        <time>2022-06-19T07:39:23Z</time>
      </trkpt>
      <trkpt lat="45.68123" lon="5.51215">
        <ele>213.8</ele>
        <time>2022-06-19T07:39:31Z</time>
      </trkpt>
      <trkpt lat="45.68137" lon="5.51199">
        <ele>213.8</ele>
        <time>2022-06-19T07:39:33Z</time>
      </trkpt>
      <trkpt lat="45.6818" lon="5.51149">
        <ele>213.8</ele>
        <time>2022-06-19T07:39:40Z</time>
      </trkpt>
      <trkpt lat="45.68187" lon="5.51142">
        <ele>214</ele>
        <time>2022-06-19T07:39:41Z</time>
      </trkpt>
      <trkpt lat="45.6823" lon="5.51092">
        <ele>214.4</ele>
        <time>2022-06-19T07:39:48Z</time>
      </trkpt>
      <trkpt lat="45.68242" lon="5.51078">
        <ele>214.4</ele>
        <time>2022-06-19T07:39:50Z</time>
      </trkpt>
      <trkpt lat="45.68285" lon="5.51029">
        <ele>214.6</ele>
        <time>2022-06-19T07:39:57Z</time>
      </trkpt>
      <trkpt lat="45.6831" lon="5.51">
        <ele>214.4</ele>
        <time>2022-06-19T07:40:01Z</time>
      </trkpt>
      <trkpt lat="45.68353" lon="5.50951">
        <ele>214.4</ele>
        <time>2022-06-19T07:40:08Z</time>
      </trkpt>
      <trkpt lat="45.68365" lon="5.50936">
        <ele>214.4</ele>
        <time>2022-06-19T07:40:10Z</time>
      </trkpt>
      <trkpt lat="45.68396" lon="5.50901">
        <ele>214.6</ele>
        <time>2022-06-19T07:40:15Z</time>
      </trkpt>
      <trkpt lat="45.68402" lon="5.50893">
        <ele>214.6</ele>
        <time>2022-06-19T07:40:16Z</time>
      </trkpt>
      <trkpt lat="45.68445" lon="5.50845">
        <ele>214.6</ele>
        <time>2022-06-19T07:40:23Z</time>
      </trkpt>
      <trkpt lat="45.68464" lon="5.50823">
        <ele>214.6</ele>
        <time>2022-06-19T07:40:26Z</time>
      </trkpt>
      <trkpt lat="45.68508" lon="5.50771">
        <ele>214.6</ele>
        <time>2022-06-19T07:40:33Z</time>
      </trkpt>
      <trkpt lat="45.68521" lon="5.50756">
        <ele>214.6</ele>
        <time>2022-06-19T07:40:35Z</time>
      </trkpt>
      <trkpt lat="45.68565" lon="5.5071">
        <ele>214.2</ele>
        <time>2022-06-19T07:40:42Z</time>
      </trkpt>
      <trkpt lat="45.68579" lon="5.50698">
        <ele>214.2</ele>
        <time>2022-06-19T07:40:44Z</time>
      </trkpt>
      <trkpt lat="45.68632" lon="5.50654">
        <ele>214.2</ele>
        <time>2022-06-19T07:40:52Z</time>
      </trkpt>
      <trkpt lat="45.68683" lon="5.50613">
        <ele>214.2</ele>
        <time>2022-06-19T07:41:00Z</time>
      </trkpt>
      <trkpt lat="45.68735" lon="5.50571">
        <ele>214.2</ele>
        <time>2022-06-19T07:41:08Z</time>
      </trkpt>
      <trkpt lat="45.68768" lon="5.50543">
        <ele>214</ele>
        <time>2022-06-19T07:41:13Z</time>
      </trkpt>
      <trkpt lat="45.68821" lon="5.50501">
        <ele>214</ele>
        <time>2022-06-19T07:41:21Z</time>
      </trkpt>
      <trkpt lat="45.68828" lon="5.50497">
        <ele>213.8</ele>
        <time>2022-06-19T07:41:22Z</time>
      </trkpt>
      <trkpt lat="45.68835" lon="5.50495">
        <ele>213.8</ele>
        <time>2022-06-19T07:41:23Z</time>
      </trkpt>
      <trkpt lat="45.68856" lon="5.50494">
        <ele>213.6</ele>
        <time>2022-06-19T07:41:26Z</time>
      </trkpt>
      <trkpt lat="45.68867" lon="5.50488">
        <ele>213.4</ele>
        <time>2022-06-19T07:41:28Z</time>
      </trkpt>
      <trkpt lat="45.68871" lon="5.50484">
        <ele>213.4</ele>
        <time>2022-06-19T07:41:29Z</time>
      </trkpt>
      <trkpt lat="45.68876" lon="5.50479">
        <ele>213.4</ele>
        <time>2022-06-19T07:41:32Z</time>
      </trkpt>
      <trkpt lat="45.68878" lon="5.5048">
        <ele>213</ele>
        <time>2022-06-19T07:41:35Z</time>
      </trkpt>
      <trkpt lat="45.6888" lon="5.50479">
        <ele>213</ele>
        <time>2022-06-19T07:41:36Z</time>
      </trkpt>
      <trkpt lat="45.6889" lon="5.50468">
        <ele>213</ele>
        <time>2022-06-19T07:41:41Z</time>
      </trkpt>
      <trkpt lat="45.68898" lon="5.50467">
        <ele>213</ele>
        <time>2022-06-19T07:41:43Z</time>
      </trkpt>
      <trkpt lat="45.68908" lon="5.50469">
        <ele>212.8</ele>
        <time>2022-06-19T07:41:45Z</time>
      </trkpt>
      <trkpt lat="45.68937" lon="5.50474">
        <ele>213</ele>
        <time>2022-06-19T07:41:51Z</time>
      </trkpt>
      <trkpt lat="45.68945" lon="5.50469">
        <ele>213</ele>
        <time>2022-06-19T07:41:53Z</time>
      </trkpt>
      <trkpt lat="45.68947" lon="5.50463">
        <ele>213</ele>
        <time>2022-06-19T07:41:54Z</time>
      </trkpt>
      <trkpt lat="45.68947" lon="5.50456">
        <ele>213.2</ele>
        <time>2022-06-19T07:41:55Z</time>
      </trkpt>
      <trkpt lat="45.68947" lon="5.50433">
        <ele>213.4</ele>
        <time>2022-06-19T07:41:58Z</time>
      </trkpt>
      <trkpt lat="45.68945" lon="5.50407">
        <ele>213.4</ele>
        <time>2022-06-19T07:42:01Z</time>
      </trkpt>
      <trkpt lat="45.68945" lon="5.50392">
        <ele>213.6</ele>
        <time>2022-06-19T07:42:03Z</time>
      </trkpt>
      <trkpt lat="45.68945" lon="5.50386">
        <ele>213.8</ele>
        <time>2022-06-19T07:42:04Z</time>
      </trkpt>
      <trkpt lat="45.68947" lon="5.50377">
        <ele>214</ele>
        <time>2022-06-19T07:42:05Z</time>
      </trkpt>
      <trkpt lat="45.68952" lon="5.50363">
        <ele>214.2</ele>
        <time>2022-06-19T07:42:07Z</time>
      </trkpt>
      <trkpt lat="45.68955" lon="5.50358">
        <ele>214.4</ele>
        <time>2022-06-19T07:42:08Z</time>
      </trkpt>
      <trkpt lat="45.68962" lon="5.50348">
        <ele>214.6</ele>
        <time>2022-06-19T07:42:10Z</time>
      </trkpt>
      <trkpt lat="45.68971" lon="5.50339">
        <ele>215</ele>
        <time>2022-06-19T07:42:12Z</time>
      </trkpt>
      <trkpt lat="45.68974" lon="5.50337">
        <ele>215</ele>
        <time>2022-06-19T07:42:13Z</time>
      </trkpt>
      <trkpt lat="45.68982" lon="5.5033">
        <ele>215.4</ele>
        <time>2022-06-19T07:42:15Z</time>
      </trkpt>
      <trkpt lat="45.68994" lon="5.50317">
        <ele>216.2</ele>
        <time>2022-06-19T07:42:18Z</time>
      </trkpt>
      <trkpt lat="45.69014" lon="5.50289">
        <ele>217.2</ele>
        <time>2022-06-19T07:42:24Z</time>
      </trkpt>
      <trkpt lat="45.69017" lon="5.50284">
        <ele>217.6</ele>
        <time>2022-06-19T07:42:25Z</time>
      </trkpt>
      <trkpt lat="45.69023" lon="5.50275">
        <ele>218.2</ele>
        <time>2022-06-19T07:42:27Z</time>
      </trkpt>
      <trkpt lat="45.69025" lon="5.50271">
        <ele>218.2</ele>
        <time>2022-06-19T07:42:28Z</time>
      </trkpt>
      <trkpt lat="45.69036" lon="5.50252">
        <ele>219</ele>
        <time>2022-06-19T07:42:32Z</time>
      </trkpt>
      <trkpt lat="45.69041" lon="5.50245">
        <ele>219.6</ele>
        <time>2022-06-19T07:42:34Z</time>
      </trkpt>
      <trkpt lat="45.69056" lon="5.5023">
        <ele>220.6</ele>
        <time>2022-06-19T07:42:39Z</time>
      </trkpt>
      <trkpt lat="45.69066" lon="5.50227">
        <ele>221.8</ele>
        <time>2022-06-19T07:42:42Z</time>
      </trkpt>
      <trkpt lat="45.69077" lon="5.50229">
        <ele>222.8</ele>
        <time>2022-06-19T07:42:45Z</time>
      </trkpt>
      <trkpt lat="45.69088" lon="5.50233">
        <ele>223.8</ele>
        <time>2022-06-19T07:42:48Z</time>
      </trkpt>
      <trkpt lat="45.69105" lon="5.50238">
        <ele>225</ele>
        <time>2022-06-19T07:42:52Z</time>
      </trkpt>
      <trkpt lat="45.69113" lon="5.50241">
        <ele>225</ele>
        <time>2022-06-19T07:42:54Z</time>
      </trkpt>
      <trkpt lat="45.69138" lon="5.50244">
        <ele>226</ele>
        <time>2022-06-19T07:43:00Z</time>
      </trkpt>
      <trkpt lat="45.69141" lon="5.50243">
        <ele>226</ele>
        <time>2022-06-19T07:43:01Z</time>
      </trkpt>
      <trkpt lat="45.69161" lon="5.50239">
        <ele>227</ele>
        <time>2022-06-19T07:43:06Z</time>
      </trkpt>
      <trkpt lat="45.69169" lon="5.50237">
        <ele>227.6</ele>
        <time>2022-06-19T07:43:08Z</time>
      </trkpt>
      <trkpt lat="45.69185" lon="5.50229">
        <ele>228.4</ele>
        <time>2022-06-19T07:43:12Z</time>
      </trkpt>
      <trkpt lat="45.69195" lon="5.50223">
        <ele>229</ele>
        <time>2022-06-19T07:43:15Z</time>
      </trkpt>
      <trkpt lat="45.69205" lon="5.50216">
        <ele>229.8</ele>
        <time>2022-06-19T07:43:18Z</time>
      </trkpt>
      <trkpt lat="45.69214" lon="5.50207">
        <ele>231</ele>
        <time>2022-06-19T07:43:21Z</time>
      </trkpt>
      <trkpt lat="45.69217" lon="5.50204">
        <ele>231.2</ele>
        <time>2022-06-19T07:43:22Z</time>
      </trkpt>
      <trkpt lat="45.69226" lon="5.50194">
        <ele>232</ele>
        <time>2022-06-19T07:43:25Z</time>
      </trkpt>
      <trkpt lat="45.69233" lon="5.50183">
        <ele>233.2</ele>
        <time>2022-06-19T07:43:28Z</time>
      </trkpt>
      <trkpt lat="45.69238" lon="5.50176">
        <ele>234</ele>
        <time>2022-06-19T07:43:30Z</time>
      </trkpt>
      <trkpt lat="45.6924" lon="5.50173">
        <ele>234.6</ele>
        <time>2022-06-19T07:43:31Z</time>
      </trkpt>
      <trkpt lat="45.69243" lon="5.50169">
        <ele>234.8</ele>
        <time>2022-06-19T07:43:32Z</time>
      </trkpt>
      <trkpt lat="45.69248" lon="5.5016">
        <ele>235.8</ele>
        <time>2022-06-19T07:43:34Z</time>
      </trkpt>
      <trkpt lat="45.69256" lon="5.50147">
        <ele>237</ele>
        <time>2022-06-19T07:43:37Z</time>
      </trkpt>
      <trkpt lat="45.69267" lon="5.50128">
        <ele>238.2</ele>
        <time>2022-06-19T07:43:41Z</time>
      </trkpt>
      <trkpt lat="45.6927" lon="5.50124">
        <ele>238.6</ele>
        <time>2022-06-19T07:43:42Z</time>
      </trkpt>
      <trkpt lat="45.69278" lon="5.50114">
        <ele>239</ele>
        <time>2022-06-19T07:43:44Z</time>
      </trkpt>
      <trkpt lat="45.69283" lon="5.50112">
        <ele>239.4</ele>
        <time>2022-06-19T07:43:45Z</time>
      </trkpt>
      <trkpt lat="45.69289" lon="5.50112">
        <ele>239.4</ele>
        <time>2022-06-19T07:43:46Z</time>
      </trkpt>
      <trkpt lat="45.69296" lon="5.50114">
        <ele>239.6</ele>
        <time>2022-06-19T07:43:47Z</time>
      </trkpt>
      <trkpt lat="45.69339" lon="5.50126">
        <ele>238.8</ele>
        <time>2022-06-19T07:43:53Z</time>
      </trkpt>
      <trkpt lat="45.69347" lon="5.50128">
        <ele>238.4</ele>
        <time>2022-06-19T07:43:54Z</time>
      </trkpt>
      <trkpt lat="45.69374" lon="5.50138">
        <ele>237</ele>
        <time>2022-06-19T07:43:57Z</time>
      </trkpt>
      <trkpt lat="45.69383" lon="5.50141">
        <ele>236.8</ele>
        <time>2022-06-19T07:43:58Z</time>
      </trkpt>
      <trkpt lat="45.69409" lon="5.50151">
        <ele>235.6</ele>
        <time>2022-06-19T07:44:01Z</time>
      </trkpt>
      <trkpt lat="45.69438" lon="5.50163">
        <ele>234.6</ele>
        <time>2022-06-19T07:44:04Z</time>
      </trkpt>
      <trkpt lat="45.69446" lon="5.50166">
        <ele>234.4</ele>
        <time>2022-06-19T07:44:05Z</time>
      </trkpt>
      <trkpt lat="45.69471" lon="5.50176">
        <ele>233.2</ele>
        <time>2022-06-19T07:44:08Z</time>
      </trkpt>
      <trkpt lat="45.69479" lon="5.5018">
        <ele>233</ele>
        <time>2022-06-19T07:44:09Z</time>
      </trkpt>
      <trkpt lat="45.69519" lon="5.50206">
        <ele>232.4</ele>
        <time>2022-06-19T07:44:15Z</time>
      </trkpt>
      <trkpt lat="45.69546" lon="5.50224">
        <ele>232.4</ele>
        <time>2022-06-19T07:44:19Z</time>
      </trkpt>
      <trkpt lat="45.69557" lon="5.50231">
        <ele>232.2</ele>
        <time>2022-06-19T07:44:21Z</time>
      </trkpt>
      <trkpt lat="45.69606" lon="5.50259">
        <ele>231.6</ele>
        <time>2022-06-19T07:44:28Z</time>
      </trkpt>
      <trkpt lat="45.69618" lon="5.50266">
        <ele>231.2</ele>
        <time>2022-06-19T07:44:30Z</time>
      </trkpt>
      <trkpt lat="45.69624" lon="5.50269">
        <ele>231.2</ele>
        <time>2022-06-19T07:44:31Z</time>
      </trkpt>
      <trkpt lat="45.69632" lon="5.50268">
        <ele>231</ele>
        <time>2022-06-19T07:44:32Z</time>
      </trkpt>
      <trkpt lat="45.69636" lon="5.50264">
        <ele>231</ele>
        <time>2022-06-19T07:44:33Z</time>
      </trkpt>
      <trkpt lat="45.69642" lon="5.50251">
        <ele>230.8</ele>
        <time>2022-06-19T07:44:35Z</time>
      </trkpt>
      <trkpt lat="45.69646" lon="5.50244">
        <ele>230.8</ele>
        <time>2022-06-19T07:44:36Z</time>
      </trkpt>
      <trkpt lat="45.69667" lon="5.5021">
        <ele>231</ele>
        <time>2022-06-19T07:44:41Z</time>
      </trkpt>
      <trkpt lat="45.69682" lon="5.50187">
        <ele>232.2</ele>
        <time>2022-06-19T07:44:45Z</time>
      </trkpt>
      <trkpt lat="45.69686" lon="5.50181">
        <ele>232.6</ele>
        <time>2022-06-19T07:44:46Z</time>
      </trkpt>
      <trkpt lat="45.69693" lon="5.50169">
        <ele>233.2</ele>
        <time>2022-06-19T07:44:48Z</time>
      </trkpt>
      <trkpt lat="45.69696" lon="5.50164">
        <ele>233.8</ele>
        <time>2022-06-19T07:44:49Z</time>
      </trkpt>
      <trkpt lat="45.69707" lon="5.50148">
        <ele>234.8</ele>
        <time>2022-06-19T07:44:52Z</time>
      </trkpt>
      <trkpt lat="45.69722" lon="5.50127">
        <ele>236</ele>
        <time>2022-06-19T07:44:56Z</time>
      </trkpt>
      <trkpt lat="45.69729" lon="5.50117">
        <ele>236.6</ele>
        <time>2022-06-19T07:44:58Z</time>
      </trkpt>
      <trkpt lat="45.69736" lon="5.50106">
        <ele>237</ele>
        <time>2022-06-19T07:45:00Z</time>
      </trkpt>
      <trkpt lat="45.6975" lon="5.50084">
        <ele>238.2</ele>
        <time>2022-06-19T07:45:04Z</time>
      </trkpt>
      <trkpt lat="45.69758" lon="5.50074">
        <ele>239</ele>
        <time>2022-06-19T07:45:06Z</time>
      </trkpt>
      <trkpt lat="45.69762" lon="5.50069">
        <ele>239.6</ele>
        <time>2022-06-19T07:45:07Z</time>
      </trkpt>
      <trkpt lat="45.69772" lon="5.50054">
        <ele>241</ele>
        <time>2022-06-19T07:45:10Z</time>
      </trkpt>
      <trkpt lat="45.69786" lon="5.50033">
        <ele>242.2</ele>
        <time>2022-06-19T07:45:14Z</time>
      </trkpt>
      <trkpt lat="45.69789" lon="5.50028">
        <ele>242.6</ele>
        <time>2022-06-19T07:45:15Z</time>
      </trkpt>
      <trkpt lat="45.69796" lon="5.50018">
        <ele>243.2</ele>
        <time>2022-06-19T07:45:17Z</time>
      </trkpt>
      <trkpt lat="45.69814" lon="5.49992">
        <ele>244.4</ele>
        <time>2022-06-19T07:45:22Z</time>
      </trkpt>
      <trkpt lat="45.69829" lon="5.49969">
        <ele>245</ele>
        <time>2022-06-19T07:45:26Z</time>
      </trkpt>
      <trkpt lat="45.69844" lon="5.49946">
        <ele>245.4</ele>
        <time>2022-06-19T07:45:30Z</time>
      </trkpt>
      <trkpt lat="45.69856" lon="5.49929">
        <ele>246.4</ele>
        <time>2022-06-19T07:45:33Z</time>
      </trkpt>
      <trkpt lat="45.69872" lon="5.49905">
        <ele>246.6</ele>
        <time>2022-06-19T07:45:37Z</time>
      </trkpt>
      <trkpt lat="45.69889" lon="5.49882">
        <ele>246.6</ele>
        <time>2022-06-19T07:45:41Z</time>
      </trkpt>
      <trkpt lat="45.69914" lon="5.49844">
        <ele>247</ele>
        <time>2022-06-19T07:45:47Z</time>
      </trkpt>
      <trkpt lat="45.69955" lon="5.49784">
        <ele>247</ele>
        <time>2022-06-19T07:45:56Z</time>
      </trkpt>
      <trkpt lat="45.69964" lon="5.4977">
        <ele>247</ele>
        <time>2022-06-19T07:45:58Z</time>
      </trkpt>
      <trkpt lat="45.69999" lon="5.49719">
        <ele>247</ele>
        <time>2022-06-19T07:46:05Z</time>
      </trkpt>
      <trkpt lat="45.70041" lon="5.49657">
        <ele>246.4</ele>
        <time>2022-06-19T07:46:13Z</time>
      </trkpt>
      <trkpt lat="45.70052" lon="5.49641">
        <ele>246.4</ele>
        <time>2022-06-19T07:46:15Z</time>
      </trkpt>
      <trkpt lat="45.70091" lon="5.49583">
        <ele>245.8</ele>
        <time>2022-06-19T07:46:22Z</time>
      </trkpt>
      <trkpt lat="45.70096" lon="5.49574">
        <ele>245.6</ele>
        <time>2022-06-19T07:46:23Z</time>
      </trkpt>
      <trkpt lat="45.70116" lon="5.49531">
        <ele>245</ele>
        <time>2022-06-19T07:46:27Z</time>
      </trkpt>
      <trkpt lat="45.7012" lon="5.49519">
        <ele>244.4</ele>
        <time>2022-06-19T07:46:28Z</time>
      </trkpt>
      <trkpt lat="45.70137" lon="5.49468">
        <ele>243.2</ele>
        <time>2022-06-19T07:46:32Z</time>
      </trkpt>
      <trkpt lat="45.7014" lon="5.49455">
        <ele>243.2</ele>
        <time>2022-06-19T07:46:33Z</time>
      </trkpt>
      <trkpt lat="45.70147" lon="5.4943">
        <ele>242</ele>
        <time>2022-06-19T07:46:35Z</time>
      </trkpt>
      <trkpt lat="45.70162" lon="5.49384">
        <ele>241.6</ele>
        <time>2022-06-19T07:46:39Z</time>
      </trkpt>
      <trkpt lat="45.70178" lon="5.4933">
        <ele>241.6</ele>
        <time>2022-06-19T07:46:44Z</time>
      </trkpt>
      <trkpt lat="45.70193" lon="5.49263">
        <ele>242.2</ele>
        <time>2022-06-19T07:46:50Z</time>
      </trkpt>
      <trkpt lat="45.70208" lon="5.4919">
        <ele>242.2</ele>
        <time>2022-06-19T07:46:56Z</time>
      </trkpt>
      <trkpt lat="45.70227" lon="5.4912">
        <ele>242</ele>
        <time>2022-06-19T07:47:02Z</time>
      </trkpt>
      <trkpt lat="45.70245" lon="5.49058">
        <ele>242.4</ele>
        <time>2022-06-19T07:47:08Z</time>
      </trkpt>
      <trkpt lat="45.7025" lon="5.49049">
        <ele>242.4</ele>
        <time>2022-06-19T07:47:09Z</time>
      </trkpt>
      <trkpt lat="45.70256" lon="5.49042">
        <ele>242.6</ele>
        <time>2022-06-19T07:47:10Z</time>
      </trkpt>
      <trkpt lat="45.70276" lon="5.49024">
        <ele>243</ele>
        <time>2022-06-19T07:47:13Z</time>
      </trkpt>
      <trkpt lat="45.70283" lon="5.49019">
        <ele>243.2</ele>
        <time>2022-06-19T07:47:14Z</time>
      </trkpt>
      <trkpt lat="45.70306" lon="5.48995">
        <ele>243.8</ele>
        <time>2022-06-19T07:47:18Z</time>
      </trkpt>
      <trkpt lat="45.70312" lon="5.48987">
        <ele>243.8</ele>
        <time>2022-06-19T07:47:19Z</time>
      </trkpt>
      <trkpt lat="45.70322" lon="5.48972">
        <ele>244.2</ele>
        <time>2022-06-19T07:47:21Z</time>
      </trkpt>
      <trkpt lat="45.70346" lon="5.48933">
        <ele>245.4</ele>
        <time>2022-06-19T07:47:26Z</time>
      </trkpt>
      <trkpt lat="45.70356" lon="5.48917">
        <ele>245.8</ele>
        <time>2022-06-19T07:47:28Z</time>
      </trkpt>
      <trkpt lat="45.70396" lon="5.48855">
        <ele>246.2</ele>
        <time>2022-06-19T07:47:36Z</time>
      </trkpt>
      <trkpt lat="45.70406" lon="5.48839">
        <ele>246.4</ele>
        <time>2022-06-19T07:47:38Z</time>
      </trkpt>
      <trkpt lat="45.70411" lon="5.48831">
        <ele>246.4</ele>
        <time>2022-06-19T07:47:39Z</time>
      </trkpt>
      <trkpt lat="45.70452" lon="5.48767">
        <ele>246.8</ele>
        <time>2022-06-19T07:47:47Z</time>
      </trkpt>
      <trkpt lat="45.70462" lon="5.48751">
        <ele>246.8</ele>
        <time>2022-06-19T07:47:49Z</time>
      </trkpt>
      <trkpt lat="45.70499" lon="5.48693">
        <ele>247</ele>
        <time>2022-06-19T07:47:56Z</time>
      </trkpt>
      <trkpt lat="45.70515" lon="5.48669">
        <ele>247</ele>
        <time>2022-06-19T07:47:59Z</time>
      </trkpt>
      <trkpt lat="45.70558" lon="5.48605">
        <ele>247.4</ele>
        <time>2022-06-19T07:48:07Z</time>
      </trkpt>
      <trkpt lat="45.70563" lon="5.48597">
        <ele>247.4</ele>
        <time>2022-06-19T07:48:08Z</time>
      </trkpt>
      <trkpt lat="45.70591" lon="5.48541">
        <ele>247.4</ele>
        <time>2022-06-19T07:48:14Z</time>
      </trkpt>
      <trkpt lat="45.70613" lon="5.48467">
        <ele>247.4</ele>
        <time>2022-06-19T07:48:21Z</time>
      </trkpt>
      <trkpt lat="45.70619" lon="5.48445">
        <ele>247.6</ele>
        <time>2022-06-19T07:48:23Z</time>
      </trkpt>
      <trkpt lat="45.70625" lon="5.48424">
        <ele>247.6</ele>
        <time>2022-06-19T07:48:25Z</time>
      </trkpt>
      <trkpt lat="45.70638" lon="5.48381">
        <ele>247.6</ele>
        <time>2022-06-19T07:48:29Z</time>
      </trkpt>
      <trkpt lat="45.70648" lon="5.48361">
        <ele>247.6</ele>
        <time>2022-06-19T07:48:31Z</time>
      </trkpt>
      <trkpt lat="45.70683" lon="5.48309">
        <ele>247.8</ele>
        <time>2022-06-19T07:48:37Z</time>
      </trkpt>
      <trkpt lat="45.70712" lon="5.48272">
        <ele>248.2</ele>
        <time>2022-06-19T07:48:42Z</time>
      </trkpt>
      <trkpt lat="45.70733" lon="5.48243">
        <ele>248.8</ele>
        <time>2022-06-19T07:48:46Z</time>
      </trkpt>
      <trkpt lat="45.7075" lon="5.48221">
        <ele>249.2</ele>
        <time>2022-06-19T07:48:49Z</time>
      </trkpt>
      <trkpt lat="45.70769" lon="5.48194">
        <ele>250</ele>
        <time>2022-06-19T07:48:53Z</time>
      </trkpt>
      <trkpt lat="45.70773" lon="5.48188">
        <ele>250</ele>
        <time>2022-06-19T07:48:54Z</time>
      </trkpt>
      <trkpt lat="45.70793" lon="5.48161">
        <ele>251</ele>
        <time>2022-06-19T07:48:59Z</time>
      </trkpt>
      <trkpt lat="45.708" lon="5.48149">
        <ele>251.4</ele>
        <time>2022-06-19T07:49:01Z</time>
      </trkpt>
      <trkpt lat="45.70816" lon="5.48128">
        <ele>252</ele>
        <time>2022-06-19T07:49:05Z</time>
      </trkpt>
      <trkpt lat="45.70824" lon="5.48118">
        <ele>252.6</ele>
        <time>2022-06-19T07:49:07Z</time>
      </trkpt>
      <trkpt lat="45.70829" lon="5.48113">
        <ele>253</ele>
        <time>2022-06-19T07:49:08Z</time>
      </trkpt>
      <trkpt lat="45.70854" lon="5.48083">
        <ele>254.2</ele>
        <time>2022-06-19T07:49:14Z</time>
      </trkpt>
      <trkpt lat="45.70869" lon="5.4806">
        <ele>255.2</ele>
        <time>2022-06-19T07:49:18Z</time>
      </trkpt>
      <trkpt lat="45.70879" lon="5.48044">
        <ele>255.2</ele>
        <time>2022-06-19T07:49:21Z</time>
      </trkpt>
      <trkpt lat="45.70882" lon="5.48039">
        <ele>255.4</ele>
        <time>2022-06-19T07:49:22Z</time>
      </trkpt>
      <trkpt lat="45.70886" lon="5.48031">
        <ele>255.4</ele>
        <time>2022-06-19T07:49:24Z</time>
      </trkpt>
      <trkpt lat="45.70887" lon="5.48025">
        <ele>255.4</ele>
        <time>2022-06-19T07:49:25Z</time>
      </trkpt>
      <trkpt lat="45.70889" lon="5.48012">
        <ele>255.4</ele>
        <time>2022-06-19T07:49:27Z</time>
      </trkpt>
      <trkpt lat="45.70894" lon="5.47998">
        <ele>255.2</ele>
        <time>2022-06-19T07:49:29Z</time>
      </trkpt>
      <trkpt lat="45.70901" lon="5.47976">
        <ele>255.2</ele>
        <time>2022-06-19T07:49:32Z</time>
      </trkpt>
      <trkpt lat="45.70904" lon="5.47959">
        <ele>255</ele>
        <time>2022-06-19T07:49:34Z</time>
      </trkpt>
      <trkpt lat="45.70905" lon="5.47951">
        <ele>255</ele>
        <time>2022-06-19T07:49:35Z</time>
      </trkpt>
      <trkpt lat="45.70904" lon="5.47907">
        <ele>254.8</ele>
        <time>2022-06-19T07:49:40Z</time>
      </trkpt>
      <trkpt lat="45.70906" lon="5.47869">
        <ele>254.6</ele>
        <time>2022-06-19T07:49:44Z</time>
      </trkpt>
      <trkpt lat="45.70909" lon="5.4785">
        <ele>254.6</ele>
        <time>2022-06-19T07:49:46Z</time>
      </trkpt>
      <trkpt lat="45.70921" lon="5.47816">
        <ele>254.2</ele>
        <time>2022-06-19T07:49:50Z</time>
      </trkpt>
      <trkpt lat="45.70928" lon="5.47801">
        <ele>254</ele>
        <time>2022-06-19T07:49:52Z</time>
      </trkpt>
      <trkpt lat="45.70953" lon="5.47752">
        <ele>254</ele>
        <time>2022-06-19T07:49:59Z</time>
      </trkpt>
      <trkpt lat="45.70982" lon="5.47705">
        <ele>255</ele>
        <time>2022-06-19T07:50:06Z</time>
      </trkpt>
      <trkpt lat="45.71002" lon="5.47676">
        <ele>255.6</ele>
        <time>2022-06-19T07:50:11Z</time>
      </trkpt>
      <trkpt lat="45.71009" lon="5.47664">
        <ele>255.8</ele>
        <time>2022-06-19T07:50:13Z</time>
      </trkpt>
      <trkpt lat="45.71023" lon="5.47632">
        <ele>257.2</ele>
        <time>2022-06-19T07:50:18Z</time>
      </trkpt>
      <trkpt lat="45.71025" lon="5.47626">
        <ele>257.2</ele>
        <time>2022-06-19T07:50:19Z</time>
      </trkpt>
      <trkpt lat="45.71027" lon="5.47619">
        <ele>257.4</ele>
        <time>2022-06-19T07:50:20Z</time>
      </trkpt>
      <trkpt lat="45.71032" lon="5.47591">
        <ele>258.6</ele>
        <time>2022-06-19T07:50:24Z</time>
      </trkpt>
      <trkpt lat="45.71033" lon="5.47584">
        <ele>258.6</ele>
        <time>2022-06-19T07:50:25Z</time>
      </trkpt>
      <trkpt lat="45.71038" lon="5.47556">
        <ele>259.8</ele>
        <time>2022-06-19T07:50:29Z</time>
      </trkpt>
      <trkpt lat="45.71042" lon="5.47543">
        <ele>260.2</ele>
        <time>2022-06-19T07:50:31Z</time>
      </trkpt>
      <trkpt lat="45.71044" lon="5.47536">
        <ele>260.4</ele>
        <time>2022-06-19T07:50:32Z</time>
      </trkpt>
      <trkpt lat="45.71049" lon="5.47524">
        <ele>260.8</ele>
        <time>2022-06-19T07:50:34Z</time>
      </trkpt>
      <trkpt lat="45.7106" lon="5.47502">
        <ele>262.2</ele>
        <time>2022-06-19T07:50:38Z</time>
      </trkpt>
      <trkpt lat="45.71063" lon="5.47497">
        <ele>262.4</ele>
        <time>2022-06-19T07:50:39Z</time>
      </trkpt>
      <trkpt lat="45.71068" lon="5.47486">
        <ele>263.6</ele>
        <time>2022-06-19T07:50:41Z</time>
      </trkpt>
      <trkpt lat="45.7108" lon="5.47464">
        <ele>264.8</ele>
        <time>2022-06-19T07:50:45Z</time>
      </trkpt>
      <trkpt lat="45.71086" lon="5.47454">
        <ele>265.2</ele>
        <time>2022-06-19T07:50:47Z</time>
      </trkpt>
      <trkpt lat="45.71096" lon="5.4744">
        <ele>265.8</ele>
        <time>2022-06-19T07:50:50Z</time>
      </trkpt>
      <trkpt lat="45.71109" lon="5.47422">
        <ele>267.2</ele>
        <time>2022-06-19T07:50:54Z</time>
      </trkpt>
      <trkpt lat="45.71124" lon="5.47405">
        <ele>268.2</ele>
        <time>2022-06-19T07:50:58Z</time>
      </trkpt>
      <trkpt lat="45.71138" lon="5.47388">
        <ele>269.2</ele>
        <time>2022-06-19T07:51:02Z</time>
      </trkpt>
      <trkpt lat="45.71145" lon="5.47379">
        <ele>269.8</ele>
        <time>2022-06-19T07:51:04Z</time>
      </trkpt>
      <trkpt lat="45.71152" lon="5.47369">
        <ele>270.4</ele>
        <time>2022-06-19T07:51:06Z</time>
      </trkpt>
      <trkpt lat="45.71154" lon="5.47364">
        <ele>270.4</ele>
        <time>2022-06-19T07:51:07Z</time>
      </trkpt>
      <trkpt lat="45.71169" lon="5.4733">
        <ele>271.8</ele>
        <time>2022-06-19T07:51:13Z</time>
      </trkpt>
      <trkpt lat="45.71174" lon="5.47318">
        <ele>272.4</ele>
        <time>2022-06-19T07:51:15Z</time>
      </trkpt>
      <trkpt lat="45.71179" lon="5.47306">
        <ele>273</ele>
        <time>2022-06-19T07:51:17Z</time>
      </trkpt>
      <trkpt lat="45.71182" lon="5.473">
        <ele>273.2</ele>
        <time>2022-06-19T07:51:18Z</time>
      </trkpt>
      <trkpt lat="45.71195" lon="5.47278">
        <ele>274</ele>
        <time>2022-06-19T07:51:22Z</time>
      </trkpt>
      <trkpt lat="45.71231" lon="5.47229">
        <ele>274.8</ele>
        <time>2022-06-19T07:51:32Z</time>
      </trkpt>
      <trkpt lat="45.71238" lon="5.47219">
        <ele>275.2</ele>
        <time>2022-06-19T07:51:34Z</time>
      </trkpt>
      <trkpt lat="45.71254" lon="5.472">
        <ele>276.2</ele>
        <time>2022-06-19T07:51:38Z</time>
      </trkpt>
      <trkpt lat="45.7126" lon="5.47189">
        <ele>277</ele>
        <time>2022-06-19T07:51:40Z</time>
      </trkpt>
      <trkpt lat="45.71264" lon="5.47184">
        <ele>277.2</ele>
        <time>2022-06-19T07:51:41Z</time>
      </trkpt>
      <trkpt lat="45.71274" lon="5.47169">
        <ele>278.2</ele>
        <time>2022-06-19T07:51:44Z</time>
      </trkpt>
      <trkpt lat="45.71291" lon="5.4714">
        <ele>279.4</ele>
        <time>2022-06-19T07:51:49Z</time>
      </trkpt>
      <trkpt lat="45.71297" lon="5.4713">
        <ele>279.8</ele>
        <time>2022-06-19T07:51:51Z</time>
      </trkpt>
      <trkpt lat="45.71318" lon="5.47093">
        <ele>280.6</ele>
        <time>2022-06-19T07:51:58Z</time>
      </trkpt>
      <trkpt lat="45.71324" lon="5.47081">
        <ele>281</ele>
        <time>2022-06-19T07:52:00Z</time>
      </trkpt>
      <trkpt lat="45.71332" lon="5.47063">
        <ele>281.8</ele>
        <time>2022-06-19T07:52:03Z</time>
      </trkpt>
      <trkpt lat="45.71343" lon="5.47036">
        <ele>283</ele>
        <time>2022-06-19T07:52:07Z</time>
      </trkpt>
      <trkpt lat="45.71358" lon="5.47008">
        <ele>284.4</ele>
        <time>2022-06-19T07:52:12Z</time>
      </trkpt>
      <trkpt lat="45.71362" lon="5.47003">
        <ele>284.6</ele>
        <time>2022-06-19T07:52:13Z</time>
      </trkpt>
      <trkpt lat="45.71369" lon="5.46993">
        <ele>285</ele>
        <time>2022-06-19T07:52:15Z</time>
      </trkpt>
      <trkpt lat="45.71382" lon="5.4698">
        <ele>285.4</ele>
        <time>2022-06-19T07:52:18Z</time>
      </trkpt>
      <trkpt lat="45.71396" lon="5.4697">
        <ele>285.6</ele>
        <time>2022-06-19T07:52:21Z</time>
      </trkpt>
      <trkpt lat="45.71429" lon="5.46937">
        <ele>286.4</ele>
        <time>2022-06-19T07:52:28Z</time>
      </trkpt>
      <trkpt lat="45.71433" lon="5.46931">
        <ele>286.4</ele>
        <time>2022-06-19T07:52:29Z</time>
      </trkpt>
      <trkpt lat="45.71447" lon="5.46902">
        <ele>286.4</ele>
        <time>2022-06-19T07:52:33Z</time>
      </trkpt>
      <trkpt lat="45.7145" lon="5.46895">
        <ele>286.4</ele>
        <time>2022-06-19T07:52:34Z</time>
      </trkpt>
      <trkpt lat="45.71475" lon="5.46861">
        <ele>286.4</ele>
        <time>2022-06-19T07:52:39Z</time>
      </trkpt>
      <trkpt lat="45.71503" lon="5.46834">
        <ele>285.8</ele>
        <time>2022-06-19T07:52:43Z</time>
      </trkpt>
      <trkpt lat="45.71517" lon="5.46816">
        <ele>285.2</ele>
        <time>2022-06-19T07:52:45Z</time>
      </trkpt>
      <trkpt lat="45.71523" lon="5.46805">
        <ele>285.2</ele>
        <time>2022-06-19T07:52:46Z</time>
      </trkpt>
      <trkpt lat="45.71529" lon="5.46794">
        <ele>284.6</ele>
        <time>2022-06-19T07:52:47Z</time>
      </trkpt>
      <trkpt lat="45.71539" lon="5.4677">
        <ele>283.8</ele>
        <time>2022-06-19T07:52:49Z</time>
      </trkpt>
      <trkpt lat="45.71549" lon="5.46745">
        <ele>283.2</ele>
        <time>2022-06-19T07:52:51Z</time>
      </trkpt>
      <trkpt lat="45.71556" lon="5.46734">
        <ele>282.6</ele>
        <time>2022-06-19T07:52:52Z</time>
      </trkpt>
      <trkpt lat="45.71563" lon="5.46724">
        <ele>282.2</ele>
        <time>2022-06-19T07:52:53Z</time>
      </trkpt>
      <trkpt lat="45.71578" lon="5.46708">
        <ele>281.6</ele>
        <time>2022-06-19T07:52:55Z</time>
      </trkpt>
      <trkpt lat="45.716" lon="5.46691">
        <ele>281</ele>
        <time>2022-06-19T07:52:58Z</time>
      </trkpt>
      <trkpt lat="45.71607" lon="5.46684">
        <ele>280.8</ele>
        <time>2022-06-19T07:52:59Z</time>
      </trkpt>
      <trkpt lat="45.71618" lon="5.4667">
        <ele>280.6</ele>
        <time>2022-06-19T07:53:01Z</time>
      </trkpt>
      <trkpt lat="45.71626" lon="5.4665">
        <ele>280.6</ele>
        <time>2022-06-19T07:53:03Z</time>
      </trkpt>
      <trkpt lat="45.71632" lon="5.46628">
        <ele>280.4</ele>
        <time>2022-06-19T07:53:05Z</time>
      </trkpt>
      <trkpt lat="45.71634" lon="5.46617">
        <ele>280.4</ele>
        <time>2022-06-19T07:53:06Z</time>
      </trkpt>
      <trkpt lat="45.71635" lon="5.46606">
        <ele>280.4</ele>
        <time>2022-06-19T07:53:07Z</time>
      </trkpt>
      <trkpt lat="45.71637" lon="5.46584">
        <ele>280.6</ele>
        <time>2022-06-19T07:53:09Z</time>
      </trkpt>
      <trkpt lat="45.71644" lon="5.46564">
        <ele>280.6</ele>
        <time>2022-06-19T07:53:11Z</time>
      </trkpt>
      <trkpt lat="45.71653" lon="5.46545">
        <ele>280.6</ele>
        <time>2022-06-19T07:53:13Z</time>
      </trkpt>
      <trkpt lat="45.71659" lon="5.46523">
        <ele>280.4</ele>
        <time>2022-06-19T07:53:15Z</time>
      </trkpt>
      <trkpt lat="45.71659" lon="5.46501">
        <ele>280</ele>
        <time>2022-06-19T07:53:17Z</time>
      </trkpt>
      <trkpt lat="45.71656" lon="5.46491">
        <ele>280</ele>
        <time>2022-06-19T07:53:18Z</time>
      </trkpt>
      <trkpt lat="45.71651" lon="5.46484">
        <ele>279.8</ele>
        <time>2022-06-19T07:53:19Z</time>
      </trkpt>
      <trkpt lat="45.71644" lon="5.4648">
        <ele>279.8</ele>
        <time>2022-06-19T07:53:20Z</time>
      </trkpt>
      <trkpt lat="45.71637" lon="5.46476">
        <ele>279.8</ele>
        <time>2022-06-19T07:53:21Z</time>
      </trkpt>
      <trkpt lat="45.71628" lon="5.46462">
        <ele>279.6</ele>
        <time>2022-06-19T07:53:23Z</time>
      </trkpt>
      <trkpt lat="45.71624" lon="5.46436">
        <ele>279.6</ele>
        <time>2022-06-19T07:53:26Z</time>
      </trkpt>
      <trkpt lat="45.71622" lon="5.46425">
        <ele>279.6</ele>
        <time>2022-06-19T07:53:27Z</time>
      </trkpt>
      <trkpt lat="45.71622" lon="5.46393">
        <ele>279.6</ele>
        <time>2022-06-19T07:53:30Z</time>
      </trkpt>
      <trkpt lat="45.71622" lon="5.46382">
        <ele>279.8</ele>
        <time>2022-06-19T07:53:31Z</time>
      </trkpt>
      <trkpt lat="45.71619" lon="5.46361">
        <ele>279.8</ele>
        <time>2022-06-19T07:53:33Z</time>
      </trkpt>
      <trkpt lat="45.71615" lon="5.46352">
        <ele>279.8</ele>
        <time>2022-06-19T07:53:34Z</time>
      </trkpt>
      <trkpt lat="45.71609" lon="5.46345">
        <ele>279.8</ele>
        <time>2022-06-19T07:53:35Z</time>
      </trkpt>
      <trkpt lat="45.71595" lon="5.46334">
        <ele>279.6</ele>
        <time>2022-06-19T07:53:37Z</time>
      </trkpt>
      <trkpt lat="45.71582" lon="5.46323">
        <ele>279.4</ele>
        <time>2022-06-19T07:53:39Z</time>
      </trkpt>
      <trkpt lat="45.71543" lon="5.46298">
        <ele>278.4</ele>
        <time>2022-06-19T07:53:44Z</time>
      </trkpt>
      <trkpt lat="45.71535" lon="5.46293">
        <ele>277.8</ele>
        <time>2022-06-19T07:53:45Z</time>
      </trkpt>
      <trkpt lat="45.71504" lon="5.46267">
        <ele>276.6</ele>
        <time>2022-06-19T07:53:49Z</time>
      </trkpt>
      <trkpt lat="45.71496" lon="5.46261">
        <ele>276.4</ele>
        <time>2022-06-19T07:53:50Z</time>
      </trkpt>
      <trkpt lat="45.7147" lon="5.46247">
        <ele>275.6</ele>
        <time>2022-06-19T07:53:53Z</time>
      </trkpt>
      <trkpt lat="45.71461" lon="5.46242">
        <ele>275</ele>
        <time>2022-06-19T07:53:54Z</time>
      </trkpt>
      <trkpt lat="45.71452" lon="5.46237">
        <ele>274.6</ele>
        <time>2022-06-19T07:53:55Z</time>
      </trkpt>
      <trkpt lat="45.71435" lon="5.46221">
        <ele>274</ele>
        <time>2022-06-19T07:53:57Z</time>
      </trkpt>
      <trkpt lat="45.71406" lon="5.46176">
        <ele>273</ele>
        <time>2022-06-19T07:54:01Z</time>
      </trkpt>
      <trkpt lat="45.71401" lon="5.46163">
        <ele>272.8</ele>
        <time>2022-06-19T07:54:02Z</time>
      </trkpt>
      <trkpt lat="45.71397" lon="5.46148">
        <ele>272.2</ele>
        <time>2022-06-19T07:54:03Z</time>
      </trkpt>
      <trkpt lat="45.71391" lon="5.46116">
        <ele>271.6</ele>
        <time>2022-06-19T07:54:05Z</time>
      </trkpt>
      <trkpt lat="45.71391" lon="5.46082">
        <ele>270.2</ele>
        <time>2022-06-19T07:54:07Z</time>
      </trkpt>
      <trkpt lat="45.71394" lon="5.46064">
        <ele>269.6</ele>
        <time>2022-06-19T07:54:08Z</time>
      </trkpt>
      <trkpt lat="45.71398" lon="5.46046">
        <ele>268.8</ele>
        <time>2022-06-19T07:54:09Z</time>
      </trkpt>
      <trkpt lat="45.71408" lon="5.46008">
        <ele>267.4</ele>
        <time>2022-06-19T07:54:11Z</time>
      </trkpt>
      <trkpt lat="45.71413" lon="5.45989">
        <ele>266</ele>
        <time>2022-06-19T07:54:12Z</time>
      </trkpt>
      <trkpt lat="45.71427" lon="5.45949">
        <ele>263.2</ele>
        <time>2022-06-19T07:54:14Z</time>
      </trkpt>
      <trkpt lat="45.71441" lon="5.45906">
        <ele>260.6</ele>
        <time>2022-06-19T07:54:16Z</time>
      </trkpt>
      <trkpt lat="45.71445" lon="5.45883">
        <ele>258.8</ele>
        <time>2022-06-19T07:54:17Z</time>
      </trkpt>
      <trkpt lat="45.71446" lon="5.4586">
        <ele>258.4</ele>
        <time>2022-06-19T07:54:18Z</time>
      </trkpt>
      <trkpt lat="45.71446" lon="5.45838">
        <ele>256.4</ele>
        <time>2022-06-19T07:54:19Z</time>
      </trkpt>
      <trkpt lat="45.71443" lon="5.45815">
        <ele>255.6</ele>
        <time>2022-06-19T07:54:20Z</time>
      </trkpt>
      <trkpt lat="45.71437" lon="5.45794">
        <ele>253.6</ele>
        <time>2022-06-19T07:54:21Z</time>
      </trkpt>
      <trkpt lat="45.71431" lon="5.45775">
        <ele>253</ele>
        <time>2022-06-19T07:54:22Z</time>
      </trkpt>
      <trkpt lat="45.71424" lon="5.45757">
        <ele>251.8</ele>
        <time>2022-06-19T07:54:23Z</time>
      </trkpt>
      <trkpt lat="45.71417" lon="5.4574">
        <ele>250.8</ele>
        <time>2022-06-19T07:54:24Z</time>
      </trkpt>
      <trkpt lat="45.71411" lon="5.45723">
        <ele>250.4</ele>
        <time>2022-06-19T07:54:25Z</time>
      </trkpt>
      <trkpt lat="45.71402" lon="5.4569">
        <ele>249</ele>
        <time>2022-06-19T07:54:27Z</time>
      </trkpt>
      <trkpt lat="45.714" lon="5.45674">
        <ele>248.4</ele>
        <time>2022-06-19T07:54:28Z</time>
      </trkpt>
      <trkpt lat="45.71397" lon="5.45644">
        <ele>247.8</ele>
        <time>2022-06-19T07:54:30Z</time>
      </trkpt>
      <trkpt lat="45.71394" lon="5.4563">
        <ele>247.4</ele>
        <time>2022-06-19T07:54:31Z</time>
      </trkpt>
      <trkpt lat="45.71391" lon="5.45618">
        <ele>247.4</ele>
        <time>2022-06-19T07:54:32Z</time>
      </trkpt>
      <trkpt lat="45.71366" lon="5.4556">
        <ele>246.6</ele>
        <time>2022-06-19T07:54:37Z</time>
      </trkpt>
      <trkpt lat="45.71343" lon="5.45503">
        <ele>246.2</ele>
        <time>2022-06-19T07:54:42Z</time>
      </trkpt>
      <trkpt lat="45.7134" lon="5.45491">
        <ele>246.2</ele>
        <time>2022-06-19T07:54:43Z</time>
      </trkpt>
      <trkpt lat="45.71338" lon="5.45478">
        <ele>246.2</ele>
        <time>2022-06-19T07:54:44Z</time>
      </trkpt>
      <trkpt lat="45.71338" lon="5.45439">
        <ele>246.2</ele>
        <time>2022-06-19T07:54:47Z</time>
      </trkpt>
      <trkpt lat="45.71333" lon="5.45359">
        <ele>246.2</ele>
        <time>2022-06-19T07:54:53Z</time>
      </trkpt>
      <trkpt lat="45.7133" lon="5.45332">
        <ele>245.6</ele>
        <time>2022-06-19T07:54:55Z</time>
      </trkpt>
      <trkpt lat="45.71327" lon="5.45269">
        <ele>245.2</ele>
        <time>2022-06-19T07:55:00Z</time>
      </trkpt>
      <trkpt lat="45.71327" lon="5.45222">
        <ele>245.4</ele>
        <time>2022-06-19T07:55:04Z</time>
      </trkpt>
      <trkpt lat="45.71326" lon="5.4521">
        <ele>245.8</ele>
        <time>2022-06-19T07:55:05Z</time>
      </trkpt>
      <trkpt lat="45.71315" lon="5.45156">
        <ele>246.4</ele>
        <time>2022-06-19T07:55:10Z</time>
      </trkpt>
      <trkpt lat="45.713" lon="5.45091">
        <ele>246.8</ele>
        <time>2022-06-19T07:55:16Z</time>
      </trkpt>
      <trkpt lat="45.71294" lon="5.4507">
        <ele>246.8</ele>
        <time>2022-06-19T07:55:18Z</time>
      </trkpt>
      <trkpt lat="45.71265" lon="5.45003">
        <ele>247</ele>
        <time>2022-06-19T07:55:25Z</time>
      </trkpt>
      <trkpt lat="45.71254" lon="5.44958">
        <ele>246.6</ele>
        <time>2022-06-19T07:55:29Z</time>
      </trkpt>
      <trkpt lat="45.71243" lon="5.44907">
        <ele>245.6</ele>
        <time>2022-06-19T07:55:33Z</time>
      </trkpt>
      <trkpt lat="45.71242" lon="5.44896">
        <ele>245.2</ele>
        <time>2022-06-19T07:55:34Z</time>
      </trkpt>
      <trkpt lat="45.71243" lon="5.44869">
        <ele>244</ele>
        <time>2022-06-19T07:55:37Z</time>
      </trkpt>
      <trkpt lat="45.71238" lon="5.44851">
        <ele>242.6</ele>
        <time>2022-06-19T07:55:39Z</time>
      </trkpt>
      <trkpt lat="45.71234" lon="5.44844">
        <ele>242.4</ele>
        <time>2022-06-19T07:55:40Z</time>
      </trkpt>
      <trkpt lat="45.71229" lon="5.44837">
        <ele>241.2</ele>
        <time>2022-06-19T07:55:41Z</time>
      </trkpt>
      <trkpt lat="45.71207" lon="5.44805">
        <ele>240.2</ele>
        <time>2022-06-19T07:55:45Z</time>
      </trkpt>
      <trkpt lat="45.71192" lon="5.44778">
        <ele>239.8</ele>
        <time>2022-06-19T07:55:48Z</time>
      </trkpt>
      <trkpt lat="45.71161" lon="5.44721">
        <ele>239</ele>
        <time>2022-06-19T07:55:54Z</time>
      </trkpt>
      <trkpt lat="45.7115" lon="5.44701">
        <ele>238.8</ele>
        <time>2022-06-19T07:55:56Z</time>
      </trkpt>
      <trkpt lat="45.71114" lon="5.44634">
        <ele>238.8</ele>
        <time>2022-06-19T07:56:03Z</time>
      </trkpt>
      <trkpt lat="45.711" lon="5.44603">
        <ele>238.6</ele>
        <time>2022-06-19T07:56:06Z</time>
      </trkpt>
      <trkpt lat="45.71072" lon="5.44537">
        <ele>238.2</ele>
        <time>2022-06-19T07:56:12Z</time>
      </trkpt>
      <trkpt lat="45.71067" lon="5.44526">
        <ele>238</ele>
        <time>2022-06-19T07:56:13Z</time>
      </trkpt>
      <trkpt lat="45.7105" lon="5.44491">
        <ele>237.6</ele>
        <time>2022-06-19T07:56:16Z</time>
      </trkpt>
      <trkpt lat="45.71032" lon="5.44457">
        <ele>237</ele>
        <time>2022-06-19T07:56:19Z</time>
      </trkpt>
      <trkpt lat="45.71017" lon="5.44435">
        <ele>236.2</ele>
        <time>2022-06-19T07:56:21Z</time>
      </trkpt>
      <trkpt lat="45.71001" lon="5.44414">
        <ele>235.8</ele>
        <time>2022-06-19T07:56:23Z</time>
      </trkpt>
      <trkpt lat="45.70985" lon="5.44391">
        <ele>234.6</ele>
        <time>2022-06-19T07:56:25Z</time>
      </trkpt>
      <trkpt lat="45.70977" lon="5.4438">
        <ele>234.2</ele>
        <time>2022-06-19T07:56:26Z</time>
      </trkpt>
      <trkpt lat="45.7097" lon="5.44367">
        <ele>233.6</ele>
        <time>2022-06-19T07:56:27Z</time>
      </trkpt>
      <trkpt lat="45.70966" lon="5.44352">
        <ele>233.2</ele>
        <time>2022-06-19T07:56:28Z</time>
      </trkpt>
      <trkpt lat="45.70964" lon="5.44337">
        <ele>233</ele>
        <time>2022-06-19T07:56:29Z</time>
      </trkpt>
      <trkpt lat="45.70965" lon="5.44321">
        <ele>232.4</ele>
        <time>2022-06-19T07:56:30Z</time>
      </trkpt>
      <trkpt lat="45.70969" lon="5.44307">
        <ele>231.8</ele>
        <time>2022-06-19T07:56:31Z</time>
      </trkpt>
      <trkpt lat="45.70976" lon="5.44296">
        <ele>230.8</ele>
        <time>2022-06-19T07:56:32Z</time>
      </trkpt>
      <trkpt lat="45.70984" lon="5.44286">
        <ele>230.2</ele>
        <time>2022-06-19T07:56:33Z</time>
      </trkpt>
      <trkpt lat="45.70992" lon="5.44279">
        <ele>229.6</ele>
        <time>2022-06-19T07:56:34Z</time>
      </trkpt>
      <trkpt lat="45.71024" lon="5.44249">
        <ele>228.8</ele>
        <time>2022-06-19T07:56:38Z</time>
      </trkpt>
      <trkpt lat="45.71031" lon="5.44242">
        <ele>228.2</ele>
        <time>2022-06-19T07:56:39Z</time>
      </trkpt>
      <trkpt lat="45.71057" lon="5.44208">
        <ele>228</ele>
        <time>2022-06-19T07:56:43Z</time>
      </trkpt>
      <trkpt lat="45.71077" lon="5.44167">
        <ele>227.8</ele>
        <time>2022-06-19T07:56:47Z</time>
      </trkpt>
      <trkpt lat="45.71081" lon="5.44155">
        <ele>227.8</ele>
        <time>2022-06-19T07:56:48Z</time>
      </trkpt>
      <trkpt lat="45.71092" lon="5.44093">
        <ele>227.8</ele>
        <time>2022-06-19T07:56:53Z</time>
      </trkpt>
      <trkpt lat="45.71102" lon="5.44014">
        <ele>227.4</ele>
        <time>2022-06-19T07:56:59Z</time>
      </trkpt>
      <trkpt lat="45.71108" lon="5.43964">
        <ele>227.4</ele>
        <time>2022-06-19T07:57:03Z</time>
      </trkpt>
      <trkpt lat="45.71119" lon="5.43877">
        <ele>228.2</ele>
        <time>2022-06-19T07:57:10Z</time>
      </trkpt>
      <trkpt lat="45.71122" lon="5.43853">
        <ele>228.6</ele>
        <time>2022-06-19T07:57:12Z</time>
      </trkpt>
      <trkpt lat="45.71128" lon="5.43806">
        <ele>229.4</ele>
        <time>2022-06-19T07:57:16Z</time>
      </trkpt>
      <trkpt lat="45.71133" lon="5.43762">
        <ele>230.2</ele>
        <time>2022-06-19T07:57:20Z</time>
      </trkpt>
      <trkpt lat="45.71134" lon="5.43741">
        <ele>230.4</ele>
        <time>2022-06-19T07:57:22Z</time>
      </trkpt>
      <trkpt lat="45.71137" lon="5.4371">
        <ele>230.8</ele>
        <time>2022-06-19T07:57:25Z</time>
      </trkpt>
      <trkpt lat="45.71147" lon="5.43656">
        <ele>231</ele>
        <time>2022-06-19T07:57:30Z</time>
      </trkpt>
      <trkpt lat="45.71158" lon="5.43574">
        <ele>231</ele>
        <time>2022-06-19T07:57:37Z</time>
      </trkpt>
      <trkpt lat="45.7116" lon="5.43562">
        <ele>231</ele>
        <time>2022-06-19T07:57:38Z</time>
      </trkpt>
      <trkpt lat="45.71172" lon="5.43477">
        <ele>230.8</ele>
        <time>2022-06-19T07:57:45Z</time>
      </trkpt>
      <trkpt lat="45.71174" lon="5.43465">
        <ele>230.8</ele>
        <time>2022-06-19T07:57:46Z</time>
      </trkpt>
      <trkpt lat="45.71174" lon="5.43453">
        <ele>230.8</ele>
        <time>2022-06-19T07:57:47Z</time>
      </trkpt>
      <trkpt lat="45.71173" lon="5.43429">
        <ele>230.8</ele>
        <time>2022-06-19T07:57:49Z</time>
      </trkpt>
      <trkpt lat="45.71171" lon="5.43417">
        <ele>230.8</ele>
        <time>2022-06-19T07:57:50Z</time>
      </trkpt>
      <trkpt lat="45.71154" lon="5.43362">
        <ele>231.2</ele>
        <time>2022-06-19T07:57:55Z</time>
      </trkpt>
      <trkpt lat="45.71132" lon="5.43299">
        <ele>231.6</ele>
        <time>2022-06-19T07:58:01Z</time>
      </trkpt>
      <trkpt lat="45.71122" lon="5.43268">
        <ele>232.4</ele>
        <time>2022-06-19T07:58:04Z</time>
      </trkpt>
      <trkpt lat="45.7112" lon="5.43258">
        <ele>232.6</ele>
        <time>2022-06-19T07:58:05Z</time>
      </trkpt>
      <trkpt lat="45.71117" lon="5.43235">
        <ele>232.8</ele>
        <time>2022-06-19T07:58:07Z</time>
      </trkpt>
      <trkpt lat="45.71113" lon="5.4319">
        <ele>233.4</ele>
        <time>2022-06-19T07:58:11Z</time>
      </trkpt>
      <trkpt lat="45.71112" lon="5.43167">
        <ele>234</ele>
        <time>2022-06-19T07:58:13Z</time>
      </trkpt>
      <trkpt lat="45.71113" lon="5.43108">
        <ele>234.4</ele>
        <time>2022-06-19T07:58:18Z</time>
      </trkpt>
      <trkpt lat="45.7112" lon="5.43028">
        <ele>234</ele>
        <time>2022-06-19T07:58:25Z</time>
      </trkpt>
      <trkpt lat="45.7112" lon="5.43018">
        <ele>234</ele>
        <time>2022-06-19T07:58:26Z</time>
      </trkpt>
      <trkpt lat="45.71116" lon="5.4298">
        <ele>233.8</ele>
        <time>2022-06-19T07:58:30Z</time>
      </trkpt>
      <trkpt lat="45.71114" lon="5.42972">
        <ele>233.6</ele>
        <time>2022-06-19T07:58:31Z</time>
      </trkpt>
      <trkpt lat="45.71111" lon="5.42955">
        <ele>233.6</ele>
        <time>2022-06-19T07:58:33Z</time>
      </trkpt>
      <trkpt lat="45.71105" lon="5.429">
        <ele>233.6</ele>
        <time>2022-06-19T07:58:38Z</time>
      </trkpt>
      <trkpt lat="45.71103" lon="5.42888">
        <ele>233.6</ele>
        <time>2022-06-19T07:58:39Z</time>
      </trkpt>
      <trkpt lat="45.711" lon="5.42851">
        <ele>233.2</ele>
        <time>2022-06-19T07:58:42Z</time>
      </trkpt>
      <trkpt lat="45.71099" lon="5.42838">
        <ele>232.8</ele>
        <time>2022-06-19T07:58:43Z</time>
      </trkpt>
      <trkpt lat="45.71095" lon="5.42788">
        <ele>231.6</ele>
        <time>2022-06-19T07:58:47Z</time>
      </trkpt>
      <trkpt lat="45.71094" lon="5.42764">
        <ele>231</ele>
        <time>2022-06-19T07:58:49Z</time>
      </trkpt>
      <trkpt lat="45.71094" lon="5.4274">
        <ele>230.6</ele>
        <time>2022-06-19T07:58:51Z</time>
      </trkpt>
      <trkpt lat="45.71093" lon="5.42694">
        <ele>230.4</ele>
        <time>2022-06-19T07:58:55Z</time>
      </trkpt>
      <trkpt lat="45.71093" lon="5.42683">
        <ele>230.2</ele>
        <time>2022-06-19T07:58:56Z</time>
      </trkpt>
      <trkpt lat="45.71089" lon="5.4266">
        <ele>230.2</ele>
        <time>2022-06-19T07:58:58Z</time>
      </trkpt>
      <trkpt lat="45.71086" lon="5.4265">
        <ele>230</ele>
        <time>2022-06-19T07:58:59Z</time>
      </trkpt>
      <trkpt lat="45.71082" lon="5.4264">
        <ele>230</ele>
        <time>2022-06-19T07:59:00Z</time>
      </trkpt>
      <trkpt lat="45.71077" lon="5.4263">
        <ele>229.6</ele>
        <time>2022-06-19T07:59:01Z</time>
      </trkpt>
      <trkpt lat="45.71071" lon="5.42622">
        <ele>229.6</ele>
        <time>2022-06-19T07:59:02Z</time>
      </trkpt>
      <trkpt lat="45.71028" lon="5.42567">
        <ele>228.8</ele>
        <time>2022-06-19T07:59:09Z</time>
      </trkpt>
      <trkpt lat="45.71023" lon="5.42558">
        <ele>228.6</ele>
        <time>2022-06-19T07:59:10Z</time>
      </trkpt>
      <trkpt lat="45.71005" lon="5.42521">
        <ele>228.2</ele>
        <time>2022-06-19T07:59:14Z</time>
      </trkpt>
      <trkpt lat="45.70991" lon="5.42469">
        <ele>228.2</ele>
        <time>2022-06-19T07:59:19Z</time>
      </trkpt>
      <trkpt lat="45.70986" lon="5.42437">
        <ele>228.4</ele>
        <time>2022-06-19T07:59:22Z</time>
      </trkpt>
      <trkpt lat="45.70983" lon="5.42428">
        <ele>228.4</ele>
        <time>2022-06-19T07:59:23Z</time>
      </trkpt>
      <trkpt lat="45.70962" lon="5.42382">
        <ele>228.8</ele>
        <time>2022-06-19T07:59:28Z</time>
      </trkpt>
      <trkpt lat="45.70929" lon="5.42334">
        <ele>228.6</ele>
        <time>2022-06-19T07:59:34Z</time>
      </trkpt>
      <trkpt lat="45.70922" lon="5.42314">
        <ele>228.4</ele>
        <time>2022-06-19T07:59:36Z</time>
      </trkpt>
      <trkpt lat="45.70921" lon="5.42303">
        <ele>228.4</ele>
        <time>2022-06-19T07:59:37Z</time>
      </trkpt>
      <trkpt lat="45.7092" lon="5.42292">
        <ele>228.4</ele>
        <time>2022-06-19T07:59:38Z</time>
      </trkpt>
      <trkpt lat="45.70923" lon="5.42246">
        <ele>228.4</ele>
        <time>2022-06-19T07:59:42Z</time>
      </trkpt>
      <trkpt lat="45.70928" lon="5.42168">
        <ele>228.6</ele>
        <time>2022-06-19T07:59:49Z</time>
      </trkpt>
      <trkpt lat="45.70931" lon="5.42123">
        <ele>229</ele>
        <time>2022-06-19T07:59:53Z</time>
      </trkpt>
      <trkpt lat="45.7094" lon="5.42036">
        <ele>228.8</ele>
        <time>2022-06-19T08:00:01Z</time>
      </trkpt>
      <trkpt lat="45.7095" lon="5.4195">
        <ele>229</ele>
        <time>2022-06-19T08:00:09Z</time>
      </trkpt>
      <trkpt lat="45.70956" lon="5.41888">
        <ele>229.4</ele>
        <time>2022-06-19T08:00:15Z</time>
      </trkpt>
      <trkpt lat="45.70966" lon="5.418">
        <ele>229.4</ele>
        <time>2022-06-19T08:00:23Z</time>
      </trkpt>
      <trkpt lat="45.70974" lon="5.41715">
        <ele>229.4</ele>
        <time>2022-06-19T08:00:31Z</time>
      </trkpt>
      <trkpt lat="45.70976" lon="5.41695">
        <ele>229.6</ele>
        <time>2022-06-19T08:00:33Z</time>
      </trkpt>
      <trkpt lat="45.70978" lon="5.41635">
        <ele>230</ele>
        <time>2022-06-19T08:00:39Z</time>
      </trkpt>
      <trkpt lat="45.70977" lon="5.41625">
        <ele>229.8</ele>
        <time>2022-06-19T08:00:40Z</time>
      </trkpt>
      <trkpt lat="45.70971" lon="5.41576">
        <ele>230.6</ele>
        <time>2022-06-19T08:00:45Z</time>
      </trkpt>
      <trkpt lat="45.7097" lon="5.41568">
        <ele>230.6</ele>
        <time>2022-06-19T08:00:46Z</time>
      </trkpt>
      <trkpt lat="45.70969" lon="5.41559">
        <ele>230.8</ele>
        <time>2022-06-19T08:00:47Z</time>
      </trkpt>
      <trkpt lat="45.70966" lon="5.4154">
        <ele>231</ele>
        <time>2022-06-19T08:00:49Z</time>
      </trkpt>
      <trkpt lat="45.70964" lon="5.41521">
        <ele>231.2</ele>
        <time>2022-06-19T08:00:51Z</time>
      </trkpt>
      <trkpt lat="45.70952" lon="5.41466">
        <ele>232.2</ele>
        <time>2022-06-19T08:00:57Z</time>
      </trkpt>
      <trkpt lat="45.70933" lon="5.41403">
        <ele>233.2</ele>
        <time>2022-06-19T08:01:04Z</time>
      </trkpt>
      <trkpt lat="45.7093" lon="5.41395">
        <ele>233.4</ele>
        <time>2022-06-19T08:01:05Z</time>
      </trkpt>
      <trkpt lat="45.7091" lon="5.41331">
        <ele>234.2</ele>
        <time>2022-06-19T08:01:12Z</time>
      </trkpt>
      <trkpt lat="45.70902" lon="5.41304">
        <ele>234.4</ele>
        <time>2022-06-19T08:01:15Z</time>
      </trkpt>
      <trkpt lat="45.70884" lon="5.41248">
        <ele>234.8</ele>
        <time>2022-06-19T08:01:21Z</time>
      </trkpt>
      <trkpt lat="45.70862" lon="5.41181">
        <ele>234.8</ele>
        <time>2022-06-19T08:01:28Z</time>
      </trkpt>
      <trkpt lat="45.70841" lon="5.41115">
        <ele>234.8</ele>
        <time>2022-06-19T08:01:35Z</time>
      </trkpt>
      <trkpt lat="45.70819" lon="5.41046">
        <ele>234.6</ele>
        <time>2022-06-19T08:01:42Z</time>
      </trkpt>
      <trkpt lat="45.708" lon="5.40987">
        <ele>235</ele>
        <time>2022-06-19T08:01:48Z</time>
      </trkpt>
      <trkpt lat="45.70791" lon="5.40958">
        <ele>235.4</ele>
        <time>2022-06-19T08:01:51Z</time>
      </trkpt>
      <trkpt lat="45.70773" lon="5.409">
        <ele>235.6</ele>
        <time>2022-06-19T08:01:57Z</time>
      </trkpt>
      <trkpt lat="45.7075" lon="5.40826">
        <ele>236.2</ele>
        <time>2022-06-19T08:02:05Z</time>
      </trkpt>
      <trkpt lat="45.70735" lon="5.40779">
        <ele>236.4</ele>
        <time>2022-06-19T08:02:10Z</time>
      </trkpt>
      <trkpt lat="45.70717" lon="5.4072">
        <ele>236.6</ele>
        <time>2022-06-19T08:02:16Z</time>
      </trkpt>
      <trkpt lat="45.70701" lon="5.40671">
        <ele>236.8</ele>
        <time>2022-06-19T08:02:21Z</time>
      </trkpt>
      <trkpt lat="45.70696" lon="5.4065">
        <ele>236.8</ele>
        <time>2022-06-19T08:02:23Z</time>
      </trkpt>
      <trkpt lat="45.70677" lon="5.40569">
        <ele>237.2</ele>
        <time>2022-06-19T08:02:31Z</time>
      </trkpt>
      <trkpt lat="45.70661" lon="5.40502">
        <ele>237.6</ele>
        <time>2022-06-19T08:02:37Z</time>
      </trkpt>
      <trkpt lat="45.70657" lon="5.40481">
        <ele>237.8</ele>
        <time>2022-06-19T08:02:39Z</time>
      </trkpt>
      <trkpt lat="45.70635" lon="5.40396">
        <ele>238</ele>
        <time>2022-06-19T08:02:47Z</time>
      </trkpt>
      <trkpt lat="45.70627" lon="5.40364">
        <ele>238.2</ele>
        <time>2022-06-19T08:02:50Z</time>
      </trkpt>
      <trkpt lat="45.70615" lon="5.4031">
        <ele>238.6</ele>
        <time>2022-06-19T08:02:55Z</time>
      </trkpt>
      <trkpt lat="45.7061" lon="5.40277">
        <ele>238.6</ele>
        <time>2022-06-19T08:02:58Z</time>
      </trkpt>
      <trkpt lat="45.70596" lon="5.40189">
        <ele>238.4</ele>
        <time>2022-06-19T08:03:06Z</time>
      </trkpt>
      <trkpt lat="45.70594" lon="5.40178">
        <ele>238.4</ele>
        <time>2022-06-19T08:03:07Z</time>
      </trkpt>
      <trkpt lat="45.70584" lon="5.40102">
        <ele>239</ele>
        <time>2022-06-19T08:03:14Z</time>
      </trkpt>
      <trkpt lat="45.70581" lon="5.40079">
        <ele>238.8</ele>
        <time>2022-06-19T08:03:16Z</time>
      </trkpt>
      <trkpt lat="45.70564" lon="5.40016">
        <ele>238.8</ele>
        <time>2022-06-19T08:03:22Z</time>
      </trkpt>
      <trkpt lat="45.70542" lon="5.39957">
        <ele>238.6</ele>
        <time>2022-06-19T08:03:28Z</time>
      </trkpt>
      <trkpt lat="45.70514" lon="5.39887">
        <ele>238.6</ele>
        <time>2022-06-19T08:03:35Z</time>
      </trkpt>
      <trkpt lat="45.7051" lon="5.39878">
        <ele>238.6</ele>
        <time>2022-06-19T08:03:36Z</time>
      </trkpt>
      <trkpt lat="45.70484" lon="5.39807">
        <ele>238.8</ele>
        <time>2022-06-19T08:03:43Z</time>
      </trkpt>
      <trkpt lat="45.70478" lon="5.39786">
        <ele>238.6</ele>
        <time>2022-06-19T08:03:45Z</time>
      </trkpt>
      <trkpt lat="45.70456" lon="5.3971">
        <ele>237.8</ele>
        <time>2022-06-19T08:03:52Z</time>
      </trkpt>
      <trkpt lat="45.70442" lon="5.39656">
        <ele>237.4</ele>
        <time>2022-06-19T08:03:57Z</time>
      </trkpt>
      <trkpt lat="45.70435" lon="5.39623">
        <ele>237.2</ele>
        <time>2022-06-19T08:04:00Z</time>
      </trkpt>
      <trkpt lat="45.70428" lon="5.39543">
        <ele>237.4</ele>
        <time>2022-06-19T08:04:07Z</time>
      </trkpt>
      <trkpt lat="45.70426" lon="5.39476">
        <ele>237.6</ele>
        <time>2022-06-19T08:04:13Z</time>
      </trkpt>
      <trkpt lat="45.70426" lon="5.39465">
        <ele>237.6</ele>
        <time>2022-06-19T08:04:14Z</time>
      </trkpt>
      <trkpt lat="45.70423" lon="5.39419">
        <ele>237.8</ele>
        <time>2022-06-19T08:04:18Z</time>
      </trkpt>
      <trkpt lat="45.70411" lon="5.39335">
        <ele>237.4</ele>
        <time>2022-06-19T08:04:25Z</time>
      </trkpt>
      <trkpt lat="45.70398" lon="5.39256">
        <ele>237.2</ele>
        <time>2022-06-19T08:04:32Z</time>
      </trkpt>
      <trkpt lat="45.70397" lon="5.39246">
        <ele>237.2</ele>
        <time>2022-06-19T08:04:33Z</time>
      </trkpt>
      <trkpt lat="45.70388" lon="5.39191">
        <ele>237.2</ele>
        <time>2022-06-19T08:04:39Z</time>
      </trkpt>
      <trkpt lat="45.70387" lon="5.39179">
        <ele>237.4</ele>
        <time>2022-06-19T08:04:42Z</time>
      </trkpt>
      <trkpt lat="45.70387" lon="5.39179">
        <ele>237.4</ele>
        <time>2022-06-19T08:04:45Z</time>
      </trkpt>
      <trkpt lat="45.70386" lon="5.39169">
        <ele>237.4</ele>
        <time>2022-06-19T08:04:53Z</time>
      </trkpt>
      <trkpt lat="45.70381" lon="5.3916">
        <ele>237.6</ele>
        <time>2022-06-19T08:04:55Z</time>
      </trkpt>
      <trkpt lat="45.70377" lon="5.39155">
        <ele>237.6</ele>
        <time>2022-06-19T08:04:56Z</time>
      </trkpt>
      <trkpt lat="45.70351" lon="5.3912">
        <ele>237</ele>
        <time>2022-06-19T08:05:02Z</time>
      </trkpt>
      <trkpt lat="45.70311" lon="5.3907">
        <ele>236.6</ele>
        <time>2022-06-19T08:05:10Z</time>
      </trkpt>
      <trkpt lat="45.70266" lon="5.39013">
        <ele>236</ele>
        <time>2022-06-19T08:05:19Z</time>
      </trkpt>
      <trkpt lat="45.70257" lon="5.38999">
        <ele>235.8</ele>
        <time>2022-06-19T08:05:21Z</time>
      </trkpt>
      <trkpt lat="45.70243" lon="5.38979">
        <ele>235.8</ele>
        <time>2022-06-19T08:05:24Z</time>
      </trkpt>
      <trkpt lat="45.70238" lon="5.38962">
        <ele>235.6</ele>
        <time>2022-06-19T08:05:26Z</time>
      </trkpt>
      <trkpt lat="45.70234" lon="5.38907">
        <ele>235.4</ele>
        <time>2022-06-19T08:05:32Z</time>
      </trkpt>
      <trkpt lat="45.70234" lon="5.38834">
        <ele>235.6</ele>
        <time>2022-06-19T08:05:40Z</time>
      </trkpt>
      <trkpt lat="45.70236" lon="5.38785">
        <ele>235.6</ele>
        <time>2022-06-19T08:05:46Z</time>
      </trkpt>
      <trkpt lat="45.70234" lon="5.38734">
        <ele>236.2</ele>
        <time>2022-06-19T08:05:52Z</time>
      </trkpt>
      <trkpt lat="45.70226" lon="5.38687">
        <ele>236.6</ele>
        <time>2022-06-19T08:05:58Z</time>
      </trkpt>
      <trkpt lat="45.70226" lon="5.3868">
        <ele>236.8</ele>
        <time>2022-06-19T08:05:59Z</time>
      </trkpt>
      <trkpt lat="45.70225" lon="5.38672">
        <ele>237</ele>
        <time>2022-06-19T08:06:00Z</time>
      </trkpt>
      <trkpt lat="45.70226" lon="5.38636">
        <ele>238.2</ele>
        <time>2022-06-19T08:06:05Z</time>
      </trkpt>
      <trkpt lat="45.70226" lon="5.38629">
        <ele>238.6</ele>
        <time>2022-06-19T08:06:06Z</time>
      </trkpt>
      <trkpt lat="45.70227" lon="5.38607">
        <ele>239.2</ele>
        <time>2022-06-19T08:06:09Z</time>
      </trkpt>
      <trkpt lat="45.70229" lon="5.38577">
        <ele>240.4</ele>
        <time>2022-06-19T08:06:13Z</time>
      </trkpt>
      <trkpt lat="45.70229" lon="5.38561">
        <ele>240.8</ele>
        <time>2022-06-19T08:06:15Z</time>
      </trkpt>
      <trkpt lat="45.70229" lon="5.38522">
        <ele>241.4</ele>
        <time>2022-06-19T08:06:20Z</time>
      </trkpt>
      <trkpt lat="45.70229" lon="5.38506">
        <ele>241.8</ele>
        <time>2022-06-19T08:06:22Z</time>
      </trkpt>
      <trkpt lat="45.70233" lon="5.38485">
        <ele>242</ele>
        <time>2022-06-19T08:06:25Z</time>
      </trkpt>
      <trkpt lat="45.70238" lon="5.38462">
        <ele>242.4</ele>
        <time>2022-06-19T08:06:28Z</time>
      </trkpt>
      <trkpt lat="45.7024" lon="5.38454">
        <ele>242.6</ele>
        <time>2022-06-19T08:06:29Z</time>
      </trkpt>
      <trkpt lat="45.70246" lon="5.3844">
        <ele>242.8</ele>
        <time>2022-06-19T08:06:31Z</time>
      </trkpt>
      <trkpt lat="45.70256" lon="5.38421">
        <ele>243.2</ele>
        <time>2022-06-19T08:06:34Z</time>
      </trkpt>
      <trkpt lat="45.70275" lon="5.38392">
        <ele>243.6</ele>
        <time>2022-06-19T08:06:39Z</time>
      </trkpt>
      <trkpt lat="45.70286" lon="5.38374">
        <ele>244</ele>
        <time>2022-06-19T08:06:42Z</time>
      </trkpt>
      <trkpt lat="45.70309" lon="5.38336">
        <ele>244.4</ele>
        <time>2022-06-19T08:06:48Z</time>
      </trkpt>
      <trkpt lat="45.70317" lon="5.38325">
        <ele>244.4</ele>
        <time>2022-06-19T08:06:50Z</time>
      </trkpt>
      <trkpt lat="45.70338" lon="5.383">
        <ele>244.4</ele>
        <time>2022-06-19T08:06:56Z</time>
      </trkpt>
      <trkpt lat="45.70338" lon="5.38299">
        <ele>244.4</ele>
        <time>2022-06-19T08:06:57Z</time>
      </trkpt>
      <trkpt lat="45.70338" lon="5.38299">
        <ele>244.2</ele>
        <time>2022-06-19T08:06:59Z</time>
      </trkpt>
      <trkpt lat="45.70338" lon="5.38299">
        <ele>243.8</ele>
        <time>2022-06-19T08:07:10Z</time>
      </trkpt>
      <trkpt lat="45.70338" lon="5.38298">
        <ele>243.8</ele>
        <time>2022-06-19T08:07:12Z</time>
      </trkpt>
      <trkpt lat="45.70345" lon="5.38296">
        <ele>243.6</ele>
        <time>2022-06-19T08:07:15Z</time>
      </trkpt>
      <trkpt lat="45.70352" lon="5.38294">
        <ele>243.6</ele>
        <time>2022-06-19T08:07:17Z</time>
      </trkpt>
      <trkpt lat="45.70361" lon="5.38293">
        <ele>243.6</ele>
        <time>2022-06-19T08:07:19Z</time>
      </trkpt>
      <trkpt lat="45.7038" lon="5.38293">
        <ele>243.8</ele>
        <time>2022-06-19T08:07:23Z</time>
      </trkpt>
      <trkpt lat="45.70389" lon="5.38295">
        <ele>244</ele>
        <time>2022-06-19T08:07:25Z</time>
      </trkpt>
      <trkpt lat="45.70402" lon="5.383">
        <ele>244.8</ele>
        <time>2022-06-19T08:07:28Z</time>
      </trkpt>
      <trkpt lat="45.7042" lon="5.38305">
        <ele>245.8</ele>
        <time>2022-06-19T08:07:32Z</time>
      </trkpt>
      <trkpt lat="45.70424" lon="5.38307">
        <ele>246.2</ele>
        <time>2022-06-19T08:07:33Z</time>
      </trkpt>
      <trkpt lat="45.70436" lon="5.38312">
        <ele>246.8</ele>
        <time>2022-06-19T08:07:36Z</time>
      </trkpt>
      <trkpt lat="45.70445" lon="5.38316">
        <ele>247.2</ele>
        <time>2022-06-19T08:07:38Z</time>
      </trkpt>
      <trkpt lat="45.70458" lon="5.38318">
        <ele>248.2</ele>
        <time>2022-06-19T08:07:41Z</time>
      </trkpt>
      <trkpt lat="45.70462" lon="5.38317">
        <ele>248.6</ele>
        <time>2022-06-19T08:07:42Z</time>
      </trkpt>
      <trkpt lat="45.70467" lon="5.38315">
        <ele>248.8</ele>
        <time>2022-06-19T08:07:43Z</time>
      </trkpt>
      <trkpt lat="45.70477" lon="5.38309">
        <ele>249.2</ele>
        <time>2022-06-19T08:07:45Z</time>
      </trkpt>
      <trkpt lat="45.70481" lon="5.38305">
        <ele>249.6</ele>
        <time>2022-06-19T08:07:46Z</time>
      </trkpt>
      <trkpt lat="45.7049" lon="5.38296">
        <ele>250.2</ele>
        <time>2022-06-19T08:07:48Z</time>
      </trkpt>
      <trkpt lat="45.70503" lon="5.38281">
        <ele>250.6</ele>
        <time>2022-06-19T08:07:51Z</time>
      </trkpt>
      <trkpt lat="45.70514" lon="5.38264">
        <ele>250.8</ele>
        <time>2022-06-19T08:07:54Z</time>
      </trkpt>
      <trkpt lat="45.70544" lon="5.38223">
        <ele>251.6</ele>
        <time>2022-06-19T08:08:02Z</time>
      </trkpt>
      <trkpt lat="45.70552" lon="5.38214">
        <ele>251.8</ele>
        <time>2022-06-19T08:08:04Z</time>
      </trkpt>
      <trkpt lat="45.70589" lon="5.38184">
        <ele>252.2</ele>
        <time>2022-06-19T08:08:12Z</time>
      </trkpt>
      <trkpt lat="45.70634" lon="5.38146">
        <ele>252.2</ele>
        <time>2022-06-19T08:08:21Z</time>
      </trkpt>
      <trkpt lat="45.70642" lon="5.38133">
        <ele>252</ele>
        <time>2022-06-19T08:08:23Z</time>
      </trkpt>
      <trkpt lat="45.70647" lon="5.38117">
        <ele>251.8</ele>
        <time>2022-06-19T08:08:25Z</time>
      </trkpt>
      <trkpt lat="45.70651" lon="5.38077">
        <ele>251.6</ele>
        <time>2022-06-19T08:08:30Z</time>
      </trkpt>
      <trkpt lat="45.70651" lon="5.38043">
        <ele>251.8</ele>
        <time>2022-06-19T08:08:34Z</time>
      </trkpt>
      <trkpt lat="45.70652" lon="5.38026">
        <ele>252</ele>
        <time>2022-06-19T08:08:36Z</time>
      </trkpt>
      <trkpt lat="45.70653" lon="5.38001">
        <ele>252.2</ele>
        <time>2022-06-19T08:08:39Z</time>
      </trkpt>
      <trkpt lat="45.70656" lon="5.37979">
        <ele>252.6</ele>
        <time>2022-06-19T08:08:42Z</time>
      </trkpt>
      <trkpt lat="45.7066" lon="5.37966">
        <ele>252.8</ele>
        <time>2022-06-19T08:08:44Z</time>
      </trkpt>
      <trkpt lat="45.7067" lon="5.37935">
        <ele>254</ele>
        <time>2022-06-19T08:08:49Z</time>
      </trkpt>
      <trkpt lat="45.70678" lon="5.37918">
        <ele>255.2</ele>
        <time>2022-06-19T08:08:52Z</time>
      </trkpt>
      <trkpt lat="45.70686" lon="5.37901">
        <ele>256.6</ele>
        <time>2022-06-19T08:08:55Z</time>
      </trkpt>
      <trkpt lat="45.70688" lon="5.37895">
        <ele>256.8</ele>
        <time>2022-06-19T08:08:56Z</time>
      </trkpt>
      <trkpt lat="45.70695" lon="5.3788">
        <ele>257.8</ele>
        <time>2022-06-19T08:08:59Z</time>
      </trkpt>
      <trkpt lat="45.70698" lon="5.37874">
        <ele>258.2</ele>
        <time>2022-06-19T08:09:00Z</time>
      </trkpt>
      <trkpt lat="45.70703" lon="5.37864">
        <ele>259</ele>
        <time>2022-06-19T08:09:02Z</time>
      </trkpt>
      <trkpt lat="45.70708" lon="5.37852">
        <ele>259.4</ele>
        <time>2022-06-19T08:09:04Z</time>
      </trkpt>
      <trkpt lat="45.70717" lon="5.37834">
        <ele>260.2</ele>
        <time>2022-06-19T08:09:07Z</time>
      </trkpt>
      <trkpt lat="45.70734" lon="5.37807">
        <ele>261</ele>
        <time>2022-06-19T08:09:12Z</time>
      </trkpt>
      <trkpt lat="45.70746" lon="5.37793">
        <ele>261.4</ele>
        <time>2022-06-19T08:09:15Z</time>
      </trkpt>
      <trkpt lat="45.7076" lon="5.37783">
        <ele>261.8</ele>
        <time>2022-06-19T08:09:18Z</time>
      </trkpt>
      <trkpt lat="45.7077" lon="5.37778">
        <ele>262</ele>
        <time>2022-06-19T08:09:20Z</time>
      </trkpt>
      <trkpt lat="45.70783" lon="5.37772">
        <ele>262.4</ele>
        <time>2022-06-19T08:09:23Z</time>
      </trkpt>
      <trkpt lat="45.7079" lon="5.37769">
        <ele>262.6</ele>
        <time>2022-06-19T08:09:25Z</time>
      </trkpt>
      <trkpt lat="45.70802" lon="5.37765">
        <ele>263.6</ele>
        <time>2022-06-19T08:09:28Z</time>
      </trkpt>
      <trkpt lat="45.70814" lon="5.37758">
        <ele>264.2</ele>
        <time>2022-06-19T08:09:31Z</time>
      </trkpt>
      <trkpt lat="45.70825" lon="5.3775">
        <ele>264.8</ele>
        <time>2022-06-19T08:09:34Z</time>
      </trkpt>
      <trkpt lat="45.7084" lon="5.3774">
        <ele>265.8</ele>
        <time>2022-06-19T08:09:38Z</time>
      </trkpt>
      <trkpt lat="45.70853" lon="5.37728">
        <ele>267</ele>
        <time>2022-06-19T08:09:42Z</time>
      </trkpt>
      <trkpt lat="45.70865" lon="5.37713">
        <ele>268.2</ele>
        <time>2022-06-19T08:09:46Z</time>
      </trkpt>
      <trkpt lat="45.70877" lon="5.37698">
        <ele>269.2</ele>
        <time>2022-06-19T08:09:50Z</time>
      </trkpt>
      <trkpt lat="45.7088" lon="5.37695">
        <ele>269.6</ele>
        <time>2022-06-19T08:09:51Z</time>
      </trkpt>
      <trkpt lat="45.70892" lon="5.37683">
        <ele>270.6</ele>
        <time>2022-06-19T08:09:55Z</time>
      </trkpt>
      <trkpt lat="45.70898" lon="5.37678">
        <ele>271.8</ele>
        <time>2022-06-19T08:09:57Z</time>
      </trkpt>
      <trkpt lat="45.70901" lon="5.37677">
        <ele>272</ele>
        <time>2022-06-19T08:09:58Z</time>
      </trkpt>
      <trkpt lat="45.70908" lon="5.37673">
        <ele>273</ele>
        <time>2022-06-19T08:10:00Z</time>
      </trkpt>
      <trkpt lat="45.70915" lon="5.37665">
        <ele>274.2</ele>
        <time>2022-06-19T08:10:03Z</time>
      </trkpt>
      <trkpt lat="45.70917" lon="5.37661">
        <ele>275</ele>
        <time>2022-06-19T08:10:04Z</time>
      </trkpt>
      <trkpt lat="45.70919" lon="5.37656">
        <ele>275.4</ele>
        <time>2022-06-19T08:10:05Z</time>
      </trkpt>
      <trkpt lat="45.70924" lon="5.37641">
        <ele>276.4</ele>
        <time>2022-06-19T08:10:08Z</time>
      </trkpt>
      <trkpt lat="45.70925" lon="5.37636">
        <ele>276.6</ele>
        <time>2022-06-19T08:10:09Z</time>
      </trkpt>
      <trkpt lat="45.70931" lon="5.37621">
        <ele>277</ele>
        <time>2022-06-19T08:10:12Z</time>
      </trkpt>
      <trkpt lat="45.70935" lon="5.3761">
        <ele>277.4</ele>
        <time>2022-06-19T08:10:14Z</time>
      </trkpt>
      <trkpt lat="45.70936" lon="5.37604">
        <ele>277.6</ele>
        <time>2022-06-19T08:10:15Z</time>
      </trkpt>
      <trkpt lat="45.70939" lon="5.37584">
        <ele>278.4</ele>
        <time>2022-06-19T08:10:18Z</time>
      </trkpt>
      <trkpt lat="45.7094" lon="5.37577">
        <ele>278.4</ele>
        <time>2022-06-19T08:10:19Z</time>
      </trkpt>
      <trkpt lat="45.70942" lon="5.37565">
        <ele>278.6</ele>
        <time>2022-06-19T08:10:20Z</time>
      </trkpt>
      <trkpt lat="45.70943" lon="5.37558">
        <ele>278.6</ele>
        <time>2022-06-19T08:10:21Z</time>
      </trkpt>
      <trkpt lat="45.70944" lon="5.37544">
        <ele>278.8</ele>
        <time>2022-06-19T08:10:23Z</time>
      </trkpt>
      <trkpt lat="45.70944" lon="5.37537">
        <ele>278.8</ele>
        <time>2022-06-19T08:10:24Z</time>
      </trkpt>
      <trkpt lat="45.70945" lon="5.3753">
        <ele>278.8</ele>
        <time>2022-06-19T08:10:25Z</time>
      </trkpt>
      <trkpt lat="45.70953" lon="5.37501">
        <ele>279</ele>
        <time>2022-06-19T08:10:29Z</time>
      </trkpt>
      <trkpt lat="45.70957" lon="5.37493">
        <ele>279</ele>
        <time>2022-06-19T08:10:30Z</time>
      </trkpt>
      <trkpt lat="45.70972" lon="5.3747">
        <ele>278.8</ele>
        <time>2022-06-19T08:10:33Z</time>
      </trkpt>
      <trkpt lat="45.70992" lon="5.37448">
        <ele>278</ele>
        <time>2022-06-19T08:10:37Z</time>
      </trkpt>
      <trkpt lat="45.71005" lon="5.37435">
        <ele>277</ele>
        <time>2022-06-19T08:10:39Z</time>
      </trkpt>
      <trkpt lat="45.71018" lon="5.37424">
        <ele>276.8</ele>
        <time>2022-06-19T08:10:40Z</time>
      </trkpt>
      <trkpt lat="45.71032" lon="5.37416">
        <ele>276</ele>
        <time>2022-06-19T08:10:42Z</time>
      </trkpt>
      <trkpt lat="45.71058" lon="5.37402">
        <ele>275.4</ele>
        <time>2022-06-19T08:10:47Z</time>
      </trkpt>
      <trkpt lat="45.71083" lon="5.37382">
        <ele>275.6</ele>
        <time>2022-06-19T08:10:51Z</time>
      </trkpt>
      <trkpt lat="45.71083" lon="5.37382">
        <ele>275.6</ele>
        <time>2022-06-19T08:10:52Z</time>
      </trkpt>
      <trkpt lat="45.71091" lon="5.37374">
        <ele>275.8</ele>
        <time>2022-06-19T08:10:53Z</time>
      </trkpt>
      <trkpt lat="45.71109" lon="5.37349">
        <ele>276.6</ele>
        <time>2022-06-19T08:10:58Z</time>
      </trkpt>
      <trkpt lat="45.71113" lon="5.37345">
        <ele>277</ele>
        <time>2022-06-19T08:10:59Z</time>
      </trkpt>
      <trkpt lat="45.71125" lon="5.37336">
        <ele>278</ele>
        <time>2022-06-19T08:11:02Z</time>
      </trkpt>
      <trkpt lat="45.7113" lon="5.37334">
        <ele>278.2</ele>
        <time>2022-06-19T08:11:03Z</time>
      </trkpt>
      <trkpt lat="45.71142" lon="5.37326">
        <ele>279.4</ele>
        <time>2022-06-19T08:11:07Z</time>
      </trkpt>
      <trkpt lat="45.71158" lon="5.37316">
        <ele>280.8</ele>
        <time>2022-06-19T08:11:10Z</time>
      </trkpt>
      <trkpt lat="45.71162" lon="5.37314">
        <ele>281</ele>
        <time>2022-06-19T08:11:11Z</time>
      </trkpt>
      <trkpt lat="45.71174" lon="5.37308">
        <ele>281.8</ele>
        <time>2022-06-19T08:11:14Z</time>
      </trkpt>
      <trkpt lat="45.71186" lon="5.37301">
        <ele>283</ele>
        <time>2022-06-19T08:11:17Z</time>
      </trkpt>
      <trkpt lat="45.71198" lon="5.37296">
        <ele>284</ele>
        <time>2022-06-19T08:11:20Z</time>
      </trkpt>
      <trkpt lat="45.71206" lon="5.37293">
        <ele>284.4</ele>
        <time>2022-06-19T08:11:22Z</time>
      </trkpt>
      <trkpt lat="45.71214" lon="5.3729">
        <ele>285</ele>
        <time>2022-06-19T08:11:24Z</time>
      </trkpt>
      <trkpt lat="45.71222" lon="5.37288">
        <ele>286.4</ele>
        <time>2022-06-19T08:11:26Z</time>
      </trkpt>
      <trkpt lat="45.7123" lon="5.37286">
        <ele>287.4</ele>
        <time>2022-06-19T08:11:28Z</time>
      </trkpt>
      <trkpt lat="45.7125" lon="5.37281">
        <ele>288.6</ele>
        <time>2022-06-19T08:11:33Z</time>
      </trkpt>
      <trkpt lat="45.71254" lon="5.3728">
        <ele>289</ele>
        <time>2022-06-19T08:11:34Z</time>
      </trkpt>
      <trkpt lat="45.71262" lon="5.37278">
        <ele>290</ele>
        <time>2022-06-19T08:11:36Z</time>
      </trkpt>
      <trkpt lat="45.71266" lon="5.37277">
        <ele>290.2</ele>
        <time>2022-06-19T08:11:37Z</time>
      </trkpt>
      <trkpt lat="45.71277" lon="5.37272">
        <ele>291.2</ele>
        <time>2022-06-19T08:11:40Z</time>
      </trkpt>
      <trkpt lat="45.71281" lon="5.3727">
        <ele>291.6</ele>
        <time>2022-06-19T08:11:41Z</time>
      </trkpt>
      <trkpt lat="45.7129" lon="5.37266">
        <ele>292</ele>
        <time>2022-06-19T08:11:43Z</time>
      </trkpt>
      <trkpt lat="45.71294" lon="5.37265">
        <ele>292.2</ele>
        <time>2022-06-19T08:11:44Z</time>
      </trkpt>
      <trkpt lat="45.7131" lon="5.37258">
        <ele>293.4</ele>
        <time>2022-06-19T08:11:48Z</time>
      </trkpt>
      <trkpt lat="45.71327" lon="5.37253">
        <ele>294.6</ele>
        <time>2022-06-19T08:11:52Z</time>
      </trkpt>
      <trkpt lat="45.71343" lon="5.37249">
        <ele>295.6</ele>
        <time>2022-06-19T08:11:56Z</time>
      </trkpt>
      <trkpt lat="45.71354" lon="5.37246">
        <ele>297</ele>
        <time>2022-06-19T08:11:59Z</time>
      </trkpt>
      <trkpt lat="45.71358" lon="5.37245">
        <ele>297</ele>
        <time>2022-06-19T08:12:00Z</time>
      </trkpt>
      <trkpt lat="45.71362" lon="5.37244">
        <ele>297.4</ele>
        <time>2022-06-19T08:12:01Z</time>
      </trkpt>
      <trkpt lat="45.7137" lon="5.3724">
        <ele>298.2</ele>
        <time>2022-06-19T08:12:03Z</time>
      </trkpt>
      <trkpt lat="45.71383" lon="5.37234">
        <ele>299.6</ele>
        <time>2022-06-19T08:12:06Z</time>
      </trkpt>
      <trkpt lat="45.7139" lon="5.37231">
        <ele>300.6</ele>
        <time>2022-06-19T08:12:08Z</time>
      </trkpt>
      <trkpt lat="45.71408" lon="5.37226">
        <ele>302.4</ele>
        <time>2022-06-19T08:12:12Z</time>
      </trkpt>
      <trkpt lat="45.71426" lon="5.37222">
        <ele>302.8</ele>
        <time>2022-06-19T08:12:16Z</time>
      </trkpt>
      <trkpt lat="45.71436" lon="5.37221">
        <ele>303.4</ele>
        <time>2022-06-19T08:12:18Z</time>
      </trkpt>
      <trkpt lat="45.7144" lon="5.37221">
        <ele>303.4</ele>
        <time>2022-06-19T08:12:19Z</time>
      </trkpt>
      <trkpt lat="45.71465" lon="5.37222">
        <ele>305</ele>
        <time>2022-06-19T08:12:24Z</time>
      </trkpt>
      <trkpt lat="45.7147" lon="5.37222">
        <ele>305.2</ele>
        <time>2022-06-19T08:12:25Z</time>
      </trkpt>
      <trkpt lat="45.71475" lon="5.37223">
        <ele>305.2</ele>
        <time>2022-06-19T08:12:26Z</time>
      </trkpt>
      <trkpt lat="45.71501" lon="5.37232">
        <ele>305.6</ele>
        <time>2022-06-19T08:12:31Z</time>
      </trkpt>
      <trkpt lat="45.71549" lon="5.37252">
        <ele>306</ele>
        <time>2022-06-19T08:12:40Z</time>
      </trkpt>
      <trkpt lat="45.71591" lon="5.3727">
        <ele>306</ele>
        <time>2022-06-19T08:12:47Z</time>
      </trkpt>
      <trkpt lat="45.71631" lon="5.37285">
        <ele>306</ele>
        <time>2022-06-19T08:12:53Z</time>
      </trkpt>
      <trkpt lat="45.71687" lon="5.37307">
        <ele>306</ele>
        <time>2022-06-19T08:13:01Z</time>
      </trkpt>
      <trkpt lat="45.71693" lon="5.3731">
        <ele>306</ele>
        <time>2022-06-19T08:13:02Z</time>
      </trkpt>
      <trkpt lat="45.71738" lon="5.37326">
        <ele>305.8</ele>
        <time>2022-06-19T08:13:09Z</time>
      </trkpt>
      <trkpt lat="45.71775" lon="5.37342">
        <ele>305.8</ele>
        <time>2022-06-19T08:13:16Z</time>
      </trkpt>
      <trkpt lat="45.71812" lon="5.37364">
        <ele>305.6</ele>
        <time>2022-06-19T08:13:24Z</time>
      </trkpt>
      <trkpt lat="45.71817" lon="5.37368">
        <ele>305.6</ele>
        <time>2022-06-19T08:13:25Z</time>
      </trkpt>
      <trkpt lat="45.71861" lon="5.37394">
        <ele>305.6</ele>
        <time>2022-06-19T08:13:33Z</time>
      </trkpt>
      <trkpt lat="45.71914" lon="5.37423">
        <ele>305.2</ele>
        <time>2022-06-19T08:13:42Z</time>
      </trkpt>
      <trkpt lat="45.7192" lon="5.37425">
        <ele>305.2</ele>
        <time>2022-06-19T08:13:43Z</time>
      </trkpt>
      <trkpt lat="45.71974" lon="5.3745">
        <ele>305.6</ele>
        <time>2022-06-19T08:13:52Z</time>
      </trkpt>
      <trkpt lat="45.72023" lon="5.37486">
        <ele>306.4</ele>
        <time>2022-06-19T08:14:01Z</time>
      </trkpt>
      <trkpt lat="45.72049" lon="5.37507">
        <ele>307.2</ele>
        <time>2022-06-19T08:14:06Z</time>
      </trkpt>
      <trkpt lat="45.72065" lon="5.37516">
        <ele>307.8</ele>
        <time>2022-06-19T08:14:10Z</time>
      </trkpt>
      <trkpt lat="45.72086" lon="5.37528">
        <ele>308.2</ele>
        <time>2022-06-19T08:14:13Z</time>
      </trkpt>
      <trkpt lat="45.72091" lon="5.3753">
        <ele>308.2</ele>
        <time>2022-06-19T08:14:14Z</time>
      </trkpt>
      <trkpt lat="45.72107" lon="5.37537">
        <ele>309</ele>
        <time>2022-06-19T08:14:17Z</time>
      </trkpt>
      <trkpt lat="45.72112" lon="5.37539">
        <ele>309.4</ele>
        <time>2022-06-19T08:14:18Z</time>
      </trkpt>
      <trkpt lat="45.72133" lon="5.37549">
        <ele>310.8</ele>
        <time>2022-06-19T08:14:22Z</time>
      </trkpt>
      <trkpt lat="45.72148" lon="5.37556">
        <ele>311.8</ele>
        <time>2022-06-19T08:14:25Z</time>
      </trkpt>
      <trkpt lat="45.72167" lon="5.37569">
        <ele>313</ele>
        <time>2022-06-19T08:14:29Z</time>
      </trkpt>
      <trkpt lat="45.7218" lon="5.37579">
        <ele>314</ele>
        <time>2022-06-19T08:14:32Z</time>
      </trkpt>
      <trkpt lat="45.72184" lon="5.37582">
        <ele>314</ele>
        <time>2022-06-19T08:14:33Z</time>
      </trkpt>
      <trkpt lat="45.72189" lon="5.37586">
        <ele>314.4</ele>
        <time>2022-06-19T08:14:34Z</time>
      </trkpt>
      <trkpt lat="45.72211" lon="5.37604">
        <ele>315.4</ele>
        <time>2022-06-19T08:14:39Z</time>
      </trkpt>
      <trkpt lat="45.72221" lon="5.37611">
        <ele>316.6</ele>
        <time>2022-06-19T08:14:42Z</time>
      </trkpt>
      <trkpt lat="45.72231" lon="5.37618">
        <ele>316.8</ele>
        <time>2022-06-19T08:14:43Z</time>
      </trkpt>
      <trkpt lat="45.72271" lon="5.37648">
        <ele>317.2</ele>
        <time>2022-06-19T08:14:51Z</time>
      </trkpt>
      <trkpt lat="45.72286" lon="5.37658">
        <ele>317.6</ele>
        <time>2022-06-19T08:14:54Z</time>
      </trkpt>
      <trkpt lat="45.72301" lon="5.37665">
        <ele>318.4</ele>
        <time>2022-06-19T08:14:58Z</time>
      </trkpt>
      <trkpt lat="45.72312" lon="5.3767">
        <ele>318.6</ele>
        <time>2022-06-19T08:14:59Z</time>
      </trkpt>
      <trkpt lat="45.72317" lon="5.37671">
        <ele>318.8</ele>
        <time>2022-06-19T08:15:00Z</time>
      </trkpt>
      <trkpt lat="45.72342" lon="5.37676">
        <ele>319.2</ele>
        <time>2022-06-19T08:15:04Z</time>
      </trkpt>
      <trkpt lat="45.72375" lon="5.37682">
        <ele>318.8</ele>
        <time>2022-06-19T08:15:09Z</time>
      </trkpt>
      <trkpt lat="45.72388" lon="5.37689">
        <ele>318.8</ele>
        <time>2022-06-19T08:15:11Z</time>
      </trkpt>
      <trkpt lat="45.72402" lon="5.377">
        <ele>318.4</ele>
        <time>2022-06-19T08:15:13Z</time>
      </trkpt>
      <trkpt lat="45.72415" lon="5.37715">
        <ele>318.4</ele>
        <time>2022-06-19T08:15:15Z</time>
      </trkpt>
      <trkpt lat="45.72446" lon="5.37758">
        <ele>317.2</ele>
        <time>2022-06-19T08:15:20Z</time>
      </trkpt>
      <trkpt lat="45.72458" lon="5.37774">
        <ele>316.8</ele>
        <time>2022-06-19T08:15:22Z</time>
      </trkpt>
      <trkpt lat="45.72506" lon="5.3782">
        <ele>316</ele>
        <time>2022-06-19T08:15:29Z</time>
      </trkpt>
      <trkpt lat="45.72527" lon="5.37831">
        <ele>315.8</ele>
        <time>2022-06-19T08:15:32Z</time>
      </trkpt>
      <trkpt lat="45.72549" lon="5.37841">
        <ele>315.8</ele>
        <time>2022-06-19T08:15:35Z</time>
      </trkpt>
      <trkpt lat="45.72586" lon="5.3785">
        <ele>316.2</ele>
        <time>2022-06-19T08:15:40Z</time>
      </trkpt>
      <trkpt lat="45.72629" lon="5.37863">
        <ele>316.8</ele>
        <time>2022-06-19T08:15:46Z</time>
      </trkpt>
      <trkpt lat="45.72635" lon="5.37867">
        <ele>317.2</ele>
        <time>2022-06-19T08:15:47Z</time>
      </trkpt>
      <trkpt lat="45.72651" lon="5.37883">
        <ele>318</ele>
        <time>2022-06-19T08:15:50Z</time>
      </trkpt>
      <trkpt lat="45.72655" lon="5.37889">
        <ele>318.6</ele>
        <time>2022-06-19T08:15:51Z</time>
      </trkpt>
      <trkpt lat="45.72662" lon="5.379">
        <ele>319.6</ele>
        <time>2022-06-19T08:15:53Z</time>
      </trkpt>
      <trkpt lat="45.72665" lon="5.37905">
        <ele>320</ele>
        <time>2022-06-19T08:15:54Z</time>
      </trkpt>
      <trkpt lat="45.72668" lon="5.37908">
        <ele>320.2</ele>
        <time>2022-06-19T08:15:55Z</time>
      </trkpt>
      <trkpt lat="45.72671" lon="5.37909">
        <ele>320.4</ele>
        <time>2022-06-19T08:15:56Z</time>
      </trkpt>
      <trkpt lat="45.72672" lon="5.37906">
        <ele>320.4</ele>
        <time>2022-06-19T08:15:57Z</time>
      </trkpt>
      <trkpt lat="45.72666" lon="5.37879">
        <ele>320.6</ele>
        <time>2022-06-19T08:16:01Z</time>
      </trkpt>
      <trkpt lat="45.72656" lon="5.37838">
        <ele>320.2</ele>
        <time>2022-06-19T08:16:05Z</time>
      </trkpt>
      <trkpt lat="45.72652" lon="5.37827">
        <ele>320.2</ele>
        <time>2022-06-19T08:16:06Z</time>
      </trkpt>
      <trkpt lat="45.72641" lon="5.37807">
        <ele>320</ele>
        <time>2022-06-19T08:16:08Z</time>
      </trkpt>
      <trkpt lat="45.72641" lon="5.37807">
        <ele>319.8</ele>
        <time>2022-06-19T08:16:09Z</time>
      </trkpt>
      <trkpt lat="45.72607" lon="5.37755">
        <ele>319.4</ele>
        <time>2022-06-19T08:16:13Z</time>
      </trkpt>
      <trkpt lat="45.72592" lon="5.37734">
        <ele>318.4</ele>
        <time>2022-06-19T08:16:15Z</time>
      </trkpt>
      <trkpt lat="45.72577" lon="5.37711">
        <ele>316.6</ele>
        <time>2022-06-19T08:16:17Z</time>
      </trkpt>
      <trkpt lat="45.72563" lon="5.3769">
        <ele>315.6</ele>
        <time>2022-06-19T08:16:19Z</time>
      </trkpt>
      <trkpt lat="45.72541" lon="5.37658">
        <ele>314.6</ele>
        <time>2022-06-19T08:16:22Z</time>
      </trkpt>
      <trkpt lat="45.72527" lon="5.37636">
        <ele>313.4</ele>
        <time>2022-06-19T08:16:24Z</time>
      </trkpt>
      <trkpt lat="45.72516" lon="5.37613">
        <ele>312.4</ele>
        <time>2022-06-19T08:16:26Z</time>
      </trkpt>
      <trkpt lat="45.72512" lon="5.37601">
        <ele>312.2</ele>
        <time>2022-06-19T08:16:27Z</time>
      </trkpt>
      <trkpt lat="45.72502" lon="5.37562">
        <ele>311.2</ele>
        <time>2022-06-19T08:16:30Z</time>
      </trkpt>
      <trkpt lat="45.72499" lon="5.3755">
        <ele>311.2</ele>
        <time>2022-06-19T08:16:31Z</time>
      </trkpt>
      <trkpt lat="45.72478" lon="5.37472">
        <ele>310</ele>
        <time>2022-06-19T08:16:37Z</time>
      </trkpt>
      <trkpt lat="45.72475" lon="5.37459">
        <ele>309.8</ele>
        <time>2022-06-19T08:16:38Z</time>
      </trkpt>
      <trkpt lat="45.72462" lon="5.37408">
        <ele>308.8</ele>
        <time>2022-06-19T08:16:42Z</time>
      </trkpt>
      <trkpt lat="45.7245" lon="5.37358">
        <ele>308</ele>
        <time>2022-06-19T08:16:46Z</time>
      </trkpt>
      <trkpt lat="45.72444" lon="5.37334">
        <ele>307.8</ele>
        <time>2022-06-19T08:16:48Z</time>
      </trkpt>
      <trkpt lat="45.72428" lon="5.37276">
        <ele>307.4</ele>
        <time>2022-06-19T08:16:53Z</time>
      </trkpt>
      <trkpt lat="45.72401" lon="5.37203">
        <ele>308</ele>
        <time>2022-06-19T08:17:00Z</time>
      </trkpt>
      <trkpt lat="45.72383" lon="5.37166">
        <ele>308.8</ele>
        <time>2022-06-19T08:17:04Z</time>
      </trkpt>
      <trkpt lat="45.72373" lon="5.37149">
        <ele>309.2</ele>
        <time>2022-06-19T08:17:06Z</time>
      </trkpt>
      <trkpt lat="45.72334" lon="5.37092">
        <ele>309.6</ele>
        <time>2022-06-19T08:17:13Z</time>
      </trkpt>
      <trkpt lat="45.72312" lon="5.3706">
        <ele>309.8</ele>
        <time>2022-06-19T08:17:17Z</time>
      </trkpt>
      <trkpt lat="45.72274" lon="5.37003">
        <ele>309.6</ele>
        <time>2022-06-19T08:17:24Z</time>
      </trkpt>
      <trkpt lat="45.72263" lon="5.36987">
        <ele>309.2</ele>
        <time>2022-06-19T08:17:26Z</time>
      </trkpt>
      <trkpt lat="45.72247" lon="5.36962">
        <ele>309.2</ele>
        <time>2022-06-19T08:17:29Z</time>
      </trkpt>
      <trkpt lat="45.72206" lon="5.36915">
        <ele>308.4</ele>
        <time>2022-06-19T08:17:35Z</time>
      </trkpt>
      <trkpt lat="45.72177" lon="5.36881">
        <ele>307.6</ele>
        <time>2022-06-19T08:17:39Z</time>
      </trkpt>
      <trkpt lat="45.72172" lon="5.3687">
        <ele>307.4</ele>
        <time>2022-06-19T08:17:40Z</time>
      </trkpt>
      <trkpt lat="45.72168" lon="5.36859">
        <ele>307.2</ele>
        <time>2022-06-19T08:17:41Z</time>
      </trkpt>
      <trkpt lat="45.72162" lon="5.36835">
        <ele>306.6</ele>
        <time>2022-06-19T08:17:43Z</time>
      </trkpt>
      <trkpt lat="45.7216" lon="5.36824">
        <ele>306.6</ele>
        <time>2022-06-19T08:17:44Z</time>
      </trkpt>
      <trkpt lat="45.72153" lon="5.36778">
        <ele>306.6</ele>
        <time>2022-06-19T08:17:48Z</time>
      </trkpt>
      <trkpt lat="45.72147" lon="5.36758">
        <ele>307</ele>
        <time>2022-06-19T08:17:50Z</time>
      </trkpt>
      <trkpt lat="45.72137" lon="5.3674">
        <ele>307.2</ele>
        <time>2022-06-19T08:17:52Z</time>
      </trkpt>
      <trkpt lat="45.72125" lon="5.36726">
        <ele>307.6</ele>
        <time>2022-06-19T08:17:54Z</time>
      </trkpt>
      <trkpt lat="45.72119" lon="5.36719">
        <ele>307.8</ele>
        <time>2022-06-19T08:17:55Z</time>
      </trkpt>
      <trkpt lat="45.72074" lon="5.36672">
        <ele>308.2</ele>
        <time>2022-06-19T08:18:02Z</time>
      </trkpt>
      <trkpt lat="45.72054" lon="5.36652">
        <ele>308.2</ele>
        <time>2022-06-19T08:18:05Z</time>
      </trkpt>
      <trkpt lat="45.72006" lon="5.36605">
        <ele>307.8</ele>
        <time>2022-06-19T08:18:12Z</time>
      </trkpt>
      <trkpt lat="45.71994" lon="5.36591">
        <ele>307.6</ele>
        <time>2022-06-19T08:18:14Z</time>
      </trkpt>
      <trkpt lat="45.71952" lon="5.36535">
        <ele>307.2</ele>
        <time>2022-06-19T08:18:21Z</time>
      </trkpt>
      <trkpt lat="45.71913" lon="5.36478">
        <ele>307</ele>
        <time>2022-06-19T08:18:28Z</time>
      </trkpt>
      <trkpt lat="45.71907" lon="5.3647">
        <ele>307</ele>
        <time>2022-06-19T08:18:29Z</time>
      </trkpt>
      <trkpt lat="45.7188" lon="5.36417">
        <ele>307.2</ele>
        <time>2022-06-19T08:18:35Z</time>
      </trkpt>
      <trkpt lat="45.71853" lon="5.36352">
        <ele>307.4</ele>
        <time>2022-06-19T08:18:42Z</time>
      </trkpt>
      <trkpt lat="45.71822" lon="5.36285">
        <ele>307.6</ele>
        <time>2022-06-19T08:18:49Z</time>
      </trkpt>
      <trkpt lat="45.71817" lon="5.36276">
        <ele>307.6</ele>
        <time>2022-06-19T08:18:50Z</time>
      </trkpt>
      <trkpt lat="45.71779" lon="5.36212">
        <ele>307</ele>
        <time>2022-06-19T08:18:57Z</time>
      </trkpt>
      <trkpt lat="45.71774" lon="5.36203">
        <ele>306.8</ele>
        <time>2022-06-19T08:18:58Z</time>
      </trkpt>
      <trkpt lat="45.7177" lon="5.36196">
        <ele>306.4</ele>
        <time>2022-06-19T08:18:59Z</time>
      </trkpt>
      <trkpt lat="45.71742" lon="5.36151">
        <ele>305.8</ele>
        <time>2022-06-19T08:19:04Z</time>
      </trkpt>
      <trkpt lat="45.71732" lon="5.36132">
        <ele>305.4</ele>
        <time>2022-06-19T08:19:06Z</time>
      </trkpt>
      <trkpt lat="45.71699" lon="5.36079">
        <ele>304.8</ele>
        <time>2022-06-19T08:19:12Z</time>
      </trkpt>
      <trkpt lat="45.71694" lon="5.3607">
        <ele>304.6</ele>
        <time>2022-06-19T08:19:13Z</time>
      </trkpt>
      <trkpt lat="45.71659" lon="5.36011">
        <ele>303.8</ele>
        <time>2022-06-19T08:19:20Z</time>
      </trkpt>
      <trkpt lat="45.71654" lon="5.36002">
        <ele>303.4</ele>
        <time>2022-06-19T08:19:21Z</time>
      </trkpt>
      <trkpt lat="45.7163" lon="5.35947">
        <ele>303.6</ele>
        <time>2022-06-19T08:19:27Z</time>
      </trkpt>
      <trkpt lat="45.71615" lon="5.35879">
        <ele>303.8</ele>
        <time>2022-06-19T08:19:34Z</time>
      </trkpt>
      <trkpt lat="45.71606" lon="5.35826">
        <ele>304.8</ele>
        <time>2022-06-19T08:19:40Z</time>
      </trkpt>
      <trkpt lat="45.71593" lon="5.35768">
        <ele>305.4</ele>
        <time>2022-06-19T08:19:47Z</time>
      </trkpt>
      <trkpt lat="45.71577" lon="5.35697">
        <ele>305.6</ele>
        <time>2022-06-19T08:19:53Z</time>
      </trkpt>
      <trkpt lat="45.71552" lon="5.35628">
        <ele>305.8</ele>
        <time>2022-06-19T08:20:00Z</time>
      </trkpt>
      <trkpt lat="45.71518" lon="5.3557">
        <ele>305.4</ele>
        <time>2022-06-19T08:20:07Z</time>
      </trkpt>
      <trkpt lat="45.71478" lon="5.35508">
        <ele>304.8</ele>
        <time>2022-06-19T08:20:15Z</time>
      </trkpt>
      <trkpt lat="45.71474" lon="5.35499">
        <ele>304.8</ele>
        <time>2022-06-19T08:20:16Z</time>
      </trkpt>
      <trkpt lat="45.71452" lon="5.35452">
        <ele>304.8</ele>
        <time>2022-06-19T08:20:22Z</time>
      </trkpt>
      <trkpt lat="45.71429" lon="5.35397">
        <ele>305.2</ele>
        <time>2022-06-19T08:20:30Z</time>
      </trkpt>
      <trkpt lat="45.71412" lon="5.35368">
        <ele>305.8</ele>
        <time>2022-06-19T08:20:35Z</time>
      </trkpt>
      <trkpt lat="45.71398" lon="5.35345">
        <ele>306.6</ele>
        <time>2022-06-19T08:20:39Z</time>
      </trkpt>
      <trkpt lat="45.7139" lon="5.35335">
        <ele>307</ele>
        <time>2022-06-19T08:20:41Z</time>
      </trkpt>
      <trkpt lat="45.71349" lon="5.35284">
        <ele>308</ele>
        <time>2022-06-19T08:20:51Z</time>
      </trkpt>
      <trkpt lat="45.71332" lon="5.35265">
        <ele>308.2</ele>
        <time>2022-06-19T08:20:55Z</time>
      </trkpt>
      <trkpt lat="45.71312" lon="5.35243">
        <ele>309.2</ele>
        <time>2022-06-19T08:21:00Z</time>
      </trkpt>
      <trkpt lat="45.71304" lon="5.35235">
        <ele>309.8</ele>
        <time>2022-06-19T08:21:02Z</time>
      </trkpt>
      <trkpt lat="45.71289" lon="5.35219">
        <ele>310.6</ele>
        <time>2022-06-19T08:21:06Z</time>
      </trkpt>
      <trkpt lat="45.71278" lon="5.35208">
        <ele>312.2</ele>
        <time>2022-06-19T08:21:09Z</time>
      </trkpt>
      <trkpt lat="45.7127" lon="5.352">
        <ele>312.8</ele>
        <time>2022-06-19T08:21:11Z</time>
      </trkpt>
      <trkpt lat="45.71263" lon="5.35192">
        <ele>314.2</ele>
        <time>2022-06-19T08:21:13Z</time>
      </trkpt>
      <trkpt lat="45.71251" lon="5.3518">
        <ele>315.4</ele>
        <time>2022-06-19T08:21:16Z</time>
      </trkpt>
      <trkpt lat="45.71228" lon="5.35157">
        <ele>316.8</ele>
        <time>2022-06-19T08:21:22Z</time>
      </trkpt>
      <trkpt lat="45.71206" lon="5.35135">
        <ele>318</ele>
        <time>2022-06-19T08:21:28Z</time>
      </trkpt>
      <trkpt lat="45.71194" lon="5.35123">
        <ele>318.6</ele>
        <time>2022-06-19T08:21:31Z</time>
      </trkpt>
      <trkpt lat="45.7119" lon="5.35119">
        <ele>319.2</ele>
        <time>2022-06-19T08:21:32Z</time>
      </trkpt>
      <trkpt lat="45.71163" lon="5.3509">
        <ele>320.2</ele>
        <time>2022-06-19T08:21:39Z</time>
      </trkpt>
      <trkpt lat="45.71159" lon="5.35086">
        <ele>320.2</ele>
        <time>2022-06-19T08:21:40Z</time>
      </trkpt>
      <trkpt lat="45.71137" lon="5.35065">
        <ele>321</ele>
        <time>2022-06-19T08:21:45Z</time>
      </trkpt>
      <trkpt lat="45.71123" lon="5.35051">
        <ele>321.6</ele>
        <time>2022-06-19T08:21:48Z</time>
      </trkpt>
      <trkpt lat="45.71084" lon="5.35009">
        <ele>322</ele>
        <time>2022-06-19T08:21:56Z</time>
      </trkpt>
      <trkpt lat="45.71047" lon="5.34974">
        <ele>321.6</ele>
        <time>2022-06-19T08:22:02Z</time>
      </trkpt>
      <trkpt lat="45.71035" lon="5.34961">
        <ele>321.2</ele>
        <time>2022-06-19T08:22:04Z</time>
      </trkpt>
      <trkpt lat="45.71024" lon="5.34943">
        <ele>321</ele>
        <time>2022-06-19T08:22:06Z</time>
      </trkpt>
      <trkpt lat="45.71019" lon="5.3492">
        <ele>320.8</ele>
        <time>2022-06-19T08:22:08Z</time>
      </trkpt>
      <trkpt lat="45.71019" lon="5.34907">
        <ele>320.8</ele>
        <time>2022-06-19T08:22:09Z</time>
      </trkpt>
      <trkpt lat="45.71021" lon="5.34894">
        <ele>320.4</ele>
        <time>2022-06-19T08:22:10Z</time>
      </trkpt>
      <trkpt lat="45.71025" lon="5.34867">
        <ele>319.8</ele>
        <time>2022-06-19T08:22:12Z</time>
      </trkpt>
      <trkpt lat="45.71028" lon="5.34839">
        <ele>318.8</ele>
        <time>2022-06-19T08:22:14Z</time>
      </trkpt>
      <trkpt lat="45.7103" lon="5.34798">
        <ele>317.6</ele>
        <time>2022-06-19T08:22:17Z</time>
      </trkpt>
      <trkpt lat="45.71032" lon="5.34785">
        <ele>317.4</ele>
        <time>2022-06-19T08:22:18Z</time>
      </trkpt>
      <trkpt lat="45.71042" lon="5.34736">
        <ele>316.4</ele>
        <time>2022-06-19T08:22:22Z</time>
      </trkpt>
      <trkpt lat="45.71045" lon="5.34724">
        <ele>316.4</ele>
        <time>2022-06-19T08:22:23Z</time>
      </trkpt>
      <trkpt lat="45.71064" lon="5.34644">
        <ele>315.6</ele>
        <time>2022-06-19T08:22:30Z</time>
      </trkpt>
      <trkpt lat="45.71068" lon="5.34618">
        <ele>315</ele>
        <time>2022-06-19T08:22:32Z</time>
      </trkpt>
      <trkpt lat="45.71069" lon="5.34583">
        <ele>314.8</ele>
        <time>2022-06-19T08:22:35Z</time>
      </trkpt>
      <trkpt lat="45.7107" lon="5.34513">
        <ele>315</ele>
        <time>2022-06-19T08:22:41Z</time>
      </trkpt>
      <trkpt lat="45.71083" lon="5.34457">
        <ele>314.8</ele>
        <time>2022-06-19T08:22:46Z</time>
      </trkpt>
      <trkpt lat="45.71103" lon="5.34371">
        <ele>314.6</ele>
        <time>2022-06-19T08:22:53Z</time>
      </trkpt>
      <trkpt lat="45.71107" lon="5.34348">
        <ele>314.6</ele>
        <time>2022-06-19T08:22:55Z</time>
      </trkpt>
      <trkpt lat="45.71112" lon="5.34306">
        <ele>314.4</ele>
        <time>2022-06-19T08:22:58Z</time>
      </trkpt>
      <trkpt lat="45.71113" lon="5.34283">
        <ele>314.2</ele>
        <time>2022-06-19T08:23:00Z</time>
      </trkpt>
      <trkpt lat="45.71114" lon="5.3424">
        <ele>313.4</ele>
        <time>2022-06-19T08:23:03Z</time>
      </trkpt>
      <trkpt lat="45.7112" lon="5.34175">
        <ele>312.6</ele>
        <time>2022-06-19T08:23:08Z</time>
      </trkpt>
      <trkpt lat="45.71124" lon="5.34149">
        <ele>312</ele>
        <time>2022-06-19T08:23:10Z</time>
      </trkpt>
      <trkpt lat="45.71135" lon="5.34083">
        <ele>311</ele>
        <time>2022-06-19T08:23:15Z</time>
      </trkpt>
      <trkpt lat="45.71138" lon="5.34057">
        <ele>310</ele>
        <time>2022-06-19T08:23:17Z</time>
      </trkpt>
      <trkpt lat="45.7114" lon="5.34044">
        <ele>310</ele>
        <time>2022-06-19T08:23:18Z</time>
      </trkpt>
      <trkpt lat="45.71151" lon="5.33984">
        <ele>309.2</ele>
        <time>2022-06-19T08:23:23Z</time>
      </trkpt>
      <trkpt lat="45.71156" lon="5.33964">
        <ele>309</ele>
        <time>2022-06-19T08:23:25Z</time>
      </trkpt>
      <trkpt lat="45.7116" lon="5.33953">
        <ele>308.8</ele>
        <time>2022-06-19T08:23:26Z</time>
      </trkpt>
      <trkpt lat="45.71165" lon="5.33941">
        <ele>308.6</ele>
        <time>2022-06-19T08:23:27Z</time>
      </trkpt>
      <trkpt lat="45.71187" lon="5.33912">
        <ele>308.2</ele>
        <time>2022-06-19T08:23:31Z</time>
      </trkpt>
      <trkpt lat="45.71236" lon="5.33861">
        <ele>308.2</ele>
        <time>2022-06-19T08:23:39Z</time>
      </trkpt>
      <trkpt lat="45.71281" lon="5.33812">
        <ele>308.2</ele>
        <time>2022-06-19T08:23:46Z</time>
      </trkpt>
      <trkpt lat="45.71304" lon="5.33786">
        <ele>308.2</ele>
        <time>2022-06-19T08:23:50Z</time>
      </trkpt>
      <trkpt lat="45.71355" lon="5.3373">
        <ele>308</ele>
        <time>2022-06-19T08:23:58Z</time>
      </trkpt>
      <trkpt lat="45.71375" lon="5.33708">
        <ele>308</ele>
        <time>2022-06-19T08:24:01Z</time>
      </trkpt>
      <trkpt lat="45.7141" lon="5.33662">
        <ele>308</ele>
        <time>2022-06-19T08:24:07Z</time>
      </trkpt>
      <trkpt lat="45.71415" lon="5.33654">
        <ele>308</ele>
        <time>2022-06-19T08:24:08Z</time>
      </trkpt>
      <trkpt lat="45.71424" lon="5.33625">
        <ele>308.4</ele>
        <time>2022-06-19T08:24:11Z</time>
      </trkpt>
      <trkpt lat="45.71426" lon="5.33615">
        <ele>308.4</ele>
        <time>2022-06-19T08:24:12Z</time>
      </trkpt>
      <trkpt lat="45.71437" lon="5.33554">
        <ele>309.8</ele>
        <time>2022-06-19T08:24:18Z</time>
      </trkpt>
      <trkpt lat="45.7144" lon="5.33535">
        <ele>310.4</ele>
        <time>2022-06-19T08:24:20Z</time>
      </trkpt>
      <trkpt lat="45.71447" lon="5.33504">
        <ele>311</ele>
        <time>2022-06-19T08:24:23Z</time>
      </trkpt>
      <trkpt lat="45.71454" lon="5.3346">
        <ele>311.6</ele>
        <time>2022-06-19T08:24:27Z</time>
      </trkpt>
      <trkpt lat="45.71455" lon="5.33441">
        <ele>311.8</ele>
        <time>2022-06-19T08:24:29Z</time>
      </trkpt>
      <trkpt lat="45.71453" lon="5.33409">
        <ele>311.8</ele>
        <time>2022-06-19T08:24:32Z</time>
      </trkpt>
      <trkpt lat="45.71453" lon="5.33379">
        <ele>311.6</ele>
        <time>2022-06-19T08:24:35Z</time>
      </trkpt>
      <trkpt lat="45.71454" lon="5.33352">
        <ele>311.2</ele>
        <time>2022-06-19T08:24:37Z</time>
      </trkpt>
      <trkpt lat="45.71456" lon="5.33309">
        <ele>309.8</ele>
        <time>2022-06-19T08:24:41Z</time>
      </trkpt>
      <trkpt lat="45.71456" lon="5.33291">
        <ele>309.6</ele>
        <time>2022-06-19T08:24:43Z</time>
      </trkpt>
      <trkpt lat="45.71458" lon="5.33284">
        <ele>309.6</ele>
        <time>2022-06-19T08:24:44Z</time>
      </trkpt>
      <trkpt lat="45.7146" lon="5.33277">
        <ele>309.6</ele>
        <time>2022-06-19T08:24:45Z</time>
      </trkpt>
      <trkpt lat="45.71471" lon="5.33256">
        <ele>309.6</ele>
        <time>2022-06-19T08:24:48Z</time>
      </trkpt>
      <trkpt lat="45.71492" lon="5.33225">
        <ele>311</ele>
        <time>2022-06-19T08:24:54Z</time>
      </trkpt>
      <trkpt lat="45.715" lon="5.33214">
        <ele>311.2</ele>
        <time>2022-06-19T08:24:56Z</time>
      </trkpt>
      <trkpt lat="45.71506" lon="5.33196">
        <ele>311.8</ele>
        <time>2022-06-19T08:24:59Z</time>
      </trkpt>
      <trkpt lat="45.71507" lon="5.3319">
        <ele>312.2</ele>
        <time>2022-06-19T08:25:00Z</time>
      </trkpt>
      <trkpt lat="45.71514" lon="5.33166">
        <ele>313.4</ele>
        <time>2022-06-19T08:25:04Z</time>
      </trkpt>
      <trkpt lat="45.71522" lon="5.33141">
        <ele>314.8</ele>
        <time>2022-06-19T08:25:08Z</time>
      </trkpt>
      <trkpt lat="45.71526" lon="5.33124">
        <ele>316</ele>
        <time>2022-06-19T08:25:11Z</time>
      </trkpt>
      <trkpt lat="45.71533" lon="5.33107">
        <ele>317</ele>
        <time>2022-06-19T08:25:14Z</time>
      </trkpt>
      <trkpt lat="45.71535" lon="5.33102">
        <ele>317.4</ele>
        <time>2022-06-19T08:25:15Z</time>
      </trkpt>
      <trkpt lat="45.71538" lon="5.33096">
        <ele>317.6</ele>
        <time>2022-06-19T08:25:16Z</time>
      </trkpt>
      <trkpt lat="45.71545" lon="5.33088">
        <ele>318.6</ele>
        <time>2022-06-19T08:25:18Z</time>
      </trkpt>
      <trkpt lat="45.71561" lon="5.33072">
        <ele>319.6</ele>
        <time>2022-06-19T08:25:22Z</time>
      </trkpt>
      <trkpt lat="45.71565" lon="5.33069">
        <ele>319.6</ele>
        <time>2022-06-19T08:25:23Z</time>
      </trkpt>
      <trkpt lat="45.7159" lon="5.33047">
        <ele>320.8</ele>
        <time>2022-06-19T08:25:29Z</time>
      </trkpt>
      <trkpt lat="45.71594" lon="5.33043">
        <ele>321</ele>
        <time>2022-06-19T08:25:30Z</time>
      </trkpt>
      <trkpt lat="45.71618" lon="5.33013">
        <ele>322</ele>
        <time>2022-06-19T08:25:36Z</time>
      </trkpt>
      <trkpt lat="45.71621" lon="5.33007">
        <ele>322.2</ele>
        <time>2022-06-19T08:25:37Z</time>
      </trkpt>
      <trkpt lat="45.71639" lon="5.3298">
        <ele>323.2</ele>
        <time>2022-06-19T08:25:42Z</time>
      </trkpt>
      <trkpt lat="45.71653" lon="5.3296">
        <ele>323.8</ele>
        <time>2022-06-19T08:25:46Z</time>
      </trkpt>
      <trkpt lat="45.71665" lon="5.32945">
        <ele>324.2</ele>
        <time>2022-06-19T08:25:49Z</time>
      </trkpt>
      <trkpt lat="45.71691" lon="5.32913">
        <ele>325</ele>
        <time>2022-06-19T08:25:56Z</time>
      </trkpt>
      <trkpt lat="45.71699" lon="5.32903">
        <ele>325.4</ele>
        <time>2022-06-19T08:25:58Z</time>
      </trkpt>
      <trkpt lat="45.71713" lon="5.32885">
        <ele>326.6</ele>
        <time>2022-06-19T08:26:02Z</time>
      </trkpt>
      <trkpt lat="45.71725" lon="5.3287">
        <ele>327.8</ele>
        <time>2022-06-19T08:26:05Z</time>
      </trkpt>
      <trkpt lat="45.71732" lon="5.32859">
        <ele>328.4</ele>
        <time>2022-06-19T08:26:07Z</time>
      </trkpt>
      <trkpt lat="45.71738" lon="5.32846">
        <ele>329</ele>
        <time>2022-06-19T08:26:09Z</time>
      </trkpt>
      <trkpt lat="45.7174" lon="5.32837">
        <ele>329.4</ele>
        <time>2022-06-19T08:26:10Z</time>
      </trkpt>
      <trkpt lat="45.71741" lon="5.32829">
        <ele>329.4</ele>
        <time>2022-06-19T08:26:11Z</time>
      </trkpt>
      <trkpt lat="45.71741" lon="5.32803">
        <ele>329.8</ele>
        <time>2022-06-19T08:26:14Z</time>
      </trkpt>
      <trkpt lat="45.71741" lon="5.3274">
        <ele>329.6</ele>
        <time>2022-06-19T08:26:20Z</time>
      </trkpt>
      <trkpt lat="45.71745" lon="5.3272">
        <ele>329.4</ele>
        <time>2022-06-19T08:26:22Z</time>
      </trkpt>
      <trkpt lat="45.71755" lon="5.3269">
        <ele>329.2</ele>
        <time>2022-06-19T08:26:25Z</time>
      </trkpt>
      <trkpt lat="45.71783" lon="5.32617">
        <ele>328.6</ele>
        <time>2022-06-19T08:26:32Z</time>
      </trkpt>
      <trkpt lat="45.71798" lon="5.32588">
        <ele>328</ele>
        <time>2022-06-19T08:26:35Z</time>
      </trkpt>
      <trkpt lat="45.71804" lon="5.32579">
        <ele>327.6</ele>
        <time>2022-06-19T08:26:36Z</time>
      </trkpt>
      <trkpt lat="45.71816" lon="5.32564">
        <ele>327</ele>
        <time>2022-06-19T08:26:38Z</time>
      </trkpt>
      <trkpt lat="45.71838" lon="5.32543">
        <ele>326.4</ele>
        <time>2022-06-19T08:26:41Z</time>
      </trkpt>
      <trkpt lat="45.71845" lon="5.32537">
        <ele>326</ele>
        <time>2022-06-19T08:26:42Z</time>
      </trkpt>
      <trkpt lat="45.71865" lon="5.32516">
        <ele>325.8</ele>
        <time>2022-06-19T08:26:45Z</time>
      </trkpt>
      <trkpt lat="45.7187" lon="5.32507">
        <ele>325.8</ele>
        <time>2022-06-19T08:26:46Z</time>
      </trkpt>
      <trkpt lat="45.71873" lon="5.32497">
        <ele>325.8</ele>
        <time>2022-06-19T08:26:47Z</time>
      </trkpt>
      <trkpt lat="45.71875" lon="5.32474">
        <ele>325.8</ele>
        <time>2022-06-19T08:26:49Z</time>
      </trkpt>
      <trkpt lat="45.71869" lon="5.32442">
        <ele>325.8</ele>
        <time>2022-06-19T08:26:52Z</time>
      </trkpt>
      <trkpt lat="45.71852" lon="5.32363">
        <ele>326.4</ele>
        <time>2022-06-19T08:26:59Z</time>
      </trkpt>
      <trkpt lat="45.71848" lon="5.32342">
        <ele>326.6</ele>
        <time>2022-06-19T08:27:01Z</time>
      </trkpt>
      <trkpt lat="45.71841" lon="5.323">
        <ele>327.2</ele>
        <time>2022-06-19T08:27:05Z</time>
      </trkpt>
      <trkpt lat="45.71839" lon="5.32282">
        <ele>327.4</ele>
        <time>2022-06-19T08:27:07Z</time>
      </trkpt>
      <trkpt lat="45.71836" lon="5.32252">
        <ele>327.6</ele>
        <time>2022-06-19T08:27:10Z</time>
      </trkpt>
      <trkpt lat="45.71836" lon="5.32233">
        <ele>327.8</ele>
        <time>2022-06-19T08:27:12Z</time>
      </trkpt>
      <trkpt lat="45.71839" lon="5.32205">
        <ele>328.2</ele>
        <time>2022-06-19T08:27:15Z</time>
      </trkpt>
      <trkpt lat="45.71844" lon="5.32178">
        <ele>329.4</ele>
        <time>2022-06-19T08:27:18Z</time>
      </trkpt>
      <trkpt lat="45.71848" lon="5.3217">
        <ele>329.6</ele>
        <time>2022-06-19T08:27:19Z</time>
      </trkpt>
      <trkpt lat="45.71858" lon="5.32153">
        <ele>330.2</ele>
        <time>2022-06-19T08:27:23Z</time>
      </trkpt>
      <trkpt lat="45.71858" lon="5.32151">
        <ele>330.8</ele>
        <time>2022-06-19T08:27:25Z</time>
      </trkpt>
      <trkpt lat="45.71859" lon="5.3215">
        <ele>331.4</ele>
        <time>2022-06-19T08:27:27Z</time>
      </trkpt>
      <trkpt lat="45.71861" lon="5.32142">
        <ele>332</ele>
        <time>2022-06-19T08:27:30Z</time>
      </trkpt>
      <trkpt lat="45.71862" lon="5.32137">
        <ele>332</ele>
        <time>2022-06-19T08:27:31Z</time>
      </trkpt>
      <trkpt lat="45.71862" lon="5.32132">
        <ele>332.2</ele>
        <time>2022-06-19T08:27:32Z</time>
      </trkpt>
      <trkpt lat="45.71858" lon="5.32114">
        <ele>332.6</ele>
        <time>2022-06-19T08:27:35Z</time>
      </trkpt>
      <trkpt lat="45.7185" lon="5.32086">
        <ele>333</ele>
        <time>2022-06-19T08:27:39Z</time>
      </trkpt>
      <trkpt lat="45.71845" lon="5.3207">
        <ele>333.2</ele>
        <time>2022-06-19T08:27:41Z</time>
      </trkpt>
      <trkpt lat="45.71843" lon="5.32062">
        <ele>333.2</ele>
        <time>2022-06-19T08:27:42Z</time>
      </trkpt>
      <trkpt lat="45.71842" lon="5.32044">
        <ele>333.2</ele>
        <time>2022-06-19T08:27:44Z</time>
      </trkpt>
      <trkpt lat="45.71843" lon="5.32035">
        <ele>333.2</ele>
        <time>2022-06-19T08:27:45Z</time>
      </trkpt>
      <trkpt lat="45.71856" lon="5.31977">
        <ele>332.6</ele>
        <time>2022-06-19T08:27:51Z</time>
      </trkpt>
      <trkpt lat="45.71864" lon="5.31932">
        <ele>331.8</ele>
        <time>2022-06-19T08:27:55Z</time>
      </trkpt>
      <trkpt lat="45.71868" lon="5.31913">
        <ele>331</ele>
        <time>2022-06-19T08:27:57Z</time>
      </trkpt>
      <trkpt lat="45.7187" lon="5.31906">
        <ele>330.6</ele>
        <time>2022-06-19T08:27:58Z</time>
      </trkpt>
      <trkpt lat="45.7187" lon="5.31896">
        <ele>330.2</ele>
        <time>2022-06-19T08:28:00Z</time>
      </trkpt>
      <trkpt lat="45.71865" lon="5.31889">
        <ele>329.6</ele>
        <time>2022-06-19T08:28:02Z</time>
      </trkpt>
      <trkpt lat="45.71862" lon="5.31885">
        <ele>329.4</ele>
        <time>2022-06-19T08:28:03Z</time>
      </trkpt>
      <trkpt lat="45.71858" lon="5.31882">
        <ele>329.2</ele>
        <time>2022-06-19T08:28:04Z</time>
      </trkpt>
      <trkpt lat="45.71831" lon="5.31863">
        <ele>328.6</ele>
        <time>2022-06-19T08:28:10Z</time>
      </trkpt>
      <trkpt lat="45.71826" lon="5.31861">
        <ele>328.6</ele>
        <time>2022-06-19T08:28:11Z</time>
      </trkpt>
      <trkpt lat="45.71797" lon="5.31843">
        <ele>329.4</ele>
        <time>2022-06-19T08:28:18Z</time>
      </trkpt>
      <trkpt lat="45.71789" lon="5.31837">
        <ele>330</ele>
        <time>2022-06-19T08:28:20Z</time>
      </trkpt>
      <trkpt lat="45.71776" lon="5.3183">
        <ele>331.2</ele>
        <time>2022-06-19T08:28:23Z</time>
      </trkpt>
      <trkpt lat="45.71768" lon="5.31825">
        <ele>331.6</ele>
        <time>2022-06-19T08:28:25Z</time>
      </trkpt>
      <trkpt lat="45.71751" lon="5.3182">
        <ele>332.6</ele>
        <time>2022-06-19T08:28:29Z</time>
      </trkpt>
      <trkpt lat="45.71738" lon="5.31819">
        <ele>333.8</ele>
        <time>2022-06-19T08:28:32Z</time>
      </trkpt>
      <trkpt lat="45.71734" lon="5.31819">
        <ele>334</ele>
        <time>2022-06-19T08:28:33Z</time>
      </trkpt>
      <trkpt lat="45.71722" lon="5.31823">
        <ele>334.8</ele>
        <time>2022-06-19T08:28:36Z</time>
      </trkpt>
      <trkpt lat="45.71718" lon="5.31825">
        <ele>335.4</ele>
        <time>2022-06-19T08:28:37Z</time>
      </trkpt>
      <trkpt lat="45.71714" lon="5.31827">
        <ele>335.6</ele>
        <time>2022-06-19T08:28:38Z</time>
      </trkpt>
      <trkpt lat="45.71711" lon="5.31829">
        <ele>336.2</ele>
        <time>2022-06-19T08:28:39Z</time>
      </trkpt>
      <trkpt lat="45.71703" lon="5.31832">
        <ele>337.2</ele>
        <time>2022-06-19T08:28:41Z</time>
      </trkpt>
      <trkpt lat="45.717" lon="5.31833">
        <ele>337.4</ele>
        <time>2022-06-19T08:28:42Z</time>
      </trkpt>
      <trkpt lat="45.71696" lon="5.31833">
        <ele>337.8</ele>
        <time>2022-06-19T08:28:43Z</time>
      </trkpt>
      <trkpt lat="45.71688" lon="5.31834">
        <ele>338.2</ele>
        <time>2022-06-19T08:28:45Z</time>
      </trkpt>
      <trkpt lat="45.71676" lon="5.31837">
        <ele>338.8</ele>
        <time>2022-06-19T08:28:48Z</time>
      </trkpt>
      <trkpt lat="45.71671" lon="5.31838">
        <ele>339.2</ele>
        <time>2022-06-19T08:28:49Z</time>
      </trkpt>
      <trkpt lat="45.71667" lon="5.31839">
        <ele>339.6</ele>
        <time>2022-06-19T08:28:50Z</time>
      </trkpt>
      <trkpt lat="45.71649" lon="5.31841">
        <ele>340</ele>
        <time>2022-06-19T08:28:54Z</time>
      </trkpt>
      <trkpt lat="45.71636" lon="5.31843">
        <ele>340.6</ele>
        <time>2022-06-19T08:28:57Z</time>
      </trkpt>
      <trkpt lat="45.71623" lon="5.31848">
        <ele>341.6</ele>
        <time>2022-06-19T08:29:00Z</time>
      </trkpt>
      <trkpt lat="45.71609" lon="5.31853">
        <ele>342.4</ele>
        <time>2022-06-19T08:29:03Z</time>
      </trkpt>
      <trkpt lat="45.71605" lon="5.31855">
        <ele>342.6</ele>
        <time>2022-06-19T08:29:04Z</time>
      </trkpt>
      <trkpt lat="45.71584" lon="5.31863">
        <ele>343.8</ele>
        <time>2022-06-19T08:29:09Z</time>
      </trkpt>
      <trkpt lat="45.71564" lon="5.3187">
        <ele>344.4</ele>
        <time>2022-06-19T08:29:14Z</time>
      </trkpt>
      <trkpt lat="45.71554" lon="5.31874">
        <ele>344.8</ele>
        <time>2022-06-19T08:29:16Z</time>
      </trkpt>
      <trkpt lat="45.71531" lon="5.31881">
        <ele>345.6</ele>
        <time>2022-06-19T08:29:21Z</time>
      </trkpt>
      <trkpt lat="45.71522" lon="5.31882">
        <ele>345.8</ele>
        <time>2022-06-19T08:29:23Z</time>
      </trkpt>
      <trkpt lat="45.71514" lon="5.31879">
        <ele>346</ele>
        <time>2022-06-19T08:29:25Z</time>
      </trkpt>
      <trkpt lat="45.71504" lon="5.31873">
        <ele>346.2</ele>
        <time>2022-06-19T08:29:27Z</time>
      </trkpt>
      <trkpt lat="45.71501" lon="5.3187">
        <ele>346.4</ele>
        <time>2022-06-19T08:29:28Z</time>
      </trkpt>
      <trkpt lat="45.71476" lon="5.31842">
        <ele>347</ele>
        <time>2022-06-19T08:29:35Z</time>
      </trkpt>
      <trkpt lat="45.71465" lon="5.31829">
        <ele>347.2</ele>
        <time>2022-06-19T08:29:38Z</time>
      </trkpt>
      <trkpt lat="45.71448" lon="5.31807">
        <ele>348.2</ele>
        <time>2022-06-19T08:29:43Z</time>
      </trkpt>
      <trkpt lat="45.71439" lon="5.31791">
        <ele>348.6</ele>
        <time>2022-06-19T08:29:46Z</time>
      </trkpt>
      <trkpt lat="45.71437" lon="5.31785">
        <ele>348.6</ele>
        <time>2022-06-19T08:29:47Z</time>
      </trkpt>
      <trkpt lat="45.71432" lon="5.31769">
        <ele>349</ele>
        <time>2022-06-19T08:29:50Z</time>
      </trkpt>
      <trkpt lat="45.7143" lon="5.31755">
        <ele>349.4</ele>
        <time>2022-06-19T08:29:52Z</time>
      </trkpt>
      <trkpt lat="45.71429" lon="5.31749">
        <ele>349.6</ele>
        <time>2022-06-19T08:29:53Z</time>
      </trkpt>
      <trkpt lat="45.71427" lon="5.31736">
        <ele>350.4</ele>
        <time>2022-06-19T08:29:55Z</time>
      </trkpt>
      <trkpt lat="45.71426" lon="5.31725">
        <ele>351.6</ele>
        <time>2022-06-19T08:29:57Z</time>
      </trkpt>
      <trkpt lat="45.71424" lon="5.31707">
        <ele>352.8</ele>
        <time>2022-06-19T08:30:00Z</time>
      </trkpt>
      <trkpt lat="45.71423" lon="5.31695">
        <ele>354.2</ele>
        <time>2022-06-19T08:30:02Z</time>
      </trkpt>
      <trkpt lat="45.71421" lon="5.31677">
        <ele>355.2</ele>
        <time>2022-06-19T08:30:05Z</time>
      </trkpt>
      <trkpt lat="45.71419" lon="5.31658">
        <ele>356.4</ele>
        <time>2022-06-19T08:30:08Z</time>
      </trkpt>
      <trkpt lat="45.71419" lon="5.31639">
        <ele>357.6</ele>
        <time>2022-06-19T08:30:11Z</time>
      </trkpt>
      <trkpt lat="45.7142" lon="5.31613">
        <ele>358.8</ele>
        <time>2022-06-19T08:30:15Z</time>
      </trkpt>
      <trkpt lat="45.71422" lon="5.31588">
        <ele>359.8</ele>
        <time>2022-06-19T08:30:19Z</time>
      </trkpt>
      <trkpt lat="45.71423" lon="5.31581">
        <ele>360</ele>
        <time>2022-06-19T08:30:20Z</time>
      </trkpt>
      <trkpt lat="45.71426" lon="5.31555">
        <ele>361.2</ele>
        <time>2022-06-19T08:30:24Z</time>
      </trkpt>
      <trkpt lat="45.71428" lon="5.31541">
        <ele>361.8</ele>
        <time>2022-06-19T08:30:26Z</time>
      </trkpt>
      <trkpt lat="45.71431" lon="5.31527">
        <ele>362.2</ele>
        <time>2022-06-19T08:30:28Z</time>
      </trkpt>
      <trkpt lat="45.71444" lon="5.31474">
        <ele>363.4</ele>
        <time>2022-06-19T08:30:36Z</time>
      </trkpt>
      <trkpt lat="45.71454" lon="5.31428">
        <ele>364.4</ele>
        <time>2022-06-19T08:30:42Z</time>
      </trkpt>
      <trkpt lat="45.71458" lon="5.31411">
        <ele>364.8</ele>
        <time>2022-06-19T08:30:44Z</time>
      </trkpt>
      <trkpt lat="45.71469" lon="5.31357">
        <ele>364.8</ele>
        <time>2022-06-19T08:30:50Z</time>
      </trkpt>
      <trkpt lat="45.71479" lon="5.31298">
        <ele>364.8</ele>
        <time>2022-06-19T08:30:56Z</time>
      </trkpt>
      <trkpt lat="45.71483" lon="5.31248">
        <ele>365.2</ele>
        <time>2022-06-19T08:31:01Z</time>
      </trkpt>
      <trkpt lat="45.71482" lon="5.31238">
        <ele>365.2</ele>
        <time>2022-06-19T08:31:02Z</time>
      </trkpt>
      <trkpt lat="45.71479" lon="5.31229">
        <ele>365.4</ele>
        <time>2022-06-19T08:31:03Z</time>
      </trkpt>
      <trkpt lat="45.71474" lon="5.31222">
        <ele>365.4</ele>
        <time>2022-06-19T08:31:04Z</time>
      </trkpt>
      <trkpt lat="45.71468" lon="5.31216">
        <ele>365.4</ele>
        <time>2022-06-19T08:31:05Z</time>
      </trkpt>
      <trkpt lat="45.71453" lon="5.31208">
        <ele>365.4</ele>
        <time>2022-06-19T08:31:07Z</time>
      </trkpt>
      <trkpt lat="45.71398" lon="5.31173">
        <ele>365</ele>
        <time>2022-06-19T08:31:14Z</time>
      </trkpt>
      <trkpt lat="45.71365" lon="5.31152">
        <ele>363.6</ele>
        <time>2022-06-19T08:31:18Z</time>
      </trkpt>
      <trkpt lat="45.71357" lon="5.31145">
        <ele>363.4</ele>
        <time>2022-06-19T08:31:19Z</time>
      </trkpt>
      <trkpt lat="45.7135" lon="5.31135">
        <ele>363.4</ele>
        <time>2022-06-19T08:31:20Z</time>
      </trkpt>
      <trkpt lat="45.71345" lon="5.31124">
        <ele>363</ele>
        <time>2022-06-19T08:31:21Z</time>
      </trkpt>
      <trkpt lat="45.71341" lon="5.31111">
        <ele>362.4</ele>
        <time>2022-06-19T08:31:22Z</time>
      </trkpt>
      <trkpt lat="45.71338" lon="5.31098">
        <ele>362</ele>
        <time>2022-06-19T08:31:23Z</time>
      </trkpt>
      <trkpt lat="45.71335" lon="5.31085">
        <ele>361.2</ele>
        <time>2022-06-19T08:31:24Z</time>
      </trkpt>
      <trkpt lat="45.71331" lon="5.31058">
        <ele>359.8</ele>
        <time>2022-06-19T08:31:26Z</time>
      </trkpt>
      <trkpt lat="45.71317" lon="5.30992">
        <ele>358.8</ele>
        <time>2022-06-19T08:31:31Z</time>
      </trkpt>
      <trkpt lat="45.71311" lon="5.30968">
        <ele>357.6</ele>
        <time>2022-06-19T08:31:33Z</time>
      </trkpt>
      <trkpt lat="45.71305" lon="5.30943">
        <ele>356</ele>
        <time>2022-06-19T08:31:35Z</time>
      </trkpt>
      <trkpt lat="45.71301" lon="5.30918">
        <ele>354</ele>
        <time>2022-06-19T08:31:37Z</time>
      </trkpt>
      <trkpt lat="45.71298" lon="5.30905">
        <ele>353.2</ele>
        <time>2022-06-19T08:31:38Z</time>
      </trkpt>
      <trkpt lat="45.71296" lon="5.30892">
        <ele>352.8</ele>
        <time>2022-06-19T08:31:39Z</time>
      </trkpt>
      <trkpt lat="45.71291" lon="5.30866">
        <ele>351.8</ele>
        <time>2022-06-19T08:31:41Z</time>
      </trkpt>
      <trkpt lat="45.71283" lon="5.30811">
        <ele>350.6</ele>
        <time>2022-06-19T08:31:45Z</time>
      </trkpt>
      <trkpt lat="45.71278" lon="5.30749">
        <ele>349.6</ele>
        <time>2022-06-19T08:31:49Z</time>
      </trkpt>
      <trkpt lat="45.71273" lon="5.30722">
        <ele>348.8</ele>
        <time>2022-06-19T08:31:51Z</time>
      </trkpt>
      <trkpt lat="45.71269" lon="5.30705">
        <ele>348.6</ele>
        <time>2022-06-19T08:31:52Z</time>
      </trkpt>
      <trkpt lat="45.71265" lon="5.30694">
        <ele>348</ele>
        <time>2022-06-19T08:31:53Z</time>
      </trkpt>
      <trkpt lat="45.71254" lon="5.30666">
        <ele>346.8</ele>
        <time>2022-06-19T08:31:55Z</time>
      </trkpt>
      <trkpt lat="45.71243" lon="5.30635">
        <ele>345</ele>
        <time>2022-06-19T08:31:57Z</time>
      </trkpt>
      <trkpt lat="45.71232" lon="5.30608">
        <ele>343.6</ele>
        <time>2022-06-19T08:31:59Z</time>
      </trkpt>
      <trkpt lat="45.7122" lon="5.30583">
        <ele>342</ele>
        <time>2022-06-19T08:32:01Z</time>
      </trkpt>
      <trkpt lat="45.71215" lon="5.30571">
        <ele>341.6</ele>
        <time>2022-06-19T08:32:02Z</time>
      </trkpt>
      <trkpt lat="45.71204" lon="5.30547">
        <ele>340.8</ele>
        <time>2022-06-19T08:32:04Z</time>
      </trkpt>
      <trkpt lat="45.71188" lon="5.30515">
        <ele>339.8</ele>
        <time>2022-06-19T08:32:07Z</time>
      </trkpt>
      <trkpt lat="45.71184" lon="5.30505">
        <ele>339.4</ele>
        <time>2022-06-19T08:32:08Z</time>
      </trkpt>
      <trkpt lat="45.71179" lon="5.30495">
        <ele>338.8</ele>
        <time>2022-06-19T08:32:09Z</time>
      </trkpt>
      <trkpt lat="45.71164" lon="5.30464">
        <ele>337.6</ele>
        <time>2022-06-19T08:32:12Z</time>
      </trkpt>
      <trkpt lat="45.71145" lon="5.30422">
        <ele>336.6</ele>
        <time>2022-06-19T08:32:16Z</time>
      </trkpt>
      <trkpt lat="45.71141" lon="5.30409">
        <ele>336.4</ele>
        <time>2022-06-19T08:32:17Z</time>
      </trkpt>
      <trkpt lat="45.71138" lon="5.30383">
        <ele>336</ele>
        <time>2022-06-19T08:32:19Z</time>
      </trkpt>
      <trkpt lat="45.71142" lon="5.30327">
        <ele>335.4</ele>
        <time>2022-06-19T08:32:23Z</time>
      </trkpt>
      <trkpt lat="45.71145" lon="5.30313">
        <ele>335.4</ele>
        <time>2022-06-19T08:32:24Z</time>
      </trkpt>
      <trkpt lat="45.71153" lon="5.30285">
        <ele>334.4</ele>
        <time>2022-06-19T08:32:26Z</time>
      </trkpt>
      <trkpt lat="45.71166" lon="5.30243">
        <ele>333.6</ele>
        <time>2022-06-19T08:32:29Z</time>
      </trkpt>
      <trkpt lat="45.71171" lon="5.30229">
        <ele>333.2</ele>
        <time>2022-06-19T08:32:30Z</time>
      </trkpt>
      <trkpt lat="45.71174" lon="5.30214">
        <ele>333.2</ele>
        <time>2022-06-19T08:32:31Z</time>
      </trkpt>
      <trkpt lat="45.71182" lon="5.30168">
        <ele>332</ele>
        <time>2022-06-19T08:32:34Z</time>
      </trkpt>
      <trkpt lat="45.71186" lon="5.30137">
        <ele>331</ele>
        <time>2022-06-19T08:32:36Z</time>
      </trkpt>
      <trkpt lat="45.71191" lon="5.30106">
        <ele>329.8</ele>
        <time>2022-06-19T08:32:38Z</time>
      </trkpt>
      <trkpt lat="45.71198" lon="5.30075">
        <ele>328</ele>
        <time>2022-06-19T08:32:40Z</time>
      </trkpt>
      <trkpt lat="45.71209" lon="5.30048">
        <ele>327.4</ele>
        <time>2022-06-19T08:32:42Z</time>
      </trkpt>
      <trkpt lat="45.7122" lon="5.30022">
        <ele>326</ele>
        <time>2022-06-19T08:32:44Z</time>
      </trkpt>
      <trkpt lat="45.71223" lon="5.29996">
        <ele>324.8</ele>
        <time>2022-06-19T08:32:46Z</time>
      </trkpt>
      <trkpt lat="45.71215" lon="5.29955">
        <ele>324</ele>
        <time>2022-06-19T08:32:50Z</time>
      </trkpt>
      <trkpt lat="45.71212" lon="5.29934">
        <ele>324.2</ele>
        <time>2022-06-19T08:32:53Z</time>
      </trkpt>
      <trkpt lat="45.71211" lon="5.29929">
        <ele>324.2</ele>
        <time>2022-06-19T08:32:54Z</time>
      </trkpt>
      <trkpt lat="45.71211" lon="5.299">
        <ele>325.2</ele>
        <time>2022-06-19T08:32:58Z</time>
      </trkpt>
      <trkpt lat="45.71209" lon="5.29888">
        <ele>325.8</ele>
        <time>2022-06-19T08:33:00Z</time>
      </trkpt>
      <trkpt lat="45.71208" lon="5.29882">
        <ele>326</ele>
        <time>2022-06-19T08:33:01Z</time>
      </trkpt>
      <trkpt lat="45.71207" lon="5.29869">
        <ele>327.2</ele>
        <time>2022-06-19T08:33:03Z</time>
      </trkpt>
      <trkpt lat="45.71202" lon="5.29845">
        <ele>328.4</ele>
        <time>2022-06-19T08:33:07Z</time>
      </trkpt>
      <trkpt lat="45.71203" lon="5.29839">
        <ele>328.6</ele>
        <time>2022-06-19T08:33:08Z</time>
      </trkpt>
      <trkpt lat="45.71205" lon="5.29833">
        <ele>329.2</ele>
        <time>2022-06-19T08:33:09Z</time>
      </trkpt>
      <trkpt lat="45.71208" lon="5.29829">
        <ele>329.6</ele>
        <time>2022-06-19T08:33:10Z</time>
      </trkpt>
      <trkpt lat="45.71213" lon="5.29826">
        <ele>330.2</ele>
        <time>2022-06-19T08:33:11Z</time>
      </trkpt>
      <trkpt lat="45.71216" lon="5.29825">
        <ele>330.8</ele>
        <time>2022-06-19T08:33:12Z</time>
      </trkpt>
      <trkpt lat="45.71221" lon="5.29824">
        <ele>331</ele>
        <time>2022-06-19T08:33:13Z</time>
      </trkpt>
      <trkpt lat="45.71236" lon="5.29823">
        <ele>331.8</ele>
        <time>2022-06-19T08:33:16Z</time>
      </trkpt>
      <trkpt lat="45.71241" lon="5.29823">
        <ele>331.8</ele>
        <time>2022-06-19T08:33:17Z</time>
      </trkpt>
      <trkpt lat="45.7127" lon="5.2982">
        <ele>333</ele>
        <time>2022-06-19T08:33:23Z</time>
      </trkpt>
      <trkpt lat="45.71279" lon="5.29818">
        <ele>333.2</ele>
        <time>2022-06-19T08:33:25Z</time>
      </trkpt>
      <trkpt lat="45.71301" lon="5.29813">
        <ele>334</ele>
        <time>2022-06-19T08:33:30Z</time>
      </trkpt>
      <trkpt lat="45.7131" lon="5.29811">
        <ele>334.4</ele>
        <time>2022-06-19T08:33:32Z</time>
      </trkpt>
      <trkpt lat="45.71316" lon="5.2981">
        <ele>334.4</ele>
        <time>2022-06-19T08:33:33Z</time>
      </trkpt>
      <trkpt lat="45.7135" lon="5.29809">
        <ele>335</ele>
        <time>2022-06-19T08:33:40Z</time>
      </trkpt>
      <trkpt lat="45.71355" lon="5.29809">
        <ele>335.2</ele>
        <time>2022-06-19T08:33:41Z</time>
      </trkpt>
      <trkpt lat="45.71387" lon="5.29806">
        <ele>334.4</ele>
        <time>2022-06-19T08:33:47Z</time>
      </trkpt>
      <trkpt lat="45.71412" lon="5.29806">
        <ele>334.4</ele>
        <time>2022-06-19T08:33:51Z</time>
      </trkpt>
      <trkpt lat="45.71419" lon="5.29805">
        <ele>334.4</ele>
        <time>2022-06-19T08:33:52Z</time>
      </trkpt>
      <trkpt lat="45.71439" lon="5.29802">
        <ele>334.4</ele>
        <time>2022-06-19T08:33:55Z</time>
      </trkpt>
      <trkpt lat="45.71452" lon="5.29799">
        <ele>334.2</ele>
        <time>2022-06-19T08:33:57Z</time>
      </trkpt>
      <trkpt lat="45.71463" lon="5.29796">
        <ele>334.2</ele>
        <time>2022-06-19T08:33:59Z</time>
      </trkpt>
      <trkpt lat="45.71475" lon="5.29791">
        <ele>333.8</ele>
        <time>2022-06-19T08:34:01Z</time>
      </trkpt>
      <trkpt lat="45.71481" lon="5.29788">
        <ele>333.8</ele>
        <time>2022-06-19T08:34:02Z</time>
      </trkpt>
      <trkpt lat="45.71489" lon="5.29786">
        <ele>333.8</ele>
        <time>2022-06-19T08:34:03Z</time>
      </trkpt>
      <trkpt lat="45.71499" lon="5.29785">
        <ele>333.8</ele>
        <time>2022-06-19T08:34:05Z</time>
      </trkpt>
      <trkpt lat="45.71505" lon="5.29783">
        <ele>333.8</ele>
        <time>2022-06-19T08:34:06Z</time>
      </trkpt>
      <trkpt lat="45.71523" lon="5.29777">
        <ele>334.2</ele>
        <time>2022-06-19T08:34:09Z</time>
      </trkpt>
      <trkpt lat="45.71546" lon="5.29767">
        <ele>334.8</ele>
        <time>2022-06-19T08:34:13Z</time>
      </trkpt>
      <trkpt lat="45.71551" lon="5.29763">
        <ele>334.8</ele>
        <time>2022-06-19T08:34:14Z</time>
      </trkpt>
      <trkpt lat="45.71556" lon="5.29758">
        <ele>335.2</ele>
        <time>2022-06-19T08:34:15Z</time>
      </trkpt>
      <trkpt lat="45.71578" lon="5.29742">
        <ele>335.8</ele>
        <time>2022-06-19T08:34:19Z</time>
      </trkpt>
      <trkpt lat="45.71615" lon="5.29709">
        <ele>336.4</ele>
        <time>2022-06-19T08:34:26Z</time>
      </trkpt>
      <trkpt lat="45.71625" lon="5.29699">
        <ele>336.4</ele>
        <time>2022-06-19T08:34:28Z</time>
      </trkpt>
      <trkpt lat="45.71667" lon="5.29662">
        <ele>337.4</ele>
        <time>2022-06-19T08:34:36Z</time>
      </trkpt>
      <trkpt lat="45.71673" lon="5.29654">
        <ele>337.4</ele>
        <time>2022-06-19T08:34:37Z</time>
      </trkpt>
      <trkpt lat="45.71681" lon="5.29641">
        <ele>337.4</ele>
        <time>2022-06-19T08:34:39Z</time>
      </trkpt>
      <trkpt lat="45.71688" lon="5.29628">
        <ele>337.4</ele>
        <time>2022-06-19T08:34:41Z</time>
      </trkpt>
      <trkpt lat="45.71693" lon="5.29619">
        <ele>337.4</ele>
        <time>2022-06-19T08:34:42Z</time>
      </trkpt>
      <trkpt lat="45.71721" lon="5.29559">
        <ele>337.8</ele>
        <time>2022-06-19T08:34:51Z</time>
      </trkpt>
      <trkpt lat="45.71724" lon="5.29552">
        <ele>337.8</ele>
        <time>2022-06-19T08:34:52Z</time>
      </trkpt>
      <trkpt lat="45.71734" lon="5.29532">
        <ele>338.2</ele>
        <time>2022-06-19T08:34:55Z</time>
      </trkpt>
      <trkpt lat="45.71736" lon="5.29525">
        <ele>338.2</ele>
        <time>2022-06-19T08:34:56Z</time>
      </trkpt>
      <trkpt lat="45.71737" lon="5.29518">
        <ele>338.4</ele>
        <time>2022-06-19T08:34:57Z</time>
      </trkpt>
      <trkpt lat="45.71749" lon="5.29481">
        <ele>339.2</ele>
        <time>2022-06-19T08:35:02Z</time>
      </trkpt>
      <trkpt lat="45.71751" lon="5.29473">
        <ele>339.6</ele>
        <time>2022-06-19T08:35:03Z</time>
      </trkpt>
      <trkpt lat="45.71764" lon="5.29418">
        <ele>340.8</ele>
        <time>2022-06-19T08:35:10Z</time>
      </trkpt>
      <trkpt lat="45.71774" lon="5.29362">
        <ele>341.4</ele>
        <time>2022-06-19T08:35:17Z</time>
      </trkpt>
      <trkpt lat="45.71774" lon="5.29336">
        <ele>341.6</ele>
        <time>2022-06-19T08:35:21Z</time>
      </trkpt>
      <trkpt lat="45.71773" lon="5.2933">
        <ele>341.8</ele>
        <time>2022-06-19T08:35:22Z</time>
      </trkpt>
      <trkpt lat="45.71773" lon="5.29324">
        <ele>341.8</ele>
        <time>2022-06-19T08:35:23Z</time>
      </trkpt>
      <trkpt lat="45.71775" lon="5.29296">
        <ele>342.4</ele>
        <time>2022-06-19T08:35:27Z</time>
      </trkpt>
      <trkpt lat="45.71776" lon="5.29262">
        <ele>342.6</ele>
        <time>2022-06-19T08:35:31Z</time>
      </trkpt>
      <trkpt lat="45.71775" lon="5.29238">
        <ele>342.8</ele>
        <time>2022-06-19T08:35:34Z</time>
      </trkpt>
      <trkpt lat="45.71775" lon="5.29216">
        <ele>343</ele>
        <time>2022-06-19T08:35:36Z</time>
      </trkpt>
      <trkpt lat="45.71771" lon="5.29195">
        <ele>343</ele>
        <time>2022-06-19T08:35:38Z</time>
      </trkpt>
      <trkpt lat="45.7176" lon="5.29126">
        <ele>342.6</ele>
        <time>2022-06-19T08:35:45Z</time>
      </trkpt>
      <trkpt lat="45.71753" lon="5.2909">
        <ele>342.6</ele>
        <time>2022-06-19T08:35:49Z</time>
      </trkpt>
      <trkpt lat="45.71752" lon="5.29073">
        <ele>342.8</ele>
        <time>2022-06-19T08:35:51Z</time>
      </trkpt>
      <trkpt lat="45.71753" lon="5.29055">
        <ele>342.8</ele>
        <time>2022-06-19T08:35:53Z</time>
      </trkpt>
      <trkpt lat="45.71757" lon="5.29041">
        <ele>342.8</ele>
        <time>2022-06-19T08:35:55Z</time>
      </trkpt>
      <trkpt lat="45.71769" lon="5.28998">
        <ele>343.6</ele>
        <time>2022-06-19T08:36:01Z</time>
      </trkpt>
      <trkpt lat="45.7178" lon="5.28956">
        <ele>344</ele>
        <time>2022-06-19T08:36:06Z</time>
      </trkpt>
      <trkpt lat="45.7178" lon="5.28948">
        <ele>344</ele>
        <time>2022-06-19T08:36:07Z</time>
      </trkpt>
      <trkpt lat="45.71784" lon="5.28889">
        <ele>343.8</ele>
        <time>2022-06-19T08:36:13Z</time>
      </trkpt>
      <trkpt lat="45.71784" lon="5.28879">
        <ele>343.8</ele>
        <time>2022-06-19T08:36:14Z</time>
      </trkpt>
      <trkpt lat="45.7178" lon="5.28826">
        <ele>342.8</ele>
        <time>2022-06-19T08:36:19Z</time>
      </trkpt>
      <trkpt lat="45.7178" lon="5.28817">
        <ele>342.8</ele>
        <time>2022-06-19T08:36:20Z</time>
      </trkpt>
      <trkpt lat="45.71773" lon="5.28763">
        <ele>341.8</ele>
        <time>2022-06-19T08:36:25Z</time>
      </trkpt>
      <trkpt lat="45.71771" lon="5.28753">
        <ele>341.4</ele>
        <time>2022-06-19T08:36:26Z</time>
      </trkpt>
      <trkpt lat="45.71768" lon="5.28743">
        <ele>341.4</ele>
        <time>2022-06-19T08:36:27Z</time>
      </trkpt>
      <trkpt lat="45.71762" lon="5.28726">
        <ele>341</ele>
        <time>2022-06-19T08:36:29Z</time>
      </trkpt>
      <trkpt lat="45.71758" lon="5.28718">
        <ele>340.8</ele>
        <time>2022-06-19T08:36:30Z</time>
      </trkpt>
      <trkpt lat="45.71758" lon="5.28718">
        <ele>340.4</ele>
        <time>2022-06-19T08:36:31Z</time>
      </trkpt>
      <trkpt lat="45.71748" lon="5.28707">
        <ele>340.2</ele>
        <time>2022-06-19T08:36:32Z</time>
      </trkpt>
      <trkpt lat="45.71736" lon="5.287">
        <ele>340</ele>
        <time>2022-06-19T08:36:34Z</time>
      </trkpt>
      <trkpt lat="45.71719" lon="5.28694">
        <ele>340</ele>
        <time>2022-06-19T08:36:37Z</time>
      </trkpt>
      <trkpt lat="45.71709" lon="5.28692">
        <ele>340</ele>
        <time>2022-06-19T08:36:39Z</time>
      </trkpt>
      <trkpt lat="45.71704" lon="5.2869">
        <ele>340</ele>
        <time>2022-06-19T08:36:40Z</time>
      </trkpt>
      <trkpt lat="45.71686" lon="5.28683">
        <ele>340.6</ele>
        <time>2022-06-19T08:36:44Z</time>
      </trkpt>
      <trkpt lat="45.71667" lon="5.2867">
        <ele>341.4</ele>
        <time>2022-06-19T08:36:48Z</time>
      </trkpt>
      <trkpt lat="45.71664" lon="5.28665">
        <ele>341.6</ele>
        <time>2022-06-19T08:36:49Z</time>
      </trkpt>
      <trkpt lat="45.71661" lon="5.28659">
        <ele>341.8</ele>
        <time>2022-06-19T08:36:50Z</time>
      </trkpt>
      <trkpt lat="45.71657" lon="5.28646">
        <ele>342.4</ele>
        <time>2022-06-19T08:36:52Z</time>
      </trkpt>
      <trkpt lat="45.71656" lon="5.2864">
        <ele>343</ele>
        <time>2022-06-19T08:36:53Z</time>
      </trkpt>
      <trkpt lat="45.71654" lon="5.28634">
        <ele>343.4</ele>
        <time>2022-06-19T08:36:54Z</time>
      </trkpt>
      <trkpt lat="45.71648" lon="5.28615">
        <ele>344.2</ele>
        <time>2022-06-19T08:36:57Z</time>
      </trkpt>
      <trkpt lat="45.71648" lon="5.28601">
        <ele>345.6</ele>
        <time>2022-06-19T08:36:59Z</time>
      </trkpt>
      <trkpt lat="45.71651" lon="5.28587">
        <ele>346.6</ele>
        <time>2022-06-19T08:37:01Z</time>
      </trkpt>
      <trkpt lat="45.71658" lon="5.28571">
        <ele>347.8</ele>
        <time>2022-06-19T08:37:03Z</time>
      </trkpt>
      <trkpt lat="45.71677" lon="5.28524">
        <ele>348.6</ele>
        <time>2022-06-19T08:37:08Z</time>
      </trkpt>
      <trkpt lat="45.71681" lon="5.28514">
        <ele>348.6</ele>
        <time>2022-06-19T08:37:09Z</time>
      </trkpt>
      <trkpt lat="45.71698" lon="5.28472">
        <ele>348.4</ele>
        <time>2022-06-19T08:37:13Z</time>
      </trkpt>
      <trkpt lat="45.71709" lon="5.28411">
        <ele>346.4</ele>
        <time>2022-06-19T08:37:18Z</time>
      </trkpt>
      <trkpt lat="45.71714" lon="5.28377">
        <ele>345.4</ele>
        <time>2022-06-19T08:37:21Z</time>
      </trkpt>
      <trkpt lat="45.71719" lon="5.28343">
        <ele>345</ele>
        <time>2022-06-19T08:37:24Z</time>
      </trkpt>
      <trkpt lat="45.71725" lon="5.28299">
        <ele>344.2</ele>
        <time>2022-06-19T08:37:28Z</time>
      </trkpt>
      <trkpt lat="45.7173" lon="5.28265">
        <ele>344.2</ele>
        <time>2022-06-19T08:37:31Z</time>
      </trkpt>
      <trkpt lat="45.7174" lon="5.28197">
        <ele>343</ele>
        <time>2022-06-19T08:37:37Z</time>
      </trkpt>
      <trkpt lat="45.71743" lon="5.28174">
        <ele>342.6</ele>
        <time>2022-06-19T08:37:39Z</time>
      </trkpt>
      <trkpt lat="45.71753" lon="5.28105">
        <ele>341.8</ele>
        <time>2022-06-19T08:37:45Z</time>
      </trkpt>
      <trkpt lat="45.71755" lon="5.28094">
        <ele>341.8</ele>
        <time>2022-06-19T08:37:46Z</time>
      </trkpt>
      <trkpt lat="45.71761" lon="5.28061">
        <ele>341.8</ele>
        <time>2022-06-19T08:37:49Z</time>
      </trkpt>
      <trkpt lat="45.71763" lon="5.28049">
        <ele>341.6</ele>
        <time>2022-06-19T08:37:50Z</time>
      </trkpt>
      <trkpt lat="45.71768" lon="5.28014">
        <ele>340.8</ele>
        <time>2022-06-19T08:37:53Z</time>
      </trkpt>
      <trkpt lat="45.71769" lon="5.28002">
        <ele>340.8</ele>
        <time>2022-06-19T08:37:54Z</time>
      </trkpt>
      <trkpt lat="45.71773" lon="5.27968">
        <ele>339.4</ele>
        <time>2022-06-19T08:37:57Z</time>
      </trkpt>
      <trkpt lat="45.71777" lon="5.27924">
        <ele>338.4</ele>
        <time>2022-06-19T08:38:01Z</time>
      </trkpt>
      <trkpt lat="45.71778" lon="5.27912">
        <ele>338.2</ele>
        <time>2022-06-19T08:38:02Z</time>
      </trkpt>
      <trkpt lat="45.71784" lon="5.27852">
        <ele>337.2</ele>
        <time>2022-06-19T08:38:07Z</time>
      </trkpt>
      <trkpt lat="45.71793" lon="5.27776">
        <ele>335.8</ele>
        <time>2022-06-19T08:38:13Z</time>
      </trkpt>
      <trkpt lat="45.71798" lon="5.27735">
        <ele>334.4</ele>
        <time>2022-06-19T08:38:16Z</time>
      </trkpt>
      <trkpt lat="45.71805" lon="5.27695">
        <ele>333.2</ele>
        <time>2022-06-19T08:38:19Z</time>
      </trkpt>
      <trkpt lat="45.71807" lon="5.27683">
        <ele>331.8</ele>
        <time>2022-06-19T08:38:20Z</time>
      </trkpt>
      <trkpt lat="45.71808" lon="5.27674">
        <ele>331.2</ele>
        <time>2022-06-19T08:38:21Z</time>
      </trkpt>
      <trkpt lat="45.7181" lon="5.27657">
        <ele>330.2</ele>
        <time>2022-06-19T08:38:23Z</time>
      </trkpt>
      <trkpt lat="45.71812" lon="5.27652">
        <ele>329.8</ele>
        <time>2022-06-19T08:38:24Z</time>
      </trkpt>
      <trkpt lat="45.71813" lon="5.27649">
        <ele>328.4</ele>
        <time>2022-06-19T08:38:25Z</time>
      </trkpt>
      <trkpt lat="45.71814" lon="5.27648">
        <ele>327.2</ele>
        <time>2022-06-19T08:38:27Z</time>
      </trkpt>
      <trkpt lat="45.71814" lon="5.27648">
        <ele>326</ele>
        <time>2022-06-19T08:38:28Z</time>
      </trkpt>
      <trkpt lat="45.71814" lon="5.27648">
        <ele>324.8</ele>
        <time>2022-06-19T08:38:29Z</time>
      </trkpt>
      <trkpt lat="45.71814" lon="5.27647">
        <ele>323.6</ele>
        <time>2022-06-19T08:38:31Z</time>
      </trkpt>
      <trkpt lat="45.71816" lon="5.27639">
        <ele>322.2</ele>
        <time>2022-06-19T08:38:34Z</time>
      </trkpt>
      <trkpt lat="45.71813" lon="5.27611">
        <ele>321.4</ele>
        <time>2022-06-19T08:38:39Z</time>
      </trkpt>
      <trkpt lat="45.71811" lon="5.27595">
        <ele>321.2</ele>
        <time>2022-06-19T08:38:41Z</time>
      </trkpt>
      <trkpt lat="45.71807" lon="5.27554">
        <ele>320.6</ele>
        <time>2022-06-19T08:38:46Z</time>
      </trkpt>
      <trkpt lat="45.71808" lon="5.27497">
        <ele>320.2</ele>
        <time>2022-06-19T08:38:52Z</time>
      </trkpt>
      <trkpt lat="45.71809" lon="5.27488">
        <ele>320</ele>
        <time>2022-06-19T08:38:53Z</time>
      </trkpt>
      <trkpt lat="45.71818" lon="5.2743">
        <ele>319.6</ele>
        <time>2022-06-19T08:38:59Z</time>
      </trkpt>
      <trkpt lat="45.71831" lon="5.27365">
        <ele>319</ele>
        <time>2022-06-19T08:39:06Z</time>
      </trkpt>
      <trkpt lat="45.71832" lon="5.27356">
        <ele>319</ele>
        <time>2022-06-19T08:39:07Z</time>
      </trkpt>
      <trkpt lat="45.71844" lon="5.27307">
        <ele>318.8</ele>
        <time>2022-06-19T08:39:13Z</time>
      </trkpt>
      <trkpt lat="45.71853" lon="5.27264">
        <ele>319</ele>
        <time>2022-06-19T08:39:18Z</time>
      </trkpt>
      <trkpt lat="45.71856" lon="5.27256">
        <ele>319</ele>
        <time>2022-06-19T08:39:19Z</time>
      </trkpt>
      <trkpt lat="45.71881" lon="5.27207">
        <ele>319.4</ele>
        <time>2022-06-19T08:39:25Z</time>
      </trkpt>
      <trkpt lat="45.71885" lon="5.27198">
        <ele>319.2</ele>
        <time>2022-06-19T08:39:26Z</time>
      </trkpt>
      <trkpt lat="45.71891" lon="5.27178">
        <ele>319</ele>
        <time>2022-06-19T08:39:28Z</time>
      </trkpt>
      <trkpt lat="45.71896" lon="5.27155">
        <ele>318.6</ele>
        <time>2022-06-19T08:39:30Z</time>
      </trkpt>
      <trkpt lat="45.71897" lon="5.27131">
        <ele>318</ele>
        <time>2022-06-19T08:39:32Z</time>
      </trkpt>
      <trkpt lat="45.71897" lon="5.27119">
        <ele>317.8</ele>
        <time>2022-06-19T08:39:33Z</time>
      </trkpt>
      <trkpt lat="45.719" lon="5.27096">
        <ele>317.2</ele>
        <time>2022-06-19T08:39:35Z</time>
      </trkpt>
      <trkpt lat="45.71902" lon="5.27085">
        <ele>316.8</ele>
        <time>2022-06-19T08:39:36Z</time>
      </trkpt>
      <trkpt lat="45.71906" lon="5.27074">
        <ele>317</ele>
        <time>2022-06-19T08:39:37Z</time>
      </trkpt>
      <trkpt lat="45.71928" lon="5.27025">
        <ele>315.8</ele>
        <time>2022-06-19T08:39:42Z</time>
      </trkpt>
      <trkpt lat="45.71962" lon="5.26963">
        <ele>315</ele>
        <time>2022-06-19T08:39:49Z</time>
      </trkpt>
      <trkpt lat="45.71974" lon="5.26941">
        <ele>314.4</ele>
        <time>2022-06-19T08:39:51Z</time>
      </trkpt>
      <trkpt lat="45.71985" lon="5.26917">
        <ele>313.6</ele>
        <time>2022-06-19T08:39:53Z</time>
      </trkpt>
      <trkpt lat="45.71998" lon="5.26881">
        <ele>312.6</ele>
        <time>2022-06-19T08:39:56Z</time>
      </trkpt>
      <trkpt lat="45.72013" lon="5.26845">
        <ele>311.4</ele>
        <time>2022-06-19T08:39:59Z</time>
      </trkpt>
      <trkpt lat="45.72021" lon="5.26819">
        <ele>310.6</ele>
        <time>2022-06-19T08:40:01Z</time>
      </trkpt>
      <trkpt lat="45.7203" lon="5.26794">
        <ele>310</ele>
        <time>2022-06-19T08:40:03Z</time>
      </trkpt>
      <trkpt lat="45.72053" lon="5.2673">
        <ele>309</ele>
        <time>2022-06-19T08:40:08Z</time>
      </trkpt>
      <trkpt lat="45.72058" lon="5.26718">
        <ele>308.8</ele>
        <time>2022-06-19T08:40:09Z</time>
      </trkpt>
      <trkpt lat="45.72074" lon="5.26682">
        <ele>307.8</ele>
        <time>2022-06-19T08:40:12Z</time>
      </trkpt>
      <trkpt lat="45.72077" lon="5.2667">
        <ele>307.4</ele>
        <time>2022-06-19T08:40:13Z</time>
      </trkpt>
      <trkpt lat="45.72086" lon="5.2663">
        <ele>306.8</ele>
        <time>2022-06-19T08:40:16Z</time>
      </trkpt>
      <trkpt lat="45.72088" lon="5.26617">
        <ele>306.4</ele>
        <time>2022-06-19T08:40:17Z</time>
      </trkpt>
      <trkpt lat="45.72091" lon="5.2659">
        <ele>305.4</ele>
        <time>2022-06-19T08:40:19Z</time>
      </trkpt>
      <trkpt lat="45.7209" lon="5.26564">
        <ele>304.8</ele>
        <time>2022-06-19T08:40:21Z</time>
      </trkpt>
      <trkpt lat="45.7209" lon="5.2655">
        <ele>304.2</ele>
        <time>2022-06-19T08:40:22Z</time>
      </trkpt>
      <trkpt lat="45.72089" lon="5.26481">
        <ele>302.4</ele>
        <time>2022-06-19T08:40:27Z</time>
      </trkpt>
      <trkpt lat="45.7209" lon="5.26467">
        <ele>302.2</ele>
        <time>2022-06-19T08:40:28Z</time>
      </trkpt>
      <trkpt lat="45.72095" lon="5.26427">
        <ele>301</ele>
        <time>2022-06-19T08:40:31Z</time>
      </trkpt>
      <trkpt lat="45.721" lon="5.264">
        <ele>300.6</ele>
        <time>2022-06-19T08:40:33Z</time>
      </trkpt>
      <trkpt lat="45.72105" lon="5.26374">
        <ele>300</ele>
        <time>2022-06-19T08:40:35Z</time>
      </trkpt>
      <trkpt lat="45.72115" lon="5.26321">
        <ele>299</ele>
        <time>2022-06-19T08:40:39Z</time>
      </trkpt>
      <trkpt lat="45.72122" lon="5.26294">
        <ele>298.4</ele>
        <time>2022-06-19T08:40:41Z</time>
      </trkpt>
      <trkpt lat="45.72128" lon="5.26268">
        <ele>297.8</ele>
        <time>2022-06-19T08:40:43Z</time>
      </trkpt>
      <trkpt lat="45.72136" lon="5.26242">
        <ele>297</ele>
        <time>2022-06-19T08:40:45Z</time>
      </trkpt>
      <trkpt lat="45.72141" lon="5.2623">
        <ele>296.8</ele>
        <time>2022-06-19T08:40:46Z</time>
      </trkpt>
      <trkpt lat="45.72147" lon="5.26219">
        <ele>296.4</ele>
        <time>2022-06-19T08:40:47Z</time>
      </trkpt>
      <trkpt lat="45.72169" lon="5.26187">
        <ele>295.6</ele>
        <time>2022-06-19T08:40:50Z</time>
      </trkpt>
      <trkpt lat="45.72176" lon="5.26177">
        <ele>295.2</ele>
        <time>2022-06-19T08:40:51Z</time>
      </trkpt>
      <trkpt lat="45.72198" lon="5.26147">
        <ele>293.6</ele>
        <time>2022-06-19T08:40:54Z</time>
      </trkpt>
      <trkpt lat="45.72217" lon="5.26118">
        <ele>292.8</ele>
        <time>2022-06-19T08:40:57Z</time>
      </trkpt>
      <trkpt lat="45.72223" lon="5.26107">
        <ele>292.4</ele>
        <time>2022-06-19T08:40:58Z</time>
      </trkpt>
      <trkpt lat="45.7224" lon="5.26067">
        <ele>291.4</ele>
        <time>2022-06-19T08:41:01Z</time>
      </trkpt>
      <trkpt lat="45.72243" lon="5.26056">
        <ele>291</ele>
        <time>2022-06-19T08:41:02Z</time>
      </trkpt>
      <trkpt lat="45.72259" lon="5.26013">
        <ele>289.8</ele>
        <time>2022-06-19T08:41:05Z</time>
      </trkpt>
      <trkpt lat="45.72271" lon="5.25989">
        <ele>289</ele>
        <time>2022-06-19T08:41:07Z</time>
      </trkpt>
      <trkpt lat="45.72277" lon="5.25978">
        <ele>288.2</ele>
        <time>2022-06-19T08:41:08Z</time>
      </trkpt>
      <trkpt lat="45.72292" lon="5.25958">
        <ele>287</ele>
        <time>2022-06-19T08:41:10Z</time>
      </trkpt>
      <trkpt lat="45.72306" lon="5.25938">
        <ele>286.4</ele>
        <time>2022-06-19T08:41:12Z</time>
      </trkpt>
      <trkpt lat="45.72313" lon="5.25929">
        <ele>286</ele>
        <time>2022-06-19T08:41:13Z</time>
      </trkpt>
    </trkseg>
  </trk>
</gpx>